<?xml version="1.0" encoding="UTF-8" standalone="no" ?>
<gpx xmlns="http://www.topografix.com/GPX/1/1" xmlns:xsi="http://www.w3.org/2001/XMLSchema-instance" xsi:schemaLocation="http://www.topografix.com/GPX/1/1 http://www.topografix.com/GPX/1/1/gpx.xsd" version="1.1" creator="VisuGPX - https://www.visugpx.com">
  <metadata>
    <name>Bleau Denecourt - rocher canon 38km 31-3-12</name>
    <desc><![CDATA[Enchaînement de singles trialisants pour certains, rapides pour d\'autres, très peu de liaisons]]></desc>
  </metadata>
  <trk>
    <name><![CDATA[bleau 35 km denecourt  technico ludique]]></name>
    <trkseg>
      <trkpt lat="48.44369" lon="2.7176">
        <ele>92</ele>
        <time>2012-03-31T08:54:19Z</time>
      </trkpt>
      <trkpt lat="48.4436" lon="2.71739">
        <ele>91</ele>
        <time>2012-03-31T08:54:24Z</time>
      </trkpt>
      <trkpt lat="48.44345" lon="2.71691">
        <ele>90</ele>
        <time>2012-03-31T08:54:33Z</time>
      </trkpt>
      <trkpt lat="48.44328" lon="2.71638">
        <ele>90</ele>
        <time>2012-03-31T08:54:42Z</time>
      </trkpt>
      <trkpt lat="48.44308" lon="2.7158">
        <ele>90</ele>
        <time>2012-03-31T08:54:52Z</time>
      </trkpt>
      <trkpt lat="48.44294" lon="2.71539">
        <ele>91</ele>
        <time>2012-03-31T08:54:59Z</time>
      </trkpt>
      <trkpt lat="48.44275" lon="2.7148">
        <ele>91</ele>
        <time>2012-03-31T08:55:09Z</time>
      </trkpt>
      <trkpt lat="48.44255" lon="2.71416">
        <ele>90</ele>
        <time>2012-03-31T08:55:20Z</time>
      </trkpt>
      <trkpt lat="48.44235" lon="2.71388">
        <ele>90</ele>
        <time>2012-03-31T08:55:26Z</time>
      </trkpt>
      <trkpt lat="48.44202" lon="2.71355">
        <ele>91</ele>
        <time>2012-03-31T08:55:35Z</time>
      </trkpt>
      <trkpt lat="48.44171" lon="2.71326">
        <ele>91</ele>
        <time>2012-03-31T08:55:43Z</time>
      </trkpt>
      <trkpt lat="48.44146" lon="2.713">
        <ele>91</ele>
        <time>2012-03-31T08:55:50Z</time>
      </trkpt>
      <trkpt lat="48.44116" lon="2.71269">
        <ele>91</ele>
        <time>2012-03-31T08:55:58Z</time>
      </trkpt>
      <trkpt lat="48.4409" lon="2.7124">
        <ele>92</ele>
        <time>2012-03-31T08:56:06Z</time>
      </trkpt>
      <trkpt lat="48.44077" lon="2.71221">
        <ele>97</ele>
        <time>2012-03-31T08:56:11Z</time>
      </trkpt>
      <trkpt lat="48.44075" lon="2.71208">
        <ele>98</ele>
        <time>2012-03-31T08:56:14Z</time>
      </trkpt>
      <trkpt lat="48.44064" lon="2.71201">
        <ele>99</ele>
        <time>2012-03-31T08:56:20Z</time>
      </trkpt>
      <trkpt lat="48.44052" lon="2.71192">
        <ele>99</ele>
        <time>2012-03-31T08:56:26Z</time>
      </trkpt>
      <trkpt lat="48.4404" lon="2.71186">
        <ele>100</ele>
        <time>2012-03-31T08:56:32Z</time>
      </trkpt>
      <trkpt lat="48.44031" lon="2.7118">
        <ele>102</ele>
        <time>2012-03-31T08:56:37Z</time>
      </trkpt>
      <trkpt lat="48.4402" lon="2.71166">
        <ele>104</ele>
        <time>2012-03-31T08:56:43Z</time>
      </trkpt>
      <trkpt lat="48.44009" lon="2.71161">
        <ele>106</ele>
        <time>2012-03-31T08:56:50Z</time>
      </trkpt>
      <trkpt lat="48.44003" lon="2.71159">
        <ele>106</ele>
        <time>2012-03-31T08:56:55Z</time>
      </trkpt>
      <trkpt lat="48.44001" lon="2.71158">
        <ele>106</ele>
        <time>2012-03-31T08:57:01Z</time>
      </trkpt>
      <trkpt lat="48.44" lon="2.71158">
        <ele>109</ele>
        <time>2012-03-31T08:57:03Z</time>
      </trkpt>
      <trkpt lat="48.43995" lon="2.71157">
        <ele>109</ele>
        <time>2012-03-31T08:57:09Z</time>
      </trkpt>
      <trkpt lat="48.43994" lon="2.71156">
        <ele>110</ele>
        <time>2012-03-31T08:57:12Z</time>
      </trkpt>
      <trkpt lat="48.43989" lon="2.71152">
        <ele>110</ele>
        <time>2012-03-31T08:57:17Z</time>
      </trkpt>
      <trkpt lat="48.43982" lon="2.71145">
        <ele>111</ele>
        <time>2012-03-31T08:57:23Z</time>
      </trkpt>
      <trkpt lat="48.43975" lon="2.71139">
        <ele>111</ele>
        <time>2012-03-31T08:57:29Z</time>
      </trkpt>
      <trkpt lat="48.43965" lon="2.7114">
        <ele>112</ele>
        <time>2012-03-31T08:57:36Z</time>
      </trkpt>
      <trkpt lat="48.43958" lon="2.71141">
        <ele>112</ele>
        <time>2012-03-31T08:57:42Z</time>
      </trkpt>
      <trkpt lat="48.43955" lon="2.7114">
        <ele>112</ele>
        <time>2012-03-31T08:57:47Z</time>
      </trkpt>
      <trkpt lat="48.4395" lon="2.71139">
        <ele>113</ele>
        <time>2012-03-31T08:57:52Z</time>
      </trkpt>
      <trkpt lat="48.43948" lon="2.71141">
        <ele>113</ele>
        <time>2012-03-31T08:57:54Z</time>
      </trkpt>
      <trkpt lat="48.43943" lon="2.71139">
        <ele>113</ele>
        <time>2012-03-31T08:57:59Z</time>
      </trkpt>
      <trkpt lat="48.43941" lon="2.71139">
        <ele>113</ele>
        <time>2012-03-31T08:58:06Z</time>
      </trkpt>
      <trkpt lat="48.4394" lon="2.71137">
        <ele>113</ele>
        <time>2012-03-31T08:58:10Z</time>
      </trkpt>
      <trkpt lat="48.43931" lon="2.71136">
        <ele>114</ele>
        <time>2012-03-31T08:58:14Z</time>
      </trkpt>
      <trkpt lat="48.43916" lon="2.7113">
        <ele>114</ele>
        <time>2012-03-31T08:58:20Z</time>
      </trkpt>
      <trkpt lat="48.43906" lon="2.71124">
        <ele>114</ele>
        <time>2012-03-31T08:58:26Z</time>
      </trkpt>
      <trkpt lat="48.43903" lon="2.71121">
        <ele>114</ele>
        <time>2012-03-31T08:58:31Z</time>
      </trkpt>
      <trkpt lat="48.43904" lon="2.71123">
        <ele>114</ele>
        <time>2012-03-31T08:58:38Z</time>
      </trkpt>
      <trkpt lat="48.43905" lon="2.71126">
        <ele>114</ele>
        <time>2012-03-31T08:58:45Z</time>
      </trkpt>
      <trkpt lat="48.439" lon="2.71124">
        <ele>114</ele>
        <time>2012-03-31T08:59:21Z</time>
      </trkpt>
      <trkpt lat="48.43903" lon="2.71124">
        <ele>114</ele>
        <time>2012-03-31T09:00:12Z</time>
      </trkpt>
      <trkpt lat="48.43905" lon="2.71128">
        <ele>114</ele>
        <time>2012-03-31T09:00:25Z</time>
      </trkpt>
      <trkpt lat="48.43903" lon="2.7114">
        <ele>114</ele>
        <time>2012-03-31T09:00:29Z</time>
      </trkpt>
      <trkpt lat="48.43901" lon="2.71157">
        <ele>114</ele>
        <time>2012-03-31T09:00:32Z</time>
      </trkpt>
      <trkpt lat="48.43905" lon="2.71179">
        <ele>112</ele>
        <time>2012-03-31T09:00:35Z</time>
      </trkpt>
      <trkpt lat="48.43919" lon="2.71226">
        <ele>112</ele>
        <time>2012-03-31T09:00:41Z</time>
      </trkpt>
      <trkpt lat="48.43921" lon="2.71255">
        <ele>111</ele>
        <time>2012-03-31T09:00:45Z</time>
      </trkpt>
      <trkpt lat="48.43919" lon="2.71264">
        <ele>110</ele>
        <time>2012-03-31T09:00:47Z</time>
      </trkpt>
      <trkpt lat="48.4391" lon="2.71302">
        <ele>108</ele>
        <time>2012-03-31T09:00:54Z</time>
      </trkpt>
      <trkpt lat="48.4391" lon="2.71321">
        <ele>109</ele>
        <time>2012-03-31T09:01:02Z</time>
      </trkpt>
      <trkpt lat="48.4391" lon="2.71331">
        <ele>109</ele>
        <time>2012-03-31T09:01:08Z</time>
      </trkpt>
      <trkpt lat="48.43905" lon="2.71341">
        <ele>107</ele>
        <time>2012-03-31T09:01:13Z</time>
      </trkpt>
      <trkpt lat="48.43905" lon="2.71343">
        <ele>107</ele>
        <time>2012-03-31T09:01:14Z</time>
      </trkpt>
      <trkpt lat="48.43908" lon="2.7135">
        <ele>107</ele>
        <time>2012-03-31T09:01:21Z</time>
      </trkpt>
      <trkpt lat="48.43907" lon="2.71353">
        <ele>106</ele>
        <time>2012-03-31T09:01:25Z</time>
      </trkpt>
      <trkpt lat="48.43908" lon="2.7136">
        <ele>106</ele>
        <time>2012-03-31T09:01:29Z</time>
      </trkpt>
      <trkpt lat="48.43907" lon="2.71364">
        <ele>106</ele>
        <time>2012-03-31T09:01:31Z</time>
      </trkpt>
      <trkpt lat="48.43907" lon="2.71371">
        <ele>105</ele>
        <time>2012-03-31T09:01:34Z</time>
      </trkpt>
      <trkpt lat="48.43908" lon="2.7138">
        <ele>105</ele>
        <time>2012-03-31T09:01:38Z</time>
      </trkpt>
      <trkpt lat="48.4391" lon="2.71385">
        <ele>105</ele>
        <time>2012-03-31T09:01:41Z</time>
      </trkpt>
      <trkpt lat="48.43911" lon="2.7139">
        <ele>104</ele>
        <time>2012-03-31T09:01:48Z</time>
      </trkpt>
      <trkpt lat="48.43909" lon="2.71398">
        <ele>104</ele>
        <time>2012-03-31T09:01:58Z</time>
      </trkpt>
      <trkpt lat="48.43913" lon="2.71402">
        <ele>104</ele>
        <time>2012-03-31T09:02:04Z</time>
      </trkpt>
      <trkpt lat="48.43914" lon="2.71401">
        <ele>104</ele>
        <time>2012-03-31T09:02:06Z</time>
      </trkpt>
      <trkpt lat="48.43917" lon="2.71403">
        <ele>103</ele>
        <time>2012-03-31T09:02:11Z</time>
      </trkpt>
      <trkpt lat="48.43919" lon="2.71404">
        <ele>103</ele>
        <time>2012-03-31T09:02:13Z</time>
      </trkpt>
      <trkpt lat="48.43924" lon="2.71425">
        <ele>101</ele>
        <time>2012-03-31T09:02:19Z</time>
      </trkpt>
      <trkpt lat="48.43926" lon="2.7144">
        <ele>99</ele>
        <time>2012-03-31T09:02:23Z</time>
      </trkpt>
      <trkpt lat="48.43927" lon="2.7144">
        <ele>99</ele>
        <time>2012-03-31T09:02:28Z</time>
      </trkpt>
      <trkpt lat="48.43926" lon="2.71434">
        <ele>100</ele>
        <time>2012-03-31T09:02:32Z</time>
      </trkpt>
      <trkpt lat="48.43925" lon="2.71431">
        <ele>100</ele>
        <time>2012-03-31T09:02:37Z</time>
      </trkpt>
      <trkpt lat="48.43926" lon="2.71432">
        <ele>100</ele>
        <time>2012-03-31T09:02:42Z</time>
      </trkpt>
      <trkpt lat="48.43928" lon="2.71443">
        <ele>99</ele>
        <time>2012-03-31T09:02:46Z</time>
      </trkpt>
      <trkpt lat="48.43928" lon="2.71447">
        <ele>99</ele>
        <time>2012-03-31T09:02:50Z</time>
      </trkpt>
      <trkpt lat="48.43928" lon="2.71449">
        <ele>98</ele>
        <time>2012-03-31T09:02:54Z</time>
      </trkpt>
      <trkpt lat="48.43932" lon="2.71469">
        <ele>97</ele>
        <time>2012-03-31T09:02:59Z</time>
      </trkpt>
      <trkpt lat="48.43929" lon="2.71478">
        <ele>97</ele>
        <time>2012-03-31T09:03:02Z</time>
      </trkpt>
      <trkpt lat="48.43927" lon="2.71483">
        <ele>97</ele>
        <time>2012-03-31T09:03:08Z</time>
      </trkpt>
      <trkpt lat="48.43924" lon="2.71492">
        <ele>96</ele>
        <time>2012-03-31T09:03:13Z</time>
      </trkpt>
      <trkpt lat="48.43919" lon="2.71507">
        <ele>96</ele>
        <time>2012-03-31T09:03:18Z</time>
      </trkpt>
      <trkpt lat="48.43911" lon="2.71529">
        <ele>96</ele>
        <time>2012-03-31T09:03:22Z</time>
      </trkpt>
      <trkpt lat="48.43906" lon="2.71538">
        <ele>96</ele>
        <time>2012-03-31T09:03:24Z</time>
      </trkpt>
      <trkpt lat="48.43888" lon="2.71542">
        <ele>97</ele>
        <time>2012-03-31T09:03:28Z</time>
      </trkpt>
      <trkpt lat="48.43876" lon="2.7154">
        <ele>96</ele>
        <time>2012-03-31T09:03:31Z</time>
      </trkpt>
      <trkpt lat="48.43872" lon="2.71541">
        <ele>96</ele>
        <time>2012-03-31T09:03:32Z</time>
      </trkpt>
      <trkpt lat="48.43855" lon="2.71553">
        <ele>97</ele>
        <time>2012-03-31T09:03:37Z</time>
      </trkpt>
      <trkpt lat="48.43846" lon="2.71574">
        <ele>97</ele>
        <time>2012-03-31T09:03:42Z</time>
      </trkpt>
      <trkpt lat="48.43843" lon="2.71583">
        <ele>98</ele>
        <time>2012-03-31T09:03:46Z</time>
      </trkpt>
      <trkpt lat="48.43841" lon="2.71585">
        <ele>98</ele>
        <time>2012-03-31T09:03:51Z</time>
      </trkpt>
      <trkpt lat="48.4384" lon="2.71585">
        <ele>98</ele>
        <time>2012-03-31T09:04:15Z</time>
      </trkpt>
      <trkpt lat="48.43838" lon="2.71588">
        <ele>98</ele>
        <time>2012-03-31T09:04:33Z</time>
      </trkpt>
      <trkpt lat="48.43833" lon="2.71597">
        <ele>98</ele>
        <time>2012-03-31T09:04:38Z</time>
      </trkpt>
      <trkpt lat="48.43832" lon="2.716">
        <ele>98</ele>
        <time>2012-03-31T09:04:39Z</time>
      </trkpt>
      <trkpt lat="48.43829" lon="2.71627">
        <ele>99</ele>
        <time>2012-03-31T09:04:45Z</time>
      </trkpt>
      <trkpt lat="48.43829" lon="2.71641">
        <ele>99</ele>
        <time>2012-03-31T09:04:48Z</time>
      </trkpt>
      <trkpt lat="48.4382" lon="2.7166">
        <ele>99</ele>
        <time>2012-03-31T09:04:52Z</time>
      </trkpt>
      <trkpt lat="48.43808" lon="2.71703">
        <ele>98</ele>
        <time>2012-03-31T09:04:58Z</time>
      </trkpt>
      <trkpt lat="48.43807" lon="2.71725">
        <ele>98</ele>
        <time>2012-03-31T09:05:01Z</time>
      </trkpt>
      <trkpt lat="48.43801" lon="2.71744">
        <ele>98</ele>
        <time>2012-03-31T09:05:04Z</time>
      </trkpt>
      <trkpt lat="48.43789" lon="2.71769">
        <ele>98</ele>
        <time>2012-03-31T09:05:08Z</time>
      </trkpt>
      <trkpt lat="48.43779" lon="2.71778">
        <ele>98</ele>
        <time>2012-03-31T09:05:10Z</time>
      </trkpt>
      <trkpt lat="48.43769" lon="2.71788">
        <ele>98</ele>
        <time>2012-03-31T09:05:12Z</time>
      </trkpt>
      <trkpt lat="48.4375" lon="2.71815">
        <ele>98</ele>
        <time>2012-03-31T09:05:17Z</time>
      </trkpt>
      <trkpt lat="48.43738" lon="2.71841">
        <ele>100</ele>
        <time>2012-03-31T09:05:21Z</time>
      </trkpt>
      <trkpt lat="48.43723" lon="2.71867">
        <ele>100</ele>
        <time>2012-03-31T09:05:26Z</time>
      </trkpt>
      <trkpt lat="48.43713" lon="2.71873">
        <ele>100</ele>
        <time>2012-03-31T09:05:29Z</time>
      </trkpt>
      <trkpt lat="48.43709" lon="2.71872">
        <ele>100</ele>
        <time>2012-03-31T09:05:30Z</time>
      </trkpt>
      <trkpt lat="48.43701" lon="2.71869">
        <ele>100</ele>
        <time>2012-03-31T09:05:34Z</time>
      </trkpt>
      <trkpt lat="48.43693" lon="2.71875">
        <ele>100</ele>
        <time>2012-03-31T09:05:39Z</time>
      </trkpt>
      <trkpt lat="48.43685" lon="2.71884">
        <ele>101</ele>
        <time>2012-03-31T09:05:43Z</time>
      </trkpt>
      <trkpt lat="48.43683" lon="2.71886">
        <ele>101</ele>
        <time>2012-03-31T09:05:44Z</time>
      </trkpt>
      <trkpt lat="48.43662" lon="2.71906">
        <ele>102</ele>
        <time>2012-03-31T09:05:50Z</time>
      </trkpt>
      <trkpt lat="48.43648" lon="2.71924">
        <ele>102</ele>
        <time>2012-03-31T09:05:54Z</time>
      </trkpt>
      <trkpt lat="48.43641" lon="2.71947">
        <ele>102</ele>
        <time>2012-03-31T09:05:58Z</time>
      </trkpt>
      <trkpt lat="48.43638" lon="2.71968">
        <ele>102</ele>
        <time>2012-03-31T09:06:01Z</time>
      </trkpt>
      <trkpt lat="48.43626" lon="2.71977">
        <ele>102</ele>
        <time>2012-03-31T09:06:05Z</time>
      </trkpt>
      <trkpt lat="48.43621" lon="2.71993">
        <ele>102</ele>
        <time>2012-03-31T09:06:08Z</time>
      </trkpt>
      <trkpt lat="48.43618" lon="2.72001">
        <ele>102</ele>
        <time>2012-03-31T09:06:10Z</time>
      </trkpt>
      <trkpt lat="48.43612" lon="2.72029">
        <ele>102</ele>
        <time>2012-03-31T09:06:15Z</time>
      </trkpt>
      <trkpt lat="48.43602" lon="2.72055">
        <ele>103</ele>
        <time>2012-03-31T09:06:20Z</time>
      </trkpt>
      <trkpt lat="48.436" lon="2.72061">
        <ele>103</ele>
        <time>2012-03-31T09:06:21Z</time>
      </trkpt>
      <trkpt lat="48.43587" lon="2.72091">
        <ele>104</ele>
        <time>2012-03-31T09:06:26Z</time>
      </trkpt>
      <trkpt lat="48.43584" lon="2.72107">
        <ele>103</ele>
        <time>2012-03-31T09:06:30Z</time>
      </trkpt>
      <trkpt lat="48.43584" lon="2.72113">
        <ele>103</ele>
        <time>2012-03-31T09:06:34Z</time>
      </trkpt>
      <trkpt lat="48.43585" lon="2.72117">
        <ele>103</ele>
        <time>2012-03-31T09:06:40Z</time>
      </trkpt>
      <trkpt lat="48.43588" lon="2.72128">
        <ele>103</ele>
        <time>2012-03-31T09:06:45Z</time>
      </trkpt>
      <trkpt lat="48.43587" lon="2.72142">
        <ele>103</ele>
        <time>2012-03-31T09:06:50Z</time>
      </trkpt>
      <trkpt lat="48.43589" lon="2.72159">
        <ele>104</ele>
        <time>2012-03-31T09:06:55Z</time>
      </trkpt>
      <trkpt lat="48.4359" lon="2.72167">
        <ele>104</ele>
        <time>2012-03-31T09:06:57Z</time>
      </trkpt>
      <trkpt lat="48.43584" lon="2.72182">
        <ele>104</ele>
        <time>2012-03-31T09:07:01Z</time>
      </trkpt>
      <trkpt lat="48.43577" lon="2.72185">
        <ele>106</ele>
        <time>2012-03-31T09:07:04Z</time>
      </trkpt>
      <trkpt lat="48.43566" lon="2.72194">
        <ele>107</ele>
        <time>2012-03-31T09:07:10Z</time>
      </trkpt>
      <trkpt lat="48.43558" lon="2.722">
        <ele>107</ele>
        <time>2012-03-31T09:07:15Z</time>
      </trkpt>
      <trkpt lat="48.43552" lon="2.72205">
        <ele>107</ele>
        <time>2012-03-31T09:07:18Z</time>
      </trkpt>
      <trkpt lat="48.43543" lon="2.72208">
        <ele>108</ele>
        <time>2012-03-31T09:07:24Z</time>
      </trkpt>
      <trkpt lat="48.43535" lon="2.72214">
        <ele>108</ele>
        <time>2012-03-31T09:07:29Z</time>
      </trkpt>
      <trkpt lat="48.43526" lon="2.72225">
        <ele>108</ele>
        <time>2012-03-31T09:07:34Z</time>
      </trkpt>
      <trkpt lat="48.43515" lon="2.72246">
        <ele>109</ele>
        <time>2012-03-31T09:07:41Z</time>
      </trkpt>
      <trkpt lat="48.43513" lon="2.72266">
        <ele>109</ele>
        <time>2012-03-31T09:07:46Z</time>
      </trkpt>
      <trkpt lat="48.43508" lon="2.72295">
        <ele>109</ele>
        <time>2012-03-31T09:07:52Z</time>
      </trkpt>
      <trkpt lat="48.43502" lon="2.72319">
        <ele>109</ele>
        <time>2012-03-31T09:07:57Z</time>
      </trkpt>
      <trkpt lat="48.43497" lon="2.72348">
        <ele>115</ele>
        <time>2012-03-31T09:08:02Z</time>
      </trkpt>
      <trkpt lat="48.43497" lon="2.72361">
        <ele>116</ele>
        <time>2012-03-31T09:08:06Z</time>
      </trkpt>
      <trkpt lat="48.43495" lon="2.72373">
        <ele>117</ele>
        <time>2012-03-31T09:08:11Z</time>
      </trkpt>
      <trkpt lat="48.4349" lon="2.72383">
        <ele>117</ele>
        <time>2012-03-31T09:08:16Z</time>
      </trkpt>
      <trkpt lat="48.43487" lon="2.724">
        <ele>116</ele>
        <time>2012-03-31T09:08:23Z</time>
      </trkpt>
      <trkpt lat="48.43485" lon="2.72411">
        <ele>116</ele>
        <time>2012-03-31T09:08:27Z</time>
      </trkpt>
      <trkpt lat="48.43483" lon="2.72424">
        <ele>117</ele>
        <time>2012-03-31T09:08:32Z</time>
      </trkpt>
      <trkpt lat="48.43481" lon="2.72441">
        <ele>119</ele>
        <time>2012-03-31T09:08:39Z</time>
      </trkpt>
      <trkpt lat="48.43478" lon="2.72456">
        <ele>120</ele>
        <time>2012-03-31T09:08:46Z</time>
      </trkpt>
      <trkpt lat="48.43473" lon="2.72464">
        <ele>121</ele>
        <time>2012-03-31T09:08:50Z</time>
      </trkpt>
      <trkpt lat="48.43465" lon="2.72478">
        <ele>121</ele>
        <time>2012-03-31T09:08:56Z</time>
      </trkpt>
      <trkpt lat="48.43455" lon="2.72488">
        <ele>123</ele>
        <time>2012-03-31T09:09:03Z</time>
      </trkpt>
      <trkpt lat="48.43451" lon="2.72492">
        <ele>123</ele>
        <time>2012-03-31T09:09:05Z</time>
      </trkpt>
      <trkpt lat="48.43444" lon="2.72497">
        <ele>124</ele>
        <time>2012-03-31T09:09:10Z</time>
      </trkpt>
      <trkpt lat="48.43441" lon="2.72501">
        <ele>125</ele>
        <time>2012-03-31T09:09:13Z</time>
      </trkpt>
      <trkpt lat="48.43435" lon="2.72515">
        <ele>126</ele>
        <time>2012-03-31T09:09:20Z</time>
      </trkpt>
      <trkpt lat="48.43433" lon="2.72518">
        <ele>126</ele>
        <time>2012-03-31T09:09:22Z</time>
      </trkpt>
      <trkpt lat="48.43431" lon="2.72526">
        <ele>125</ele>
        <time>2012-03-31T09:09:27Z</time>
      </trkpt>
      <trkpt lat="48.43429" lon="2.72531">
        <ele>125</ele>
        <time>2012-03-31T09:09:33Z</time>
      </trkpt>
      <trkpt lat="48.43427" lon="2.72533">
        <ele>125</ele>
        <time>2012-03-31T09:09:43Z</time>
      </trkpt>
      <trkpt lat="48.43427" lon="2.72539">
        <ele>125</ele>
        <time>2012-03-31T09:09:48Z</time>
      </trkpt>
      <trkpt lat="48.43425" lon="2.72554">
        <ele>125</ele>
        <time>2012-03-31T09:09:54Z</time>
      </trkpt>
      <trkpt lat="48.43426" lon="2.72567">
        <ele>126</ele>
        <time>2012-03-31T09:09:58Z</time>
      </trkpt>
      <trkpt lat="48.43434" lon="2.7259">
        <ele>125</ele>
        <time>2012-03-31T09:10:03Z</time>
      </trkpt>
      <trkpt lat="48.43437" lon="2.72599">
        <ele>124</ele>
        <time>2012-03-31T09:10:05Z</time>
      </trkpt>
      <trkpt lat="48.43437" lon="2.72608">
        <ele>124</ele>
        <time>2012-03-31T09:10:08Z</time>
      </trkpt>
      <trkpt lat="48.4343" lon="2.72607">
        <ele>124</ele>
        <time>2012-03-31T09:10:15Z</time>
      </trkpt>
      <trkpt lat="48.43429" lon="2.72606">
        <ele>125</ele>
        <time>2012-03-31T09:10:17Z</time>
      </trkpt>
      <trkpt lat="48.43425" lon="2.72605">
        <ele>125</ele>
        <time>2012-03-31T09:10:23Z</time>
      </trkpt>
      <trkpt lat="48.43424" lon="2.72606">
        <ele>125</ele>
        <time>2012-03-31T09:10:27Z</time>
      </trkpt>
      <trkpt lat="48.4342" lon="2.7261">
        <ele>125</ele>
        <time>2012-03-31T09:10:33Z</time>
      </trkpt>
      <trkpt lat="48.43418" lon="2.7261">
        <ele>125</ele>
        <time>2012-03-31T09:10:39Z</time>
      </trkpt>
      <trkpt lat="48.43417" lon="2.7261">
        <ele>126</ele>
        <time>2012-03-31T09:10:46Z</time>
      </trkpt>
      <trkpt lat="48.43413" lon="2.72604">
        <ele>126</ele>
        <time>2012-03-31T09:10:52Z</time>
      </trkpt>
      <trkpt lat="48.43409" lon="2.72601">
        <ele>126</ele>
        <time>2012-03-31T09:10:59Z</time>
      </trkpt>
      <trkpt lat="48.43405" lon="2.72602">
        <ele>126</ele>
        <time>2012-03-31T09:11:06Z</time>
      </trkpt>
      <trkpt lat="48.434" lon="2.72601">
        <ele>126</ele>
        <time>2012-03-31T09:11:12Z</time>
      </trkpt>
      <trkpt lat="48.43399" lon="2.72599">
        <ele>125</ele>
        <time>2012-03-31T09:11:19Z</time>
      </trkpt>
      <trkpt lat="48.43389" lon="2.72591">
        <ele>125</ele>
        <time>2012-03-31T09:11:29Z</time>
      </trkpt>
      <trkpt lat="48.43383" lon="2.72583">
        <ele>126</ele>
        <time>2012-03-31T09:11:39Z</time>
      </trkpt>
      <trkpt lat="48.43383" lon="2.72582">
        <ele>126</ele>
        <time>2012-03-31T09:11:51Z</time>
      </trkpt>
      <trkpt lat="48.43383" lon="2.72582">
        <ele>126</ele>
        <time>2012-03-31T09:12:09Z</time>
      </trkpt>
      <trkpt lat="48.43383" lon="2.72583">
        <ele>126</ele>
        <time>2012-03-31T09:12:11Z</time>
      </trkpt>
      <trkpt lat="48.43387" lon="2.72578">
        <ele>126</ele>
        <time>2012-03-31T09:12:17Z</time>
      </trkpt>
      <trkpt lat="48.43386" lon="2.72575">
        <ele>126</ele>
        <time>2012-03-31T09:12:23Z</time>
      </trkpt>
      <trkpt lat="48.43384" lon="2.72571">
        <ele>126</ele>
        <time>2012-03-31T09:12:27Z</time>
      </trkpt>
      <trkpt lat="48.43381" lon="2.72559">
        <ele>126</ele>
        <time>2012-03-31T09:12:36Z</time>
      </trkpt>
      <trkpt lat="48.43382" lon="2.72551">
        <ele>126</ele>
        <time>2012-03-31T09:12:43Z</time>
      </trkpt>
      <trkpt lat="48.43381" lon="2.72542">
        <ele>126</ele>
        <time>2012-03-31T09:12:50Z</time>
      </trkpt>
      <trkpt lat="48.43381" lon="2.72533">
        <ele>126</ele>
        <time>2012-03-31T09:12:57Z</time>
      </trkpt>
      <trkpt lat="48.4338" lon="2.72529">
        <ele>126</ele>
        <time>2012-03-31T09:13:01Z</time>
      </trkpt>
      <trkpt lat="48.43376" lon="2.72518">
        <ele>126</ele>
        <time>2012-03-31T09:13:09Z</time>
      </trkpt>
      <trkpt lat="48.43377" lon="2.72515">
        <ele>126</ele>
        <time>2012-03-31T09:13:14Z</time>
      </trkpt>
      <trkpt lat="48.43378" lon="2.72512">
        <ele>126</ele>
        <time>2012-03-31T09:13:22Z</time>
      </trkpt>
      <trkpt lat="48.43378" lon="2.72511">
        <ele>126</ele>
        <time>2012-03-31T09:13:28Z</time>
      </trkpt>
      <trkpt lat="48.43378" lon="2.72512">
        <ele>126</ele>
        <time>2012-03-31T09:13:53Z</time>
      </trkpt>
      <trkpt lat="48.43379" lon="2.72513">
        <ele>126</ele>
        <time>2012-03-31T09:13:54Z</time>
      </trkpt>
      <trkpt lat="48.43378" lon="2.72524">
        <ele>126</ele>
        <time>2012-03-31T09:14:00Z</time>
      </trkpt>
      <trkpt lat="48.43377" lon="2.72527">
        <ele>126</ele>
        <time>2012-03-31T09:14:02Z</time>
      </trkpt>
      <trkpt lat="48.4338" lon="2.72534">
        <ele>126</ele>
        <time>2012-03-31T09:14:08Z</time>
      </trkpt>
      <trkpt lat="48.43382" lon="2.7254">
        <ele>126</ele>
        <time>2012-03-31T09:14:14Z</time>
      </trkpt>
      <trkpt lat="48.43382" lon="2.72548">
        <ele>126</ele>
        <time>2012-03-31T09:14:20Z</time>
      </trkpt>
      <trkpt lat="48.43382" lon="2.72554">
        <ele>126</ele>
        <time>2012-03-31T09:14:24Z</time>
      </trkpt>
      <trkpt lat="48.43383" lon="2.72567">
        <ele>126</ele>
        <time>2012-03-31T09:14:30Z</time>
      </trkpt>
      <trkpt lat="48.43391" lon="2.72578">
        <ele>126</ele>
        <time>2012-03-31T09:14:38Z</time>
      </trkpt>
      <trkpt lat="48.43393" lon="2.72578">
        <ele>127</ele>
        <time>2012-03-31T09:14:39Z</time>
      </trkpt>
      <trkpt lat="48.43394" lon="2.72571">
        <ele>127</ele>
        <time>2012-03-31T09:14:43Z</time>
      </trkpt>
      <trkpt lat="48.43391" lon="2.72562">
        <ele>126</ele>
        <time>2012-03-31T09:14:52Z</time>
      </trkpt>
      <trkpt lat="48.43391" lon="2.72556">
        <ele>126</ele>
        <time>2012-03-31T09:14:57Z</time>
      </trkpt>
      <trkpt lat="48.4339" lon="2.7254">
        <ele>127</ele>
        <time>2012-03-31T09:15:01Z</time>
      </trkpt>
      <trkpt lat="48.4339" lon="2.72523">
        <ele>127</ele>
        <time>2012-03-31T09:15:05Z</time>
      </trkpt>
      <trkpt lat="48.43388" lon="2.72512">
        <ele>127</ele>
        <time>2012-03-31T09:15:10Z</time>
      </trkpt>
      <trkpt lat="48.4339" lon="2.72498">
        <ele>128</ele>
        <time>2012-03-31T09:15:15Z</time>
      </trkpt>
      <trkpt lat="48.43394" lon="2.72481">
        <ele>128</ele>
        <time>2012-03-31T09:15:19Z</time>
      </trkpt>
      <trkpt lat="48.43402" lon="2.72458">
        <ele>128</ele>
        <time>2012-03-31T09:15:25Z</time>
      </trkpt>
      <trkpt lat="48.43407" lon="2.7244">
        <ele>128</ele>
        <time>2012-03-31T09:15:30Z</time>
      </trkpt>
      <trkpt lat="48.4341" lon="2.72413">
        <ele>128</ele>
        <time>2012-03-31T09:15:35Z</time>
      </trkpt>
      <trkpt lat="48.4341" lon="2.72396">
        <ele>128</ele>
        <time>2012-03-31T09:15:38Z</time>
      </trkpt>
      <trkpt lat="48.43406" lon="2.72382">
        <ele>127</ele>
        <time>2012-03-31T09:15:43Z</time>
      </trkpt>
      <trkpt lat="48.43401" lon="2.72368">
        <ele>127</ele>
        <time>2012-03-31T09:15:47Z</time>
      </trkpt>
      <trkpt lat="48.43394" lon="2.72353">
        <ele>127</ele>
        <time>2012-03-31T09:15:51Z</time>
      </trkpt>
      <trkpt lat="48.4339" lon="2.72336">
        <ele>127</ele>
        <time>2012-03-31T09:15:55Z</time>
      </trkpt>
      <trkpt lat="48.43395" lon="2.72316">
        <ele>127</ele>
        <time>2012-03-31T09:15:59Z</time>
      </trkpt>
      <trkpt lat="48.43407" lon="2.72291">
        <ele>127</ele>
        <time>2012-03-31T09:16:04Z</time>
      </trkpt>
      <trkpt lat="48.43409" lon="2.72276">
        <ele>127</ele>
        <time>2012-03-31T09:16:08Z</time>
      </trkpt>
      <trkpt lat="48.43414" lon="2.72259">
        <ele>128</ele>
        <time>2012-03-31T09:16:12Z</time>
      </trkpt>
      <trkpt lat="48.43419" lon="2.72242">
        <ele>126</ele>
        <time>2012-03-31T09:16:16Z</time>
      </trkpt>
      <trkpt lat="48.43424" lon="2.72232">
        <ele>123</ele>
        <time>2012-03-31T09:16:19Z</time>
      </trkpt>
      <trkpt lat="48.43426" lon="2.72224">
        <ele>122</ele>
        <time>2012-03-31T09:16:21Z</time>
      </trkpt>
      <trkpt lat="48.43429" lon="2.72204">
        <ele>121</ele>
        <time>2012-03-31T09:16:26Z</time>
      </trkpt>
      <trkpt lat="48.43425" lon="2.72186">
        <ele>121</ele>
        <time>2012-03-31T09:16:30Z</time>
      </trkpt>
      <trkpt lat="48.43423" lon="2.72178">
        <ele>121</ele>
        <time>2012-03-31T09:16:35Z</time>
      </trkpt>
      <trkpt lat="48.43422" lon="2.72176">
        <ele>121</ele>
        <time>2012-03-31T09:16:39Z</time>
      </trkpt>
      <trkpt lat="48.43428" lon="2.72173">
        <ele>121</ele>
        <time>2012-03-31T09:16:43Z</time>
      </trkpt>
      <trkpt lat="48.4344" lon="2.72156">
        <ele>118</ele>
        <time>2012-03-31T09:16:47Z</time>
      </trkpt>
      <trkpt lat="48.43444" lon="2.72145">
        <ele>117</ele>
        <time>2012-03-31T09:16:49Z</time>
      </trkpt>
      <trkpt lat="48.43447" lon="2.72122">
        <ele>117</ele>
        <time>2012-03-31T09:16:54Z</time>
      </trkpt>
      <trkpt lat="48.43454" lon="2.72095">
        <ele>116</ele>
        <time>2012-03-31T09:16:59Z</time>
      </trkpt>
      <trkpt lat="48.43466" lon="2.72059">
        <ele>114</ele>
        <time>2012-03-31T09:17:05Z</time>
      </trkpt>
      <trkpt lat="48.43468" lon="2.72053">
        <ele>114</ele>
        <time>2012-03-31T09:17:06Z</time>
      </trkpt>
      <trkpt lat="48.4347" lon="2.72039">
        <ele>114</ele>
        <time>2012-03-31T09:17:08Z</time>
      </trkpt>
      <trkpt lat="48.43469" lon="2.72012">
        <ele>114</ele>
        <time>2012-03-31T09:17:12Z</time>
      </trkpt>
      <trkpt lat="48.43467" lon="2.71978">
        <ele>113</ele>
        <time>2012-03-31T09:17:18Z</time>
      </trkpt>
      <trkpt lat="48.43465" lon="2.71966">
        <ele>113</ele>
        <time>2012-03-31T09:17:20Z</time>
      </trkpt>
      <trkpt lat="48.43472" lon="2.71939">
        <ele>113</ele>
        <time>2012-03-31T09:17:25Z</time>
      </trkpt>
      <trkpt lat="48.43475" lon="2.71928">
        <ele>113</ele>
        <time>2012-03-31T09:17:27Z</time>
      </trkpt>
      <trkpt lat="48.43474" lon="2.71902">
        <ele>112</ele>
        <time>2012-03-31T09:17:32Z</time>
      </trkpt>
      <trkpt lat="48.43474" lon="2.71895">
        <ele>113</ele>
        <time>2012-03-31T09:17:35Z</time>
      </trkpt>
      <trkpt lat="48.43471" lon="2.71876">
        <ele>113</ele>
        <time>2012-03-31T09:17:40Z</time>
      </trkpt>
      <trkpt lat="48.43471" lon="2.71872">
        <ele>113</ele>
        <time>2012-03-31T09:17:41Z</time>
      </trkpt>
      <trkpt lat="48.43472" lon="2.71867">
        <ele>113</ele>
        <time>2012-03-31T09:17:43Z</time>
      </trkpt>
      <trkpt lat="48.43472" lon="2.71855">
        <ele>113</ele>
        <time>2012-03-31T09:17:47Z</time>
      </trkpt>
      <trkpt lat="48.43477" lon="2.71848">
        <ele>112</ele>
        <time>2012-03-31T09:17:50Z</time>
      </trkpt>
      <trkpt lat="48.43483" lon="2.71831">
        <ele>113</ele>
        <time>2012-03-31T09:17:55Z</time>
      </trkpt>
      <trkpt lat="48.43484" lon="2.71828">
        <ele>113</ele>
        <time>2012-03-31T09:17:56Z</time>
      </trkpt>
      <trkpt lat="48.43491" lon="2.71809">
        <ele>113</ele>
        <time>2012-03-31T09:18:01Z</time>
      </trkpt>
      <trkpt lat="48.4349" lon="2.71795">
        <ele>114</ele>
        <time>2012-03-31T09:18:04Z</time>
      </trkpt>
      <trkpt lat="48.43491" lon="2.7178">
        <ele>114</ele>
        <time>2012-03-31T09:18:09Z</time>
      </trkpt>
      <trkpt lat="48.43489" lon="2.7177">
        <ele>114</ele>
        <time>2012-03-31T09:18:13Z</time>
      </trkpt>
      <trkpt lat="48.4349" lon="2.71766">
        <ele>114</ele>
        <time>2012-03-31T09:18:15Z</time>
      </trkpt>
      <trkpt lat="48.43493" lon="2.71755">
        <ele>115</ele>
        <time>2012-03-31T09:18:20Z</time>
      </trkpt>
      <trkpt lat="48.43494" lon="2.71745">
        <ele>115</ele>
        <time>2012-03-31T09:18:24Z</time>
      </trkpt>
      <trkpt lat="48.43495" lon="2.71736">
        <ele>116</ele>
        <time>2012-03-31T09:18:29Z</time>
      </trkpt>
      <trkpt lat="48.43495" lon="2.71731">
        <ele>116</ele>
        <time>2012-03-31T09:18:35Z</time>
      </trkpt>
      <trkpt lat="48.43496" lon="2.71726">
        <ele>116</ele>
        <time>2012-03-31T09:18:42Z</time>
      </trkpt>
      <trkpt lat="48.43497" lon="2.71725">
        <ele>116</ele>
        <time>2012-03-31T09:18:44Z</time>
      </trkpt>
      <trkpt lat="48.435" lon="2.71717">
        <ele>113</ele>
        <time>2012-03-31T09:18:50Z</time>
      </trkpt>
      <trkpt lat="48.43506" lon="2.71708">
        <ele>113</ele>
        <time>2012-03-31T09:18:54Z</time>
      </trkpt>
      <trkpt lat="48.43508" lon="2.71705">
        <ele>113</ele>
        <time>2012-03-31T09:18:55Z</time>
      </trkpt>
      <trkpt lat="48.43508" lon="2.71692">
        <ele>114</ele>
        <time>2012-03-31T09:19:00Z</time>
      </trkpt>
      <trkpt lat="48.4351" lon="2.71684">
        <ele>114</ele>
        <time>2012-03-31T09:19:03Z</time>
      </trkpt>
      <trkpt lat="48.4351" lon="2.71681">
        <ele>114</ele>
        <time>2012-03-31T09:19:04Z</time>
      </trkpt>
      <trkpt lat="48.4351" lon="2.71667">
        <ele>115</ele>
        <time>2012-03-31T09:19:08Z</time>
      </trkpt>
      <trkpt lat="48.43509" lon="2.71654">
        <ele>116</ele>
        <time>2012-03-31T09:19:10Z</time>
      </trkpt>
      <trkpt lat="48.43517" lon="2.71619">
        <ele>115</ele>
        <time>2012-03-31T09:19:16Z</time>
      </trkpt>
      <trkpt lat="48.43518" lon="2.71617">
        <ele>115</ele>
        <time>2012-03-31T09:19:17Z</time>
      </trkpt>
      <trkpt lat="48.43522" lon="2.71607">
        <ele>115</ele>
        <time>2012-03-31T09:19:25Z</time>
      </trkpt>
      <trkpt lat="48.43531" lon="2.71599">
        <ele>114</ele>
        <time>2012-03-31T09:19:31Z</time>
      </trkpt>
      <trkpt lat="48.43534" lon="2.71589">
        <ele>114</ele>
        <time>2012-03-31T09:19:35Z</time>
      </trkpt>
      <trkpt lat="48.43539" lon="2.71573">
        <ele>114</ele>
        <time>2012-03-31T09:19:39Z</time>
      </trkpt>
      <trkpt lat="48.43544" lon="2.71564">
        <ele>113</ele>
        <time>2012-03-31T09:19:41Z</time>
      </trkpt>
      <trkpt lat="48.43549" lon="2.71559">
        <ele>113</ele>
        <time>2012-03-31T09:19:43Z</time>
      </trkpt>
      <trkpt lat="48.43551" lon="2.71552">
        <ele>113</ele>
        <time>2012-03-31T09:19:49Z</time>
      </trkpt>
      <trkpt lat="48.43551" lon="2.7155">
        <ele>113</ele>
        <time>2012-03-31T09:19:56Z</time>
      </trkpt>
      <trkpt lat="48.43551" lon="2.71549">
        <ele>113</ele>
        <time>2012-03-31T09:19:57Z</time>
      </trkpt>
      <trkpt lat="48.43555" lon="2.71529">
        <ele>113</ele>
        <time>2012-03-31T09:20:02Z</time>
      </trkpt>
      <trkpt lat="48.43559" lon="2.71526">
        <ele>112</ele>
        <time>2012-03-31T09:20:05Z</time>
      </trkpt>
      <trkpt lat="48.4356" lon="2.71526">
        <ele>112</ele>
        <time>2012-03-31T09:20:06Z</time>
      </trkpt>
      <trkpt lat="48.43569" lon="2.71518">
        <ele>111</ele>
        <time>2012-03-31T09:20:11Z</time>
      </trkpt>
      <trkpt lat="48.43579" lon="2.71516">
        <ele>110</ele>
        <time>2012-03-31T09:20:15Z</time>
      </trkpt>
      <trkpt lat="48.4358" lon="2.71517">
        <ele>110</ele>
        <time>2012-03-31T09:20:17Z</time>
      </trkpt>
      <trkpt lat="48.43573" lon="2.7152">
        <ele>111</ele>
        <time>2012-03-31T09:20:24Z</time>
      </trkpt>
      <trkpt lat="48.43573" lon="2.71522">
        <ele>111</ele>
        <time>2012-03-31T09:20:28Z</time>
      </trkpt>
      <trkpt lat="48.4357" lon="2.71525">
        <ele>111</ele>
        <time>2012-03-31T09:20:35Z</time>
      </trkpt>
      <trkpt lat="48.43567" lon="2.71527">
        <ele>112</ele>
        <time>2012-03-31T09:20:41Z</time>
      </trkpt>
      <trkpt lat="48.43565" lon="2.71527">
        <ele>112</ele>
        <time>2012-03-31T09:20:47Z</time>
      </trkpt>
      <trkpt lat="48.43564" lon="2.71529">
        <ele>112</ele>
        <time>2012-03-31T09:20:49Z</time>
      </trkpt>
      <trkpt lat="48.43562" lon="2.71537">
        <ele>112</ele>
        <time>2012-03-31T09:20:56Z</time>
      </trkpt>
      <trkpt lat="48.43561" lon="2.71544">
        <ele>112</ele>
        <time>2012-03-31T09:21:02Z</time>
      </trkpt>
      <trkpt lat="48.43558" lon="2.71548">
        <ele>112</ele>
        <time>2012-03-31T09:21:08Z</time>
      </trkpt>
      <trkpt lat="48.43555" lon="2.7155">
        <ele>113</ele>
        <time>2012-03-31T09:21:14Z</time>
      </trkpt>
      <trkpt lat="48.43551" lon="2.71551">
        <ele>113</ele>
        <time>2012-03-31T09:21:21Z</time>
      </trkpt>
      <trkpt lat="48.43547" lon="2.7155">
        <ele>113</ele>
        <time>2012-03-31T09:21:27Z</time>
      </trkpt>
      <trkpt lat="48.43544" lon="2.71546">
        <ele>113</ele>
        <time>2012-03-31T09:21:33Z</time>
      </trkpt>
      <trkpt lat="48.43541" lon="2.71543">
        <ele>114</ele>
        <time>2012-03-31T09:21:40Z</time>
      </trkpt>
      <trkpt lat="48.4354" lon="2.71542">
        <ele>114</ele>
        <time>2012-03-31T09:22:02Z</time>
      </trkpt>
      <trkpt lat="48.43539" lon="2.71542">
        <ele>114</ele>
        <time>2012-03-31T09:22:26Z</time>
      </trkpt>
      <trkpt lat="48.43532" lon="2.71535">
        <ele>114</ele>
        <time>2012-03-31T09:24:18Z</time>
      </trkpt>
      <trkpt lat="48.4353" lon="2.71523">
        <ele>114</ele>
        <time>2012-03-31T09:24:23Z</time>
      </trkpt>
      <trkpt lat="48.4353" lon="2.7152">
        <ele>114</ele>
        <time>2012-03-31T09:24:24Z</time>
      </trkpt>
      <trkpt lat="48.43529" lon="2.71515">
        <ele>115</ele>
        <time>2012-03-31T09:24:29Z</time>
      </trkpt>
      <trkpt lat="48.43528" lon="2.71514">
        <ele>115</ele>
        <time>2012-03-31T09:24:30Z</time>
      </trkpt>
      <trkpt lat="48.43522" lon="2.71503">
        <ele>116</ele>
        <time>2012-03-31T09:24:35Z</time>
      </trkpt>
      <trkpt lat="48.43517" lon="2.71496">
        <ele>115</ele>
        <time>2012-03-31T09:24:37Z</time>
      </trkpt>
      <trkpt lat="48.43506" lon="2.71483">
        <ele>116</ele>
        <time>2012-03-31T09:24:41Z</time>
      </trkpt>
      <trkpt lat="48.43493" lon="2.71467">
        <ele>118</ele>
        <time>2012-03-31T09:24:45Z</time>
      </trkpt>
      <trkpt lat="48.43477" lon="2.71455">
        <ele>118</ele>
        <time>2012-03-31T09:24:50Z</time>
      </trkpt>
      <trkpt lat="48.43472" lon="2.7145">
        <ele>118</ele>
        <time>2012-03-31T09:24:52Z</time>
      </trkpt>
      <trkpt lat="48.43459" lon="2.71436">
        <ele>118</ele>
        <time>2012-03-31T09:24:56Z</time>
      </trkpt>
      <trkpt lat="48.43441" lon="2.71413">
        <ele>118</ele>
        <time>2012-03-31T09:25:01Z</time>
      </trkpt>
      <trkpt lat="48.43428" lon="2.71397">
        <ele>119</ele>
        <time>2012-03-31T09:25:05Z</time>
      </trkpt>
      <trkpt lat="48.43428" lon="2.71375">
        <ele>119</ele>
        <time>2012-03-31T09:25:10Z</time>
      </trkpt>
      <trkpt lat="48.43427" lon="2.71367">
        <ele>119</ele>
        <time>2012-03-31T09:25:16Z</time>
      </trkpt>
      <trkpt lat="48.43427" lon="2.71354">
        <ele>119</ele>
        <time>2012-03-31T09:25:21Z</time>
      </trkpt>
      <trkpt lat="48.43426" lon="2.71343">
        <ele>120</ele>
        <time>2012-03-31T09:25:25Z</time>
      </trkpt>
      <trkpt lat="48.4343" lon="2.71326">
        <ele>121</ele>
        <time>2012-03-31T09:25:30Z</time>
      </trkpt>
      <trkpt lat="48.43431" lon="2.71322">
        <ele>121</ele>
        <time>2012-03-31T09:25:31Z</time>
      </trkpt>
      <trkpt lat="48.4343" lon="2.71306">
        <ele>121</ele>
        <time>2012-03-31T09:25:36Z</time>
      </trkpt>
      <trkpt lat="48.43428" lon="2.71285">
        <ele>122</ele>
        <time>2012-03-31T09:25:42Z</time>
      </trkpt>
      <trkpt lat="48.43427" lon="2.71265">
        <ele>123</ele>
        <time>2012-03-31T09:25:46Z</time>
      </trkpt>
      <trkpt lat="48.43428" lon="2.71244">
        <ele>125</ele>
        <time>2012-03-31T09:25:49Z</time>
      </trkpt>
      <trkpt lat="48.43433" lon="2.71209">
        <ele>124</ele>
        <time>2012-03-31T09:25:53Z</time>
      </trkpt>
      <trkpt lat="48.43435" lon="2.71181">
        <ele>125</ele>
        <time>2012-03-31T09:25:56Z</time>
      </trkpt>
      <trkpt lat="48.43435" lon="2.71157">
        <ele>126</ele>
        <time>2012-03-31T09:25:59Z</time>
      </trkpt>
      <trkpt lat="48.43445" lon="2.71116">
        <ele>125</ele>
        <time>2012-03-31T09:26:04Z</time>
      </trkpt>
      <trkpt lat="48.43445" lon="2.71107">
        <ele>125</ele>
        <time>2012-03-31T09:26:05Z</time>
      </trkpt>
      <trkpt lat="48.43453" lon="2.71063">
        <ele>125</ele>
        <time>2012-03-31T09:26:11Z</time>
      </trkpt>
      <trkpt lat="48.4347" lon="2.71038">
        <ele>124</ele>
        <time>2012-03-31T09:26:15Z</time>
      </trkpt>
      <trkpt lat="48.43474" lon="2.71023">
        <ele>125</ele>
        <time>2012-03-31T09:26:19Z</time>
      </trkpt>
      <trkpt lat="48.43473" lon="2.71022">
        <ele>125</ele>
        <time>2012-03-31T09:26:25Z</time>
      </trkpt>
      <trkpt lat="48.43468" lon="2.71022">
        <ele>125</ele>
        <time>2012-03-31T09:26:50Z</time>
      </trkpt>
      <trkpt lat="48.43469" lon="2.71019">
        <ele>125</ele>
        <time>2012-03-31T09:26:57Z</time>
      </trkpt>
      <trkpt lat="48.43469" lon="2.71019">
        <ele>125</ele>
        <time>2012-03-31T09:27:21Z</time>
      </trkpt>
      <trkpt lat="48.43469" lon="2.71019">
        <ele>125</ele>
        <time>2012-03-31T09:27:35Z</time>
      </trkpt>
      <trkpt lat="48.43469" lon="2.71018">
        <ele>125</ele>
        <time>2012-03-31T09:27:36Z</time>
      </trkpt>
      <trkpt lat="48.4347" lon="2.71005">
        <ele>125</ele>
        <time>2012-03-31T09:27:40Z</time>
      </trkpt>
      <trkpt lat="48.43468" lon="2.70971">
        <ele>126</ele>
        <time>2012-03-31T09:27:46Z</time>
      </trkpt>
      <trkpt lat="48.43463" lon="2.70926">
        <ele>127</ele>
        <time>2012-03-31T09:27:53Z</time>
      </trkpt>
      <trkpt lat="48.4346" lon="2.70887">
        <ele>128</ele>
        <time>2012-03-31T09:27:59Z</time>
      </trkpt>
      <trkpt lat="48.43454" lon="2.70852">
        <ele>129</ele>
        <time>2012-03-31T09:28:05Z</time>
      </trkpt>
      <trkpt lat="48.43452" lon="2.70829">
        <ele>130</ele>
        <time>2012-03-31T09:28:10Z</time>
      </trkpt>
      <trkpt lat="48.4345" lon="2.7081">
        <ele>130</ele>
        <time>2012-03-31T09:28:15Z</time>
      </trkpt>
      <trkpt lat="48.43449" lon="2.70788">
        <ele>131</ele>
        <time>2012-03-31T09:28:21Z</time>
      </trkpt>
      <trkpt lat="48.43449" lon="2.70766">
        <ele>131</ele>
        <time>2012-03-31T09:28:27Z</time>
      </trkpt>
      <trkpt lat="48.43445" lon="2.70744">
        <ele>132</ele>
        <time>2012-03-31T09:28:33Z</time>
      </trkpt>
      <trkpt lat="48.43443" lon="2.70726">
        <ele>132</ele>
        <time>2012-03-31T09:28:39Z</time>
      </trkpt>
      <trkpt lat="48.4344" lon="2.70706">
        <ele>132</ele>
        <time>2012-03-31T09:28:44Z</time>
      </trkpt>
      <trkpt lat="48.43436" lon="2.70682">
        <ele>132</ele>
        <time>2012-03-31T09:28:50Z</time>
      </trkpt>
      <trkpt lat="48.43431" lon="2.70667">
        <ele>133</ele>
        <time>2012-03-31T09:28:55Z</time>
      </trkpt>
      <trkpt lat="48.43431" lon="2.70665">
        <ele>133</ele>
        <time>2012-03-31T09:28:56Z</time>
      </trkpt>
      <trkpt lat="48.43429" lon="2.70658">
        <ele>133</ele>
        <time>2012-03-31T09:29:02Z</time>
      </trkpt>
      <trkpt lat="48.43426" lon="2.70649">
        <ele>133</ele>
        <time>2012-03-31T09:29:07Z</time>
      </trkpt>
      <trkpt lat="48.43419" lon="2.70634">
        <ele>134</ele>
        <time>2012-03-31T09:29:14Z</time>
      </trkpt>
      <trkpt lat="48.43413" lon="2.70624">
        <ele>135</ele>
        <time>2012-03-31T09:29:20Z</time>
      </trkpt>
      <trkpt lat="48.43407" lon="2.70616">
        <ele>136</ele>
        <time>2012-03-31T09:29:26Z</time>
      </trkpt>
      <trkpt lat="48.43396" lon="2.70607">
        <ele>136</ele>
        <time>2012-03-31T09:29:33Z</time>
      </trkpt>
      <trkpt lat="48.43388" lon="2.70602">
        <ele>136</ele>
        <time>2012-03-31T09:29:38Z</time>
      </trkpt>
      <trkpt lat="48.43379" lon="2.70601">
        <ele>136</ele>
        <time>2012-03-31T09:29:43Z</time>
      </trkpt>
      <trkpt lat="48.43365" lon="2.70604">
        <ele>137</ele>
        <time>2012-03-31T09:29:48Z</time>
      </trkpt>
      <trkpt lat="48.43349" lon="2.70613">
        <ele>137</ele>
        <time>2012-03-31T09:29:54Z</time>
      </trkpt>
      <trkpt lat="48.43333" lon="2.70618">
        <ele>137</ele>
        <time>2012-03-31T09:29:59Z</time>
      </trkpt>
      <trkpt lat="48.43323" lon="2.70622">
        <ele>139</ele>
        <time>2012-03-31T09:30:02Z</time>
      </trkpt>
      <trkpt lat="48.43309" lon="2.70615">
        <ele>139</ele>
        <time>2012-03-31T09:30:07Z</time>
      </trkpt>
      <trkpt lat="48.43307" lon="2.70614">
        <ele>139</ele>
        <time>2012-03-31T09:30:08Z</time>
      </trkpt>
      <trkpt lat="48.43293" lon="2.70616">
        <ele>139</ele>
        <time>2012-03-31T09:30:13Z</time>
      </trkpt>
      <trkpt lat="48.4329" lon="2.70616">
        <ele>139</ele>
        <time>2012-03-31T09:30:14Z</time>
      </trkpt>
      <trkpt lat="48.43273" lon="2.70618">
        <ele>140</ele>
        <time>2012-03-31T09:30:19Z</time>
      </trkpt>
      <trkpt lat="48.43258" lon="2.70617">
        <ele>140</ele>
        <time>2012-03-31T09:30:23Z</time>
      </trkpt>
      <trkpt lat="48.4325" lon="2.70617">
        <ele>140</ele>
        <time>2012-03-31T09:30:26Z</time>
      </trkpt>
      <trkpt lat="48.4324" lon="2.7063">
        <ele>141</ele>
        <time>2012-03-31T09:30:32Z</time>
      </trkpt>
      <trkpt lat="48.43231" lon="2.70642">
        <ele>141</ele>
        <time>2012-03-31T09:30:36Z</time>
      </trkpt>
      <trkpt lat="48.43211" lon="2.70656">
        <ele>141</ele>
        <time>2012-03-31T09:30:41Z</time>
      </trkpt>
      <trkpt lat="48.43198" lon="2.70661">
        <ele>141</ele>
        <time>2012-03-31T09:30:44Z</time>
      </trkpt>
      <trkpt lat="48.43173" lon="2.70665">
        <ele>141</ele>
        <time>2012-03-31T09:30:49Z</time>
      </trkpt>
      <trkpt lat="48.43158" lon="2.70675">
        <ele>141</ele>
        <time>2012-03-31T09:30:52Z</time>
      </trkpt>
      <trkpt lat="48.43135" lon="2.707">
        <ele>141</ele>
        <time>2012-03-31T09:30:57Z</time>
      </trkpt>
      <trkpt lat="48.4312" lon="2.70703">
        <ele>141</ele>
        <time>2012-03-31T09:31:00Z</time>
      </trkpt>
      <trkpt lat="48.43114" lon="2.707">
        <ele>142</ele>
        <time>2012-03-31T09:31:01Z</time>
      </trkpt>
      <trkpt lat="48.43104" lon="2.70695">
        <ele>142</ele>
        <time>2012-03-31T09:31:03Z</time>
      </trkpt>
      <trkpt lat="48.43089" lon="2.7069">
        <ele>142</ele>
        <time>2012-03-31T09:31:06Z</time>
      </trkpt>
      <trkpt lat="48.43073" lon="2.70684">
        <ele>144</ele>
        <time>2012-03-31T09:31:09Z</time>
      </trkpt>
      <trkpt lat="48.43048" lon="2.70673">
        <ele>144</ele>
        <time>2012-03-31T09:31:14Z</time>
      </trkpt>
      <trkpt lat="48.43022" lon="2.70685">
        <ele>144</ele>
        <time>2012-03-31T09:31:18Z</time>
      </trkpt>
      <trkpt lat="48.43013" lon="2.70694">
        <ele>144</ele>
        <time>2012-03-31T09:31:20Z</time>
      </trkpt>
      <trkpt lat="48.42994" lon="2.70714">
        <ele>147</ele>
        <time>2012-03-31T09:31:24Z</time>
      </trkpt>
      <trkpt lat="48.42982" lon="2.70726">
        <ele>147</ele>
        <time>2012-03-31T09:31:27Z</time>
      </trkpt>
      <trkpt lat="48.42974" lon="2.70735">
        <ele>147</ele>
        <time>2012-03-31T09:31:29Z</time>
      </trkpt>
      <trkpt lat="48.42954" lon="2.7075">
        <ele>148</ele>
        <time>2012-03-31T09:31:34Z</time>
      </trkpt>
      <trkpt lat="48.4295" lon="2.70752">
        <ele>148</ele>
        <time>2012-03-31T09:31:35Z</time>
      </trkpt>
      <trkpt lat="48.42922" lon="2.70762">
        <ele>150</ele>
        <time>2012-03-31T09:31:42Z</time>
      </trkpt>
      <trkpt lat="48.42908" lon="2.70762">
        <ele>151</ele>
        <time>2012-03-31T09:31:46Z</time>
      </trkpt>
      <trkpt lat="48.42885" lon="2.70758">
        <ele>151</ele>
        <time>2012-03-31T09:31:53Z</time>
      </trkpt>
      <trkpt lat="48.42869" lon="2.70761">
        <ele>151</ele>
        <time>2012-03-31T09:31:57Z</time>
      </trkpt>
      <trkpt lat="48.42848" lon="2.70764">
        <ele>151</ele>
        <time>2012-03-31T09:32:02Z</time>
      </trkpt>
      <trkpt lat="48.42829" lon="2.70767">
        <ele>152</ele>
        <time>2012-03-31T09:32:07Z</time>
      </trkpt>
      <trkpt lat="48.42808" lon="2.7077">
        <ele>152</ele>
        <time>2012-03-31T09:32:12Z</time>
      </trkpt>
      <trkpt lat="48.42796" lon="2.70773">
        <ele>152</ele>
        <time>2012-03-31T09:32:15Z</time>
      </trkpt>
      <trkpt lat="48.42774" lon="2.7077">
        <ele>152</ele>
        <time>2012-03-31T09:32:20Z</time>
      </trkpt>
      <trkpt lat="48.42756" lon="2.70772">
        <ele>152</ele>
        <time>2012-03-31T09:32:25Z</time>
      </trkpt>
      <trkpt lat="48.42739" lon="2.70761">
        <ele>152</ele>
        <time>2012-03-31T09:32:30Z</time>
      </trkpt>
      <trkpt lat="48.42723" lon="2.70757">
        <ele>151</ele>
        <time>2012-03-31T09:32:34Z</time>
      </trkpt>
      <trkpt lat="48.42714" lon="2.70762">
        <ele>151</ele>
        <time>2012-03-31T09:32:36Z</time>
      </trkpt>
      <trkpt lat="48.42673" lon="2.70784">
        <ele>151</ele>
        <time>2012-03-31T09:32:44Z</time>
      </trkpt>
      <trkpt lat="48.42668" lon="2.70787">
        <ele>151</ele>
        <time>2012-03-31T09:32:45Z</time>
      </trkpt>
      <trkpt lat="48.42646" lon="2.70795">
        <ele>149</ele>
        <time>2012-03-31T09:32:49Z</time>
      </trkpt>
      <trkpt lat="48.4264" lon="2.70797">
        <ele>149</ele>
        <time>2012-03-31T09:32:50Z</time>
      </trkpt>
      <trkpt lat="48.42629" lon="2.70801">
        <ele>149</ele>
        <time>2012-03-31T09:32:52Z</time>
      </trkpt>
      <trkpt lat="48.4262" lon="2.70805">
        <ele>149</ele>
        <time>2012-03-31T09:32:54Z</time>
      </trkpt>
      <trkpt lat="48.42592" lon="2.70816">
        <ele>149</ele>
        <time>2012-03-31T09:32:59Z</time>
      </trkpt>
      <trkpt lat="48.42581" lon="2.70821">
        <ele>147</ele>
        <time>2012-03-31T09:33:01Z</time>
      </trkpt>
      <trkpt lat="48.4257" lon="2.70829">
        <ele>147</ele>
        <time>2012-03-31T09:33:03Z</time>
      </trkpt>
      <trkpt lat="48.42561" lon="2.70852">
        <ele>147</ele>
        <time>2012-03-31T09:33:07Z</time>
      </trkpt>
      <trkpt lat="48.42548" lon="2.7087">
        <ele>146</ele>
        <time>2012-03-31T09:33:12Z</time>
      </trkpt>
      <trkpt lat="48.42546" lon="2.70871">
        <ele>146</ele>
        <time>2012-03-31T09:33:14Z</time>
      </trkpt>
      <trkpt lat="48.4254" lon="2.70883">
        <ele>146</ele>
        <time>2012-03-31T09:33:20Z</time>
      </trkpt>
      <trkpt lat="48.4253" lon="2.70893">
        <ele>145</ele>
        <time>2012-03-31T09:33:24Z</time>
      </trkpt>
      <trkpt lat="48.42525" lon="2.709">
        <ele>145</ele>
        <time>2012-03-31T09:33:28Z</time>
      </trkpt>
      <trkpt lat="48.42522" lon="2.70906">
        <ele>145</ele>
        <time>2012-03-31T09:33:43Z</time>
      </trkpt>
      <trkpt lat="48.42521" lon="2.70907">
        <ele>145</ele>
        <time>2012-03-31T09:34:02Z</time>
      </trkpt>
      <trkpt lat="48.42507" lon="2.70898">
        <ele>145</ele>
        <time>2012-03-31T09:34:11Z</time>
      </trkpt>
      <trkpt lat="48.42501" lon="2.70893">
        <ele>145</ele>
        <time>2012-03-31T09:34:13Z</time>
      </trkpt>
      <trkpt lat="48.42487" lon="2.70878">
        <ele>141</ele>
        <time>2012-03-31T09:34:17Z</time>
      </trkpt>
      <trkpt lat="48.42453" lon="2.70845">
        <ele>141</ele>
        <time>2012-03-31T09:34:26Z</time>
      </trkpt>
      <trkpt lat="48.42427" lon="2.70824">
        <ele>141</ele>
        <time>2012-03-31T09:34:32Z</time>
      </trkpt>
      <trkpt lat="48.42416" lon="2.70822">
        <ele>142</ele>
        <time>2012-03-31T09:34:35Z</time>
      </trkpt>
      <trkpt lat="48.42418" lon="2.70835">
        <ele>140</ele>
        <time>2012-03-31T09:34:38Z</time>
      </trkpt>
      <trkpt lat="48.42419" lon="2.70845">
        <ele>140</ele>
        <time>2012-03-31T09:34:40Z</time>
      </trkpt>
      <trkpt lat="48.42417" lon="2.70856">
        <ele>140</ele>
        <time>2012-03-31T09:34:44Z</time>
      </trkpt>
      <trkpt lat="48.42417" lon="2.70857">
        <ele>141</ele>
        <time>2012-03-31T09:34:45Z</time>
      </trkpt>
      <trkpt lat="48.42408" lon="2.70861">
        <ele>142</ele>
        <time>2012-03-31T09:34:50Z</time>
      </trkpt>
      <trkpt lat="48.42406" lon="2.70861">
        <ele>142</ele>
        <time>2012-03-31T09:34:56Z</time>
      </trkpt>
      <trkpt lat="48.42407" lon="2.70859">
        <ele>142</ele>
        <time>2012-03-31T09:34:58Z</time>
      </trkpt>
      <trkpt lat="48.42406" lon="2.70856">
        <ele>142</ele>
        <time>2012-03-31T09:35:04Z</time>
      </trkpt>
      <trkpt lat="48.42407" lon="2.70858">
        <ele>142</ele>
        <time>2012-03-31T09:35:11Z</time>
      </trkpt>
      <trkpt lat="48.42406" lon="2.70861">
        <ele>142</ele>
        <time>2012-03-31T09:35:16Z</time>
      </trkpt>
      <trkpt lat="48.42405" lon="2.70859">
        <ele>142</ele>
        <time>2012-03-31T09:35:35Z</time>
      </trkpt>
      <trkpt lat="48.42405" lon="2.7086">
        <ele>142</ele>
        <time>2012-03-31T09:35:41Z</time>
      </trkpt>
      <trkpt lat="48.42404" lon="2.7086">
        <ele>142</ele>
        <time>2012-03-31T09:35:51Z</time>
      </trkpt>
      <trkpt lat="48.42404" lon="2.7086">
        <ele>142</ele>
        <time>2012-03-31T09:35:57Z</time>
      </trkpt>
      <trkpt lat="48.4241" lon="2.70855">
        <ele>142</ele>
        <time>2012-03-31T09:36:01Z</time>
      </trkpt>
      <trkpt lat="48.42415" lon="2.70854">
        <ele>141</ele>
        <time>2012-03-31T09:36:03Z</time>
      </trkpt>
      <trkpt lat="48.42414" lon="2.70851">
        <ele>141</ele>
        <time>2012-03-31T09:36:06Z</time>
      </trkpt>
      <trkpt lat="48.42403" lon="2.70862">
        <ele>142</ele>
        <time>2012-03-31T09:36:10Z</time>
      </trkpt>
      <trkpt lat="48.42392" lon="2.70863">
        <ele>142</ele>
        <time>2012-03-31T09:36:13Z</time>
      </trkpt>
      <trkpt lat="48.42386" lon="2.70867">
        <ele>142</ele>
        <time>2012-03-31T09:36:16Z</time>
      </trkpt>
      <trkpt lat="48.42379" lon="2.70875">
        <ele>143</ele>
        <time>2012-03-31T09:36:23Z</time>
      </trkpt>
      <trkpt lat="48.42367" lon="2.70888">
        <ele>143</ele>
        <time>2012-03-31T09:36:28Z</time>
      </trkpt>
      <trkpt lat="48.42353" lon="2.70898">
        <ele>143</ele>
        <time>2012-03-31T09:36:33Z</time>
      </trkpt>
      <trkpt lat="48.42338" lon="2.70904">
        <ele>144</ele>
        <time>2012-03-31T09:36:37Z</time>
      </trkpt>
      <trkpt lat="48.4232" lon="2.70913">
        <ele>144</ele>
        <time>2012-03-31T09:36:41Z</time>
      </trkpt>
      <trkpt lat="48.42306" lon="2.70916">
        <ele>145</ele>
        <time>2012-03-31T09:36:44Z</time>
      </trkpt>
      <trkpt lat="48.42292" lon="2.70893">
        <ele>145</ele>
        <time>2012-03-31T09:36:49Z</time>
      </trkpt>
      <trkpt lat="48.42286" lon="2.70884">
        <ele>145</ele>
        <time>2012-03-31T09:36:51Z</time>
      </trkpt>
      <trkpt lat="48.42274" lon="2.70864">
        <ele>145</ele>
        <time>2012-03-31T09:36:56Z</time>
      </trkpt>
      <trkpt lat="48.42262" lon="2.70854">
        <ele>146</ele>
        <time>2012-03-31T09:37:01Z</time>
      </trkpt>
      <trkpt lat="48.42239" lon="2.70849">
        <ele>142</ele>
        <time>2012-03-31T09:37:07Z</time>
      </trkpt>
      <trkpt lat="48.42234" lon="2.70839">
        <ele>142</ele>
        <time>2012-03-31T09:37:09Z</time>
      </trkpt>
      <trkpt lat="48.42226" lon="2.7081">
        <ele>143</ele>
        <time>2012-03-31T09:37:15Z</time>
      </trkpt>
      <trkpt lat="48.42223" lon="2.70792">
        <ele>143</ele>
        <time>2012-03-31T09:37:19Z</time>
      </trkpt>
      <trkpt lat="48.42216" lon="2.70762">
        <ele>143</ele>
        <time>2012-03-31T09:37:25Z</time>
      </trkpt>
      <trkpt lat="48.42211" lon="2.70736">
        <ele>144</ele>
        <time>2012-03-31T09:37:29Z</time>
      </trkpt>
      <trkpt lat="48.42202" lon="2.70701">
        <ele>144</ele>
        <time>2012-03-31T09:37:35Z</time>
      </trkpt>
      <trkpt lat="48.42192" lon="2.70688">
        <ele>143</ele>
        <time>2012-03-31T09:37:39Z</time>
      </trkpt>
      <trkpt lat="48.42177" lon="2.70681">
        <ele>142</ele>
        <time>2012-03-31T09:37:44Z</time>
      </trkpt>
      <trkpt lat="48.4217" lon="2.70675">
        <ele>142</ele>
        <time>2012-03-31T09:37:47Z</time>
      </trkpt>
      <trkpt lat="48.42166" lon="2.70671">
        <ele>140</ele>
        <time>2012-03-31T09:37:53Z</time>
      </trkpt>
      <trkpt lat="48.42162" lon="2.70668">
        <ele>139</ele>
        <time>2012-03-31T09:37:59Z</time>
      </trkpt>
      <trkpt lat="48.42162" lon="2.70664">
        <ele>140</ele>
        <time>2012-03-31T09:38:05Z</time>
      </trkpt>
      <trkpt lat="48.42163" lon="2.70665">
        <ele>140</ele>
        <time>2012-03-31T09:38:14Z</time>
      </trkpt>
      <trkpt lat="48.42166" lon="2.70648">
        <ele>138</ele>
        <time>2012-03-31T09:38:20Z</time>
      </trkpt>
      <trkpt lat="48.42167" lon="2.70645">
        <ele>143</ele>
        <time>2012-03-31T09:38:21Z</time>
      </trkpt>
      <trkpt lat="48.42163" lon="2.70625">
        <ele>137</ele>
        <time>2012-03-31T09:38:26Z</time>
      </trkpt>
      <trkpt lat="48.42158" lon="2.70598">
        <ele>139</ele>
        <time>2012-03-31T09:38:31Z</time>
      </trkpt>
      <trkpt lat="48.42156" lon="2.70585">
        <ele>140</ele>
        <time>2012-03-31T09:38:34Z</time>
      </trkpt>
      <trkpt lat="48.42157" lon="2.70559">
        <ele>139</ele>
        <time>2012-03-31T09:38:39Z</time>
      </trkpt>
      <trkpt lat="48.42157" lon="2.70548">
        <ele>139</ele>
        <time>2012-03-31T09:38:42Z</time>
      </trkpt>
      <trkpt lat="48.42161" lon="2.70534">
        <ele>140</ele>
        <time>2012-03-31T09:38:46Z</time>
      </trkpt>
      <trkpt lat="48.42167" lon="2.70519">
        <ele>145</ele>
        <time>2012-03-31T09:38:51Z</time>
      </trkpt>
      <trkpt lat="48.42178" lon="2.70513">
        <ele>145</ele>
        <time>2012-03-31T09:38:56Z</time>
      </trkpt>
      <trkpt lat="48.42186" lon="2.70508">
        <ele>146</ele>
        <time>2012-03-31T09:39:00Z</time>
      </trkpt>
      <trkpt lat="48.42208" lon="2.70503">
        <ele>146</ele>
        <time>2012-03-31T09:39:07Z</time>
      </trkpt>
      <trkpt lat="48.42223" lon="2.70498">
        <ele>146</ele>
        <time>2012-03-31T09:39:11Z</time>
      </trkpt>
      <trkpt lat="48.42242" lon="2.70492">
        <ele>146</ele>
        <time>2012-03-31T09:39:15Z</time>
      </trkpt>
      <trkpt lat="48.42268" lon="2.70486">
        <ele>146</ele>
        <time>2012-03-31T09:39:20Z</time>
      </trkpt>
      <trkpt lat="48.42294" lon="2.70478">
        <ele>145</ele>
        <time>2012-03-31T09:39:25Z</time>
      </trkpt>
      <trkpt lat="48.42304" lon="2.70477">
        <ele>145</ele>
        <time>2012-03-31T09:39:27Z</time>
      </trkpt>
      <trkpt lat="48.42316" lon="2.70476">
        <ele>145</ele>
        <time>2012-03-31T09:39:31Z</time>
      </trkpt>
      <trkpt lat="48.42321" lon="2.70475">
        <ele>145</ele>
        <time>2012-03-31T09:39:33Z</time>
      </trkpt>
      <trkpt lat="48.42329" lon="2.70474">
        <ele>145</ele>
        <time>2012-03-31T09:39:35Z</time>
      </trkpt>
      <trkpt lat="48.42346" lon="2.70471">
        <ele>144</ele>
        <time>2012-03-31T09:39:40Z</time>
      </trkpt>
      <trkpt lat="48.42348" lon="2.70468">
        <ele>144</ele>
        <time>2012-03-31T09:39:42Z</time>
      </trkpt>
      <trkpt lat="48.42352" lon="2.70449">
        <ele>144</ele>
        <time>2012-03-31T09:39:47Z</time>
      </trkpt>
      <trkpt lat="48.42356" lon="2.70426">
        <ele>144</ele>
        <time>2012-03-31T09:39:52Z</time>
      </trkpt>
      <trkpt lat="48.42358" lon="2.70401">
        <ele>143</ele>
        <time>2012-03-31T09:39:57Z</time>
      </trkpt>
      <trkpt lat="48.42363" lon="2.70372">
        <ele>142</ele>
        <time>2012-03-31T09:40:02Z</time>
      </trkpt>
      <trkpt lat="48.4237" lon="2.70329">
        <ele>143</ele>
        <time>2012-03-31T09:40:09Z</time>
      </trkpt>
      <trkpt lat="48.42372" lon="2.70321">
        <ele>143</ele>
        <time>2012-03-31T09:40:11Z</time>
      </trkpt>
      <trkpt lat="48.42374" lon="2.70313">
        <ele>143</ele>
        <time>2012-03-31T09:40:16Z</time>
      </trkpt>
      <trkpt lat="48.42373" lon="2.70313">
        <ele>143</ele>
        <time>2012-03-31T09:40:18Z</time>
      </trkpt>
      <trkpt lat="48.42371" lon="2.70326">
        <ele>143</ele>
        <time>2012-03-31T09:40:24Z</time>
      </trkpt>
      <trkpt lat="48.42363" lon="2.70333">
        <ele>142</ele>
        <time>2012-03-31T09:40:28Z</time>
      </trkpt>
      <trkpt lat="48.42351" lon="2.70344">
        <ele>142</ele>
        <time>2012-03-31T09:40:32Z</time>
      </trkpt>
      <trkpt lat="48.42338" lon="2.70353">
        <ele>142</ele>
        <time>2012-03-31T09:40:36Z</time>
      </trkpt>
      <trkpt lat="48.42333" lon="2.70357">
        <ele>142</ele>
        <time>2012-03-31T09:40:39Z</time>
      </trkpt>
      <trkpt lat="48.42331" lon="2.70356">
        <ele>142</ele>
        <time>2012-03-31T09:40:40Z</time>
      </trkpt>
      <trkpt lat="48.4232" lon="2.70337">
        <ele>141</ele>
        <time>2012-03-31T09:40:45Z</time>
      </trkpt>
      <trkpt lat="48.42318" lon="2.70331">
        <ele>141</ele>
        <time>2012-03-31T09:40:47Z</time>
      </trkpt>
      <trkpt lat="48.42318" lon="2.70321">
        <ele>141</ele>
        <time>2012-03-31T09:40:54Z</time>
      </trkpt>
      <trkpt lat="48.4232" lon="2.70322">
        <ele>141</ele>
        <time>2012-03-31T09:41:01Z</time>
      </trkpt>
      <trkpt lat="48.4232" lon="2.70324">
        <ele>141</ele>
        <time>2012-03-31T09:41:09Z</time>
      </trkpt>
      <trkpt lat="48.42319" lon="2.70327">
        <ele>141</ele>
        <time>2012-03-31T09:41:12Z</time>
      </trkpt>
      <trkpt lat="48.42324" lon="2.70343">
        <ele>141</ele>
        <time>2012-03-31T09:41:16Z</time>
      </trkpt>
      <trkpt lat="48.42334" lon="2.70356">
        <ele>142</ele>
        <time>2012-03-31T09:41:21Z</time>
      </trkpt>
      <trkpt lat="48.42332" lon="2.70365">
        <ele>142</ele>
        <time>2012-03-31T09:41:25Z</time>
      </trkpt>
      <trkpt lat="48.42331" lon="2.70367">
        <ele>142</ele>
        <time>2012-03-31T09:41:26Z</time>
      </trkpt>
      <trkpt lat="48.42318" lon="2.70383">
        <ele>142</ele>
        <time>2012-03-31T09:41:32Z</time>
      </trkpt>
      <trkpt lat="48.42304" lon="2.70389">
        <ele>143</ele>
        <time>2012-03-31T09:41:38Z</time>
      </trkpt>
      <trkpt lat="48.42301" lon="2.70389">
        <ele>143</ele>
        <time>2012-03-31T09:41:40Z</time>
      </trkpt>
      <trkpt lat="48.42297" lon="2.70376">
        <ele>143</ele>
        <time>2012-03-31T09:41:46Z</time>
      </trkpt>
      <trkpt lat="48.42295" lon="2.70374">
        <ele>143</ele>
        <time>2012-03-31T09:41:48Z</time>
      </trkpt>
      <trkpt lat="48.42288" lon="2.70367">
        <ele>143</ele>
        <time>2012-03-31T09:41:53Z</time>
      </trkpt>
      <trkpt lat="48.42286" lon="2.70366">
        <ele>143</ele>
        <time>2012-03-31T09:41:54Z</time>
      </trkpt>
      <trkpt lat="48.42279" lon="2.70354">
        <ele>143</ele>
        <time>2012-03-31T09:42:00Z</time>
      </trkpt>
      <trkpt lat="48.42278" lon="2.70342">
        <ele>143</ele>
        <time>2012-03-31T09:42:05Z</time>
      </trkpt>
      <trkpt lat="48.42278" lon="2.70331">
        <ele>142</ele>
        <time>2012-03-31T09:42:08Z</time>
      </trkpt>
      <trkpt lat="48.42277" lon="2.70321">
        <ele>142</ele>
        <time>2012-03-31T09:42:10Z</time>
      </trkpt>
      <trkpt lat="48.42273" lon="2.70305">
        <ele>142</ele>
        <time>2012-03-31T09:42:15Z</time>
      </trkpt>
      <trkpt lat="48.42269" lon="2.70293">
        <ele>142</ele>
        <time>2012-03-31T09:42:19Z</time>
      </trkpt>
      <trkpt lat="48.42268" lon="2.7029">
        <ele>142</ele>
        <time>2012-03-31T09:42:20Z</time>
      </trkpt>
      <trkpt lat="48.42255" lon="2.70273">
        <ele>141</ele>
        <time>2012-03-31T09:42:28Z</time>
      </trkpt>
      <trkpt lat="48.42248" lon="2.70262">
        <ele>140</ele>
        <time>2012-03-31T09:42:32Z</time>
      </trkpt>
      <trkpt lat="48.42245" lon="2.7026">
        <ele>140</ele>
        <time>2012-03-31T09:42:33Z</time>
      </trkpt>
      <trkpt lat="48.42239" lon="2.7024">
        <ele>138</ele>
        <time>2012-03-31T09:42:37Z</time>
      </trkpt>
      <trkpt lat="48.42237" lon="2.70236">
        <ele>137</ele>
        <time>2012-03-31T09:42:38Z</time>
      </trkpt>
      <trkpt lat="48.42233" lon="2.70229">
        <ele>136</ele>
        <time>2012-03-31T09:42:42Z</time>
      </trkpt>
      <trkpt lat="48.4223" lon="2.70229">
        <ele>136</ele>
        <time>2012-03-31T09:42:45Z</time>
      </trkpt>
      <trkpt lat="48.42223" lon="2.70228">
        <ele>136</ele>
        <time>2012-03-31T09:42:50Z</time>
      </trkpt>
      <trkpt lat="48.4222" lon="2.70227">
        <ele>136</ele>
        <time>2012-03-31T09:42:54Z</time>
      </trkpt>
      <trkpt lat="48.42218" lon="2.70214">
        <ele>135</ele>
        <time>2012-03-31T09:42:59Z</time>
      </trkpt>
      <trkpt lat="48.42213" lon="2.70205">
        <ele>134</ele>
        <time>2012-03-31T09:43:03Z</time>
      </trkpt>
      <trkpt lat="48.42213" lon="2.70204">
        <ele>134</ele>
        <time>2012-03-31T09:43:04Z</time>
      </trkpt>
      <trkpt lat="48.42217" lon="2.70181">
        <ele>133</ele>
        <time>2012-03-31T09:43:09Z</time>
      </trkpt>
      <trkpt lat="48.42213" lon="2.70133">
        <ele>127</ele>
        <time>2012-03-31T09:43:15Z</time>
      </trkpt>
      <trkpt lat="48.42197" lon="2.70113">
        <ele>126</ele>
        <time>2012-03-31T09:43:19Z</time>
      </trkpt>
      <trkpt lat="48.42183" lon="2.70093">
        <ele>123</ele>
        <time>2012-03-31T09:43:22Z</time>
      </trkpt>
      <trkpt lat="48.42179" lon="2.70087">
        <ele>123</ele>
        <time>2012-03-31T09:43:23Z</time>
      </trkpt>
      <trkpt lat="48.42174" lon="2.70083">
        <ele>122</ele>
        <time>2012-03-31T09:43:29Z</time>
      </trkpt>
      <trkpt lat="48.42173" lon="2.70084">
        <ele>121</ele>
        <time>2012-03-31T09:43:36Z</time>
      </trkpt>
      <trkpt lat="48.42167" lon="2.70067">
        <ele>120</ele>
        <time>2012-03-31T09:43:41Z</time>
      </trkpt>
      <trkpt lat="48.42173" lon="2.70058">
        <ele>120</ele>
        <time>2012-03-31T09:43:44Z</time>
      </trkpt>
      <trkpt lat="48.42172" lon="2.70052">
        <ele>120</ele>
        <time>2012-03-31T09:43:46Z</time>
      </trkpt>
      <trkpt lat="48.42167" lon="2.70034">
        <ele>119</ele>
        <time>2012-03-31T09:43:49Z</time>
      </trkpt>
      <trkpt lat="48.4215" lon="2.70013">
        <ele>114</ele>
        <time>2012-03-31T09:43:53Z</time>
      </trkpt>
      <trkpt lat="48.42145" lon="2.70009">
        <ele>114</ele>
        <time>2012-03-31T09:43:54Z</time>
      </trkpt>
      <trkpt lat="48.42131" lon="2.70002">
        <ele>113</ele>
        <time>2012-03-31T09:43:57Z</time>
      </trkpt>
      <trkpt lat="48.42117" lon="2.69997">
        <ele>110</ele>
        <time>2012-03-31T09:44:01Z</time>
      </trkpt>
      <trkpt lat="48.42118" lon="2.69991">
        <ele>110</ele>
        <time>2012-03-31T09:44:06Z</time>
      </trkpt>
      <trkpt lat="48.42117" lon="2.69986">
        <ele>110</ele>
        <time>2012-03-31T09:44:24Z</time>
      </trkpt>
      <trkpt lat="48.42115" lon="2.69987">
        <ele>110</ele>
        <time>2012-03-31T09:44:32Z</time>
      </trkpt>
      <trkpt lat="48.42116" lon="2.69993">
        <ele>110</ele>
        <time>2012-03-31T09:44:52Z</time>
      </trkpt>
      <trkpt lat="48.42116" lon="2.69997">
        <ele>110</ele>
        <time>2012-03-31T09:45:00Z</time>
      </trkpt>
      <trkpt lat="48.42115" lon="2.69999">
        <ele>110</ele>
        <time>2012-03-31T09:45:07Z</time>
      </trkpt>
      <trkpt lat="48.42119" lon="2.70002">
        <ele>112</ele>
        <time>2012-03-31T09:45:11Z</time>
      </trkpt>
      <trkpt lat="48.42127" lon="2.70001">
        <ele>113</ele>
        <time>2012-03-31T09:45:15Z</time>
      </trkpt>
      <trkpt lat="48.42119" lon="2.69997">
        <ele>110</ele>
        <time>2012-03-31T09:45:19Z</time>
      </trkpt>
      <trkpt lat="48.42112" lon="2.69996">
        <ele>110</ele>
        <time>2012-03-31T09:45:23Z</time>
      </trkpt>
      <trkpt lat="48.42115" lon="2.69997">
        <ele>110</ele>
        <time>2012-03-31T09:45:28Z</time>
      </trkpt>
      <trkpt lat="48.42117" lon="2.69996">
        <ele>110</ele>
        <time>2012-03-31T09:45:47Z</time>
      </trkpt>
      <trkpt lat="48.42118" lon="2.69999">
        <ele>110</ele>
        <time>2012-03-31T09:46:12Z</time>
      </trkpt>
      <trkpt lat="48.42121" lon="2.69986">
        <ele>110</ele>
        <time>2012-03-31T09:46:17Z</time>
      </trkpt>
      <trkpt lat="48.42121" lon="2.69984">
        <ele>110</ele>
        <time>2012-03-31T09:46:19Z</time>
      </trkpt>
      <trkpt lat="48.42115" lon="2.6998">
        <ele>110</ele>
        <time>2012-03-31T09:46:23Z</time>
      </trkpt>
      <trkpt lat="48.42105" lon="2.69976">
        <ele>110</ele>
        <time>2012-03-31T09:46:27Z</time>
      </trkpt>
      <trkpt lat="48.421" lon="2.69956">
        <ele>109</ele>
        <time>2012-03-31T09:46:30Z</time>
      </trkpt>
      <trkpt lat="48.4209" lon="2.69931">
        <ele>108</ele>
        <time>2012-03-31T09:46:37Z</time>
      </trkpt>
      <trkpt lat="48.42087" lon="2.69924">
        <ele>107</ele>
        <time>2012-03-31T09:46:41Z</time>
      </trkpt>
      <trkpt lat="48.42085" lon="2.69921">
        <ele>107</ele>
        <time>2012-03-31T09:46:44Z</time>
      </trkpt>
      <trkpt lat="48.42082" lon="2.69916">
        <ele>106</ele>
        <time>2012-03-31T09:46:52Z</time>
      </trkpt>
      <trkpt lat="48.42082" lon="2.69917">
        <ele>106</ele>
        <time>2012-03-31T09:47:05Z</time>
      </trkpt>
      <trkpt lat="48.42077" lon="2.69923">
        <ele>106</ele>
        <time>2012-03-31T09:47:09Z</time>
      </trkpt>
      <trkpt lat="48.42075" lon="2.6994">
        <ele>106</ele>
        <time>2012-03-31T09:47:15Z</time>
      </trkpt>
      <trkpt lat="48.42073" lon="2.69957">
        <ele>107</ele>
        <time>2012-03-31T09:47:19Z</time>
      </trkpt>
      <trkpt lat="48.42062" lon="2.70001">
        <ele>108</ele>
        <time>2012-03-31T09:47:28Z</time>
      </trkpt>
      <trkpt lat="48.42061" lon="2.70003">
        <ele>108</ele>
        <time>2012-03-31T09:47:29Z</time>
      </trkpt>
      <trkpt lat="48.42066" lon="2.70005">
        <ele>108</ele>
        <time>2012-03-31T09:47:34Z</time>
      </trkpt>
      <trkpt lat="48.42067" lon="2.70004">
        <ele>108</ele>
        <time>2012-03-31T09:47:35Z</time>
      </trkpt>
      <trkpt lat="48.42079" lon="2.70004">
        <ele>109</ele>
        <time>2012-03-31T09:47:42Z</time>
      </trkpt>
      <trkpt lat="48.42086" lon="2.7001">
        <ele>110</ele>
        <time>2012-03-31T09:47:47Z</time>
      </trkpt>
      <trkpt lat="48.42093" lon="2.70019">
        <ele>111</ele>
        <time>2012-03-31T09:47:53Z</time>
      </trkpt>
      <trkpt lat="48.42095" lon="2.70024">
        <ele>112</ele>
        <time>2012-03-31T09:47:57Z</time>
      </trkpt>
      <trkpt lat="48.42094" lon="2.70037">
        <ele>112</ele>
        <time>2012-03-31T09:48:03Z</time>
      </trkpt>
      <trkpt lat="48.42096" lon="2.7004">
        <ele>112</ele>
        <time>2012-03-31T09:48:05Z</time>
      </trkpt>
      <trkpt lat="48.42098" lon="2.70041">
        <ele>112</ele>
        <time>2012-03-31T09:48:08Z</time>
      </trkpt>
      <trkpt lat="48.42102" lon="2.70042">
        <ele>113</ele>
        <time>2012-03-31T09:48:12Z</time>
      </trkpt>
      <trkpt lat="48.42107" lon="2.7003">
        <ele>112</ele>
        <time>2012-03-31T09:48:17Z</time>
      </trkpt>
      <trkpt lat="48.42114" lon="2.70024">
        <ele>113</ele>
        <time>2012-03-31T09:48:21Z</time>
      </trkpt>
      <trkpt lat="48.42116" lon="2.70027">
        <ele>113</ele>
        <time>2012-03-31T09:48:23Z</time>
      </trkpt>
      <trkpt lat="48.42126" lon="2.70037">
        <ele>113</ele>
        <time>2012-03-31T09:48:30Z</time>
      </trkpt>
      <trkpt lat="48.42138" lon="2.70042">
        <ele>114</ele>
        <time>2012-03-31T09:48:38Z</time>
      </trkpt>
      <trkpt lat="48.42143" lon="2.70045">
        <ele>114</ele>
        <time>2012-03-31T09:48:43Z</time>
      </trkpt>
      <trkpt lat="48.42147" lon="2.7005">
        <ele>115</ele>
        <time>2012-03-31T09:48:46Z</time>
      </trkpt>
      <trkpt lat="48.42148" lon="2.70069">
        <ele>116</ele>
        <time>2012-03-31T09:48:55Z</time>
      </trkpt>
      <trkpt lat="48.42149" lon="2.70078">
        <ele>116</ele>
        <time>2012-03-31T09:48:59Z</time>
      </trkpt>
      <trkpt lat="48.42149" lon="2.70087">
        <ele>119</ele>
        <time>2012-03-31T09:49:06Z</time>
      </trkpt>
      <trkpt lat="48.42149" lon="2.70089">
        <ele>119</ele>
        <time>2012-03-31T09:49:07Z</time>
      </trkpt>
      <trkpt lat="48.42147" lon="2.70102">
        <ele>119</ele>
        <time>2012-03-31T09:49:16Z</time>
      </trkpt>
      <trkpt lat="48.42148" lon="2.70106">
        <ele>119</ele>
        <time>2012-03-31T09:49:22Z</time>
      </trkpt>
      <trkpt lat="48.42149" lon="2.70119">
        <ele>120</ele>
        <time>2012-03-31T09:49:29Z</time>
      </trkpt>
      <trkpt lat="48.42147" lon="2.70132">
        <ele>121</ele>
        <time>2012-03-31T09:49:35Z</time>
      </trkpt>
      <trkpt lat="48.42146" lon="2.70134">
        <ele>121</ele>
        <time>2012-03-31T09:49:36Z</time>
      </trkpt>
      <trkpt lat="48.42143" lon="2.70146">
        <ele>121</ele>
        <time>2012-03-31T09:49:42Z</time>
      </trkpt>
      <trkpt lat="48.42141" lon="2.70157">
        <ele>122</ele>
        <time>2012-03-31T09:49:48Z</time>
      </trkpt>
      <trkpt lat="48.42141" lon="2.70167">
        <ele>125</ele>
        <time>2012-03-31T09:49:54Z</time>
      </trkpt>
      <trkpt lat="48.42145" lon="2.7017">
        <ele>126</ele>
        <time>2012-03-31T09:49:59Z</time>
      </trkpt>
      <trkpt lat="48.42147" lon="2.7017">
        <ele>126</ele>
        <time>2012-03-31T09:50:01Z</time>
      </trkpt>
      <trkpt lat="48.42149" lon="2.70169">
        <ele>126</ele>
        <time>2012-03-31T09:50:04Z</time>
      </trkpt>
      <trkpt lat="48.42154" lon="2.70176">
        <ele>127</ele>
        <time>2012-03-31T09:50:11Z</time>
      </trkpt>
      <trkpt lat="48.42153" lon="2.70185">
        <ele>126</ele>
        <time>2012-03-31T09:50:17Z</time>
      </trkpt>
      <trkpt lat="48.42154" lon="2.70186">
        <ele>126</ele>
        <time>2012-03-31T09:50:18Z</time>
      </trkpt>
      <trkpt lat="48.42158" lon="2.70188">
        <ele>126</ele>
        <time>2012-03-31T09:50:22Z</time>
      </trkpt>
      <trkpt lat="48.42166" lon="2.70185">
        <ele>127</ele>
        <time>2012-03-31T09:50:29Z</time>
      </trkpt>
      <trkpt lat="48.42168" lon="2.70184">
        <ele>132</ele>
        <time>2012-03-31T09:50:31Z</time>
      </trkpt>
      <trkpt lat="48.42175" lon="2.70192">
        <ele>132</ele>
        <time>2012-03-31T09:50:38Z</time>
      </trkpt>
      <trkpt lat="48.4218" lon="2.70193">
        <ele>133</ele>
        <time>2012-03-31T09:50:43Z</time>
      </trkpt>
      <trkpt lat="48.42181" lon="2.70196">
        <ele>133</ele>
        <time>2012-03-31T09:50:45Z</time>
      </trkpt>
      <trkpt lat="48.42181" lon="2.70202">
        <ele>133</ele>
        <time>2012-03-31T09:50:51Z</time>
      </trkpt>
      <trkpt lat="48.42181" lon="2.70203">
        <ele>133</ele>
        <time>2012-03-31T09:50:52Z</time>
      </trkpt>
      <trkpt lat="48.4218" lon="2.7021">
        <ele>134</ele>
        <time>2012-03-31T09:51:00Z</time>
      </trkpt>
      <trkpt lat="48.42177" lon="2.70216">
        <ele>134</ele>
        <time>2012-03-31T09:51:07Z</time>
      </trkpt>
      <trkpt lat="48.42177" lon="2.70219">
        <ele>134</ele>
        <time>2012-03-31T09:51:15Z</time>
      </trkpt>
      <trkpt lat="48.42178" lon="2.70221">
        <ele>134</ele>
        <time>2012-03-31T09:51:17Z</time>
      </trkpt>
      <trkpt lat="48.42181" lon="2.70235">
        <ele>135</ele>
        <time>2012-03-31T09:51:25Z</time>
      </trkpt>
      <trkpt lat="48.42177" lon="2.7025">
        <ele>136</ele>
        <time>2012-03-31T09:51:32Z</time>
      </trkpt>
      <trkpt lat="48.42176" lon="2.70253">
        <ele>136</ele>
        <time>2012-03-31T09:51:33Z</time>
      </trkpt>
      <trkpt lat="48.42176" lon="2.70273">
        <ele>137</ele>
        <time>2012-03-31T09:51:39Z</time>
      </trkpt>
      <trkpt lat="48.42176" lon="2.70276">
        <ele>137</ele>
        <time>2012-03-31T09:51:40Z</time>
      </trkpt>
      <trkpt lat="48.42186" lon="2.7029">
        <ele>138</ele>
        <time>2012-03-31T09:51:46Z</time>
      </trkpt>
      <trkpt lat="48.42191" lon="2.70299">
        <ele>138</ele>
        <time>2012-03-31T09:51:51Z</time>
      </trkpt>
      <trkpt lat="48.42191" lon="2.70302">
        <ele>138</ele>
        <time>2012-03-31T09:51:55Z</time>
      </trkpt>
      <trkpt lat="48.42198" lon="2.70316">
        <ele>138</ele>
        <time>2012-03-31T09:52:00Z</time>
      </trkpt>
      <trkpt lat="48.422" lon="2.70317">
        <ele>138</ele>
        <time>2012-03-31T09:52:01Z</time>
      </trkpt>
      <trkpt lat="48.42211" lon="2.70331">
        <ele>139</ele>
        <time>2012-03-31T09:52:06Z</time>
      </trkpt>
      <trkpt lat="48.42216" lon="2.70346">
        <ele>141</ele>
        <time>2012-03-31T09:52:09Z</time>
      </trkpt>
      <trkpt lat="48.42215" lon="2.70375">
        <ele>142</ele>
        <time>2012-03-31T09:52:14Z</time>
      </trkpt>
      <trkpt lat="48.42214" lon="2.70392">
        <ele>142</ele>
        <time>2012-03-31T09:52:17Z</time>
      </trkpt>
      <trkpt lat="48.42208" lon="2.70408">
        <ele>142</ele>
        <time>2012-03-31T09:52:21Z</time>
      </trkpt>
      <trkpt lat="48.42205" lon="2.70413">
        <ele>142</ele>
        <time>2012-03-31T09:52:23Z</time>
      </trkpt>
      <trkpt lat="48.42195" lon="2.70429">
        <ele>144</ele>
        <time>2012-03-31T09:52:28Z</time>
      </trkpt>
      <trkpt lat="48.42185" lon="2.7044">
        <ele>144</ele>
        <time>2012-03-31T09:52:34Z</time>
      </trkpt>
      <trkpt lat="48.42183" lon="2.70442">
        <ele>144</ele>
        <time>2012-03-31T09:52:37Z</time>
      </trkpt>
      <trkpt lat="48.42179" lon="2.70461">
        <ele>144</ele>
        <time>2012-03-31T09:52:42Z</time>
      </trkpt>
      <trkpt lat="48.42179" lon="2.70467">
        <ele>145</ele>
        <time>2012-03-31T09:52:43Z</time>
      </trkpt>
      <trkpt lat="48.42175" lon="2.70478">
        <ele>145</ele>
        <time>2012-03-31T09:52:46Z</time>
      </trkpt>
      <trkpt lat="48.42171" lon="2.70483">
        <ele>145</ele>
        <time>2012-03-31T09:52:49Z</time>
      </trkpt>
      <trkpt lat="48.42162" lon="2.70508">
        <ele>143</ele>
        <time>2012-03-31T09:52:54Z</time>
      </trkpt>
      <trkpt lat="48.42163" lon="2.70514">
        <ele>142</ele>
        <time>2012-03-31T09:52:56Z</time>
      </trkpt>
      <trkpt lat="48.4216" lon="2.7052">
        <ele>141</ele>
        <time>2012-03-31T09:53:01Z</time>
      </trkpt>
      <trkpt lat="48.42154" lon="2.70527">
        <ele>140</ele>
        <time>2012-03-31T09:55:56Z</time>
      </trkpt>
      <trkpt lat="48.42155" lon="2.7053">
        <ele>140</ele>
        <time>2012-03-31T09:56:01Z</time>
      </trkpt>
      <trkpt lat="48.42156" lon="2.70529">
        <ele>140</ele>
        <time>2012-03-31T09:56:07Z</time>
      </trkpt>
      <trkpt lat="48.42156" lon="2.70528">
        <ele>140</ele>
        <time>2012-03-31T09:56:10Z</time>
      </trkpt>
      <trkpt lat="48.4216" lon="2.70524">
        <ele>140</ele>
        <time>2012-03-31T09:56:14Z</time>
      </trkpt>
      <trkpt lat="48.42175" lon="2.70511">
        <ele>145</ele>
        <time>2012-03-31T09:56:22Z</time>
      </trkpt>
      <trkpt lat="48.42193" lon="2.70504">
        <ele>146</ele>
        <time>2012-03-31T09:56:28Z</time>
      </trkpt>
      <trkpt lat="48.42221" lon="2.70499">
        <ele>146</ele>
        <time>2012-03-31T09:56:35Z</time>
      </trkpt>
      <trkpt lat="48.42251" lon="2.70491">
        <ele>146</ele>
        <time>2012-03-31T09:56:42Z</time>
      </trkpt>
      <trkpt lat="48.42257" lon="2.7049">
        <ele>146</ele>
        <time>2012-03-31T09:56:43Z</time>
      </trkpt>
      <trkpt lat="48.4228" lon="2.70481">
        <ele>145</ele>
        <time>2012-03-31T09:56:47Z</time>
      </trkpt>
      <trkpt lat="48.42308" lon="2.70478">
        <ele>145</ele>
        <time>2012-03-31T09:56:52Z</time>
      </trkpt>
      <trkpt lat="48.42316" lon="2.70478">
        <ele>145</ele>
        <time>2012-03-31T09:56:55Z</time>
      </trkpt>
      <trkpt lat="48.42326" lon="2.70474">
        <ele>145</ele>
        <time>2012-03-31T09:56:58Z</time>
      </trkpt>
      <trkpt lat="48.42351" lon="2.7046">
        <ele>144</ele>
        <time>2012-03-31T09:57:04Z</time>
      </trkpt>
      <trkpt lat="48.42352" lon="2.70454">
        <ele>144</ele>
        <time>2012-03-31T09:57:05Z</time>
      </trkpt>
      <trkpt lat="48.42358" lon="2.70419">
        <ele>144</ele>
        <time>2012-03-31T09:57:12Z</time>
      </trkpt>
      <trkpt lat="48.42362" lon="2.70397">
        <ele>143</ele>
        <time>2012-03-31T09:57:16Z</time>
      </trkpt>
      <trkpt lat="48.42367" lon="2.70369">
        <ele>143</ele>
        <time>2012-03-31T09:57:21Z</time>
      </trkpt>
      <trkpt lat="48.42373" lon="2.70341">
        <ele>143</ele>
        <time>2012-03-31T09:57:26Z</time>
      </trkpt>
      <trkpt lat="48.42366" lon="2.70335">
        <ele>142</ele>
        <time>2012-03-31T09:57:30Z</time>
      </trkpt>
      <trkpt lat="48.42353" lon="2.70347">
        <ele>142</ele>
        <time>2012-03-31T09:57:34Z</time>
      </trkpt>
      <trkpt lat="48.42346" lon="2.70352">
        <ele>142</ele>
        <time>2012-03-31T09:57:36Z</time>
      </trkpt>
      <trkpt lat="48.4234" lon="2.70357">
        <ele>142</ele>
        <time>2012-03-31T09:57:38Z</time>
      </trkpt>
      <trkpt lat="48.42327" lon="2.70352">
        <ele>141</ele>
        <time>2012-03-31T09:57:42Z</time>
      </trkpt>
      <trkpt lat="48.42324" lon="2.70348">
        <ele>141</ele>
        <time>2012-03-31T09:57:43Z</time>
      </trkpt>
      <trkpt lat="48.42319" lon="2.70341">
        <ele>141</ele>
        <time>2012-03-31T09:57:45Z</time>
      </trkpt>
      <trkpt lat="48.4232" lon="2.70328">
        <ele>141</ele>
        <time>2012-03-31T09:57:49Z</time>
      </trkpt>
      <trkpt lat="48.42319" lon="2.70317">
        <ele>141</ele>
        <time>2012-03-31T09:57:52Z</time>
      </trkpt>
      <trkpt lat="48.42313" lon="2.70309">
        <ele>141</ele>
        <time>2012-03-31T09:57:57Z</time>
      </trkpt>
      <trkpt lat="48.4231" lon="2.70303">
        <ele>141</ele>
        <time>2012-03-31T09:58:00Z</time>
      </trkpt>
      <trkpt lat="48.42311" lon="2.70295">
        <ele>141</ele>
        <time>2012-03-31T09:58:05Z</time>
      </trkpt>
      <trkpt lat="48.42314" lon="2.70291">
        <ele>141</ele>
        <time>2012-03-31T09:58:10Z</time>
      </trkpt>
      <trkpt lat="48.42316" lon="2.70281">
        <ele>141</ele>
        <time>2012-03-31T09:58:14Z</time>
      </trkpt>
      <trkpt lat="48.4232" lon="2.70274">
        <ele>141</ele>
        <time>2012-03-31T09:58:19Z</time>
      </trkpt>
      <trkpt lat="48.42317" lon="2.7026">
        <ele>141</ele>
        <time>2012-03-31T09:58:25Z</time>
      </trkpt>
      <trkpt lat="48.42317" lon="2.7025">
        <ele>140</ele>
        <time>2012-03-31T09:58:28Z</time>
      </trkpt>
      <trkpt lat="48.42319" lon="2.70238">
        <ele>140</ele>
        <time>2012-03-31T09:58:32Z</time>
      </trkpt>
      <trkpt lat="48.42322" lon="2.70236">
        <ele>140</ele>
        <time>2012-03-31T09:58:34Z</time>
      </trkpt>
      <trkpt lat="48.42324" lon="2.70221">
        <ele>139</ele>
        <time>2012-03-31T09:58:41Z</time>
      </trkpt>
      <trkpt lat="48.42321" lon="2.70208">
        <ele>139</ele>
        <time>2012-03-31T09:58:48Z</time>
      </trkpt>
      <trkpt lat="48.4232" lon="2.70206">
        <ele>139</ele>
        <time>2012-03-31T09:58:49Z</time>
      </trkpt>
      <trkpt lat="48.42312" lon="2.70195">
        <ele>139</ele>
        <time>2012-03-31T09:58:54Z</time>
      </trkpt>
      <trkpt lat="48.42313" lon="2.70183">
        <ele>139</ele>
        <time>2012-03-31T09:58:57Z</time>
      </trkpt>
      <trkpt lat="48.42315" lon="2.7018">
        <ele>139</ele>
        <time>2012-03-31T09:58:58Z</time>
      </trkpt>
      <trkpt lat="48.42316" lon="2.70166">
        <ele>137</ele>
        <time>2012-03-31T09:59:03Z</time>
      </trkpt>
      <trkpt lat="48.42312" lon="2.70158">
        <ele>136</ele>
        <time>2012-03-31T09:59:05Z</time>
      </trkpt>
      <trkpt lat="48.42309" lon="2.70151">
        <ele>136</ele>
        <time>2012-03-31T09:59:07Z</time>
      </trkpt>
      <trkpt lat="48.42309" lon="2.70142">
        <ele>136</ele>
        <time>2012-03-31T09:59:12Z</time>
      </trkpt>
      <trkpt lat="48.42311" lon="2.7014">
        <ele>136</ele>
        <time>2012-03-31T09:59:21Z</time>
      </trkpt>
      <trkpt lat="48.42313" lon="2.70143">
        <ele>136</ele>
        <time>2012-03-31T09:59:27Z</time>
      </trkpt>
      <trkpt lat="48.42316" lon="2.70149">
        <ele>136</ele>
        <time>2012-03-31T09:59:33Z</time>
      </trkpt>
      <trkpt lat="48.42319" lon="2.70149">
        <ele>137</ele>
        <time>2012-03-31T09:59:39Z</time>
      </trkpt>
      <trkpt lat="48.42322" lon="2.70148">
        <ele>137</ele>
        <time>2012-03-31T09:59:45Z</time>
      </trkpt>
      <trkpt lat="48.42322" lon="2.70148">
        <ele>137</ele>
        <time>2012-03-31T09:59:53Z</time>
      </trkpt>
      <trkpt lat="48.42331" lon="2.70148">
        <ele>137</ele>
        <time>2012-03-31T09:59:58Z</time>
      </trkpt>
      <trkpt lat="48.42335" lon="2.70136">
        <ele>142</ele>
        <time>2012-03-31T10:00:02Z</time>
      </trkpt>
      <trkpt lat="48.42334" lon="2.70109">
        <ele>141</ele>
        <time>2012-03-31T10:00:08Z</time>
      </trkpt>
      <trkpt lat="48.42335" lon="2.70106">
        <ele>141</ele>
        <time>2012-03-31T10:00:09Z</time>
      </trkpt>
      <trkpt lat="48.4234" lon="2.7009">
        <ele>140</ele>
        <time>2012-03-31T10:00:14Z</time>
      </trkpt>
      <trkpt lat="48.42343" lon="2.70068">
        <ele>141</ele>
        <time>2012-03-31T10:00:19Z</time>
      </trkpt>
      <trkpt lat="48.42336" lon="2.70055">
        <ele>141</ele>
        <time>2012-03-31T10:00:23Z</time>
      </trkpt>
      <trkpt lat="48.42332" lon="2.70053">
        <ele>135</ele>
        <time>2012-03-31T10:00:25Z</time>
      </trkpt>
      <trkpt lat="48.42323" lon="2.70055">
        <ele>135</ele>
        <time>2012-03-31T10:00:30Z</time>
      </trkpt>
      <trkpt lat="48.42315" lon="2.70057">
        <ele>134</ele>
        <time>2012-03-31T10:00:34Z</time>
      </trkpt>
      <trkpt lat="48.42304" lon="2.70068">
        <ele>134</ele>
        <time>2012-03-31T10:00:39Z</time>
      </trkpt>
      <trkpt lat="48.42298" lon="2.70069">
        <ele>133</ele>
        <time>2012-03-31T10:00:43Z</time>
      </trkpt>
      <trkpt lat="48.42296" lon="2.70065">
        <ele>133</ele>
        <time>2012-03-31T10:00:50Z</time>
      </trkpt>
      <trkpt lat="48.42295" lon="2.70062">
        <ele>132</ele>
        <time>2012-03-31T10:00:59Z</time>
      </trkpt>
      <trkpt lat="48.42292" lon="2.70059">
        <ele>132</ele>
        <time>2012-03-31T10:01:04Z</time>
      </trkpt>
      <trkpt lat="48.42291" lon="2.70047">
        <ele>132</ele>
        <time>2012-03-31T10:01:09Z</time>
      </trkpt>
      <trkpt lat="48.42293" lon="2.70036">
        <ele>132</ele>
        <time>2012-03-31T10:01:13Z</time>
      </trkpt>
      <trkpt lat="48.42293" lon="2.70032">
        <ele>132</ele>
        <time>2012-03-31T10:01:15Z</time>
      </trkpt>
      <trkpt lat="48.42296" lon="2.70028">
        <ele>133</ele>
        <time>2012-03-31T10:01:20Z</time>
      </trkpt>
      <trkpt lat="48.42297" lon="2.70027">
        <ele>133</ele>
        <time>2012-03-31T10:01:25Z</time>
      </trkpt>
      <trkpt lat="48.42299" lon="2.70022">
        <ele>133</ele>
        <time>2012-03-31T10:01:30Z</time>
      </trkpt>
      <trkpt lat="48.42302" lon="2.70018">
        <ele>133</ele>
        <time>2012-03-31T10:01:35Z</time>
      </trkpt>
      <trkpt lat="48.42306" lon="2.70017">
        <ele>134</ele>
        <time>2012-03-31T10:01:42Z</time>
      </trkpt>
      <trkpt lat="48.42307" lon="2.70016">
        <ele>134</ele>
        <time>2012-03-31T10:01:43Z</time>
      </trkpt>
      <trkpt lat="48.4231" lon="2.70013">
        <ele>135</ele>
        <time>2012-03-31T10:01:49Z</time>
      </trkpt>
      <trkpt lat="48.4231" lon="2.70011">
        <ele>135</ele>
        <time>2012-03-31T10:01:52Z</time>
      </trkpt>
      <trkpt lat="48.42313" lon="2.70002">
        <ele>135</ele>
        <time>2012-03-31T10:01:57Z</time>
      </trkpt>
      <trkpt lat="48.42314" lon="2.7">
        <ele>136</ele>
        <time>2012-03-31T10:01:58Z</time>
      </trkpt>
      <trkpt lat="48.42321" lon="2.69994">
        <ele>137</ele>
        <time>2012-03-31T10:02:03Z</time>
      </trkpt>
      <trkpt lat="48.42327" lon="2.69993">
        <ele>138</ele>
        <time>2012-03-31T10:02:07Z</time>
      </trkpt>
      <trkpt lat="48.4233" lon="2.69984">
        <ele>137</ele>
        <time>2012-03-31T10:02:11Z</time>
      </trkpt>
      <trkpt lat="48.4233" lon="2.69979">
        <ele>137</ele>
        <time>2012-03-31T10:02:14Z</time>
      </trkpt>
      <trkpt lat="48.42331" lon="2.69968">
        <ele>136</ele>
        <time>2012-03-31T10:02:21Z</time>
      </trkpt>
      <trkpt lat="48.42341" lon="2.69959">
        <ele>142</ele>
        <time>2012-03-31T10:04:59Z</time>
      </trkpt>
      <trkpt lat="48.4234" lon="2.69959">
        <ele>142</ele>
        <time>2012-03-31T10:05:09Z</time>
      </trkpt>
      <trkpt lat="48.42332" lon="2.69955">
        <ele>136</ele>
        <time>2012-03-31T10:05:14Z</time>
      </trkpt>
      <trkpt lat="48.42322" lon="2.69956">
        <ele>136</ele>
        <time>2012-03-31T10:05:17Z</time>
      </trkpt>
      <trkpt lat="48.42313" lon="2.69946">
        <ele>135</ele>
        <time>2012-03-31T10:05:22Z</time>
      </trkpt>
      <trkpt lat="48.42305" lon="2.69946">
        <ele>135</ele>
        <time>2012-03-31T10:05:25Z</time>
      </trkpt>
      <trkpt lat="48.42292" lon="2.6995">
        <ele>134</ele>
        <time>2012-03-31T10:05:29Z</time>
      </trkpt>
      <trkpt lat="48.42285" lon="2.69948">
        <ele>133</ele>
        <time>2012-03-31T10:05:32Z</time>
      </trkpt>
      <trkpt lat="48.42277" lon="2.69942">
        <ele>132</ele>
        <time>2012-03-31T10:05:36Z</time>
      </trkpt>
      <trkpt lat="48.42276" lon="2.69941">
        <ele>132</ele>
        <time>2012-03-31T10:05:37Z</time>
      </trkpt>
      <trkpt lat="48.42269" lon="2.69934">
        <ele>132</ele>
        <time>2012-03-31T10:05:41Z</time>
      </trkpt>
      <trkpt lat="48.4227" lon="2.69923">
        <ele>131</ele>
        <time>2012-03-31T10:05:47Z</time>
      </trkpt>
      <trkpt lat="48.42273" lon="2.69921">
        <ele>132</ele>
        <time>2012-03-31T10:05:49Z</time>
      </trkpt>
      <trkpt lat="48.42275" lon="2.69917">
        <ele>132</ele>
        <time>2012-03-31T10:05:55Z</time>
      </trkpt>
      <trkpt lat="48.42276" lon="2.69914">
        <ele>132</ele>
        <time>2012-03-31T10:06:00Z</time>
      </trkpt>
      <trkpt lat="48.42279" lon="2.6991">
        <ele>132</ele>
        <time>2012-03-31T10:06:08Z</time>
      </trkpt>
      <trkpt lat="48.42286" lon="2.69907">
        <ele>133</ele>
        <time>2012-03-31T10:06:13Z</time>
      </trkpt>
      <trkpt lat="48.42288" lon="2.69906">
        <ele>133</ele>
        <time>2012-03-31T10:06:14Z</time>
      </trkpt>
      <trkpt lat="48.42289" lon="2.69899">
        <ele>134</ele>
        <time>2012-03-31T10:06:19Z</time>
      </trkpt>
      <trkpt lat="48.42291" lon="2.69893">
        <ele>134</ele>
        <time>2012-03-31T10:06:23Z</time>
      </trkpt>
      <trkpt lat="48.4229" lon="2.6989">
        <ele>134</ele>
        <time>2012-03-31T10:06:29Z</time>
      </trkpt>
      <trkpt lat="48.42286" lon="2.69894">
        <ele>133</ele>
        <time>2012-03-31T10:06:37Z</time>
      </trkpt>
      <trkpt lat="48.42284" lon="2.69893">
        <ele>133</ele>
        <time>2012-03-31T10:06:45Z</time>
      </trkpt>
      <trkpt lat="48.42284" lon="2.69886">
        <ele>133</ele>
        <time>2012-03-31T10:06:50Z</time>
      </trkpt>
      <trkpt lat="48.42281" lon="2.69883">
        <ele>133</ele>
        <time>2012-03-31T10:06:55Z</time>
      </trkpt>
      <trkpt lat="48.4228" lon="2.69881">
        <ele>133</ele>
        <time>2012-03-31T10:07:01Z</time>
      </trkpt>
      <trkpt lat="48.42279" lon="2.69876">
        <ele>133</ele>
        <time>2012-03-31T10:07:09Z</time>
      </trkpt>
      <trkpt lat="48.42278" lon="2.69868">
        <ele>132</ele>
        <time>2012-03-31T10:07:17Z</time>
      </trkpt>
      <trkpt lat="48.42282" lon="2.69861">
        <ele>133</ele>
        <time>2012-03-31T10:07:23Z</time>
      </trkpt>
      <trkpt lat="48.42287" lon="2.69857">
        <ele>133</ele>
        <time>2012-03-31T10:07:29Z</time>
      </trkpt>
      <trkpt lat="48.4229" lon="2.69853">
        <ele>133</ele>
        <time>2012-03-31T10:07:35Z</time>
      </trkpt>
      <trkpt lat="48.42291" lon="2.69853">
        <ele>133</ele>
        <time>2012-03-31T10:07:44Z</time>
      </trkpt>
      <trkpt lat="48.4229" lon="2.6985">
        <ele>133</ele>
        <time>2012-03-31T10:08:19Z</time>
      </trkpt>
      <trkpt lat="48.42287" lon="2.69843">
        <ele>133</ele>
        <time>2012-03-31T10:08:23Z</time>
      </trkpt>
      <trkpt lat="48.42274" lon="2.69838">
        <ele>131</ele>
        <time>2012-03-31T10:08:29Z</time>
      </trkpt>
      <trkpt lat="48.42269" lon="2.69833">
        <ele>129</ele>
        <time>2012-03-31T10:08:32Z</time>
      </trkpt>
      <trkpt lat="48.42268" lon="2.69818">
        <ele>128</ele>
        <time>2012-03-31T10:08:36Z</time>
      </trkpt>
      <trkpt lat="48.42267" lon="2.69812">
        <ele>128</ele>
        <time>2012-03-31T10:08:38Z</time>
      </trkpt>
      <trkpt lat="48.42259" lon="2.69801">
        <ele>128</ele>
        <time>2012-03-31T10:08:42Z</time>
      </trkpt>
      <trkpt lat="48.42247" lon="2.69803">
        <ele>122</ele>
        <time>2012-03-31T10:08:47Z</time>
      </trkpt>
      <trkpt lat="48.42236" lon="2.69811">
        <ele>122</ele>
        <time>2012-03-31T10:08:51Z</time>
      </trkpt>
      <trkpt lat="48.42228" lon="2.6981">
        <ele>121</ele>
        <time>2012-03-31T10:08:54Z</time>
      </trkpt>
      <trkpt lat="48.42216" lon="2.69811">
        <ele>120</ele>
        <time>2012-03-31T10:08:59Z</time>
      </trkpt>
      <trkpt lat="48.42216" lon="2.6981">
        <ele>120</ele>
        <time>2012-03-31T10:09:01Z</time>
      </trkpt>
      <trkpt lat="48.42211" lon="2.69807">
        <ele>119</ele>
        <time>2012-03-31T10:09:07Z</time>
      </trkpt>
      <trkpt lat="48.42204" lon="2.69807">
        <ele>119</ele>
        <time>2012-03-31T10:09:57Z</time>
      </trkpt>
      <trkpt lat="48.42201" lon="2.69806">
        <ele>119</ele>
        <time>2012-03-31T10:09:58Z</time>
      </trkpt>
      <trkpt lat="48.42195" lon="2.69801">
        <ele>118</ele>
        <time>2012-03-31T10:10:02Z</time>
      </trkpt>
      <trkpt lat="48.42188" lon="2.69789">
        <ele>118</ele>
        <time>2012-03-31T10:10:08Z</time>
      </trkpt>
      <trkpt lat="48.42183" lon="2.69786">
        <ele>118</ele>
        <time>2012-03-31T10:10:11Z</time>
      </trkpt>
      <trkpt lat="48.42174" lon="2.69794">
        <ele>117</ele>
        <time>2012-03-31T10:10:16Z</time>
      </trkpt>
      <trkpt lat="48.42162" lon="2.69802">
        <ele>112</ele>
        <time>2012-03-31T10:10:19Z</time>
      </trkpt>
      <trkpt lat="48.42158" lon="2.69805">
        <ele>112</ele>
        <time>2012-03-31T10:10:20Z</time>
      </trkpt>
      <trkpt lat="48.42149" lon="2.69809">
        <ele>112</ele>
        <time>2012-03-31T10:10:22Z</time>
      </trkpt>
      <trkpt lat="48.42125" lon="2.69826">
        <ele>110</ele>
        <time>2012-03-31T10:10:27Z</time>
      </trkpt>
      <trkpt lat="48.421" lon="2.69843">
        <ele>108</ele>
        <time>2012-03-31T10:10:32Z</time>
      </trkpt>
      <trkpt lat="48.42097" lon="2.69837">
        <ele>107</ele>
        <time>2012-03-31T10:10:35Z</time>
      </trkpt>
      <trkpt lat="48.42096" lon="2.69834">
        <ele>107</ele>
        <time>2012-03-31T10:10:36Z</time>
      </trkpt>
      <trkpt lat="48.42099" lon="2.6981">
        <ele>109</ele>
        <time>2012-03-31T10:10:44Z</time>
      </trkpt>
      <trkpt lat="48.42103" lon="2.69787">
        <ele>110</ele>
        <time>2012-03-31T10:10:50Z</time>
      </trkpt>
      <trkpt lat="48.42107" lon="2.69762">
        <ele>110</ele>
        <time>2012-03-31T10:10:56Z</time>
      </trkpt>
      <trkpt lat="48.42113" lon="2.69727">
        <ele>110</ele>
        <time>2012-03-31T10:11:04Z</time>
      </trkpt>
      <trkpt lat="48.42117" lon="2.69704">
        <ele>109</ele>
        <time>2012-03-31T10:11:09Z</time>
      </trkpt>
      <trkpt lat="48.42122" lon="2.69675">
        <ele>109</ele>
        <time>2012-03-31T10:11:15Z</time>
      </trkpt>
      <trkpt lat="48.42128" lon="2.69653">
        <ele>108</ele>
        <time>2012-03-31T10:11:19Z</time>
      </trkpt>
      <trkpt lat="48.4213" lon="2.69648">
        <ele>108</ele>
        <time>2012-03-31T10:11:20Z</time>
      </trkpt>
      <trkpt lat="48.42139" lon="2.69614">
        <ele>108</ele>
        <time>2012-03-31T10:11:26Z</time>
      </trkpt>
      <trkpt lat="48.42143" lon="2.69591">
        <ele>108</ele>
        <time>2012-03-31T10:11:30Z</time>
      </trkpt>
      <trkpt lat="48.42142" lon="2.69548">
        <ele>107</ele>
        <time>2012-03-31T10:11:37Z</time>
      </trkpt>
      <trkpt lat="48.42134" lon="2.69505">
        <ele>107</ele>
        <time>2012-03-31T10:11:44Z</time>
      </trkpt>
      <trkpt lat="48.42125" lon="2.69478">
        <ele>107</ele>
        <time>2012-03-31T10:11:49Z</time>
      </trkpt>
      <trkpt lat="48.42114" lon="2.69451">
        <ele>107</ele>
        <time>2012-03-31T10:11:54Z</time>
      </trkpt>
      <trkpt lat="48.42094" lon="2.69405">
        <ele>107</ele>
        <time>2012-03-31T10:12:02Z</time>
      </trkpt>
      <trkpt lat="48.4208" lon="2.69374">
        <ele>106</ele>
        <time>2012-03-31T10:12:08Z</time>
      </trkpt>
      <trkpt lat="48.4207" lon="2.69347">
        <ele>106</ele>
        <time>2012-03-31T10:12:13Z</time>
      </trkpt>
      <trkpt lat="48.42058" lon="2.69305">
        <ele>107</ele>
        <time>2012-03-31T10:12:21Z</time>
      </trkpt>
      <trkpt lat="48.42051" lon="2.69277">
        <ele>107</ele>
        <time>2012-03-31T10:12:27Z</time>
      </trkpt>
      <trkpt lat="48.42043" lon="2.69247">
        <ele>106</ele>
        <time>2012-03-31T10:12:33Z</time>
      </trkpt>
      <trkpt lat="48.42041" lon="2.69222">
        <ele>106</ele>
        <time>2012-03-31T10:12:38Z</time>
      </trkpt>
      <trkpt lat="48.42046" lon="2.69198">
        <ele>106</ele>
        <time>2012-03-31T10:12:43Z</time>
      </trkpt>
      <trkpt lat="48.42061" lon="2.69169">
        <ele>106</ele>
        <time>2012-03-31T10:12:50Z</time>
      </trkpt>
      <trkpt lat="48.42078" lon="2.69138">
        <ele>105</ele>
        <time>2012-03-31T10:12:57Z</time>
      </trkpt>
      <trkpt lat="48.42092" lon="2.69117">
        <ele>108</ele>
        <time>2012-03-31T10:13:03Z</time>
      </trkpt>
      <trkpt lat="48.42099" lon="2.69103">
        <ele>108</ele>
        <time>2012-03-31T10:13:07Z</time>
      </trkpt>
      <trkpt lat="48.42109" lon="2.69081">
        <ele>108</ele>
        <time>2012-03-31T10:13:13Z</time>
      </trkpt>
      <trkpt lat="48.42119" lon="2.69056">
        <ele>108</ele>
        <time>2012-03-31T10:13:19Z</time>
      </trkpt>
      <trkpt lat="48.42129" lon="2.69031">
        <ele>109</ele>
        <time>2012-03-31T10:13:25Z</time>
      </trkpt>
      <trkpt lat="48.4214" lon="2.69007">
        <ele>109</ele>
        <time>2012-03-31T10:13:31Z</time>
      </trkpt>
      <trkpt lat="48.42146" lon="2.6899">
        <ele>110</ele>
        <time>2012-03-31T10:13:36Z</time>
      </trkpt>
      <trkpt lat="48.42155" lon="2.68984">
        <ele>110</ele>
        <time>2012-03-31T10:13:40Z</time>
      </trkpt>
      <trkpt lat="48.42166" lon="2.69001">
        <ele>112</ele>
        <time>2012-03-31T10:13:46Z</time>
      </trkpt>
      <trkpt lat="48.42174" lon="2.69019">
        <ele>114</ele>
        <time>2012-03-31T10:13:52Z</time>
      </trkpt>
      <trkpt lat="48.42183" lon="2.69038">
        <ele>115</ele>
        <time>2012-03-31T10:13:59Z</time>
      </trkpt>
      <trkpt lat="48.4219" lon="2.6905">
        <ele>115</ele>
        <time>2012-03-31T10:14:04Z</time>
      </trkpt>
      <trkpt lat="48.42192" lon="2.69051">
        <ele>115</ele>
        <time>2012-03-31T10:14:10Z</time>
      </trkpt>
      <trkpt lat="48.42196" lon="2.69055">
        <ele>116</ele>
        <time>2012-03-31T10:14:29Z</time>
      </trkpt>
      <trkpt lat="48.422" lon="2.69063">
        <ele>116</ele>
        <time>2012-03-31T10:14:34Z</time>
      </trkpt>
      <trkpt lat="48.42207" lon="2.69078">
        <ele>116</ele>
        <time>2012-03-31T10:14:40Z</time>
      </trkpt>
      <trkpt lat="48.42213" lon="2.69092">
        <ele>116</ele>
        <time>2012-03-31T10:14:47Z</time>
      </trkpt>
      <trkpt lat="48.42221" lon="2.69106">
        <ele>117</ele>
        <time>2012-03-31T10:14:53Z</time>
      </trkpt>
      <trkpt lat="48.42226" lon="2.69123">
        <ele>117</ele>
        <time>2012-03-31T10:15:00Z</time>
      </trkpt>
      <trkpt lat="48.4223" lon="2.69137">
        <ele>117</ele>
        <time>2012-03-31T10:15:06Z</time>
      </trkpt>
      <trkpt lat="48.42232" lon="2.69143">
        <ele>118</ele>
        <time>2012-03-31T10:15:10Z</time>
      </trkpt>
      <trkpt lat="48.42231" lon="2.69156">
        <ele>118</ele>
        <time>2012-03-31T10:15:16Z</time>
      </trkpt>
      <trkpt lat="48.42232" lon="2.6917">
        <ele>121</ele>
        <time>2012-03-31T10:15:21Z</time>
      </trkpt>
      <trkpt lat="48.42231" lon="2.69175">
        <ele>121</ele>
        <time>2012-03-31T10:15:23Z</time>
      </trkpt>
      <trkpt lat="48.42226" lon="2.69191">
        <ele>121</ele>
        <time>2012-03-31T10:15:30Z</time>
      </trkpt>
      <trkpt lat="48.42223" lon="2.69202">
        <ele>121</ele>
        <time>2012-03-31T10:15:36Z</time>
      </trkpt>
      <trkpt lat="48.42223" lon="2.69207">
        <ele>121</ele>
        <time>2012-03-31T10:15:38Z</time>
      </trkpt>
      <trkpt lat="48.42226" lon="2.69218">
        <ele>122</ele>
        <time>2012-03-31T10:15:45Z</time>
      </trkpt>
      <trkpt lat="48.42235" lon="2.69229">
        <ele>124</ele>
        <time>2012-03-31T10:15:53Z</time>
      </trkpt>
      <trkpt lat="48.4224" lon="2.69234">
        <ele>125</ele>
        <time>2012-03-31T10:16:00Z</time>
      </trkpt>
      <trkpt lat="48.42241" lon="2.69235">
        <ele>125</ele>
        <time>2012-03-31T10:16:01Z</time>
      </trkpt>
      <trkpt lat="48.42243" lon="2.69238">
        <ele>126</ele>
        <time>2012-03-31T10:16:03Z</time>
      </trkpt>
      <trkpt lat="48.42247" lon="2.69245">
        <ele>128</ele>
        <time>2012-03-31T10:16:08Z</time>
      </trkpt>
      <trkpt lat="48.42249" lon="2.69247">
        <ele>129</ele>
        <time>2012-03-31T10:16:10Z</time>
      </trkpt>
      <trkpt lat="48.42251" lon="2.69246">
        <ele>130</ele>
        <time>2012-03-31T10:16:15Z</time>
      </trkpt>
      <trkpt lat="48.42256" lon="2.69247">
        <ele>130</ele>
        <time>2012-03-31T10:16:21Z</time>
      </trkpt>
      <trkpt lat="48.42261" lon="2.69249">
        <ele>130</ele>
        <time>2012-03-31T10:16:27Z</time>
      </trkpt>
      <trkpt lat="48.42263" lon="2.6925">
        <ele>130</ele>
        <time>2012-03-31T10:16:32Z</time>
      </trkpt>
      <trkpt lat="48.42268" lon="2.69254">
        <ele>133</ele>
        <time>2012-03-31T10:16:41Z</time>
      </trkpt>
      <trkpt lat="48.42271" lon="2.69257">
        <ele>133</ele>
        <time>2012-03-31T10:16:49Z</time>
      </trkpt>
      <trkpt lat="48.42273" lon="2.6926">
        <ele>133</ele>
        <time>2012-03-31T10:16:57Z</time>
      </trkpt>
      <trkpt lat="48.42276" lon="2.69266">
        <ele>134</ele>
        <time>2012-03-31T10:17:05Z</time>
      </trkpt>
      <trkpt lat="48.42279" lon="2.69269">
        <ele>134</ele>
        <time>2012-03-31T10:17:12Z</time>
      </trkpt>
      <trkpt lat="48.4228" lon="2.69277">
        <ele>134</ele>
        <time>2012-03-31T10:17:20Z</time>
      </trkpt>
      <trkpt lat="48.42282" lon="2.69285">
        <ele>135</ele>
        <time>2012-03-31T10:17:28Z</time>
      </trkpt>
      <trkpt lat="48.42286" lon="2.69293">
        <ele>135</ele>
        <time>2012-03-31T10:17:37Z</time>
      </trkpt>
      <trkpt lat="48.42291" lon="2.69293">
        <ele>135</ele>
        <time>2012-03-31T10:17:43Z</time>
      </trkpt>
      <trkpt lat="48.42296" lon="2.69296">
        <ele>136</ele>
        <time>2012-03-31T10:17:49Z</time>
      </trkpt>
      <trkpt lat="48.42298" lon="2.69297">
        <ele>136</ele>
        <time>2012-03-31T10:17:54Z</time>
      </trkpt>
      <trkpt lat="48.42303" lon="2.69302">
        <ele>136</ele>
        <time>2012-03-31T10:18:01Z</time>
      </trkpt>
      <trkpt lat="48.42304" lon="2.69304">
        <ele>136</ele>
        <time>2012-03-31T10:18:11Z</time>
      </trkpt>
      <trkpt lat="48.42303" lon="2.69306">
        <ele>136</ele>
        <time>2012-03-31T10:18:36Z</time>
      </trkpt>
      <trkpt lat="48.42302" lon="2.69306">
        <ele>136</ele>
        <time>2012-03-31T10:19:17Z</time>
      </trkpt>
      <trkpt lat="48.42303" lon="2.69303">
        <ele>136</ele>
        <time>2012-03-31T10:19:54Z</time>
      </trkpt>
      <trkpt lat="48.42309" lon="2.69305">
        <ele>136</ele>
        <time>2012-03-31T10:20:18Z</time>
      </trkpt>
      <trkpt lat="48.4232" lon="2.69312">
        <ele>137</ele>
        <time>2012-03-31T10:20:27Z</time>
      </trkpt>
      <trkpt lat="48.42331" lon="2.6932">
        <ele>139</ele>
        <time>2012-03-31T10:20:34Z</time>
      </trkpt>
      <trkpt lat="48.42347" lon="2.6933">
        <ele>140</ele>
        <time>2012-03-31T10:20:42Z</time>
      </trkpt>
      <trkpt lat="48.42361" lon="2.69341">
        <ele>141</ele>
        <time>2012-03-31T10:20:48Z</time>
      </trkpt>
      <trkpt lat="48.42384" lon="2.69356">
        <ele>141</ele>
        <time>2012-03-31T10:20:56Z</time>
      </trkpt>
      <trkpt lat="48.42407" lon="2.69372">
        <ele>141</ele>
        <time>2012-03-31T10:21:03Z</time>
      </trkpt>
      <trkpt lat="48.42427" lon="2.69386">
        <ele>143</ele>
        <time>2012-03-31T10:21:09Z</time>
      </trkpt>
      <trkpt lat="48.42449" lon="2.694">
        <ele>143</ele>
        <time>2012-03-31T10:21:15Z</time>
      </trkpt>
      <trkpt lat="48.4247" lon="2.69413">
        <ele>143</ele>
        <time>2012-03-31T10:21:22Z</time>
      </trkpt>
      <trkpt lat="48.42487" lon="2.6941">
        <ele>144</ele>
        <time>2012-03-31T10:21:28Z</time>
      </trkpt>
      <trkpt lat="48.42507" lon="2.69404">
        <ele>145</ele>
        <time>2012-03-31T10:21:34Z</time>
      </trkpt>
      <trkpt lat="48.42525" lon="2.69395">
        <ele>146</ele>
        <time>2012-03-31T10:21:40Z</time>
      </trkpt>
      <trkpt lat="48.42529" lon="2.69375">
        <ele>146</ele>
        <time>2012-03-31T10:21:45Z</time>
      </trkpt>
      <trkpt lat="48.4253" lon="2.6935">
        <ele>146</ele>
        <time>2012-03-31T10:21:50Z</time>
      </trkpt>
      <trkpt lat="48.42532" lon="2.69321">
        <ele>146</ele>
        <time>2012-03-31T10:21:55Z</time>
      </trkpt>
      <trkpt lat="48.42533" lon="2.69303">
        <ele>146</ele>
        <time>2012-03-31T10:21:58Z</time>
      </trkpt>
      <trkpt lat="48.42533" lon="2.6929">
        <ele>146</ele>
        <time>2012-03-31T10:22:00Z</time>
      </trkpt>
      <trkpt lat="48.42533" lon="2.69263">
        <ele>146</ele>
        <time>2012-03-31T10:22:04Z</time>
      </trkpt>
      <trkpt lat="48.42538" lon="2.69214">
        <ele>145</ele>
        <time>2012-03-31T10:22:11Z</time>
      </trkpt>
      <trkpt lat="48.42542" lon="2.69166">
        <ele>145</ele>
        <time>2012-03-31T10:22:18Z</time>
      </trkpt>
      <trkpt lat="48.42544" lon="2.69152">
        <ele>145</ele>
        <time>2012-03-31T10:22:20Z</time>
      </trkpt>
      <trkpt lat="48.42544" lon="2.69125">
        <ele>145</ele>
        <time>2012-03-31T10:22:24Z</time>
      </trkpt>
      <trkpt lat="48.42545" lon="2.69081">
        <ele>145</ele>
        <time>2012-03-31T10:22:31Z</time>
      </trkpt>
      <trkpt lat="48.42546" lon="2.69047">
        <ele>145</ele>
        <time>2012-03-31T10:22:37Z</time>
      </trkpt>
      <trkpt lat="48.42548" lon="2.69003">
        <ele>145</ele>
        <time>2012-03-31T10:22:45Z</time>
      </trkpt>
      <trkpt lat="48.42549" lon="2.68967">
        <ele>145</ele>
        <time>2012-03-31T10:22:51Z</time>
      </trkpt>
      <trkpt lat="48.42549" lon="2.68932">
        <ele>145</ele>
        <time>2012-03-31T10:22:57Z</time>
      </trkpt>
      <trkpt lat="48.42548" lon="2.68904">
        <ele>145</ele>
        <time>2012-03-31T10:23:02Z</time>
      </trkpt>
      <trkpt lat="48.42548" lon="2.6888">
        <ele>145</ele>
        <time>2012-03-31T10:23:08Z</time>
      </trkpt>
      <trkpt lat="48.42549" lon="2.68878">
        <ele>145</ele>
        <time>2012-03-31T10:23:09Z</time>
      </trkpt>
      <trkpt lat="48.42545" lon="2.68875">
        <ele>144</ele>
        <time>2012-03-31T10:23:13Z</time>
      </trkpt>
      <trkpt lat="48.42533" lon="2.68881">
        <ele>144</ele>
        <time>2012-03-31T10:23:17Z</time>
      </trkpt>
      <trkpt lat="48.42507" lon="2.68882">
        <ele>143</ele>
        <time>2012-03-31T10:23:24Z</time>
      </trkpt>
      <trkpt lat="48.42479" lon="2.68887">
        <ele>140</ele>
        <time>2012-03-31T10:23:29Z</time>
      </trkpt>
      <trkpt lat="48.42473" lon="2.68893">
        <ele>140</ele>
        <time>2012-03-31T10:23:32Z</time>
      </trkpt>
      <trkpt lat="48.42469" lon="2.6891">
        <ele>140</ele>
        <time>2012-03-31T10:23:38Z</time>
      </trkpt>
      <trkpt lat="48.42468" lon="2.68912">
        <ele>140</ele>
        <time>2012-03-31T10:23:41Z</time>
      </trkpt>
      <trkpt lat="48.4247" lon="2.68905">
        <ele>140</ele>
        <time>2012-03-31T10:23:48Z</time>
      </trkpt>
      <trkpt lat="48.42471" lon="2.689">
        <ele>140</ele>
        <time>2012-03-31T10:23:55Z</time>
      </trkpt>
      <trkpt lat="48.42473" lon="2.68896">
        <ele>140</ele>
        <time>2012-03-31T10:24:03Z</time>
      </trkpt>
      <trkpt lat="48.42474" lon="2.68893">
        <ele>140</ele>
        <time>2012-03-31T10:24:06Z</time>
      </trkpt>
      <trkpt lat="48.42475" lon="2.68889">
        <ele>140</ele>
        <time>2012-03-31T10:24:09Z</time>
      </trkpt>
      <trkpt lat="48.4247" lon="2.68885">
        <ele>140</ele>
        <time>2012-03-31T10:24:15Z</time>
      </trkpt>
      <trkpt lat="48.42466" lon="2.68883">
        <ele>140</ele>
        <time>2012-03-31T10:24:18Z</time>
      </trkpt>
      <trkpt lat="48.42455" lon="2.68888">
        <ele>140</ele>
        <time>2012-03-31T10:24:23Z</time>
      </trkpt>
      <trkpt lat="48.42446" lon="2.68893">
        <ele>140</ele>
        <time>2012-03-31T10:24:28Z</time>
      </trkpt>
      <trkpt lat="48.42433" lon="2.68883">
        <ele>140</ele>
        <time>2012-03-31T10:24:33Z</time>
      </trkpt>
      <trkpt lat="48.4243" lon="2.6888">
        <ele>140</ele>
        <time>2012-03-31T10:24:37Z</time>
      </trkpt>
      <trkpt lat="48.42428" lon="2.68879">
        <ele>140</ele>
        <time>2012-03-31T10:24:49Z</time>
      </trkpt>
      <trkpt lat="48.42418" lon="2.68889">
        <ele>140</ele>
        <time>2012-03-31T10:24:55Z</time>
      </trkpt>
      <trkpt lat="48.42415" lon="2.68893">
        <ele>138</ele>
        <time>2012-03-31T10:24:58Z</time>
      </trkpt>
      <trkpt lat="48.42413" lon="2.68891">
        <ele>138</ele>
        <time>2012-03-31T10:24:59Z</time>
      </trkpt>
      <trkpt lat="48.42405" lon="2.68879">
        <ele>137</ele>
        <time>2012-03-31T10:25:04Z</time>
      </trkpt>
      <trkpt lat="48.42403" lon="2.68883">
        <ele>138</ele>
        <time>2012-03-31T10:25:14Z</time>
      </trkpt>
      <trkpt lat="48.42402" lon="2.68888">
        <ele>138</ele>
        <time>2012-03-31T10:25:21Z</time>
      </trkpt>
      <trkpt lat="48.424" lon="2.689">
        <ele>138</ele>
        <time>2012-03-31T10:25:26Z</time>
      </trkpt>
      <trkpt lat="48.424" lon="2.68909">
        <ele>139</ele>
        <time>2012-03-31T10:25:32Z</time>
      </trkpt>
      <trkpt lat="48.42399" lon="2.68912">
        <ele>139</ele>
        <time>2012-03-31T10:25:35Z</time>
      </trkpt>
      <trkpt lat="48.42398" lon="2.68923">
        <ele>140</ele>
        <time>2012-03-31T10:25:40Z</time>
      </trkpt>
      <trkpt lat="48.42397" lon="2.68924">
        <ele>140</ele>
        <time>2012-03-31T10:25:47Z</time>
      </trkpt>
      <trkpt lat="48.42395" lon="2.6893">
        <ele>140</ele>
        <time>2012-03-31T10:25:50Z</time>
      </trkpt>
      <trkpt lat="48.42394" lon="2.68938">
        <ele>140</ele>
        <time>2012-03-31T10:25:54Z</time>
      </trkpt>
      <trkpt lat="48.42389" lon="2.68939">
        <ele>139</ele>
        <time>2012-03-31T10:25:59Z</time>
      </trkpt>
      <trkpt lat="48.42385" lon="2.68941">
        <ele>139</ele>
        <time>2012-03-31T10:26:39Z</time>
      </trkpt>
      <trkpt lat="48.42377" lon="2.68939">
        <ele>139</ele>
        <time>2012-03-31T10:26:42Z</time>
      </trkpt>
      <trkpt lat="48.42372" lon="2.6895">
        <ele>139</ele>
        <time>2012-03-31T10:26:47Z</time>
      </trkpt>
      <trkpt lat="48.42366" lon="2.68969">
        <ele>139</ele>
        <time>2012-03-31T10:26:51Z</time>
      </trkpt>
      <trkpt lat="48.42359" lon="2.68986">
        <ele>138</ele>
        <time>2012-03-31T10:26:55Z</time>
      </trkpt>
      <trkpt lat="48.42357" lon="2.68989">
        <ele>138</ele>
        <time>2012-03-31T10:26:56Z</time>
      </trkpt>
      <trkpt lat="48.42354" lon="2.69003">
        <ele>138</ele>
        <time>2012-03-31T10:27:02Z</time>
      </trkpt>
      <trkpt lat="48.42348" lon="2.69016">
        <ele>138</ele>
        <time>2012-03-31T10:27:07Z</time>
      </trkpt>
      <trkpt lat="48.42345" lon="2.69024">
        <ele>137</ele>
        <time>2012-03-31T10:27:10Z</time>
      </trkpt>
      <trkpt lat="48.42342" lon="2.69041">
        <ele>137</ele>
        <time>2012-03-31T10:27:15Z</time>
      </trkpt>
      <trkpt lat="48.42336" lon="2.69055">
        <ele>137</ele>
        <time>2012-03-31T10:27:21Z</time>
      </trkpt>
      <trkpt lat="48.4233" lon="2.69061">
        <ele>131</ele>
        <time>2012-03-31T10:27:31Z</time>
      </trkpt>
      <trkpt lat="48.42331" lon="2.69063">
        <ele>131</ele>
        <time>2012-03-31T10:27:36Z</time>
      </trkpt>
      <trkpt lat="48.42335" lon="2.69072">
        <ele>135</ele>
        <time>2012-03-31T10:27:40Z</time>
      </trkpt>
      <trkpt lat="48.42333" lon="2.69089">
        <ele>134</ele>
        <time>2012-03-31T10:27:45Z</time>
      </trkpt>
      <trkpt lat="48.4232" lon="2.6912">
        <ele>129</ele>
        <time>2012-03-31T10:27:51Z</time>
      </trkpt>
      <trkpt lat="48.42311" lon="2.69136">
        <ele>128</ele>
        <time>2012-03-31T10:27:55Z</time>
      </trkpt>
      <trkpt lat="48.42312" lon="2.69143">
        <ele>128</ele>
        <time>2012-03-31T10:28:01Z</time>
      </trkpt>
      <trkpt lat="48.42314" lon="2.69141">
        <ele>128</ele>
        <time>2012-03-31T10:28:08Z</time>
      </trkpt>
      <trkpt lat="48.42315" lon="2.6914">
        <ele>128</ele>
        <time>2012-03-31T10:28:17Z</time>
      </trkpt>
      <trkpt lat="48.42315" lon="2.6914">
        <ele>128</ele>
        <time>2012-03-31T10:28:35Z</time>
      </trkpt>
      <trkpt lat="48.42318" lon="2.6914">
        <ele>129</ele>
        <time>2012-03-31T10:28:45Z</time>
      </trkpt>
      <trkpt lat="48.42319" lon="2.6914">
        <ele>129</ele>
        <time>2012-03-31T10:28:48Z</time>
      </trkpt>
      <trkpt lat="48.42322" lon="2.69146">
        <ele>129</ele>
        <time>2012-03-31T10:28:52Z</time>
      </trkpt>
      <trkpt lat="48.42328" lon="2.69152">
        <ele>130</ele>
        <time>2012-03-31T10:28:57Z</time>
      </trkpt>
      <trkpt lat="48.42333" lon="2.69158">
        <ele>131</ele>
        <time>2012-03-31T10:29:03Z</time>
      </trkpt>
      <trkpt lat="48.42338" lon="2.69159">
        <ele>133</ele>
        <time>2012-03-31T10:29:10Z</time>
      </trkpt>
      <trkpt lat="48.42345" lon="2.69157">
        <ele>134</ele>
        <time>2012-03-31T10:29:16Z</time>
      </trkpt>
      <trkpt lat="48.42356" lon="2.69161">
        <ele>134</ele>
        <time>2012-03-31T10:29:23Z</time>
      </trkpt>
      <trkpt lat="48.42358" lon="2.6916">
        <ele>134</ele>
        <time>2012-03-31T10:29:25Z</time>
      </trkpt>
      <trkpt lat="48.42364" lon="2.69162">
        <ele>135</ele>
        <time>2012-03-31T10:29:30Z</time>
      </trkpt>
      <trkpt lat="48.42367" lon="2.69164">
        <ele>135</ele>
        <time>2012-03-31T10:29:34Z</time>
      </trkpt>
      <trkpt lat="48.42373" lon="2.69167">
        <ele>136</ele>
        <time>2012-03-31T10:29:41Z</time>
      </trkpt>
      <trkpt lat="48.42374" lon="2.69168">
        <ele>136</ele>
        <time>2012-03-31T10:29:48Z</time>
      </trkpt>
      <trkpt lat="48.42376" lon="2.69163">
        <ele>135</ele>
        <time>2012-03-31T10:29:54Z</time>
      </trkpt>
      <trkpt lat="48.4238" lon="2.69158">
        <ele>136</ele>
        <time>2012-03-31T10:30:01Z</time>
      </trkpt>
      <trkpt lat="48.42384" lon="2.69156">
        <ele>136</ele>
        <time>2012-03-31T10:30:08Z</time>
      </trkpt>
      <trkpt lat="48.42389" lon="2.69152">
        <ele>136</ele>
        <time>2012-03-31T10:30:15Z</time>
      </trkpt>
      <trkpt lat="48.42392" lon="2.69149">
        <ele>136</ele>
        <time>2012-03-31T10:30:22Z</time>
      </trkpt>
      <trkpt lat="48.42395" lon="2.69148">
        <ele>136</ele>
        <time>2012-03-31T10:30:32Z</time>
      </trkpt>
      <trkpt lat="48.42392" lon="2.6915">
        <ele>136</ele>
        <time>2012-03-31T10:30:38Z</time>
      </trkpt>
      <trkpt lat="48.42389" lon="2.69152">
        <ele>136</ele>
        <time>2012-03-31T10:30:45Z</time>
      </trkpt>
      <trkpt lat="48.42388" lon="2.69154">
        <ele>136</ele>
        <time>2012-03-31T10:30:52Z</time>
      </trkpt>
      <trkpt lat="48.42387" lon="2.69155">
        <ele>136</ele>
        <time>2012-03-31T10:30:55Z</time>
      </trkpt>
      <trkpt lat="48.42383" lon="2.6916">
        <ele>136</ele>
        <time>2012-03-31T10:31:02Z</time>
      </trkpt>
      <trkpt lat="48.4238" lon="2.69165">
        <ele>135</ele>
        <time>2012-03-31T10:31:08Z</time>
      </trkpt>
      <trkpt lat="48.42376" lon="2.69167">
        <ele>136</ele>
        <time>2012-03-31T10:31:13Z</time>
      </trkpt>
      <trkpt lat="48.42369" lon="2.69162">
        <ele>135</ele>
        <time>2012-03-31T10:31:19Z</time>
      </trkpt>
      <trkpt lat="48.42364" lon="2.6916">
        <ele>135</ele>
        <time>2012-03-31T10:31:24Z</time>
      </trkpt>
      <trkpt lat="48.42356" lon="2.69159">
        <ele>134</ele>
        <time>2012-03-31T10:31:30Z</time>
      </trkpt>
      <trkpt lat="48.42347" lon="2.69157">
        <ele>134</ele>
        <time>2012-03-31T10:31:34Z</time>
      </trkpt>
      <trkpt lat="48.42341" lon="2.69164">
        <ele>133</ele>
        <time>2012-03-31T10:31:38Z</time>
      </trkpt>
      <trkpt lat="48.42341" lon="2.69167">
        <ele>133</ele>
        <time>2012-03-31T10:31:42Z</time>
      </trkpt>
      <trkpt lat="48.42339" lon="2.69169">
        <ele>133</ele>
        <time>2012-03-31T10:31:47Z</time>
      </trkpt>
      <trkpt lat="48.42335" lon="2.6917">
        <ele>133</ele>
        <time>2012-03-31T10:31:53Z</time>
      </trkpt>
      <trkpt lat="48.42335" lon="2.69171">
        <ele>133</ele>
        <time>2012-03-31T10:31:56Z</time>
      </trkpt>
      <trkpt lat="48.42331" lon="2.69182">
        <ele>131</ele>
        <time>2012-03-31T10:32:02Z</time>
      </trkpt>
      <trkpt lat="48.42324" lon="2.69197">
        <ele>131</ele>
        <time>2012-03-31T10:32:07Z</time>
      </trkpt>
      <trkpt lat="48.42326" lon="2.69216">
        <ele>132</ele>
        <time>2012-03-31T10:32:15Z</time>
      </trkpt>
      <trkpt lat="48.42326" lon="2.69217">
        <ele>132</ele>
        <time>2012-03-31T10:32:18Z</time>
      </trkpt>
      <trkpt lat="48.42327" lon="2.69215">
        <ele>132</ele>
        <time>2012-03-31T10:32:21Z</time>
      </trkpt>
      <trkpt lat="48.4233" lon="2.69215">
        <ele>132</ele>
        <time>2012-03-31T10:32:28Z</time>
      </trkpt>
      <trkpt lat="48.42326" lon="2.69218">
        <ele>132</ele>
        <time>2012-03-31T10:32:40Z</time>
      </trkpt>
      <trkpt lat="48.42326" lon="2.69218">
        <ele>132</ele>
        <time>2012-03-31T10:32:41Z</time>
      </trkpt>
      <trkpt lat="48.42324" lon="2.69225">
        <ele>133</ele>
        <time>2012-03-31T10:32:47Z</time>
      </trkpt>
      <trkpt lat="48.42324" lon="2.69226">
        <ele>133</ele>
        <time>2012-03-31T10:32:53Z</time>
      </trkpt>
      <trkpt lat="48.4232" lon="2.69226">
        <ele>132</ele>
        <time>2012-03-31T10:32:59Z</time>
      </trkpt>
      <trkpt lat="48.42319" lon="2.69224">
        <ele>132</ele>
        <time>2012-03-31T10:33:05Z</time>
      </trkpt>
      <trkpt lat="48.42316" lon="2.69224">
        <ele>132</ele>
        <time>2012-03-31T10:33:10Z</time>
      </trkpt>
      <trkpt lat="48.42314" lon="2.69224">
        <ele>132</ele>
        <time>2012-03-31T10:33:12Z</time>
      </trkpt>
      <trkpt lat="48.42312" lon="2.69223">
        <ele>132</ele>
        <time>2012-03-31T10:33:14Z</time>
      </trkpt>
      <trkpt lat="48.42311" lon="2.69225">
        <ele>132</ele>
        <time>2012-03-31T10:33:20Z</time>
      </trkpt>
      <trkpt lat="48.4231" lon="2.69223">
        <ele>132</ele>
        <time>2012-03-31T10:33:40Z</time>
      </trkpt>
      <trkpt lat="48.42311" lon="2.69222">
        <ele>132</ele>
        <time>2012-03-31T10:33:45Z</time>
      </trkpt>
      <trkpt lat="48.42309" lon="2.69225">
        <ele>132</ele>
        <time>2012-03-31T10:33:48Z</time>
      </trkpt>
      <trkpt lat="48.42308" lon="2.69227">
        <ele>132</ele>
        <time>2012-03-31T10:33:50Z</time>
      </trkpt>
      <trkpt lat="48.42309" lon="2.69235">
        <ele>132</ele>
        <time>2012-03-31T10:33:57Z</time>
      </trkpt>
      <trkpt lat="48.42311" lon="2.69245">
        <ele>133</ele>
        <time>2012-03-31T10:34:04Z</time>
      </trkpt>
      <trkpt lat="48.42313" lon="2.69243">
        <ele>133</ele>
        <time>2012-03-31T10:34:13Z</time>
      </trkpt>
      <trkpt lat="48.42314" lon="2.69242">
        <ele>133</ele>
        <time>2012-03-31T10:34:21Z</time>
      </trkpt>
      <trkpt lat="48.42311" lon="2.69239">
        <ele>133</ele>
        <time>2012-03-31T10:34:30Z</time>
      </trkpt>
      <trkpt lat="48.4231" lon="2.69232">
        <ele>132</ele>
        <time>2012-03-31T10:34:34Z</time>
      </trkpt>
      <trkpt lat="48.42304" lon="2.69229">
        <ele>132</ele>
        <time>2012-03-31T10:34:40Z</time>
      </trkpt>
      <trkpt lat="48.423" lon="2.6923">
        <ele>131</ele>
        <time>2012-03-31T10:34:47Z</time>
      </trkpt>
      <trkpt lat="48.42295" lon="2.69231">
        <ele>131</ele>
        <time>2012-03-31T10:34:53Z</time>
      </trkpt>
      <trkpt lat="48.42294" lon="2.69232">
        <ele>131</ele>
        <time>2012-03-31T10:34:54Z</time>
      </trkpt>
      <trkpt lat="48.42286" lon="2.6924">
        <ele>131</ele>
        <time>2012-03-31T10:35:01Z</time>
      </trkpt>
      <trkpt lat="48.42286" lon="2.69242">
        <ele>131</ele>
        <time>2012-03-31T10:35:06Z</time>
      </trkpt>
      <trkpt lat="48.42286" lon="2.69245">
        <ele>131</ele>
        <time>2012-03-31T10:35:11Z</time>
      </trkpt>
      <trkpt lat="48.42286" lon="2.69247">
        <ele>131</ele>
        <time>2012-03-31T10:35:13Z</time>
      </trkpt>
      <trkpt lat="48.42294" lon="2.69259">
        <ele>135</ele>
        <time>2012-03-31T10:35:19Z</time>
      </trkpt>
      <trkpt lat="48.423" lon="2.69267">
        <ele>135</ele>
        <time>2012-03-31T10:35:23Z</time>
      </trkpt>
      <trkpt lat="48.42305" lon="2.69277">
        <ele>136</ele>
        <time>2012-03-31T10:35:27Z</time>
      </trkpt>
      <trkpt lat="48.42304" lon="2.69294">
        <ele>136</ele>
        <time>2012-03-31T10:35:33Z</time>
      </trkpt>
      <trkpt lat="48.42304" lon="2.69296">
        <ele>136</ele>
        <time>2012-03-31T10:35:34Z</time>
      </trkpt>
      <trkpt lat="48.42302" lon="2.69312">
        <ele>136</ele>
        <time>2012-03-31T10:35:41Z</time>
      </trkpt>
      <trkpt lat="48.42302" lon="2.69318">
        <ele>136</ele>
        <time>2012-03-31T10:35:47Z</time>
      </trkpt>
      <trkpt lat="48.42305" lon="2.69323">
        <ele>137</ele>
        <time>2012-03-31T10:35:56Z</time>
      </trkpt>
      <trkpt lat="48.42303" lon="2.69329">
        <ele>137</ele>
        <time>2012-03-31T10:36:05Z</time>
      </trkpt>
      <trkpt lat="48.42293" lon="2.69339">
        <ele>136</ele>
        <time>2012-03-31T10:36:11Z</time>
      </trkpt>
      <trkpt lat="48.4229" lon="2.69345">
        <ele>136</ele>
        <time>2012-03-31T10:36:13Z</time>
      </trkpt>
      <trkpt lat="48.42282" lon="2.69362">
        <ele>136</ele>
        <time>2012-03-31T10:36:17Z</time>
      </trkpt>
      <trkpt lat="48.42284" lon="2.69385">
        <ele>135</ele>
        <time>2012-03-31T10:36:22Z</time>
      </trkpt>
      <trkpt lat="48.42283" lon="2.69387">
        <ele>135</ele>
        <time>2012-03-31T10:36:23Z</time>
      </trkpt>
      <trkpt lat="48.42284" lon="2.6939">
        <ele>135</ele>
        <time>2012-03-31T10:36:25Z</time>
      </trkpt>
      <trkpt lat="48.42296" lon="2.69394">
        <ele>136</ele>
        <time>2012-03-31T10:36:30Z</time>
      </trkpt>
      <trkpt lat="48.42302" lon="2.69403">
        <ele>137</ele>
        <time>2012-03-31T10:36:33Z</time>
      </trkpt>
      <trkpt lat="48.42297" lon="2.69425">
        <ele>134</ele>
        <time>2012-03-31T10:36:37Z</time>
      </trkpt>
      <trkpt lat="48.42292" lon="2.69444">
        <ele>133</ele>
        <time>2012-03-31T10:36:41Z</time>
      </trkpt>
      <trkpt lat="48.42288" lon="2.69462">
        <ele>133</ele>
        <time>2012-03-31T10:36:46Z</time>
      </trkpt>
      <trkpt lat="48.42297" lon="2.69459">
        <ele>133</ele>
        <time>2012-03-31T10:36:51Z</time>
      </trkpt>
      <trkpt lat="48.42313" lon="2.6947">
        <ele>134</ele>
        <time>2012-03-31T10:36:55Z</time>
      </trkpt>
      <trkpt lat="48.42317" lon="2.69497">
        <ele>135</ele>
        <time>2012-03-31T10:36:59Z</time>
      </trkpt>
      <trkpt lat="48.42326" lon="2.69509">
        <ele>134</ele>
        <time>2012-03-31T10:37:03Z</time>
      </trkpt>
      <trkpt lat="48.42337" lon="2.69506">
        <ele>138</ele>
        <time>2012-03-31T10:37:07Z</time>
      </trkpt>
      <trkpt lat="48.42344" lon="2.69501">
        <ele>138</ele>
        <time>2012-03-31T10:37:10Z</time>
      </trkpt>
      <trkpt lat="48.42356" lon="2.6949">
        <ele>140</ele>
        <time>2012-03-31T10:37:15Z</time>
      </trkpt>
      <trkpt lat="48.42369" lon="2.6948">
        <ele>140</ele>
        <time>2012-03-31T10:37:19Z</time>
      </trkpt>
      <trkpt lat="48.42384" lon="2.69482">
        <ele>141</ele>
        <time>2012-03-31T10:37:24Z</time>
      </trkpt>
      <trkpt lat="48.42388" lon="2.69488">
        <ele>141</ele>
        <time>2012-03-31T10:37:28Z</time>
      </trkpt>
      <trkpt lat="48.42388" lon="2.69495">
        <ele>141</ele>
        <time>2012-03-31T10:37:38Z</time>
      </trkpt>
      <trkpt lat="48.42388" lon="2.69498">
        <ele>141</ele>
        <time>2012-03-31T10:37:43Z</time>
      </trkpt>
      <trkpt lat="48.42389" lon="2.69501">
        <ele>139</ele>
        <time>2012-03-31T10:37:48Z</time>
      </trkpt>
      <trkpt lat="48.42391" lon="2.69511">
        <ele>139</ele>
        <time>2012-03-31T10:37:53Z</time>
      </trkpt>
      <trkpt lat="48.42391" lon="2.69515">
        <ele>139</ele>
        <time>2012-03-31T10:37:56Z</time>
      </trkpt>
      <trkpt lat="48.42395" lon="2.69527">
        <ele>139</ele>
        <time>2012-03-31T10:38:02Z</time>
      </trkpt>
      <trkpt lat="48.42397" lon="2.69536">
        <ele>139</ele>
        <time>2012-03-31T10:38:05Z</time>
      </trkpt>
      <trkpt lat="48.42409" lon="2.69554">
        <ele>139</ele>
        <time>2012-03-31T10:38:11Z</time>
      </trkpt>
      <trkpt lat="48.42406" lon="2.69567">
        <ele>139</ele>
        <time>2012-03-31T10:38:14Z</time>
      </trkpt>
      <trkpt lat="48.42395" lon="2.69587">
        <ele>138</ele>
        <time>2012-03-31T10:38:20Z</time>
      </trkpt>
      <trkpt lat="48.4239" lon="2.69594">
        <ele>137</ele>
        <time>2012-03-31T10:38:25Z</time>
      </trkpt>
      <trkpt lat="48.42387" lon="2.69599">
        <ele>137</ele>
        <time>2012-03-31T10:38:28Z</time>
      </trkpt>
      <trkpt lat="48.42376" lon="2.69607">
        <ele>136</ele>
        <time>2012-03-31T10:38:35Z</time>
      </trkpt>
      <trkpt lat="48.42371" lon="2.69612">
        <ele>135</ele>
        <time>2012-03-31T10:38:42Z</time>
      </trkpt>
      <trkpt lat="48.42365" lon="2.6962">
        <ele>135</ele>
        <time>2012-03-31T10:38:48Z</time>
      </trkpt>
      <trkpt lat="48.42355" lon="2.69637">
        <ele>134</ele>
        <time>2012-03-31T10:38:53Z</time>
      </trkpt>
      <trkpt lat="48.4235" lon="2.69651">
        <ele>133</ele>
        <time>2012-03-31T10:38:57Z</time>
      </trkpt>
      <trkpt lat="48.4235" lon="2.69659">
        <ele>132</ele>
        <time>2012-03-31T10:39:01Z</time>
      </trkpt>
      <trkpt lat="48.42351" lon="2.69674">
        <ele>133</ele>
        <time>2012-03-31T10:39:06Z</time>
      </trkpt>
      <trkpt lat="48.42355" lon="2.69692">
        <ele>134</ele>
        <time>2012-03-31T10:39:11Z</time>
      </trkpt>
      <trkpt lat="48.42366" lon="2.69706">
        <ele>135</ele>
        <time>2012-03-31T10:39:16Z</time>
      </trkpt>
      <trkpt lat="48.4237" lon="2.69715">
        <ele>136</ele>
        <time>2012-03-31T10:39:19Z</time>
      </trkpt>
      <trkpt lat="48.42371" lon="2.69721">
        <ele>136</ele>
        <time>2012-03-31T10:39:24Z</time>
      </trkpt>
      <trkpt lat="48.42372" lon="2.69726">
        <ele>136</ele>
        <time>2012-03-31T10:39:32Z</time>
      </trkpt>
      <trkpt lat="48.42372" lon="2.69738">
        <ele>136</ele>
        <time>2012-03-31T10:39:37Z</time>
      </trkpt>
      <trkpt lat="48.42372" lon="2.69741">
        <ele>136</ele>
        <time>2012-03-31T10:39:39Z</time>
      </trkpt>
      <trkpt lat="48.42367" lon="2.69739">
        <ele>135</ele>
        <time>2012-03-31T10:39:43Z</time>
      </trkpt>
      <trkpt lat="48.42359" lon="2.69738">
        <ele>135</ele>
        <time>2012-03-31T10:39:46Z</time>
      </trkpt>
      <trkpt lat="48.42352" lon="2.69729">
        <ele>134</ele>
        <time>2012-03-31T10:39:49Z</time>
      </trkpt>
      <trkpt lat="48.42345" lon="2.69724">
        <ele>134</ele>
        <time>2012-03-31T10:39:53Z</time>
      </trkpt>
      <trkpt lat="48.42337" lon="2.69726">
        <ele>134</ele>
        <time>2012-03-31T10:39:57Z</time>
      </trkpt>
      <trkpt lat="48.42327" lon="2.69721">
        <ele>127</ele>
        <time>2012-03-31T10:40:02Z</time>
      </trkpt>
      <trkpt lat="48.42326" lon="2.69722">
        <ele>127</ele>
        <time>2012-03-31T10:40:03Z</time>
      </trkpt>
      <trkpt lat="48.42317" lon="2.69719">
        <ele>126</ele>
        <time>2012-03-31T10:40:07Z</time>
      </trkpt>
      <trkpt lat="48.42315" lon="2.69723">
        <ele>126</ele>
        <time>2012-03-31T10:40:10Z</time>
      </trkpt>
      <trkpt lat="48.4232" lon="2.69733">
        <ele>127</ele>
        <time>2012-03-31T10:40:13Z</time>
      </trkpt>
      <trkpt lat="48.42319" lon="2.69743">
        <ele>128</ele>
        <time>2012-03-31T10:40:15Z</time>
      </trkpt>
      <trkpt lat="48.42318" lon="2.6975">
        <ele>128</ele>
        <time>2012-03-31T10:40:19Z</time>
      </trkpt>
      <trkpt lat="48.42319" lon="2.69752">
        <ele>130</ele>
        <time>2012-03-31T10:40:22Z</time>
      </trkpt>
      <trkpt lat="48.42318" lon="2.69759">
        <ele>130</ele>
        <time>2012-03-31T10:40:26Z</time>
      </trkpt>
      <trkpt lat="48.42316" lon="2.69774">
        <ele>130</ele>
        <time>2012-03-31T10:40:31Z</time>
      </trkpt>
      <trkpt lat="48.42316" lon="2.69777">
        <ele>130</ele>
        <time>2012-03-31T10:40:32Z</time>
      </trkpt>
      <trkpt lat="48.42318" lon="2.69791">
        <ele>131</ele>
        <time>2012-03-31T10:40:40Z</time>
      </trkpt>
      <trkpt lat="48.42319" lon="2.69794">
        <ele>131</ele>
        <time>2012-03-31T10:40:50Z</time>
      </trkpt>
      <trkpt lat="48.42318" lon="2.69801">
        <ele>131</ele>
        <time>2012-03-31T10:40:56Z</time>
      </trkpt>
      <trkpt lat="48.42318" lon="2.69803">
        <ele>132</ele>
        <time>2012-03-31T10:41:01Z</time>
      </trkpt>
      <trkpt lat="48.42317" lon="2.69803">
        <ele>131</ele>
        <time>2012-03-31T10:41:17Z</time>
      </trkpt>
      <trkpt lat="48.4232" lon="2.69804">
        <ele>132</ele>
        <time>2012-03-31T10:41:23Z</time>
      </trkpt>
      <trkpt lat="48.42323" lon="2.69807">
        <ele>132</ele>
        <time>2012-03-31T10:41:29Z</time>
      </trkpt>
      <trkpt lat="48.42322" lon="2.69811">
        <ele>132</ele>
        <time>2012-03-31T10:41:35Z</time>
      </trkpt>
      <trkpt lat="48.42321" lon="2.69811">
        <ele>132</ele>
        <time>2012-03-31T10:41:36Z</time>
      </trkpt>
      <trkpt lat="48.42318" lon="2.69813">
        <ele>132</ele>
        <time>2012-03-31T10:41:43Z</time>
      </trkpt>
      <trkpt lat="48.42316" lon="2.69814">
        <ele>132</ele>
        <time>2012-03-31T10:41:48Z</time>
      </trkpt>
      <trkpt lat="48.42314" lon="2.69817">
        <ele>132</ele>
        <time>2012-03-31T10:41:53Z</time>
      </trkpt>
      <trkpt lat="48.42317" lon="2.69822">
        <ele>133</ele>
        <time>2012-03-31T10:41:59Z</time>
      </trkpt>
      <trkpt lat="48.42319" lon="2.69824">
        <ele>134</ele>
        <time>2012-03-31T10:42:05Z</time>
      </trkpt>
      <trkpt lat="48.4232" lon="2.69828">
        <ele>134</ele>
        <time>2012-03-31T10:42:13Z</time>
      </trkpt>
      <trkpt lat="48.42316" lon="2.6983">
        <ele>134</ele>
        <time>2012-03-31T10:42:20Z</time>
      </trkpt>
      <trkpt lat="48.42316" lon="2.69834">
        <ele>136</ele>
        <time>2012-03-31T10:42:26Z</time>
      </trkpt>
      <trkpt lat="48.42313" lon="2.6984">
        <ele>135</ele>
        <time>2012-03-31T10:42:36Z</time>
      </trkpt>
      <trkpt lat="48.42311" lon="2.69838">
        <ele>135</ele>
        <time>2012-03-31T10:42:42Z</time>
      </trkpt>
      <trkpt lat="48.4231" lon="2.6984">
        <ele>135</ele>
        <time>2012-03-31T10:42:48Z</time>
      </trkpt>
      <trkpt lat="48.42309" lon="2.69839">
        <ele>135</ele>
        <time>2012-03-31T10:42:49Z</time>
      </trkpt>
      <trkpt lat="48.42308" lon="2.69836">
        <ele>135</ele>
        <time>2012-03-31T10:42:52Z</time>
      </trkpt>
      <trkpt lat="48.42307" lon="2.69834">
        <ele>135</ele>
        <time>2012-03-31T10:42:54Z</time>
      </trkpt>
      <trkpt lat="48.42305" lon="2.6983">
        <ele>132</ele>
        <time>2012-03-31T10:42:59Z</time>
      </trkpt>
      <trkpt lat="48.42301" lon="2.69824">
        <ele>131</ele>
        <time>2012-03-31T10:43:09Z</time>
      </trkpt>
      <trkpt lat="48.4229" lon="2.69819">
        <ele>130</ele>
        <time>2012-03-31T10:43:15Z</time>
      </trkpt>
      <trkpt lat="48.42284" lon="2.69817">
        <ele>130</ele>
        <time>2012-03-31T10:43:19Z</time>
      </trkpt>
      <trkpt lat="48.42275" lon="2.69821">
        <ele>129</ele>
        <time>2012-03-31T10:43:24Z</time>
      </trkpt>
      <trkpt lat="48.4227" lon="2.69827">
        <ele>129</ele>
        <time>2012-03-31T10:43:28Z</time>
      </trkpt>
      <trkpt lat="48.4227" lon="2.69831">
        <ele>129</ele>
        <time>2012-03-31T10:43:35Z</time>
      </trkpt>
      <trkpt lat="48.42277" lon="2.69835">
        <ele>132</ele>
        <time>2012-03-31T10:43:43Z</time>
      </trkpt>
      <trkpt lat="48.42278" lon="2.69835">
        <ele>132</ele>
        <time>2012-03-31T10:43:44Z</time>
      </trkpt>
      <trkpt lat="48.42282" lon="2.69835">
        <ele>132</ele>
        <time>2012-03-31T10:43:53Z</time>
      </trkpt>
      <trkpt lat="48.42286" lon="2.69837">
        <ele>133</ele>
        <time>2012-03-31T10:43:59Z</time>
      </trkpt>
      <trkpt lat="48.42286" lon="2.69837">
        <ele>133</ele>
        <time>2012-03-31T10:44:10Z</time>
      </trkpt>
      <trkpt lat="48.42291" lon="2.69844">
        <ele>133</ele>
        <time>2012-03-31T10:44:37Z</time>
      </trkpt>
      <trkpt lat="48.42295" lon="2.69848">
        <ele>134</ele>
        <time>2012-03-31T10:44:44Z</time>
      </trkpt>
      <trkpt lat="48.42294" lon="2.69849">
        <ele>133</ele>
        <time>2012-03-31T10:44:52Z</time>
      </trkpt>
      <trkpt lat="48.42294" lon="2.69845">
        <ele>133</ele>
        <time>2012-03-31T11:03:11Z</time>
      </trkpt>
      <trkpt lat="48.42295" lon="2.69845">
        <ele>133</ele>
        <time>2012-03-31T11:03:40Z</time>
      </trkpt>
      <trkpt lat="48.42297" lon="2.69848">
        <ele>134</ele>
        <time>2012-03-31T11:08:54Z</time>
      </trkpt>
      <trkpt lat="48.423" lon="2.69847">
        <ele>134</ele>
        <time>2012-03-31T11:09:52Z</time>
      </trkpt>
      <trkpt lat="48.42299" lon="2.69846">
        <ele>134</ele>
        <time>2012-03-31T11:18:26Z</time>
      </trkpt>
      <trkpt lat="48.42298" lon="2.69846">
        <ele>134</ele>
        <time>2012-03-31T11:19:09Z</time>
      </trkpt>
      <trkpt lat="48.42301" lon="2.69844">
        <ele>134</ele>
        <time>2012-03-31T11:20:46Z</time>
      </trkpt>
      <trkpt lat="48.42302" lon="2.69846">
        <ele>134</ele>
        <time>2012-03-31T11:21:03Z</time>
      </trkpt>
      <trkpt lat="48.42302" lon="2.69849">
        <ele>134</ele>
        <time>2012-03-31T11:21:08Z</time>
      </trkpt>
      <trkpt lat="48.42303" lon="2.6986">
        <ele>134</ele>
        <time>2012-03-31T11:21:14Z</time>
      </trkpt>
      <trkpt lat="48.42307" lon="2.6986">
        <ele>134</ele>
        <time>2012-03-31T11:21:19Z</time>
      </trkpt>
      <trkpt lat="48.42305" lon="2.69858">
        <ele>134</ele>
        <time>2012-03-31T11:21:21Z</time>
      </trkpt>
      <trkpt lat="48.42302" lon="2.69858">
        <ele>134</ele>
        <time>2012-03-31T11:21:23Z</time>
      </trkpt>
      <trkpt lat="48.42299" lon="2.69866">
        <ele>134</ele>
        <time>2012-03-31T11:21:27Z</time>
      </trkpt>
      <trkpt lat="48.42302" lon="2.69869">
        <ele>134</ele>
        <time>2012-03-31T11:21:29Z</time>
      </trkpt>
      <trkpt lat="48.42305" lon="2.69871">
        <ele>134</ele>
        <time>2012-03-31T11:21:31Z</time>
      </trkpt>
      <trkpt lat="48.42311" lon="2.69882">
        <ele>135</ele>
        <time>2012-03-31T11:21:35Z</time>
      </trkpt>
      <trkpt lat="48.4231" lon="2.6988">
        <ele>135</ele>
        <time>2012-03-31T11:21:37Z</time>
      </trkpt>
      <trkpt lat="48.42305" lon="2.69868">
        <ele>134</ele>
        <time>2012-03-31T11:21:43Z</time>
      </trkpt>
      <trkpt lat="48.42304" lon="2.69864">
        <ele>134</ele>
        <time>2012-03-31T11:21:44Z</time>
      </trkpt>
      <trkpt lat="48.423" lon="2.69856">
        <ele>134</ele>
        <time>2012-03-31T11:21:48Z</time>
      </trkpt>
      <trkpt lat="48.423" lon="2.69861">
        <ele>134</ele>
        <time>2012-03-31T11:21:50Z</time>
      </trkpt>
      <trkpt lat="48.42302" lon="2.69873">
        <ele>134</ele>
        <time>2012-03-31T11:21:53Z</time>
      </trkpt>
      <trkpt lat="48.42305" lon="2.69875">
        <ele>134</ele>
        <time>2012-03-31T11:21:57Z</time>
      </trkpt>
      <trkpt lat="48.42302" lon="2.69866">
        <ele>134</ele>
        <time>2012-03-31T11:22:00Z</time>
      </trkpt>
      <trkpt lat="48.42297" lon="2.69861">
        <ele>134</ele>
        <time>2012-03-31T11:22:05Z</time>
      </trkpt>
      <trkpt lat="48.42298" lon="2.69868">
        <ele>134</ele>
        <time>2012-03-31T11:22:09Z</time>
      </trkpt>
      <trkpt lat="48.42308" lon="2.69879">
        <ele>135</ele>
        <time>2012-03-31T11:22:16Z</time>
      </trkpt>
      <trkpt lat="48.42322" lon="2.69897">
        <ele>137</ele>
        <time>2012-03-31T11:22:24Z</time>
      </trkpt>
      <trkpt lat="48.42336" lon="2.69919">
        <ele>141</ele>
        <time>2012-03-31T11:22:30Z</time>
      </trkpt>
      <trkpt lat="48.42344" lon="2.69934">
        <ele>142</ele>
        <time>2012-03-31T11:22:34Z</time>
      </trkpt>
      <trkpt lat="48.42342" lon="2.69948">
        <ele>142</ele>
        <time>2012-03-31T11:22:38Z</time>
      </trkpt>
      <trkpt lat="48.42336" lon="2.6997">
        <ele>142</ele>
        <time>2012-03-31T11:22:43Z</time>
      </trkpt>
      <trkpt lat="48.42336" lon="2.69989">
        <ele>141</ele>
        <time>2012-03-31T11:22:47Z</time>
      </trkpt>
      <trkpt lat="48.42342" lon="2.70015">
        <ele>141</ele>
        <time>2012-03-31T11:22:54Z</time>
      </trkpt>
      <trkpt lat="48.42343" lon="2.70038">
        <ele>142</ele>
        <time>2012-03-31T11:22:58Z</time>
      </trkpt>
      <trkpt lat="48.42345" lon="2.7007">
        <ele>141</ele>
        <time>2012-03-31T11:23:03Z</time>
      </trkpt>
      <trkpt lat="48.42344" lon="2.70085">
        <ele>140</ele>
        <time>2012-03-31T11:23:06Z</time>
      </trkpt>
      <trkpt lat="48.4234" lon="2.70096">
        <ele>141</ele>
        <time>2012-03-31T11:23:09Z</time>
      </trkpt>
      <trkpt lat="48.42339" lon="2.70103">
        <ele>141</ele>
        <time>2012-03-31T11:23:14Z</time>
      </trkpt>
      <trkpt lat="48.42338" lon="2.7011">
        <ele>141</ele>
        <time>2012-03-31T11:23:21Z</time>
      </trkpt>
      <trkpt lat="48.42338" lon="2.70113">
        <ele>142</ele>
        <time>2012-03-31T11:23:23Z</time>
      </trkpt>
      <trkpt lat="48.42337" lon="2.70127">
        <ele>142</ele>
        <time>2012-03-31T11:23:28Z</time>
      </trkpt>
      <trkpt lat="48.42336" lon="2.70143">
        <ele>142</ele>
        <time>2012-03-31T11:23:33Z</time>
      </trkpt>
      <trkpt lat="48.4233" lon="2.70151">
        <ele>137</ele>
        <time>2012-03-31T11:23:36Z</time>
      </trkpt>
      <trkpt lat="48.42324" lon="2.7015">
        <ele>137</ele>
        <time>2012-03-31T11:23:40Z</time>
      </trkpt>
      <trkpt lat="48.42322" lon="2.70148">
        <ele>137</ele>
        <time>2012-03-31T11:23:44Z</time>
      </trkpt>
      <trkpt lat="48.42318" lon="2.70144">
        <ele>136</ele>
        <time>2012-03-31T11:23:50Z</time>
      </trkpt>
      <trkpt lat="48.42319" lon="2.70145">
        <ele>136</ele>
        <time>2012-03-31T11:23:59Z</time>
      </trkpt>
      <trkpt lat="48.42317" lon="2.70145">
        <ele>136</ele>
        <time>2012-03-31T11:24:07Z</time>
      </trkpt>
      <trkpt lat="48.42316" lon="2.70142">
        <ele>136</ele>
        <time>2012-03-31T11:24:19Z</time>
      </trkpt>
      <trkpt lat="48.42315" lon="2.70142">
        <ele>136</ele>
        <time>2012-03-31T11:24:26Z</time>
      </trkpt>
      <trkpt lat="48.42314" lon="2.70143">
        <ele>136</ele>
        <time>2012-03-31T11:24:34Z</time>
      </trkpt>
      <trkpt lat="48.42314" lon="2.70144">
        <ele>136</ele>
        <time>2012-03-31T11:24:35Z</time>
      </trkpt>
      <trkpt lat="48.42316" lon="2.70159">
        <ele>137</ele>
        <time>2012-03-31T11:24:40Z</time>
      </trkpt>
      <trkpt lat="48.42318" lon="2.70165">
        <ele>137</ele>
        <time>2012-03-31T11:24:42Z</time>
      </trkpt>
      <trkpt lat="48.42316" lon="2.70168">
        <ele>139</ele>
        <time>2012-03-31T11:24:44Z</time>
      </trkpt>
      <trkpt lat="48.42315" lon="2.70172">
        <ele>139</ele>
        <time>2012-03-31T11:24:46Z</time>
      </trkpt>
      <trkpt lat="48.42312" lon="2.70184">
        <ele>139</ele>
        <time>2012-03-31T11:24:51Z</time>
      </trkpt>
      <trkpt lat="48.42312" lon="2.70192">
        <ele>139</ele>
        <time>2012-03-31T11:24:54Z</time>
      </trkpt>
      <trkpt lat="48.42317" lon="2.70197">
        <ele>139</ele>
        <time>2012-03-31T11:24:57Z</time>
      </trkpt>
      <trkpt lat="48.42324" lon="2.70203">
        <ele>139</ele>
        <time>2012-03-31T11:25:02Z</time>
      </trkpt>
      <trkpt lat="48.42328" lon="2.70213">
        <ele>139</ele>
        <time>2012-03-31T11:25:08Z</time>
      </trkpt>
      <trkpt lat="48.42324" lon="2.70227">
        <ele>140</ele>
        <time>2012-03-31T11:25:12Z</time>
      </trkpt>
      <trkpt lat="48.42322" lon="2.7023">
        <ele>140</ele>
        <time>2012-03-31T11:25:13Z</time>
      </trkpt>
      <trkpt lat="48.42318" lon="2.70255">
        <ele>141</ele>
        <time>2012-03-31T11:25:17Z</time>
      </trkpt>
      <trkpt lat="48.42318" lon="2.7026">
        <ele>141</ele>
        <time>2012-03-31T11:25:18Z</time>
      </trkpt>
      <trkpt lat="48.42313" lon="2.70274">
        <ele>141</ele>
        <time>2012-03-31T11:25:22Z</time>
      </trkpt>
      <trkpt lat="48.42312" lon="2.70279">
        <ele>141</ele>
        <time>2012-03-31T11:25:23Z</time>
      </trkpt>
      <trkpt lat="48.42311" lon="2.70287">
        <ele>141</ele>
        <time>2012-03-31T11:25:25Z</time>
      </trkpt>
      <trkpt lat="48.42309" lon="2.70301">
        <ele>141</ele>
        <time>2012-03-31T11:25:30Z</time>
      </trkpt>
      <trkpt lat="48.4231" lon="2.70303">
        <ele>141</ele>
        <time>2012-03-31T11:25:34Z</time>
      </trkpt>
      <trkpt lat="48.42314" lon="2.70306">
        <ele>141</ele>
        <time>2012-03-31T11:25:40Z</time>
      </trkpt>
      <trkpt lat="48.42317" lon="2.70309">
        <ele>141</ele>
        <time>2012-03-31T11:25:46Z</time>
      </trkpt>
      <trkpt lat="48.4232" lon="2.70319">
        <ele>141</ele>
        <time>2012-03-31T11:25:51Z</time>
      </trkpt>
      <trkpt lat="48.42318" lon="2.70338">
        <ele>141</ele>
        <time>2012-03-31T11:25:55Z</time>
      </trkpt>
      <trkpt lat="48.42325" lon="2.70349">
        <ele>141</ele>
        <time>2012-03-31T11:25:58Z</time>
      </trkpt>
      <trkpt lat="48.42331" lon="2.70355">
        <ele>142</ele>
        <time>2012-03-31T11:26:01Z</time>
      </trkpt>
      <trkpt lat="48.42341" lon="2.7035">
        <ele>141</ele>
        <time>2012-03-31T11:26:06Z</time>
      </trkpt>
      <trkpt lat="48.42352" lon="2.70345">
        <ele>142</ele>
        <time>2012-03-31T11:26:10Z</time>
      </trkpt>
      <trkpt lat="48.42366" lon="2.70333">
        <ele>142</ele>
        <time>2012-03-31T11:26:16Z</time>
      </trkpt>
      <trkpt lat="48.4237" lon="2.70331">
        <ele>143</ele>
        <time>2012-03-31T11:26:18Z</time>
      </trkpt>
      <trkpt lat="48.42374" lon="2.70337">
        <ele>143</ele>
        <time>2012-03-31T11:26:22Z</time>
      </trkpt>
      <trkpt lat="48.4237" lon="2.7036">
        <ele>143</ele>
        <time>2012-03-31T11:26:30Z</time>
      </trkpt>
      <trkpt lat="48.42367" lon="2.70377">
        <ele>143</ele>
        <time>2012-03-31T11:26:35Z</time>
      </trkpt>
      <trkpt lat="48.42362" lon="2.704">
        <ele>143</ele>
        <time>2012-03-31T11:26:41Z</time>
      </trkpt>
      <trkpt lat="48.42359" lon="2.7042">
        <ele>144</ele>
        <time>2012-03-31T11:26:47Z</time>
      </trkpt>
      <trkpt lat="48.42355" lon="2.70442">
        <ele>144</ele>
        <time>2012-03-31T11:26:53Z</time>
      </trkpt>
      <trkpt lat="48.42355" lon="2.70447">
        <ele>144</ele>
        <time>2012-03-31T11:26:54Z</time>
      </trkpt>
      <trkpt lat="48.4235" lon="2.70474">
        <ele>145</ele>
        <time>2012-03-31T11:26:59Z</time>
      </trkpt>
      <trkpt lat="48.42349" lon="2.70492">
        <ele>145</ele>
        <time>2012-03-31T11:27:05Z</time>
      </trkpt>
      <trkpt lat="48.4235" lon="2.70497">
        <ele>145</ele>
        <time>2012-03-31T11:27:08Z</time>
      </trkpt>
      <trkpt lat="48.42352" lon="2.70482">
        <ele>145</ele>
        <time>2012-03-31T11:27:13Z</time>
      </trkpt>
      <trkpt lat="48.42356" lon="2.70482">
        <ele>145</ele>
        <time>2012-03-31T11:27:15Z</time>
      </trkpt>
      <trkpt lat="48.42363" lon="2.70498">
        <ele>145</ele>
        <time>2012-03-31T11:27:20Z</time>
      </trkpt>
      <trkpt lat="48.42373" lon="2.70519">
        <ele>147</ele>
        <time>2012-03-31T11:27:26Z</time>
      </trkpt>
      <trkpt lat="48.42382" lon="2.7054">
        <ele>147</ele>
        <time>2012-03-31T11:27:32Z</time>
      </trkpt>
      <trkpt lat="48.4239" lon="2.70557">
        <ele>148</ele>
        <time>2012-03-31T11:27:38Z</time>
      </trkpt>
      <trkpt lat="48.42395" lon="2.70567">
        <ele>148</ele>
        <time>2012-03-31T11:27:41Z</time>
      </trkpt>
      <trkpt lat="48.42393" lon="2.70589">
        <ele>149</ele>
        <time>2012-03-31T11:27:46Z</time>
      </trkpt>
      <trkpt lat="48.42391" lon="2.70612">
        <ele>149</ele>
        <time>2012-03-31T11:27:51Z</time>
      </trkpt>
      <trkpt lat="48.42387" lon="2.70628">
        <ele>148</ele>
        <time>2012-03-31T11:27:55Z</time>
      </trkpt>
      <trkpt lat="48.42379" lon="2.70651">
        <ele>148</ele>
        <time>2012-03-31T11:28:01Z</time>
      </trkpt>
      <trkpt lat="48.4237" lon="2.70672">
        <ele>148</ele>
        <time>2012-03-31T11:28:07Z</time>
      </trkpt>
      <trkpt lat="48.42373" lon="2.70688">
        <ele>147</ele>
        <time>2012-03-31T11:28:11Z</time>
      </trkpt>
      <trkpt lat="48.42377" lon="2.70716">
        <ele>147</ele>
        <time>2012-03-31T11:28:17Z</time>
      </trkpt>
      <trkpt lat="48.42373" lon="2.70735">
        <ele>147</ele>
        <time>2012-03-31T11:28:21Z</time>
      </trkpt>
      <trkpt lat="48.42377" lon="2.70752">
        <ele>145</ele>
        <time>2012-03-31T11:28:25Z</time>
      </trkpt>
      <trkpt lat="48.42406" lon="2.70801">
        <ele>143</ele>
        <time>2012-03-31T11:28:38Z</time>
      </trkpt>
      <trkpt lat="48.42429" lon="2.70828">
        <ele>141</ele>
        <time>2012-03-31T11:28:47Z</time>
      </trkpt>
      <trkpt lat="48.42452" lon="2.70852">
        <ele>141</ele>
        <time>2012-03-31T11:28:56Z</time>
      </trkpt>
      <trkpt lat="48.42487" lon="2.70885">
        <ele>142</ele>
        <time>2012-03-31T11:29:09Z</time>
      </trkpt>
      <trkpt lat="48.42509" lon="2.70912">
        <ele>145</ele>
        <time>2012-03-31T11:29:18Z</time>
      </trkpt>
      <trkpt lat="48.42524" lon="2.70935">
        <ele>148</ele>
        <time>2012-03-31T11:29:24Z</time>
      </trkpt>
      <trkpt lat="48.42528" lon="2.70937">
        <ele>148</ele>
        <time>2012-03-31T11:29:26Z</time>
      </trkpt>
      <trkpt lat="48.42538" lon="2.70929">
        <ele>148</ele>
        <time>2012-03-31T11:29:33Z</time>
      </trkpt>
      <trkpt lat="48.42538" lon="2.70928">
        <ele>148</ele>
        <time>2012-03-31T11:29:37Z</time>
      </trkpt>
      <trkpt lat="48.42543" lon="2.7092">
        <ele>148</ele>
        <time>2012-03-31T11:29:42Z</time>
      </trkpt>
      <trkpt lat="48.42544" lon="2.70919">
        <ele>149</ele>
        <time>2012-03-31T11:29:43Z</time>
      </trkpt>
      <trkpt lat="48.42554" lon="2.70921">
        <ele>149</ele>
        <time>2012-03-31T11:29:49Z</time>
      </trkpt>
      <trkpt lat="48.42556" lon="2.70921">
        <ele>149</ele>
        <time>2012-03-31T11:29:50Z</time>
      </trkpt>
      <trkpt lat="48.42564" lon="2.70921">
        <ele>149</ele>
        <time>2012-03-31T11:29:55Z</time>
      </trkpt>
      <trkpt lat="48.42579" lon="2.70931">
        <ele>150</ele>
        <time>2012-03-31T11:30:01Z</time>
      </trkpt>
      <trkpt lat="48.42579" lon="2.70928">
        <ele>150</ele>
        <time>2012-03-31T11:30:05Z</time>
      </trkpt>
      <trkpt lat="48.42576" lon="2.70927">
        <ele>150</ele>
        <time>2012-03-31T11:30:06Z</time>
      </trkpt>
      <trkpt lat="48.42562" lon="2.70922">
        <ele>149</ele>
        <time>2012-03-31T11:30:12Z</time>
      </trkpt>
      <trkpt lat="48.42535" lon="2.7091">
        <ele>146</ele>
        <time>2012-03-31T11:30:20Z</time>
      </trkpt>
      <trkpt lat="48.42531" lon="2.70908">
        <ele>146</ele>
        <time>2012-03-31T11:30:21Z</time>
      </trkpt>
      <trkpt lat="48.42531" lon="2.70897">
        <ele>146</ele>
        <time>2012-03-31T11:30:24Z</time>
      </trkpt>
      <trkpt lat="48.42533" lon="2.70894">
        <ele>146</ele>
        <time>2012-03-31T11:30:25Z</time>
      </trkpt>
      <trkpt lat="48.42543" lon="2.70883">
        <ele>146</ele>
        <time>2012-03-31T11:30:28Z</time>
      </trkpt>
      <trkpt lat="48.42556" lon="2.70859">
        <ele>146</ele>
        <time>2012-03-31T11:30:32Z</time>
      </trkpt>
      <trkpt lat="48.42567" lon="2.70824">
        <ele>146</ele>
        <time>2012-03-31T11:30:37Z</time>
      </trkpt>
      <trkpt lat="48.42578" lon="2.70812">
        <ele>146</ele>
        <time>2012-03-31T11:30:40Z</time>
      </trkpt>
      <trkpt lat="48.42586" lon="2.70808">
        <ele>149</ele>
        <time>2012-03-31T11:30:42Z</time>
      </trkpt>
      <trkpt lat="48.426" lon="2.70801">
        <ele>149</ele>
        <time>2012-03-31T11:30:45Z</time>
      </trkpt>
      <trkpt lat="48.42628" lon="2.70789">
        <ele>149</ele>
        <time>2012-03-31T11:30:51Z</time>
      </trkpt>
      <trkpt lat="48.42644" lon="2.70785">
        <ele>149</ele>
        <time>2012-03-31T11:30:55Z</time>
      </trkpt>
      <trkpt lat="48.42654" lon="2.70782">
        <ele>149</ele>
        <time>2012-03-31T11:30:57Z</time>
      </trkpt>
      <trkpt lat="48.42685" lon="2.70767">
        <ele>151</ele>
        <time>2012-03-31T11:31:04Z</time>
      </trkpt>
      <trkpt lat="48.42702" lon="2.70758">
        <ele>151</ele>
        <time>2012-03-31T11:31:08Z</time>
      </trkpt>
      <trkpt lat="48.4272" lon="2.70752">
        <ele>151</ele>
        <time>2012-03-31T11:31:12Z</time>
      </trkpt>
      <trkpt lat="48.42735" lon="2.70763">
        <ele>152</ele>
        <time>2012-03-31T11:31:16Z</time>
      </trkpt>
      <trkpt lat="48.42755" lon="2.70762">
        <ele>152</ele>
        <time>2012-03-31T11:31:20Z</time>
      </trkpt>
      <trkpt lat="48.42767" lon="2.70764">
        <ele>152</ele>
        <time>2012-03-31T11:31:22Z</time>
      </trkpt>
      <trkpt lat="48.42795" lon="2.70764">
        <ele>152</ele>
        <time>2012-03-31T11:31:27Z</time>
      </trkpt>
      <trkpt lat="48.42825" lon="2.70762">
        <ele>152</ele>
        <time>2012-03-31T11:31:32Z</time>
      </trkpt>
      <trkpt lat="48.42855" lon="2.70758">
        <ele>151</ele>
        <time>2012-03-31T11:31:37Z</time>
      </trkpt>
      <trkpt lat="48.42878" lon="2.70754">
        <ele>151</ele>
        <time>2012-03-31T11:31:41Z</time>
      </trkpt>
      <trkpt lat="48.42907" lon="2.70759">
        <ele>151</ele>
        <time>2012-03-31T11:31:46Z</time>
      </trkpt>
      <trkpt lat="48.42945" lon="2.70748">
        <ele>149</ele>
        <time>2012-03-31T11:31:52Z</time>
      </trkpt>
      <trkpt lat="48.42957" lon="2.70743">
        <ele>148</ele>
        <time>2012-03-31T11:31:54Z</time>
      </trkpt>
      <trkpt lat="48.42983" lon="2.70722">
        <ele>147</ele>
        <time>2012-03-31T11:31:58Z</time>
      </trkpt>
      <trkpt lat="48.42989" lon="2.70717">
        <ele>147</ele>
        <time>2012-03-31T11:31:59Z</time>
      </trkpt>
      <trkpt lat="48.43019" lon="2.70686">
        <ele>144</ele>
        <time>2012-03-31T11:32:04Z</time>
      </trkpt>
      <trkpt lat="48.43024" lon="2.7068">
        <ele>144</ele>
        <time>2012-03-31T11:32:05Z</time>
      </trkpt>
      <trkpt lat="48.43055" lon="2.70675">
        <ele>144</ele>
        <time>2012-03-31T11:32:10Z</time>
      </trkpt>
      <trkpt lat="48.43073" lon="2.70684">
        <ele>144</ele>
        <time>2012-03-31T11:32:13Z</time>
      </trkpt>
      <trkpt lat="48.43095" lon="2.70692">
        <ele>142</ele>
        <time>2012-03-31T11:32:17Z</time>
      </trkpt>
      <trkpt lat="48.43112" lon="2.70699">
        <ele>142</ele>
        <time>2012-03-31T11:32:20Z</time>
      </trkpt>
      <trkpt lat="48.43135" lon="2.70694">
        <ele>141</ele>
        <time>2012-03-31T11:32:24Z</time>
      </trkpt>
      <trkpt lat="48.4314" lon="2.70688">
        <ele>141</ele>
        <time>2012-03-31T11:32:25Z</time>
      </trkpt>
      <trkpt lat="48.43162" lon="2.70664">
        <ele>142</ele>
        <time>2012-03-31T11:32:30Z</time>
      </trkpt>
      <trkpt lat="48.43187" lon="2.70659">
        <ele>141</ele>
        <time>2012-03-31T11:32:35Z</time>
      </trkpt>
      <trkpt lat="48.43201" lon="2.70654">
        <ele>141</ele>
        <time>2012-03-31T11:32:38Z</time>
      </trkpt>
      <trkpt lat="48.43221" lon="2.70644">
        <ele>141</ele>
        <time>2012-03-31T11:32:42Z</time>
      </trkpt>
      <trkpt lat="48.4323" lon="2.70629">
        <ele>141</ele>
        <time>2012-03-31T11:32:45Z</time>
      </trkpt>
      <trkpt lat="48.43238" lon="2.70616">
        <ele>142</ele>
        <time>2012-03-31T11:32:48Z</time>
      </trkpt>
      <trkpt lat="48.43249" lon="2.70605">
        <ele>142</ele>
        <time>2012-03-31T11:32:52Z</time>
      </trkpt>
      <trkpt lat="48.4325" lon="2.70593">
        <ele>143</ele>
        <time>2012-03-31T11:32:55Z</time>
      </trkpt>
      <trkpt lat="48.43248" lon="2.70568">
        <ele>144</ele>
        <time>2012-03-31T11:33:01Z</time>
      </trkpt>
      <trkpt lat="48.43246" lon="2.70539">
        <ele>145</ele>
        <time>2012-03-31T11:33:07Z</time>
      </trkpt>
      <trkpt lat="48.43238" lon="2.70515">
        <ele>145</ele>
        <time>2012-03-31T11:33:12Z</time>
      </trkpt>
      <trkpt lat="48.43218" lon="2.70482">
        <ele>146</ele>
        <time>2012-03-31T11:33:19Z</time>
      </trkpt>
      <trkpt lat="48.43196" lon="2.70443">
        <ele>146</ele>
        <time>2012-03-31T11:33:27Z</time>
      </trkpt>
      <trkpt lat="48.43182" lon="2.70419">
        <ele>147</ele>
        <time>2012-03-31T11:33:32Z</time>
      </trkpt>
      <trkpt lat="48.43171" lon="2.70401">
        <ele>147</ele>
        <time>2012-03-31T11:33:36Z</time>
      </trkpt>
      <trkpt lat="48.43188" lon="2.70389">
        <ele>147</ele>
        <time>2012-03-31T11:33:41Z</time>
      </trkpt>
      <trkpt lat="48.43209" lon="2.70387">
        <ele>146</ele>
        <time>2012-03-31T11:33:45Z</time>
      </trkpt>
      <trkpt lat="48.43237" lon="2.70384">
        <ele>146</ele>
        <time>2012-03-31T11:33:50Z</time>
      </trkpt>
      <trkpt lat="48.43255" lon="2.70386">
        <ele>144</ele>
        <time>2012-03-31T11:33:53Z</time>
      </trkpt>
      <trkpt lat="48.43281" lon="2.70385">
        <ele>143</ele>
        <time>2012-03-31T11:33:58Z</time>
      </trkpt>
      <trkpt lat="48.43292" lon="2.70384">
        <ele>143</ele>
        <time>2012-03-31T11:34:00Z</time>
      </trkpt>
      <trkpt lat="48.4333" lon="2.7039">
        <ele>142</ele>
        <time>2012-03-31T11:34:06Z</time>
      </trkpt>
      <trkpt lat="48.43363" lon="2.70396">
        <ele>139</ele>
        <time>2012-03-31T11:34:11Z</time>
      </trkpt>
      <trkpt lat="48.4337" lon="2.70396">
        <ele>138</ele>
        <time>2012-03-31T11:34:12Z</time>
      </trkpt>
      <trkpt lat="48.43383" lon="2.70397">
        <ele>138</ele>
        <time>2012-03-31T11:34:14Z</time>
      </trkpt>
      <trkpt lat="48.43415" lon="2.70402">
        <ele>137</ele>
        <time>2012-03-31T11:34:19Z</time>
      </trkpt>
      <trkpt lat="48.43442" lon="2.70404">
        <ele>135</ele>
        <time>2012-03-31T11:34:23Z</time>
      </trkpt>
      <trkpt lat="48.43469" lon="2.70419">
        <ele>135</ele>
        <time>2012-03-31T11:34:28Z</time>
      </trkpt>
      <trkpt lat="48.43483" lon="2.70434">
        <ele>135</ele>
        <time>2012-03-31T11:34:31Z</time>
      </trkpt>
      <trkpt lat="48.43502" lon="2.70466">
        <ele>134</ele>
        <time>2012-03-31T11:34:36Z</time>
      </trkpt>
      <trkpt lat="48.43512" lon="2.70513">
        <ele>135</ele>
        <time>2012-03-31T11:34:41Z</time>
      </trkpt>
      <trkpt lat="48.43519" lon="2.70532">
        <ele>136</ele>
        <time>2012-03-31T11:34:43Z</time>
      </trkpt>
      <trkpt lat="48.43537" lon="2.70555">
        <ele>136</ele>
        <time>2012-03-31T11:34:47Z</time>
      </trkpt>
      <trkpt lat="48.43552" lon="2.70562">
        <ele>136</ele>
        <time>2012-03-31T11:34:52Z</time>
      </trkpt>
      <trkpt lat="48.43556" lon="2.70561">
        <ele>137</ele>
        <time>2012-03-31T11:34:56Z</time>
      </trkpt>
      <trkpt lat="48.43556" lon="2.70552">
        <ele>136</ele>
        <time>2012-03-31T11:35:00Z</time>
      </trkpt>
      <trkpt lat="48.43558" lon="2.70543">
        <ele>136</ele>
        <time>2012-03-31T11:35:02Z</time>
      </trkpt>
      <trkpt lat="48.43563" lon="2.70529">
        <ele>136</ele>
        <time>2012-03-31T11:35:07Z</time>
      </trkpt>
      <trkpt lat="48.43562" lon="2.7053">
        <ele>136</ele>
        <time>2012-03-31T11:35:15Z</time>
      </trkpt>
      <trkpt lat="48.43564" lon="2.70522">
        <ele>136</ele>
        <time>2012-03-31T11:35:24Z</time>
      </trkpt>
      <trkpt lat="48.43567" lon="2.70512">
        <ele>136</ele>
        <time>2012-03-31T11:35:26Z</time>
      </trkpt>
      <trkpt lat="48.43575" lon="2.70492">
        <ele>135</ele>
        <time>2012-03-31T11:35:29Z</time>
      </trkpt>
      <trkpt lat="48.43581" lon="2.70468">
        <ele>134</ele>
        <time>2012-03-31T11:35:33Z</time>
      </trkpt>
      <trkpt lat="48.43583" lon="2.70451">
        <ele>133</ele>
        <time>2012-03-31T11:35:38Z</time>
      </trkpt>
      <trkpt lat="48.43584" lon="2.70432">
        <ele>134</ele>
        <time>2012-03-31T11:35:42Z</time>
      </trkpt>
      <trkpt lat="48.43589" lon="2.70409">
        <ele>132</ele>
        <time>2012-03-31T11:35:46Z</time>
      </trkpt>
      <trkpt lat="48.43596" lon="2.70377">
        <ele>133</ele>
        <time>2012-03-31T11:35:51Z</time>
      </trkpt>
      <trkpt lat="48.436" lon="2.70362">
        <ele>132</ele>
        <time>2012-03-31T11:35:55Z</time>
      </trkpt>
      <trkpt lat="48.436" lon="2.7036">
        <ele>132</ele>
        <time>2012-03-31T11:35:56Z</time>
      </trkpt>
      <trkpt lat="48.43601" lon="2.7035">
        <ele>131</ele>
        <time>2012-03-31T11:36:01Z</time>
      </trkpt>
      <trkpt lat="48.43606" lon="2.70325">
        <ele>129</ele>
        <time>2012-03-31T11:36:06Z</time>
      </trkpt>
      <trkpt lat="48.43616" lon="2.70297">
        <ele>130</ele>
        <time>2012-03-31T11:36:11Z</time>
      </trkpt>
      <trkpt lat="48.43619" lon="2.7028">
        <ele>130</ele>
        <time>2012-03-31T11:36:14Z</time>
      </trkpt>
      <trkpt lat="48.43627" lon="2.70261">
        <ele>130</ele>
        <time>2012-03-31T11:36:19Z</time>
      </trkpt>
      <trkpt lat="48.43627" lon="2.70244">
        <ele>126</ele>
        <time>2012-03-31T11:36:23Z</time>
      </trkpt>
      <trkpt lat="48.4363" lon="2.70233">
        <ele>126</ele>
        <time>2012-03-31T11:36:28Z</time>
      </trkpt>
      <trkpt lat="48.43631" lon="2.70226">
        <ele>126</ele>
        <time>2012-03-31T11:36:33Z</time>
      </trkpt>
      <trkpt lat="48.43631" lon="2.70216">
        <ele>126</ele>
        <time>2012-03-31T11:36:36Z</time>
      </trkpt>
      <trkpt lat="48.43639" lon="2.70203">
        <ele>126</ele>
        <time>2012-03-31T11:36:41Z</time>
      </trkpt>
      <trkpt lat="48.43645" lon="2.70197">
        <ele>126</ele>
        <time>2012-03-31T11:36:45Z</time>
      </trkpt>
      <trkpt lat="48.43652" lon="2.70191">
        <ele>126</ele>
        <time>2012-03-31T11:36:52Z</time>
      </trkpt>
      <trkpt lat="48.43656" lon="2.70184">
        <ele>126</ele>
        <time>2012-03-31T11:36:58Z</time>
      </trkpt>
      <trkpt lat="48.43655" lon="2.70184">
        <ele>126</ele>
        <time>2012-03-31T11:37:10Z</time>
      </trkpt>
      <trkpt lat="48.43654" lon="2.70168">
        <ele>126</ele>
        <time>2012-03-31T11:37:14Z</time>
      </trkpt>
      <trkpt lat="48.43658" lon="2.70156">
        <ele>123</ele>
        <time>2012-03-31T11:37:19Z</time>
      </trkpt>
      <trkpt lat="48.43658" lon="2.70155">
        <ele>123</ele>
        <time>2012-03-31T11:37:28Z</time>
      </trkpt>
      <trkpt lat="48.43661" lon="2.70151">
        <ele>122</ele>
        <time>2012-03-31T11:37:32Z</time>
      </trkpt>
      <trkpt lat="48.43665" lon="2.70149">
        <ele>122</ele>
        <time>2012-03-31T11:37:37Z</time>
      </trkpt>
      <trkpt lat="48.43667" lon="2.7015">
        <ele>127</ele>
        <time>2012-03-31T11:37:49Z</time>
      </trkpt>
      <trkpt lat="48.4367" lon="2.70153">
        <ele>127</ele>
        <time>2012-03-31T11:38:18Z</time>
      </trkpt>
      <trkpt lat="48.43673" lon="2.70157">
        <ele>127</ele>
        <time>2012-03-31T11:38:24Z</time>
      </trkpt>
      <trkpt lat="48.43674" lon="2.70163">
        <ele>127</ele>
        <time>2012-03-31T11:38:29Z</time>
      </trkpt>
      <trkpt lat="48.43677" lon="2.70164">
        <ele>127</ele>
        <time>2012-03-31T11:38:34Z</time>
      </trkpt>
      <trkpt lat="48.43678" lon="2.70164">
        <ele>127</ele>
        <time>2012-03-31T11:38:38Z</time>
      </trkpt>
      <trkpt lat="48.43684" lon="2.70167">
        <ele>130</ele>
        <time>2012-03-31T11:38:43Z</time>
      </trkpt>
      <trkpt lat="48.43688" lon="2.70174">
        <ele>131</ele>
        <time>2012-03-31T11:38:48Z</time>
      </trkpt>
      <trkpt lat="48.43693" lon="2.70175">
        <ele>132</ele>
        <time>2012-03-31T11:38:52Z</time>
      </trkpt>
      <trkpt lat="48.43697" lon="2.70178">
        <ele>133</ele>
        <time>2012-03-31T11:38:58Z</time>
      </trkpt>
      <trkpt lat="48.43698" lon="2.70181">
        <ele>133</ele>
        <time>2012-03-31T11:39:04Z</time>
      </trkpt>
      <trkpt lat="48.43698" lon="2.70185">
        <ele>133</ele>
        <time>2012-03-31T11:39:12Z</time>
      </trkpt>
      <trkpt lat="48.437" lon="2.70188">
        <ele>133</ele>
        <time>2012-03-31T11:39:18Z</time>
      </trkpt>
      <trkpt lat="48.43702" lon="2.7019">
        <ele>134</ele>
        <time>2012-03-31T11:39:25Z</time>
      </trkpt>
      <trkpt lat="48.43704" lon="2.70194">
        <ele>134</ele>
        <time>2012-03-31T11:39:33Z</time>
      </trkpt>
      <trkpt lat="48.43709" lon="2.702">
        <ele>135</ele>
        <time>2012-03-31T11:39:45Z</time>
      </trkpt>
      <trkpt lat="48.43712" lon="2.70207">
        <ele>135</ele>
        <time>2012-03-31T11:39:51Z</time>
      </trkpt>
      <trkpt lat="48.43712" lon="2.70208">
        <ele>135</ele>
        <time>2012-03-31T11:39:59Z</time>
      </trkpt>
      <trkpt lat="48.43713" lon="2.70209">
        <ele>135</ele>
        <time>2012-03-31T11:40:08Z</time>
      </trkpt>
      <trkpt lat="48.43714" lon="2.70211">
        <ele>135</ele>
        <time>2012-03-31T11:40:13Z</time>
      </trkpt>
      <trkpt lat="48.43723" lon="2.70219">
        <ele>136</ele>
        <time>2012-03-31T11:40:19Z</time>
      </trkpt>
      <trkpt lat="48.4373" lon="2.70234">
        <ele>137</ele>
        <time>2012-03-31T11:40:24Z</time>
      </trkpt>
      <trkpt lat="48.43734" lon="2.70234">
        <ele>137</ele>
        <time>2012-03-31T11:40:28Z</time>
      </trkpt>
      <trkpt lat="48.43739" lon="2.7023">
        <ele>137</ele>
        <time>2012-03-31T11:40:34Z</time>
      </trkpt>
      <trkpt lat="48.4374" lon="2.70226">
        <ele>137</ele>
        <time>2012-03-31T11:40:39Z</time>
      </trkpt>
      <trkpt lat="48.43742" lon="2.70223">
        <ele>137</ele>
        <time>2012-03-31T11:40:46Z</time>
      </trkpt>
      <trkpt lat="48.43745" lon="2.70223">
        <ele>137</ele>
        <time>2012-03-31T11:40:56Z</time>
      </trkpt>
      <trkpt lat="48.43747" lon="2.70221">
        <ele>137</ele>
        <time>2012-03-31T11:40:59Z</time>
      </trkpt>
      <trkpt lat="48.43752" lon="2.7021">
        <ele>138</ele>
        <time>2012-03-31T11:41:04Z</time>
      </trkpt>
      <trkpt lat="48.43757" lon="2.70206">
        <ele>138</ele>
        <time>2012-03-31T11:41:09Z</time>
      </trkpt>
      <trkpt lat="48.43758" lon="2.70199">
        <ele>138</ele>
        <time>2012-03-31T11:41:14Z</time>
      </trkpt>
      <trkpt lat="48.43757" lon="2.70197">
        <ele>138</ele>
        <time>2012-03-31T11:41:23Z</time>
      </trkpt>
      <trkpt lat="48.43753" lon="2.70196">
        <ele>138</ele>
        <time>2012-03-31T11:41:28Z</time>
      </trkpt>
      <trkpt lat="48.43752" lon="2.70195">
        <ele>138</ele>
        <time>2012-03-31T11:41:30Z</time>
      </trkpt>
      <trkpt lat="48.43745" lon="2.70194">
        <ele>136</ele>
        <time>2012-03-31T11:41:35Z</time>
      </trkpt>
      <trkpt lat="48.4374" lon="2.70185">
        <ele>136</ele>
        <time>2012-03-31T11:41:38Z</time>
      </trkpt>
      <trkpt lat="48.43738" lon="2.70176">
        <ele>136</ele>
        <time>2012-03-31T11:41:41Z</time>
      </trkpt>
      <trkpt lat="48.43741" lon="2.70164">
        <ele>134</ele>
        <time>2012-03-31T11:41:46Z</time>
      </trkpt>
      <trkpt lat="48.43739" lon="2.70159">
        <ele>134</ele>
        <time>2012-03-31T11:41:53Z</time>
      </trkpt>
      <trkpt lat="48.43739" lon="2.70154">
        <ele>133</ele>
        <time>2012-03-31T11:41:58Z</time>
      </trkpt>
      <trkpt lat="48.43739" lon="2.70154">
        <ele>133</ele>
        <time>2012-03-31T11:41:59Z</time>
      </trkpt>
      <trkpt lat="48.43739" lon="2.70144">
        <ele>132</ele>
        <time>2012-03-31T11:42:03Z</time>
      </trkpt>
      <trkpt lat="48.4374" lon="2.70128">
        <ele>131</ele>
        <time>2012-03-31T11:42:09Z</time>
      </trkpt>
      <trkpt lat="48.43742" lon="2.70113">
        <ele>131</ele>
        <time>2012-03-31T11:42:14Z</time>
      </trkpt>
      <trkpt lat="48.43744" lon="2.70104">
        <ele>131</ele>
        <time>2012-03-31T11:42:19Z</time>
      </trkpt>
      <trkpt lat="48.43746" lon="2.70098">
        <ele>132</ele>
        <time>2012-03-31T11:42:21Z</time>
      </trkpt>
      <trkpt lat="48.43744" lon="2.70088">
        <ele>133</ele>
        <time>2012-03-31T11:42:27Z</time>
      </trkpt>
      <trkpt lat="48.43744" lon="2.70091">
        <ele>132</ele>
        <time>2012-03-31T11:42:32Z</time>
      </trkpt>
      <trkpt lat="48.43749" lon="2.70096">
        <ele>132</ele>
        <time>2012-03-31T11:42:37Z</time>
      </trkpt>
      <trkpt lat="48.43752" lon="2.70092">
        <ele>134</ele>
        <time>2012-03-31T11:42:41Z</time>
      </trkpt>
      <trkpt lat="48.43752" lon="2.70092">
        <ele>134</ele>
        <time>2012-03-31T11:42:50Z</time>
      </trkpt>
      <trkpt lat="48.4375" lon="2.70093">
        <ele>134</ele>
        <time>2012-03-31T11:42:57Z</time>
      </trkpt>
      <trkpt lat="48.43748" lon="2.70094">
        <ele>132</ele>
        <time>2012-03-31T11:43:06Z</time>
      </trkpt>
      <trkpt lat="48.43744" lon="2.70091">
        <ele>132</ele>
        <time>2012-03-31T11:43:12Z</time>
      </trkpt>
      <trkpt lat="48.43743" lon="2.70086">
        <ele>133</ele>
        <time>2012-03-31T11:43:18Z</time>
      </trkpt>
      <trkpt lat="48.43742" lon="2.70081">
        <ele>131</ele>
        <time>2012-03-31T11:43:26Z</time>
      </trkpt>
      <trkpt lat="48.43741" lon="2.70079">
        <ele>131</ele>
        <time>2012-03-31T11:43:36Z</time>
      </trkpt>
      <trkpt lat="48.43741" lon="2.70078">
        <ele>131</ele>
        <time>2012-03-31T11:43:38Z</time>
      </trkpt>
      <trkpt lat="48.43738" lon="2.70075">
        <ele>130</ele>
        <time>2012-03-31T11:43:43Z</time>
      </trkpt>
      <trkpt lat="48.43738" lon="2.70073">
        <ele>129</ele>
        <time>2012-03-31T11:43:47Z</time>
      </trkpt>
      <trkpt lat="48.43739" lon="2.7007">
        <ele>129</ele>
        <time>2012-03-31T11:43:52Z</time>
      </trkpt>
      <trkpt lat="48.43743" lon="2.70063">
        <ele>129</ele>
        <time>2012-03-31T11:43:57Z</time>
      </trkpt>
      <trkpt lat="48.43745" lon="2.70061">
        <ele>129</ele>
        <time>2012-03-31T11:44:05Z</time>
      </trkpt>
      <trkpt lat="48.43745" lon="2.70061">
        <ele>128</ele>
        <time>2012-03-31T11:44:07Z</time>
      </trkpt>
      <trkpt lat="48.43746" lon="2.70055">
        <ele>128</ele>
        <time>2012-03-31T11:44:12Z</time>
      </trkpt>
      <trkpt lat="48.43746" lon="2.70056">
        <ele>128</ele>
        <time>2012-03-31T11:44:22Z</time>
      </trkpt>
      <trkpt lat="48.43747" lon="2.70051">
        <ele>128</ele>
        <time>2012-03-31T11:44:37Z</time>
      </trkpt>
      <trkpt lat="48.43749" lon="2.70045">
        <ele>127</ele>
        <time>2012-03-31T11:44:44Z</time>
      </trkpt>
      <trkpt lat="48.43749" lon="2.70044">
        <ele>127</ele>
        <time>2012-03-31T11:44:45Z</time>
      </trkpt>
      <trkpt lat="48.43752" lon="2.70038">
        <ele>130</ele>
        <time>2012-03-31T11:44:51Z</time>
      </trkpt>
      <trkpt lat="48.43753" lon="2.70032">
        <ele>130</ele>
        <time>2012-03-31T11:44:56Z</time>
      </trkpt>
      <trkpt lat="48.43754" lon="2.70034">
        <ele>130</ele>
        <time>2012-03-31T11:45:03Z</time>
      </trkpt>
      <trkpt lat="48.43757" lon="2.70035">
        <ele>130</ele>
        <time>2012-03-31T11:45:09Z</time>
      </trkpt>
      <trkpt lat="48.4376" lon="2.70031">
        <ele>130</ele>
        <time>2012-03-31T11:45:19Z</time>
      </trkpt>
      <trkpt lat="48.43763" lon="2.70026">
        <ele>130</ele>
        <time>2012-03-31T11:45:24Z</time>
      </trkpt>
      <trkpt lat="48.43768" lon="2.70019">
        <ele>129</ele>
        <time>2012-03-31T11:45:29Z</time>
      </trkpt>
      <trkpt lat="48.43771" lon="2.70025">
        <ele>129</ele>
        <time>2012-03-31T11:45:34Z</time>
      </trkpt>
      <trkpt lat="48.43772" lon="2.70026">
        <ele>129</ele>
        <time>2012-03-31T11:45:35Z</time>
      </trkpt>
      <trkpt lat="48.43774" lon="2.70028">
        <ele>129</ele>
        <time>2012-03-31T11:45:42Z</time>
      </trkpt>
      <trkpt lat="48.43776" lon="2.70027">
        <ele>129</ele>
        <time>2012-03-31T11:45:46Z</time>
      </trkpt>
      <trkpt lat="48.43778" lon="2.7002">
        <ele>129</ele>
        <time>2012-03-31T11:45:53Z</time>
      </trkpt>
      <trkpt lat="48.43779" lon="2.70018">
        <ele>129</ele>
        <time>2012-03-31T11:45:55Z</time>
      </trkpt>
      <trkpt lat="48.43781" lon="2.70016">
        <ele>129</ele>
        <time>2012-03-31T11:46:00Z</time>
      </trkpt>
      <trkpt lat="48.43783" lon="2.70024">
        <ele>129</ele>
        <time>2012-03-31T11:46:06Z</time>
      </trkpt>
      <trkpt lat="48.43784" lon="2.70027">
        <ele>129</ele>
        <time>2012-03-31T11:46:08Z</time>
      </trkpt>
      <trkpt lat="48.43787" lon="2.70012">
        <ele>129</ele>
        <time>2012-03-31T11:46:13Z</time>
      </trkpt>
      <trkpt lat="48.43793" lon="2.70004">
        <ele>129</ele>
        <time>2012-03-31T11:46:17Z</time>
      </trkpt>
      <trkpt lat="48.43798" lon="2.69992">
        <ele>127</ele>
        <time>2012-03-31T11:46:22Z</time>
      </trkpt>
      <trkpt lat="48.43806" lon="2.69983">
        <ele>126</ele>
        <time>2012-03-31T11:46:25Z</time>
      </trkpt>
      <trkpt lat="48.43813" lon="2.69979">
        <ele>126</ele>
        <time>2012-03-31T11:46:28Z</time>
      </trkpt>
      <trkpt lat="48.43814" lon="2.69973">
        <ele>126</ele>
        <time>2012-03-31T11:46:31Z</time>
      </trkpt>
      <trkpt lat="48.43816" lon="2.69963">
        <ele>126</ele>
        <time>2012-03-31T11:46:36Z</time>
      </trkpt>
      <trkpt lat="48.43816" lon="2.69958">
        <ele>126</ele>
        <time>2012-03-31T11:46:40Z</time>
      </trkpt>
      <trkpt lat="48.43822" lon="2.69947">
        <ele>126</ele>
        <time>2012-03-31T11:46:44Z</time>
      </trkpt>
      <trkpt lat="48.43826" lon="2.69937">
        <ele>125</ele>
        <time>2012-03-31T11:46:48Z</time>
      </trkpt>
      <trkpt lat="48.43831" lon="2.69931">
        <ele>125</ele>
        <time>2012-03-31T11:46:52Z</time>
      </trkpt>
      <trkpt lat="48.4383" lon="2.69929">
        <ele>125</ele>
        <time>2012-03-31T11:46:54Z</time>
      </trkpt>
      <trkpt lat="48.43836" lon="2.69926">
        <ele>123</ele>
        <time>2012-03-31T11:46:58Z</time>
      </trkpt>
      <trkpt lat="48.43842" lon="2.69921">
        <ele>123</ele>
        <time>2012-03-31T11:47:01Z</time>
      </trkpt>
      <trkpt lat="48.43852" lon="2.69911">
        <ele>120</ele>
        <time>2012-03-31T11:47:05Z</time>
      </trkpt>
      <trkpt lat="48.43858" lon="2.6991">
        <ele>119</ele>
        <time>2012-03-31T11:47:08Z</time>
      </trkpt>
      <trkpt lat="48.4386" lon="2.69906">
        <ele>119</ele>
        <time>2012-03-31T11:47:13Z</time>
      </trkpt>
      <trkpt lat="48.43862" lon="2.69886">
        <ele>118</ele>
        <time>2012-03-31T11:47:19Z</time>
      </trkpt>
      <trkpt lat="48.43861" lon="2.69874">
        <ele>118</ele>
        <time>2012-03-31T11:47:23Z</time>
      </trkpt>
      <trkpt lat="48.43862" lon="2.69865">
        <ele>117</ele>
        <time>2012-03-31T11:47:27Z</time>
      </trkpt>
      <trkpt lat="48.43861" lon="2.69854">
        <ele>117</ele>
        <time>2012-03-31T11:47:33Z</time>
      </trkpt>
      <trkpt lat="48.43862" lon="2.69841">
        <ele>117</ele>
        <time>2012-03-31T11:47:36Z</time>
      </trkpt>
      <trkpt lat="48.4386" lon="2.69835">
        <ele>117</ele>
        <time>2012-03-31T11:47:41Z</time>
      </trkpt>
      <trkpt lat="48.43855" lon="2.69833">
        <ele>116</ele>
        <time>2012-03-31T11:47:53Z</time>
      </trkpt>
      <trkpt lat="48.43849" lon="2.69836">
        <ele>118</ele>
        <time>2012-03-31T11:47:59Z</time>
      </trkpt>
      <trkpt lat="48.43845" lon="2.6984">
        <ele>119</ele>
        <time>2012-03-31T11:48:03Z</time>
      </trkpt>
      <trkpt lat="48.43845" lon="2.69839">
        <ele>119</ele>
        <time>2012-03-31T11:48:04Z</time>
      </trkpt>
      <trkpt lat="48.43841" lon="2.69823">
        <ele>117</ele>
        <time>2012-03-31T11:48:09Z</time>
      </trkpt>
      <trkpt lat="48.43832" lon="2.69807">
        <ele>117</ele>
        <time>2012-03-31T11:48:13Z</time>
      </trkpt>
      <trkpt lat="48.43832" lon="2.69798">
        <ele>117</ele>
        <time>2012-03-31T11:48:16Z</time>
      </trkpt>
      <trkpt lat="48.4383" lon="2.69787">
        <ele>116</ele>
        <time>2012-03-31T11:48:20Z</time>
      </trkpt>
      <trkpt lat="48.43831" lon="2.69783">
        <ele>116</ele>
        <time>2012-03-31T11:48:21Z</time>
      </trkpt>
      <trkpt lat="48.43837" lon="2.69763">
        <ele>115</ele>
        <time>2012-03-31T11:48:26Z</time>
      </trkpt>
      <trkpt lat="48.43846" lon="2.69748">
        <ele>113</ele>
        <time>2012-03-31T11:48:31Z</time>
      </trkpt>
      <trkpt lat="48.43852" lon="2.69742">
        <ele>112</ele>
        <time>2012-03-31T11:48:35Z</time>
      </trkpt>
      <trkpt lat="48.43854" lon="2.69722">
        <ele>111</ele>
        <time>2012-03-31T11:48:40Z</time>
      </trkpt>
      <trkpt lat="48.43854" lon="2.69714">
        <ele>111</ele>
        <time>2012-03-31T11:48:46Z</time>
      </trkpt>
      <trkpt lat="48.43855" lon="2.69717">
        <ele>111</ele>
        <time>2012-03-31T11:48:50Z</time>
      </trkpt>
      <trkpt lat="48.43855" lon="2.69722">
        <ele>111</ele>
        <time>2012-03-31T11:48:56Z</time>
      </trkpt>
      <trkpt lat="48.43856" lon="2.69721">
        <ele>111</ele>
        <time>2012-03-31T11:48:59Z</time>
      </trkpt>
      <trkpt lat="48.43857" lon="2.69702">
        <ele>111</ele>
        <time>2012-03-31T11:49:04Z</time>
      </trkpt>
      <trkpt lat="48.43857" lon="2.69694">
        <ele>111</ele>
        <time>2012-03-31T11:49:06Z</time>
      </trkpt>
      <trkpt lat="48.43855" lon="2.69685">
        <ele>111</ele>
        <time>2012-03-31T11:49:11Z</time>
      </trkpt>
      <trkpt lat="48.43855" lon="2.69679">
        <ele>111</ele>
        <time>2012-03-31T11:49:14Z</time>
      </trkpt>
      <trkpt lat="48.43858" lon="2.69676">
        <ele>111</ele>
        <time>2012-03-31T11:49:16Z</time>
      </trkpt>
      <trkpt lat="48.43859" lon="2.69668">
        <ele>111</ele>
        <time>2012-03-31T11:49:23Z</time>
      </trkpt>
      <trkpt lat="48.43861" lon="2.69662">
        <ele>110</ele>
        <time>2012-03-31T11:49:27Z</time>
      </trkpt>
      <trkpt lat="48.43862" lon="2.69661">
        <ele>110</ele>
        <time>2012-03-31T11:49:28Z</time>
      </trkpt>
      <trkpt lat="48.43866" lon="2.69653">
        <ele>110</ele>
        <time>2012-03-31T11:49:32Z</time>
      </trkpt>
      <trkpt lat="48.43866" lon="2.69636">
        <ele>110</ele>
        <time>2012-03-31T11:49:37Z</time>
      </trkpt>
      <trkpt lat="48.43867" lon="2.69619">
        <ele>109</ele>
        <time>2012-03-31T11:49:41Z</time>
      </trkpt>
      <trkpt lat="48.43873" lon="2.69605">
        <ele>109</ele>
        <time>2012-03-31T11:49:44Z</time>
      </trkpt>
      <trkpt lat="48.43875" lon="2.69601">
        <ele>109</ele>
        <time>2012-03-31T11:49:49Z</time>
      </trkpt>
      <trkpt lat="48.43877" lon="2.69596">
        <ele>109</ele>
        <time>2012-03-31T11:49:57Z</time>
      </trkpt>
      <trkpt lat="48.43877" lon="2.69595">
        <ele>109</ele>
        <time>2012-03-31T11:49:58Z</time>
      </trkpt>
      <trkpt lat="48.4388" lon="2.69582">
        <ele>108</ele>
        <time>2012-03-31T11:50:02Z</time>
      </trkpt>
      <trkpt lat="48.43882" lon="2.69575">
        <ele>108</ele>
        <time>2012-03-31T11:50:04Z</time>
      </trkpt>
      <trkpt lat="48.43885" lon="2.69568">
        <ele>108</ele>
        <time>2012-03-31T11:50:07Z</time>
      </trkpt>
      <trkpt lat="48.43887" lon="2.69561">
        <ele>108</ele>
        <time>2012-03-31T11:50:12Z</time>
      </trkpt>
      <trkpt lat="48.43887" lon="2.69556">
        <ele>108</ele>
        <time>2012-03-31T11:50:15Z</time>
      </trkpt>
      <trkpt lat="48.43894" lon="2.69551">
        <ele>108</ele>
        <time>2012-03-31T11:50:19Z</time>
      </trkpt>
      <trkpt lat="48.43898" lon="2.69543">
        <ele>108</ele>
        <time>2012-03-31T11:50:22Z</time>
      </trkpt>
      <trkpt lat="48.43895" lon="2.69531">
        <ele>108</ele>
        <time>2012-03-31T11:50:25Z</time>
      </trkpt>
      <trkpt lat="48.43892" lon="2.69504">
        <ele>107</ele>
        <time>2012-03-31T11:50:31Z</time>
      </trkpt>
      <trkpt lat="48.43892" lon="2.69489">
        <ele>108</ele>
        <time>2012-03-31T11:50:34Z</time>
      </trkpt>
      <trkpt lat="48.43884" lon="2.6948">
        <ele>108</ele>
        <time>2012-03-31T11:50:38Z</time>
      </trkpt>
      <trkpt lat="48.4388" lon="2.69471">
        <ele>108</ele>
        <time>2012-03-31T11:50:43Z</time>
      </trkpt>
      <trkpt lat="48.43879" lon="2.69459">
        <ele>108</ele>
        <time>2012-03-31T11:50:47Z</time>
      </trkpt>
      <trkpt lat="48.43873" lon="2.69446">
        <ele>108</ele>
        <time>2012-03-31T11:50:52Z</time>
      </trkpt>
      <trkpt lat="48.43873" lon="2.69438">
        <ele>108</ele>
        <time>2012-03-31T11:50:57Z</time>
      </trkpt>
      <trkpt lat="48.43875" lon="2.69433">
        <ele>108</ele>
        <time>2012-03-31T11:51:06Z</time>
      </trkpt>
      <trkpt lat="48.43875" lon="2.69434">
        <ele>108</ele>
        <time>2012-03-31T11:51:08Z</time>
      </trkpt>
      <trkpt lat="48.43878" lon="2.69439">
        <ele>108</ele>
        <time>2012-03-31T11:51:11Z</time>
      </trkpt>
      <trkpt lat="48.43882" lon="2.6944">
        <ele>108</ele>
        <time>2012-03-31T11:51:15Z</time>
      </trkpt>
      <trkpt lat="48.43883" lon="2.69437">
        <ele>108</ele>
        <time>2012-03-31T11:51:23Z</time>
      </trkpt>
      <trkpt lat="48.43884" lon="2.69436">
        <ele>108</ele>
        <time>2012-03-31T11:51:30Z</time>
      </trkpt>
      <trkpt lat="48.43885" lon="2.69435">
        <ele>108</ele>
        <time>2012-03-31T11:51:33Z</time>
      </trkpt>
      <trkpt lat="48.43887" lon="2.69433">
        <ele>108</ele>
        <time>2012-03-31T11:51:38Z</time>
      </trkpt>
      <trkpt lat="48.43888" lon="2.6943">
        <ele>108</ele>
        <time>2012-03-31T11:51:44Z</time>
      </trkpt>
      <trkpt lat="48.43889" lon="2.69428">
        <ele>108</ele>
        <time>2012-03-31T11:51:48Z</time>
      </trkpt>
      <trkpt lat="48.4389" lon="2.69415">
        <ele>108</ele>
        <time>2012-03-31T11:51:52Z</time>
      </trkpt>
      <trkpt lat="48.43894" lon="2.69397">
        <ele>108</ele>
        <time>2012-03-31T11:51:55Z</time>
      </trkpt>
      <trkpt lat="48.43896" lon="2.6939">
        <ele>108</ele>
        <time>2012-03-31T11:51:58Z</time>
      </trkpt>
      <trkpt lat="48.43896" lon="2.69389">
        <ele>108</ele>
        <time>2012-03-31T11:51:59Z</time>
      </trkpt>
      <trkpt lat="48.43898" lon="2.69386">
        <ele>108</ele>
        <time>2012-03-31T11:52:05Z</time>
      </trkpt>
      <trkpt lat="48.43899" lon="2.69384">
        <ele>107</ele>
        <time>2012-03-31T11:52:06Z</time>
      </trkpt>
      <trkpt lat="48.43895" lon="2.69373">
        <ele>107</ele>
        <time>2012-03-31T11:52:12Z</time>
      </trkpt>
      <trkpt lat="48.43894" lon="2.69363">
        <ele>107</ele>
        <time>2012-03-31T11:52:15Z</time>
      </trkpt>
      <trkpt lat="48.43897" lon="2.69355">
        <ele>107</ele>
        <time>2012-03-31T11:52:17Z</time>
      </trkpt>
      <trkpt lat="48.439" lon="2.69351">
        <ele>107</ele>
        <time>2012-03-31T11:52:22Z</time>
      </trkpt>
      <trkpt lat="48.43903" lon="2.69349">
        <ele>107</ele>
        <time>2012-03-31T11:52:29Z</time>
      </trkpt>
      <trkpt lat="48.43903" lon="2.69347">
        <ele>107</ele>
        <time>2012-03-31T11:52:32Z</time>
      </trkpt>
      <trkpt lat="48.43906" lon="2.69339">
        <ele>107</ele>
        <time>2012-03-31T11:52:37Z</time>
      </trkpt>
      <trkpt lat="48.43906" lon="2.69337">
        <ele>107</ele>
        <time>2012-03-31T11:52:38Z</time>
      </trkpt>
      <trkpt lat="48.43907" lon="2.69327">
        <ele>106</ele>
        <time>2012-03-31T11:52:42Z</time>
      </trkpt>
      <trkpt lat="48.43909" lon="2.69324">
        <ele>106</ele>
        <time>2012-03-31T11:52:43Z</time>
      </trkpt>
      <trkpt lat="48.43919" lon="2.693">
        <ele>102</ele>
        <time>2012-03-31T11:52:49Z</time>
      </trkpt>
      <trkpt lat="48.43921" lon="2.69296">
        <ele>102</ele>
        <time>2012-03-31T11:52:50Z</time>
      </trkpt>
      <trkpt lat="48.43922" lon="2.6928">
        <ele>102</ele>
        <time>2012-03-31T11:52:54Z</time>
      </trkpt>
      <trkpt lat="48.43931" lon="2.69276">
        <ele>102</ele>
        <time>2012-03-31T11:52:58Z</time>
      </trkpt>
      <trkpt lat="48.43934" lon="2.69264">
        <ele>102</ele>
        <time>2012-03-31T11:53:02Z</time>
      </trkpt>
      <trkpt lat="48.43935" lon="2.69255">
        <ele>102</ele>
        <time>2012-03-31T11:53:05Z</time>
      </trkpt>
      <trkpt lat="48.43937" lon="2.69245">
        <ele>98</ele>
        <time>2012-03-31T11:53:09Z</time>
      </trkpt>
      <trkpt lat="48.43933" lon="2.69229">
        <ele>98</ele>
        <time>2012-03-31T11:53:14Z</time>
      </trkpt>
      <trkpt lat="48.43931" lon="2.69209">
        <ele>96</ele>
        <time>2012-03-31T11:53:18Z</time>
      </trkpt>
      <trkpt lat="48.43931" lon="2.69164">
        <ele>91</ele>
        <time>2012-03-31T11:53:24Z</time>
      </trkpt>
      <trkpt lat="48.43941" lon="2.69143">
        <ele>89</ele>
        <time>2012-03-31T11:53:28Z</time>
      </trkpt>
      <trkpt lat="48.43952" lon="2.69136">
        <ele>89</ele>
        <time>2012-03-31T11:53:31Z</time>
      </trkpt>
      <trkpt lat="48.4396" lon="2.69128">
        <ele>88</ele>
        <time>2012-03-31T11:53:35Z</time>
      </trkpt>
      <trkpt lat="48.43972" lon="2.69115">
        <ele>88</ele>
        <time>2012-03-31T11:53:39Z</time>
      </trkpt>
      <trkpt lat="48.4398" lon="2.69109">
        <ele>87</ele>
        <time>2012-03-31T11:53:42Z</time>
      </trkpt>
      <trkpt lat="48.43984" lon="2.69101">
        <ele>87</ele>
        <time>2012-03-31T11:53:48Z</time>
      </trkpt>
      <trkpt lat="48.43984" lon="2.69094">
        <ele>87</ele>
        <time>2012-03-31T11:53:57Z</time>
      </trkpt>
      <trkpt lat="48.43979" lon="2.69077">
        <ele>86</ele>
        <time>2012-03-31T11:54:05Z</time>
      </trkpt>
      <trkpt lat="48.43978" lon="2.69073">
        <ele>86</ele>
        <time>2012-03-31T11:54:07Z</time>
      </trkpt>
      <trkpt lat="48.43976" lon="2.69071">
        <ele>86</ele>
        <time>2012-03-31T11:54:09Z</time>
      </trkpt>
      <trkpt lat="48.43977" lon="2.69075">
        <ele>86</ele>
        <time>2012-03-31T11:54:12Z</time>
      </trkpt>
      <trkpt lat="48.43982" lon="2.6909">
        <ele>87</ele>
        <time>2012-03-31T11:54:18Z</time>
      </trkpt>
      <trkpt lat="48.43984" lon="2.69088">
        <ele>87</ele>
        <time>2012-03-31T11:54:22Z</time>
      </trkpt>
      <trkpt lat="48.43981" lon="2.69081">
        <ele>86</ele>
        <time>2012-03-31T11:54:25Z</time>
      </trkpt>
      <trkpt lat="48.43973" lon="2.69054">
        <ele>87</ele>
        <time>2012-03-31T11:54:34Z</time>
      </trkpt>
      <trkpt lat="48.43971" lon="2.69043">
        <ele>87</ele>
        <time>2012-03-31T11:54:39Z</time>
      </trkpt>
      <trkpt lat="48.43965" lon="2.69027">
        <ele>87</ele>
        <time>2012-03-31T11:54:45Z</time>
      </trkpt>
      <trkpt lat="48.43952" lon="2.69011">
        <ele>87</ele>
        <time>2012-03-31T11:54:51Z</time>
      </trkpt>
      <trkpt lat="48.43941" lon="2.68995">
        <ele>88</ele>
        <time>2012-03-31T11:54:56Z</time>
      </trkpt>
      <trkpt lat="48.4394" lon="2.6899">
        <ele>88</ele>
        <time>2012-03-31T11:54:57Z</time>
      </trkpt>
      <trkpt lat="48.43943" lon="2.68953">
        <ele>88</ele>
        <time>2012-03-31T11:55:04Z</time>
      </trkpt>
      <trkpt lat="48.43944" lon="2.68916">
        <ele>89</ele>
        <time>2012-03-31T11:55:10Z</time>
      </trkpt>
      <trkpt lat="48.4394" lon="2.68881">
        <ele>89</ele>
        <time>2012-03-31T11:55:16Z</time>
      </trkpt>
      <trkpt lat="48.43938" lon="2.68866">
        <ele>89</ele>
        <time>2012-03-31T11:55:19Z</time>
      </trkpt>
      <trkpt lat="48.43944" lon="2.68846">
        <ele>89</ele>
        <time>2012-03-31T11:55:24Z</time>
      </trkpt>
      <trkpt lat="48.43955" lon="2.68831">
        <ele>89</ele>
        <time>2012-03-31T11:55:27Z</time>
      </trkpt>
      <trkpt lat="48.43973" lon="2.68811">
        <ele>90</ele>
        <time>2012-03-31T11:55:32Z</time>
      </trkpt>
      <trkpt lat="48.43979" lon="2.68796">
        <ele>90</ele>
        <time>2012-03-31T11:55:36Z</time>
      </trkpt>
      <trkpt lat="48.43983" lon="2.68782">
        <ele>90</ele>
        <time>2012-03-31T11:55:41Z</time>
      </trkpt>
      <trkpt lat="48.43982" lon="2.68779">
        <ele>90</ele>
        <time>2012-03-31T11:55:42Z</time>
      </trkpt>
      <trkpt lat="48.43984" lon="2.68764">
        <ele>90</ele>
        <time>2012-03-31T11:55:46Z</time>
      </trkpt>
      <trkpt lat="48.43985" lon="2.68736">
        <ele>91</ele>
        <time>2012-03-31T11:55:53Z</time>
      </trkpt>
      <trkpt lat="48.43983" lon="2.68718">
        <ele>91</ele>
        <time>2012-03-31T11:55:58Z</time>
      </trkpt>
      <trkpt lat="48.4398" lon="2.68689">
        <ele>92</ele>
        <time>2012-03-31T11:56:05Z</time>
      </trkpt>
      <trkpt lat="48.43976" lon="2.68666">
        <ele>95</ele>
        <time>2012-03-31T11:56:11Z</time>
      </trkpt>
      <trkpt lat="48.43972" lon="2.68649">
        <ele>95</ele>
        <time>2012-03-31T11:56:16Z</time>
      </trkpt>
      <trkpt lat="48.43967" lon="2.68632">
        <ele>95</ele>
        <time>2012-03-31T11:56:22Z</time>
      </trkpt>
      <trkpt lat="48.43965" lon="2.68617">
        <ele>95</ele>
        <time>2012-03-31T11:56:28Z</time>
      </trkpt>
      <trkpt lat="48.43963" lon="2.68607">
        <ele>95</ele>
        <time>2012-03-31T11:56:32Z</time>
      </trkpt>
      <trkpt lat="48.43965" lon="2.68597">
        <ele>96</ele>
        <time>2012-03-31T11:56:37Z</time>
      </trkpt>
      <trkpt lat="48.43965" lon="2.68594">
        <ele>96</ele>
        <time>2012-03-31T11:56:39Z</time>
      </trkpt>
      <trkpt lat="48.43962" lon="2.68582">
        <ele>98</ele>
        <time>2012-03-31T11:56:47Z</time>
      </trkpt>
      <trkpt lat="48.43963" lon="2.6857">
        <ele>98</ele>
        <time>2012-03-31T11:56:53Z</time>
      </trkpt>
      <trkpt lat="48.43965" lon="2.68562">
        <ele>98</ele>
        <time>2012-03-31T11:56:57Z</time>
      </trkpt>
      <trkpt lat="48.43963" lon="2.68557">
        <ele>98</ele>
        <time>2012-03-31T11:57:01Z</time>
      </trkpt>
      <trkpt lat="48.43967" lon="2.68549">
        <ele>99</ele>
        <time>2012-03-31T11:57:07Z</time>
      </trkpt>
      <trkpt lat="48.43971" lon="2.68538">
        <ele>99</ele>
        <time>2012-03-31T11:57:13Z</time>
      </trkpt>
      <trkpt lat="48.43973" lon="2.68532">
        <ele>99</ele>
        <time>2012-03-31T11:57:16Z</time>
      </trkpt>
      <trkpt lat="48.43977" lon="2.68513">
        <ele>101</ele>
        <time>2012-03-31T11:57:23Z</time>
      </trkpt>
      <trkpt lat="48.43983" lon="2.68495">
        <ele>103</ele>
        <time>2012-03-31T11:57:29Z</time>
      </trkpt>
      <trkpt lat="48.43989" lon="2.68481">
        <ele>103</ele>
        <time>2012-03-31T11:57:34Z</time>
      </trkpt>
      <trkpt lat="48.43989" lon="2.68477">
        <ele>103</ele>
        <time>2012-03-31T11:57:37Z</time>
      </trkpt>
      <trkpt lat="48.43989" lon="2.6846">
        <ele>102</ele>
        <time>2012-03-31T11:57:43Z</time>
      </trkpt>
      <trkpt lat="48.43982" lon="2.6845">
        <ele>102</ele>
        <time>2012-03-31T11:57:48Z</time>
      </trkpt>
      <trkpt lat="48.43978" lon="2.68439">
        <ele>102</ele>
        <time>2012-03-31T11:57:53Z</time>
      </trkpt>
      <trkpt lat="48.43973" lon="2.68423">
        <ele>102</ele>
        <time>2012-03-31T11:57:59Z</time>
      </trkpt>
      <trkpt lat="48.43967" lon="2.6841">
        <ele>102</ele>
        <time>2012-03-31T11:58:05Z</time>
      </trkpt>
      <trkpt lat="48.43966" lon="2.68399">
        <ele>102</ele>
        <time>2012-03-31T11:58:09Z</time>
      </trkpt>
      <trkpt lat="48.4397" lon="2.68377">
        <ele>102</ele>
        <time>2012-03-31T11:58:14Z</time>
      </trkpt>
      <trkpt lat="48.43976" lon="2.68361">
        <ele>102</ele>
        <time>2012-03-31T11:58:17Z</time>
      </trkpt>
      <trkpt lat="48.43981" lon="2.68342">
        <ele>102</ele>
        <time>2012-03-31T11:58:20Z</time>
      </trkpt>
      <trkpt lat="48.43982" lon="2.68327">
        <ele>102</ele>
        <time>2012-03-31T11:58:22Z</time>
      </trkpt>
      <trkpt lat="48.4398" lon="2.6831">
        <ele>101</ele>
        <time>2012-03-31T11:58:25Z</time>
      </trkpt>
      <trkpt lat="48.43965" lon="2.68285">
        <ele>101</ele>
        <time>2012-03-31T11:58:30Z</time>
      </trkpt>
      <trkpt lat="48.43967" lon="2.68252">
        <ele>101</ele>
        <time>2012-03-31T11:58:35Z</time>
      </trkpt>
      <trkpt lat="48.43972" lon="2.68247">
        <ele>101</ele>
        <time>2012-03-31T11:58:38Z</time>
      </trkpt>
      <trkpt lat="48.43981" lon="2.68243">
        <ele>101</ele>
        <time>2012-03-31T11:58:42Z</time>
      </trkpt>
      <trkpt lat="48.43983" lon="2.68238">
        <ele>101</ele>
        <time>2012-03-31T11:58:46Z</time>
      </trkpt>
      <trkpt lat="48.4398" lon="2.68227">
        <ele>101</ele>
        <time>2012-03-31T11:58:50Z</time>
      </trkpt>
      <trkpt lat="48.43978" lon="2.68194">
        <ele>101</ele>
        <time>2012-03-31T11:58:56Z</time>
      </trkpt>
      <trkpt lat="48.43989" lon="2.68187">
        <ele>101</ele>
        <time>2012-03-31T11:59:00Z</time>
      </trkpt>
      <trkpt lat="48.44008" lon="2.68187">
        <ele>103</ele>
        <time>2012-03-31T11:59:06Z</time>
      </trkpt>
      <trkpt lat="48.4402" lon="2.68189">
        <ele>104</ele>
        <time>2012-03-31T11:59:12Z</time>
      </trkpt>
      <trkpt lat="48.44029" lon="2.68187">
        <ele>104</ele>
        <time>2012-03-31T11:59:16Z</time>
      </trkpt>
      <trkpt lat="48.44039" lon="2.6818">
        <ele>104</ele>
        <time>2012-03-31T11:59:21Z</time>
      </trkpt>
      <trkpt lat="48.44046" lon="2.68162">
        <ele>104</ele>
        <time>2012-03-31T11:59:26Z</time>
      </trkpt>
      <trkpt lat="48.44061" lon="2.68137">
        <ele>105</ele>
        <time>2012-03-31T11:59:33Z</time>
      </trkpt>
      <trkpt lat="48.44069" lon="2.68112">
        <ele>105</ele>
        <time>2012-03-31T11:59:39Z</time>
      </trkpt>
      <trkpt lat="48.44077" lon="2.68087">
        <ele>106</ele>
        <time>2012-03-31T11:59:45Z</time>
      </trkpt>
      <trkpt lat="48.44088" lon="2.68065">
        <ele>110</ele>
        <time>2012-03-31T11:59:52Z</time>
      </trkpt>
      <trkpt lat="48.44099" lon="2.68056">
        <ele>111</ele>
        <time>2012-03-31T11:59:58Z</time>
      </trkpt>
      <trkpt lat="48.44107" lon="2.68058">
        <ele>112</ele>
        <time>2012-03-31T12:00:02Z</time>
      </trkpt>
      <trkpt lat="48.44113" lon="2.68051">
        <ele>113</ele>
        <time>2012-03-31T12:00:06Z</time>
      </trkpt>
      <trkpt lat="48.44112" lon="2.68029">
        <ele>113</ele>
        <time>2012-03-31T12:00:12Z</time>
      </trkpt>
      <trkpt lat="48.44109" lon="2.68009">
        <ele>112</ele>
        <time>2012-03-31T12:00:17Z</time>
      </trkpt>
      <trkpt lat="48.44106" lon="2.67985">
        <ele>112</ele>
        <time>2012-03-31T12:00:22Z</time>
      </trkpt>
      <trkpt lat="48.44107" lon="2.67966">
        <ele>113</ele>
        <time>2012-03-31T12:00:27Z</time>
      </trkpt>
      <trkpt lat="48.44108" lon="2.67951">
        <ele>113</ele>
        <time>2012-03-31T12:00:31Z</time>
      </trkpt>
      <trkpt lat="48.44108" lon="2.67925">
        <ele>113</ele>
        <time>2012-03-31T12:00:37Z</time>
      </trkpt>
      <trkpt lat="48.44107" lon="2.67915">
        <ele>113</ele>
        <time>2012-03-31T12:00:39Z</time>
      </trkpt>
      <trkpt lat="48.4411" lon="2.67895">
        <ele>114</ele>
        <time>2012-03-31T12:00:44Z</time>
      </trkpt>
      <trkpt lat="48.44115" lon="2.67886">
        <ele>114</ele>
        <time>2012-03-31T12:00:47Z</time>
      </trkpt>
      <trkpt lat="48.4412" lon="2.67877">
        <ele>115</ele>
        <time>2012-03-31T12:00:51Z</time>
      </trkpt>
      <trkpt lat="48.44123" lon="2.67869">
        <ele>115</ele>
        <time>2012-03-31T12:00:54Z</time>
      </trkpt>
      <trkpt lat="48.44123" lon="2.67843">
        <ele>115</ele>
        <time>2012-03-31T12:00:59Z</time>
      </trkpt>
      <trkpt lat="48.44133" lon="2.67824">
        <ele>115</ele>
        <time>2012-03-31T12:01:04Z</time>
      </trkpt>
      <trkpt lat="48.44137" lon="2.67812">
        <ele>114</ele>
        <time>2012-03-31T12:01:06Z</time>
      </trkpt>
      <trkpt lat="48.4414" lon="2.67774">
        <ele>113</ele>
        <time>2012-03-31T12:01:12Z</time>
      </trkpt>
      <trkpt lat="48.4414" lon="2.67769">
        <ele>113</ele>
        <time>2012-03-31T12:01:13Z</time>
      </trkpt>
      <trkpt lat="48.44132" lon="2.67739">
        <ele>112</ele>
        <time>2012-03-31T12:01:18Z</time>
      </trkpt>
      <trkpt lat="48.44121" lon="2.67706">
        <ele>112</ele>
        <time>2012-03-31T12:01:24Z</time>
      </trkpt>
      <trkpt lat="48.44127" lon="2.67699">
        <ele>112</ele>
        <time>2012-03-31T12:01:27Z</time>
      </trkpt>
      <trkpt lat="48.44143" lon="2.67683">
        <ele>113</ele>
        <time>2012-03-31T12:01:35Z</time>
      </trkpt>
      <trkpt lat="48.44152" lon="2.67664">
        <ele>115</ele>
        <time>2012-03-31T12:01:42Z</time>
      </trkpt>
      <trkpt lat="48.44161" lon="2.67643">
        <ele>115</ele>
        <time>2012-03-31T12:01:50Z</time>
      </trkpt>
      <trkpt lat="48.44171" lon="2.67625">
        <ele>122</ele>
        <time>2012-03-31T12:01:57Z</time>
      </trkpt>
      <trkpt lat="48.44178" lon="2.67617">
        <ele>122</ele>
        <time>2012-03-31T12:02:02Z</time>
      </trkpt>
      <trkpt lat="48.44192" lon="2.67609">
        <ele>123</ele>
        <time>2012-03-31T12:02:09Z</time>
      </trkpt>
      <trkpt lat="48.44199" lon="2.67599">
        <ele>123</ele>
        <time>2012-03-31T12:02:14Z</time>
      </trkpt>
      <trkpt lat="48.4421" lon="2.67582">
        <ele>125</ele>
        <time>2012-03-31T12:02:20Z</time>
      </trkpt>
      <trkpt lat="48.44216" lon="2.67567">
        <ele>126</ele>
        <time>2012-03-31T12:02:26Z</time>
      </trkpt>
      <trkpt lat="48.44221" lon="2.67549">
        <ele>126</ele>
        <time>2012-03-31T12:02:32Z</time>
      </trkpt>
      <trkpt lat="48.44224" lon="2.67533">
        <ele>127</ele>
        <time>2012-03-31T12:02:38Z</time>
      </trkpt>
      <trkpt lat="48.44224" lon="2.67515">
        <ele>127</ele>
        <time>2012-03-31T12:02:44Z</time>
      </trkpt>
      <trkpt lat="48.44223" lon="2.67498">
        <ele>129</ele>
        <time>2012-03-31T12:02:49Z</time>
      </trkpt>
      <trkpt lat="48.4422" lon="2.67473">
        <ele>129</ele>
        <time>2012-03-31T12:02:56Z</time>
      </trkpt>
      <trkpt lat="48.44225" lon="2.67456">
        <ele>130</ele>
        <time>2012-03-31T12:03:02Z</time>
      </trkpt>
      <trkpt lat="48.44231" lon="2.67435">
        <ele>130</ele>
        <time>2012-03-31T12:03:09Z</time>
      </trkpt>
      <trkpt lat="48.44238" lon="2.67419">
        <ele>130</ele>
        <time>2012-03-31T12:03:15Z</time>
      </trkpt>
      <trkpt lat="48.44248" lon="2.67404">
        <ele>132</ele>
        <time>2012-03-31T12:03:23Z</time>
      </trkpt>
      <trkpt lat="48.44253" lon="2.67394">
        <ele>136</ele>
        <time>2012-03-31T12:03:30Z</time>
      </trkpt>
      <trkpt lat="48.4426" lon="2.67386">
        <ele>137</ele>
        <time>2012-03-31T12:03:37Z</time>
      </trkpt>
      <trkpt lat="48.4427" lon="2.67383">
        <ele>138</ele>
        <time>2012-03-31T12:03:46Z</time>
      </trkpt>
      <trkpt lat="48.44277" lon="2.67384">
        <ele>139</ele>
        <time>2012-03-31T12:03:53Z</time>
      </trkpt>
      <trkpt lat="48.44284" lon="2.67382">
        <ele>139</ele>
        <time>2012-03-31T12:03:59Z</time>
      </trkpt>
      <trkpt lat="48.4429" lon="2.67373">
        <ele>140</ele>
        <time>2012-03-31T12:04:07Z</time>
      </trkpt>
      <trkpt lat="48.44296" lon="2.67365">
        <ele>141</ele>
        <time>2012-03-31T12:04:15Z</time>
      </trkpt>
      <trkpt lat="48.443" lon="2.67357">
        <ele>141</ele>
        <time>2012-03-31T12:04:22Z</time>
      </trkpt>
      <trkpt lat="48.443" lon="2.67357">
        <ele>141</ele>
        <time>2012-03-31T12:04:27Z</time>
      </trkpt>
      <trkpt lat="48.44302" lon="2.67356">
        <ele>141</ele>
        <time>2012-03-31T12:04:44Z</time>
      </trkpt>
      <trkpt lat="48.44304" lon="2.67349">
        <ele>142</ele>
        <time>2012-03-31T12:07:53Z</time>
      </trkpt>
      <trkpt lat="48.44305" lon="2.67356">
        <ele>142</ele>
        <time>2012-03-31T12:09:01Z</time>
      </trkpt>
      <trkpt lat="48.44304" lon="2.67352">
        <ele>142</ele>
        <time>2012-03-31T12:10:01Z</time>
      </trkpt>
      <trkpt lat="48.44311" lon="2.67353">
        <ele>142</ele>
        <time>2012-03-31T12:11:05Z</time>
      </trkpt>
      <trkpt lat="48.44309" lon="2.67354">
        <ele>142</ele>
        <time>2012-03-31T12:11:22Z</time>
      </trkpt>
      <trkpt lat="48.44309" lon="2.67358">
        <ele>142</ele>
        <time>2012-03-31T12:11:29Z</time>
      </trkpt>
      <trkpt lat="48.44304" lon="2.67369">
        <ele>141</ele>
        <time>2012-03-31T12:11:35Z</time>
      </trkpt>
      <trkpt lat="48.44303" lon="2.6737">
        <ele>141</ele>
        <time>2012-03-31T12:11:36Z</time>
      </trkpt>
      <trkpt lat="48.44305" lon="2.67376">
        <ele>141</ele>
        <time>2012-03-31T12:11:40Z</time>
      </trkpt>
      <trkpt lat="48.44311" lon="2.67384">
        <ele>141</ele>
        <time>2012-03-31T12:11:47Z</time>
      </trkpt>
      <trkpt lat="48.44312" lon="2.67392">
        <ele>141</ele>
        <time>2012-03-31T12:11:52Z</time>
      </trkpt>
      <trkpt lat="48.4432" lon="2.67402">
        <ele>142</ele>
        <time>2012-03-31T12:11:57Z</time>
      </trkpt>
      <trkpt lat="48.44323" lon="2.67403">
        <ele>143</ele>
        <time>2012-03-31T12:12:03Z</time>
      </trkpt>
      <trkpt lat="48.44324" lon="2.67402">
        <ele>143</ele>
        <time>2012-03-31T12:12:07Z</time>
      </trkpt>
      <trkpt lat="48.44324" lon="2.6739">
        <ele>142</ele>
        <time>2012-03-31T12:12:13Z</time>
      </trkpt>
      <trkpt lat="48.44324" lon="2.67388">
        <ele>142</ele>
        <time>2012-03-31T12:12:14Z</time>
      </trkpt>
      <trkpt lat="48.44327" lon="2.67383">
        <ele>142</ele>
        <time>2012-03-31T12:12:18Z</time>
      </trkpt>
      <trkpt lat="48.44334" lon="2.67387">
        <ele>146</ele>
        <time>2012-03-31T12:12:24Z</time>
      </trkpt>
      <trkpt lat="48.44338" lon="2.67397">
        <ele>146</ele>
        <time>2012-03-31T12:12:29Z</time>
      </trkpt>
      <trkpt lat="48.44338" lon="2.67414">
        <ele>145</ele>
        <time>2012-03-31T12:12:36Z</time>
      </trkpt>
      <trkpt lat="48.4434" lon="2.67436">
        <ele>145</ele>
        <time>2012-03-31T12:12:42Z</time>
      </trkpt>
      <trkpt lat="48.44338" lon="2.67459">
        <ele>145</ele>
        <time>2012-03-31T12:12:46Z</time>
      </trkpt>
      <trkpt lat="48.44333" lon="2.67479">
        <ele>141</ele>
        <time>2012-03-31T12:12:50Z</time>
      </trkpt>
      <trkpt lat="48.44331" lon="2.67483">
        <ele>141</ele>
        <time>2012-03-31T12:12:51Z</time>
      </trkpt>
      <trkpt lat="48.44319" lon="2.675">
        <ele>141</ele>
        <time>2012-03-31T12:12:56Z</time>
      </trkpt>
      <trkpt lat="48.44317" lon="2.67505">
        <ele>140</ele>
        <time>2012-03-31T12:12:57Z</time>
      </trkpt>
      <trkpt lat="48.44313" lon="2.67517">
        <ele>139</ele>
        <time>2012-03-31T12:12:59Z</time>
      </trkpt>
      <trkpt lat="48.44305" lon="2.67549">
        <ele>137</ele>
        <time>2012-03-31T12:13:04Z</time>
      </trkpt>
      <trkpt lat="48.44304" lon="2.67557">
        <ele>137</ele>
        <time>2012-03-31T12:13:05Z</time>
      </trkpt>
      <trkpt lat="48.44296" lon="2.67581">
        <ele>137</ele>
        <time>2012-03-31T12:13:09Z</time>
      </trkpt>
      <trkpt lat="48.44293" lon="2.67593">
        <ele>137</ele>
        <time>2012-03-31T12:13:13Z</time>
      </trkpt>
      <trkpt lat="48.44293" lon="2.67593">
        <ele>137</ele>
        <time>2012-03-31T12:13:21Z</time>
      </trkpt>
      <trkpt lat="48.44295" lon="2.67601">
        <ele>137</ele>
        <time>2012-03-31T12:13:25Z</time>
      </trkpt>
      <trkpt lat="48.44298" lon="2.67618">
        <ele>138</ele>
        <time>2012-03-31T12:13:29Z</time>
      </trkpt>
      <trkpt lat="48.443" lon="2.67636">
        <ele>138</ele>
        <time>2012-03-31T12:13:34Z</time>
      </trkpt>
      <trkpt lat="48.44293" lon="2.67645">
        <ele>138</ele>
        <time>2012-03-31T12:13:38Z</time>
      </trkpt>
      <trkpt lat="48.44291" lon="2.67647">
        <ele>137</ele>
        <time>2012-03-31T12:13:39Z</time>
      </trkpt>
      <trkpt lat="48.44283" lon="2.67657">
        <ele>137</ele>
        <time>2012-03-31T12:13:45Z</time>
      </trkpt>
      <trkpt lat="48.44282" lon="2.67659">
        <ele>137</ele>
        <time>2012-03-31T12:13:46Z</time>
      </trkpt>
      <trkpt lat="48.44281" lon="2.67666">
        <ele>137</ele>
        <time>2012-03-31T12:13:50Z</time>
      </trkpt>
      <trkpt lat="48.4427" lon="2.67673">
        <ele>136</ele>
        <time>2012-03-31T12:13:56Z</time>
      </trkpt>
      <trkpt lat="48.44265" lon="2.67678">
        <ele>136</ele>
        <time>2012-03-31T12:13:59Z</time>
      </trkpt>
      <trkpt lat="48.44267" lon="2.67685">
        <ele>137</ele>
        <time>2012-03-31T12:14:04Z</time>
      </trkpt>
      <trkpt lat="48.44267" lon="2.67688">
        <ele>137</ele>
        <time>2012-03-31T12:14:09Z</time>
      </trkpt>
      <trkpt lat="48.44268" lon="2.67708">
        <ele>137</ele>
        <time>2012-03-31T12:14:15Z</time>
      </trkpt>
      <trkpt lat="48.44265" lon="2.67727">
        <ele>137</ele>
        <time>2012-03-31T12:14:20Z</time>
      </trkpt>
      <trkpt lat="48.44265" lon="2.67738">
        <ele>137</ele>
        <time>2012-03-31T12:14:22Z</time>
      </trkpt>
      <trkpt lat="48.44257" lon="2.67756">
        <ele>136</ele>
        <time>2012-03-31T12:14:28Z</time>
      </trkpt>
      <trkpt lat="48.44254" lon="2.6776">
        <ele>136</ele>
        <time>2012-03-31T12:14:30Z</time>
      </trkpt>
      <trkpt lat="48.44252" lon="2.67765">
        <ele>136</ele>
        <time>2012-03-31T12:14:32Z</time>
      </trkpt>
      <trkpt lat="48.44254" lon="2.67776">
        <ele>137</ele>
        <time>2012-03-31T12:14:38Z</time>
      </trkpt>
      <trkpt lat="48.44255" lon="2.67778">
        <ele>138</ele>
        <time>2012-03-31T12:14:39Z</time>
      </trkpt>
      <trkpt lat="48.44264" lon="2.67788">
        <ele>138</ele>
        <time>2012-03-31T12:14:44Z</time>
      </trkpt>
      <trkpt lat="48.44268" lon="2.67795">
        <ele>139</ele>
        <time>2012-03-31T12:14:48Z</time>
      </trkpt>
      <trkpt lat="48.4427" lon="2.67799">
        <ele>139</ele>
        <time>2012-03-31T12:15:00Z</time>
      </trkpt>
      <trkpt lat="48.4427" lon="2.67798">
        <ele>139</ele>
        <time>2012-03-31T12:15:08Z</time>
      </trkpt>
      <trkpt lat="48.44263" lon="2.67787">
        <ele>138</ele>
        <time>2012-03-31T12:15:15Z</time>
      </trkpt>
      <trkpt lat="48.44264" lon="2.67787">
        <ele>138</ele>
        <time>2012-03-31T12:15:25Z</time>
      </trkpt>
      <trkpt lat="48.44265" lon="2.67786">
        <ele>138</ele>
        <time>2012-03-31T12:15:35Z</time>
      </trkpt>
      <trkpt lat="48.4427" lon="2.67796">
        <ele>139</ele>
        <time>2012-03-31T12:15:40Z</time>
      </trkpt>
      <trkpt lat="48.44275" lon="2.67816">
        <ele>139</ele>
        <time>2012-03-31T12:15:44Z</time>
      </trkpt>
      <trkpt lat="48.44286" lon="2.67835">
        <ele>141</ele>
        <time>2012-03-31T12:15:49Z</time>
      </trkpt>
      <trkpt lat="48.44282" lon="2.67845">
        <ele>141</ele>
        <time>2012-03-31T12:15:52Z</time>
      </trkpt>
      <trkpt lat="48.44273" lon="2.6786">
        <ele>140</ele>
        <time>2012-03-31T12:15:56Z</time>
      </trkpt>
      <trkpt lat="48.44271" lon="2.67863">
        <ele>140</ele>
        <time>2012-03-31T12:15:57Z</time>
      </trkpt>
      <trkpt lat="48.44265" lon="2.67869">
        <ele>140</ele>
        <time>2012-03-31T12:15:59Z</time>
      </trkpt>
      <trkpt lat="48.44248" lon="2.67876">
        <ele>132</ele>
        <time>2012-03-31T12:16:04Z</time>
      </trkpt>
      <trkpt lat="48.44246" lon="2.6788">
        <ele>132</ele>
        <time>2012-03-31T12:16:06Z</time>
      </trkpt>
      <trkpt lat="48.44243" lon="2.67881">
        <ele>132</ele>
        <time>2012-03-31T12:16:12Z</time>
      </trkpt>
      <trkpt lat="48.44244" lon="2.67883">
        <ele>132</ele>
        <time>2012-03-31T12:16:18Z</time>
      </trkpt>
      <trkpt lat="48.44244" lon="2.67882">
        <ele>132</ele>
        <time>2012-03-31T12:16:21Z</time>
      </trkpt>
      <trkpt lat="48.44247" lon="2.67879">
        <ele>132</ele>
        <time>2012-03-31T12:16:24Z</time>
      </trkpt>
      <trkpt lat="48.44253" lon="2.67875">
        <ele>140</ele>
        <time>2012-03-31T12:16:27Z</time>
      </trkpt>
      <trkpt lat="48.4426" lon="2.67879">
        <ele>140</ele>
        <time>2012-03-31T12:16:31Z</time>
      </trkpt>
      <trkpt lat="48.44259" lon="2.67883">
        <ele>140</ele>
        <time>2012-03-31T12:16:36Z</time>
      </trkpt>
      <trkpt lat="48.44259" lon="2.67885">
        <ele>140</ele>
        <time>2012-03-31T12:16:40Z</time>
      </trkpt>
      <trkpt lat="48.44255" lon="2.6789">
        <ele>140</ele>
        <time>2012-03-31T12:16:47Z</time>
      </trkpt>
      <trkpt lat="48.44252" lon="2.67894">
        <ele>140</ele>
        <time>2012-03-31T12:16:50Z</time>
      </trkpt>
      <trkpt lat="48.44245" lon="2.67898">
        <ele>134</ele>
        <time>2012-03-31T12:16:54Z</time>
      </trkpt>
      <trkpt lat="48.44237" lon="2.67905">
        <ele>134</ele>
        <time>2012-03-31T12:16:59Z</time>
      </trkpt>
      <trkpt lat="48.44234" lon="2.6792">
        <ele>134</ele>
        <time>2012-03-31T12:17:03Z</time>
      </trkpt>
      <trkpt lat="48.44233" lon="2.67925">
        <ele>134</ele>
        <time>2012-03-31T12:17:04Z</time>
      </trkpt>
      <trkpt lat="48.44232" lon="2.67929">
        <ele>133</ele>
        <time>2012-03-31T12:17:08Z</time>
      </trkpt>
      <trkpt lat="48.44233" lon="2.67929">
        <ele>134</ele>
        <time>2012-03-31T12:17:15Z</time>
      </trkpt>
      <trkpt lat="48.44234" lon="2.67929">
        <ele>134</ele>
        <time>2012-03-31T12:17:17Z</time>
      </trkpt>
      <trkpt lat="48.44234" lon="2.67925">
        <ele>134</ele>
        <time>2012-03-31T12:17:21Z</time>
      </trkpt>
      <trkpt lat="48.44235" lon="2.67914">
        <ele>134</ele>
        <time>2012-03-31T12:17:25Z</time>
      </trkpt>
      <trkpt lat="48.44239" lon="2.67909">
        <ele>135</ele>
        <time>2012-03-31T12:17:30Z</time>
      </trkpt>
      <trkpt lat="48.44241" lon="2.6791">
        <ele>135</ele>
        <time>2012-03-31T12:17:36Z</time>
      </trkpt>
      <trkpt lat="48.44243" lon="2.6791">
        <ele>136</ele>
        <time>2012-03-31T12:17:44Z</time>
      </trkpt>
      <trkpt lat="48.44244" lon="2.6791">
        <ele>136</ele>
        <time>2012-03-31T12:17:47Z</time>
      </trkpt>
      <trkpt lat="48.44246" lon="2.67912">
        <ele>137</ele>
        <time>2012-03-31T12:17:49Z</time>
      </trkpt>
      <trkpt lat="48.44245" lon="2.67922">
        <ele>136</ele>
        <time>2012-03-31T12:17:53Z</time>
      </trkpt>
      <trkpt lat="48.44245" lon="2.67932">
        <ele>135</ele>
        <time>2012-03-31T12:17:56Z</time>
      </trkpt>
      <trkpt lat="48.44243" lon="2.67944">
        <ele>133</ele>
        <time>2012-03-31T12:17:59Z</time>
      </trkpt>
      <trkpt lat="48.44243" lon="2.67954">
        <ele>133</ele>
        <time>2012-03-31T12:18:03Z</time>
      </trkpt>
      <trkpt lat="48.44243" lon="2.67956">
        <ele>132</ele>
        <time>2012-03-31T12:18:04Z</time>
      </trkpt>
      <trkpt lat="48.44242" lon="2.67968">
        <ele>132</ele>
        <time>2012-03-31T12:18:09Z</time>
      </trkpt>
      <trkpt lat="48.44238" lon="2.67984">
        <ele>133</ele>
        <time>2012-03-31T12:18:15Z</time>
      </trkpt>
      <trkpt lat="48.44236" lon="2.67998">
        <ele>134</ele>
        <time>2012-03-31T12:18:20Z</time>
      </trkpt>
      <trkpt lat="48.44242" lon="2.68008">
        <ele>134</ele>
        <time>2012-03-31T12:18:24Z</time>
      </trkpt>
      <trkpt lat="48.44253" lon="2.68011">
        <ele>138</ele>
        <time>2012-03-31T12:18:28Z</time>
      </trkpt>
      <trkpt lat="48.44259" lon="2.68016">
        <ele>139</ele>
        <time>2012-03-31T12:18:32Z</time>
      </trkpt>
      <trkpt lat="48.44258" lon="2.68019">
        <ele>139</ele>
        <time>2012-03-31T12:18:39Z</time>
      </trkpt>
      <trkpt lat="48.44255" lon="2.68021">
        <ele>139</ele>
        <time>2012-03-31T12:18:46Z</time>
      </trkpt>
      <trkpt lat="48.44254" lon="2.68021">
        <ele>139</ele>
        <time>2012-03-31T12:18:50Z</time>
      </trkpt>
      <trkpt lat="48.44243" lon="2.68028">
        <ele>131</ele>
        <time>2012-03-31T12:18:56Z</time>
      </trkpt>
      <trkpt lat="48.44235" lon="2.68046">
        <ele>130</ele>
        <time>2012-03-31T12:19:01Z</time>
      </trkpt>
      <trkpt lat="48.44235" lon="2.68066">
        <ele>131</ele>
        <time>2012-03-31T12:19:06Z</time>
      </trkpt>
      <trkpt lat="48.44236" lon="2.68071">
        <ele>132</ele>
        <time>2012-03-31T12:19:07Z</time>
      </trkpt>
      <trkpt lat="48.44237" lon="2.68085">
        <ele>132</ele>
        <time>2012-03-31T12:19:12Z</time>
      </trkpt>
      <trkpt lat="48.44239" lon="2.68087">
        <ele>133</ele>
        <time>2012-03-31T12:19:17Z</time>
      </trkpt>
      <trkpt lat="48.44242" lon="2.68096">
        <ele>132</ele>
        <time>2012-03-31T12:19:22Z</time>
      </trkpt>
      <trkpt lat="48.44241" lon="2.68099">
        <ele>132</ele>
        <time>2012-03-31T12:19:23Z</time>
      </trkpt>
      <trkpt lat="48.44238" lon="2.6811">
        <ele>131</ele>
        <time>2012-03-31T12:19:26Z</time>
      </trkpt>
      <trkpt lat="48.44234" lon="2.68114">
        <ele>130</ele>
        <time>2012-03-31T12:19:29Z</time>
      </trkpt>
      <trkpt lat="48.44228" lon="2.6813">
        <ele>129</ele>
        <time>2012-03-31T12:19:34Z</time>
      </trkpt>
      <trkpt lat="48.44226" lon="2.68133">
        <ele>129</ele>
        <time>2012-03-31T12:19:35Z</time>
      </trkpt>
      <trkpt lat="48.44217" lon="2.68161">
        <ele>129</ele>
        <time>2012-03-31T12:19:42Z</time>
      </trkpt>
      <trkpt lat="48.44209" lon="2.68167">
        <ele>127</ele>
        <time>2012-03-31T12:19:45Z</time>
      </trkpt>
      <trkpt lat="48.44207" lon="2.68168">
        <ele>126</ele>
        <time>2012-03-31T12:19:48Z</time>
      </trkpt>
      <trkpt lat="48.44207" lon="2.68168">
        <ele>126</ele>
        <time>2012-03-31T12:19:51Z</time>
      </trkpt>
      <trkpt lat="48.44204" lon="2.68161">
        <ele>128</ele>
        <time>2012-03-31T12:19:55Z</time>
      </trkpt>
      <trkpt lat="48.44201" lon="2.68159">
        <ele>128</ele>
        <time>2012-03-31T12:19:57Z</time>
      </trkpt>
      <trkpt lat="48.442" lon="2.68165">
        <ele>127</ele>
        <time>2012-03-31T12:20:00Z</time>
      </trkpt>
      <trkpt lat="48.4419" lon="2.68168">
        <ele>125</ele>
        <time>2012-03-31T12:20:05Z</time>
      </trkpt>
      <trkpt lat="48.44186" lon="2.68169">
        <ele>125</ele>
        <time>2012-03-31T12:20:07Z</time>
      </trkpt>
      <trkpt lat="48.44184" lon="2.68175">
        <ele>125</ele>
        <time>2012-03-31T12:20:12Z</time>
      </trkpt>
      <trkpt lat="48.44178" lon="2.6817">
        <ele>125</ele>
        <time>2012-03-31T12:20:17Z</time>
      </trkpt>
      <trkpt lat="48.44178" lon="2.68171">
        <ele>125</ele>
        <time>2012-03-31T12:20:26Z</time>
      </trkpt>
      <trkpt lat="48.44178" lon="2.68172">
        <ele>125</ele>
        <time>2012-03-31T12:20:28Z</time>
      </trkpt>
      <trkpt lat="48.44182" lon="2.68178">
        <ele>125</ele>
        <time>2012-03-31T12:20:35Z</time>
      </trkpt>
      <trkpt lat="48.44183" lon="2.68181">
        <ele>125</ele>
        <time>2012-03-31T12:20:43Z</time>
      </trkpt>
      <trkpt lat="48.44184" lon="2.68186">
        <ele>125</ele>
        <time>2012-03-31T12:20:49Z</time>
      </trkpt>
      <trkpt lat="48.44185" lon="2.68193">
        <ele>125</ele>
        <time>2012-03-31T12:20:55Z</time>
      </trkpt>
      <trkpt lat="48.44185" lon="2.68193">
        <ele>125</ele>
        <time>2012-03-31T12:21:02Z</time>
      </trkpt>
      <trkpt lat="48.44189" lon="2.68202">
        <ele>125</ele>
        <time>2012-03-31T12:21:07Z</time>
      </trkpt>
      <trkpt lat="48.44185" lon="2.68207">
        <ele>125</ele>
        <time>2012-03-31T12:21:10Z</time>
      </trkpt>
      <trkpt lat="48.44179" lon="2.68211">
        <ele>125</ele>
        <time>2012-03-31T12:21:15Z</time>
      </trkpt>
      <trkpt lat="48.44174" lon="2.68221">
        <ele>124</ele>
        <time>2012-03-31T12:21:18Z</time>
      </trkpt>
      <trkpt lat="48.44166" lon="2.68223">
        <ele>119</ele>
        <time>2012-03-31T12:21:21Z</time>
      </trkpt>
      <trkpt lat="48.44157" lon="2.68224">
        <ele>119</ele>
        <time>2012-03-31T12:21:25Z</time>
      </trkpt>
      <trkpt lat="48.44147" lon="2.68232">
        <ele>118</ele>
        <time>2012-03-31T12:21:28Z</time>
      </trkpt>
      <trkpt lat="48.44142" lon="2.68232">
        <ele>118</ele>
        <time>2012-03-31T12:21:31Z</time>
      </trkpt>
      <trkpt lat="48.4414" lon="2.68232">
        <ele>118</ele>
        <time>2012-03-31T12:21:32Z</time>
      </trkpt>
      <trkpt lat="48.4413" lon="2.68243">
        <ele>117</ele>
        <time>2012-03-31T12:21:38Z</time>
      </trkpt>
      <trkpt lat="48.44129" lon="2.68245">
        <ele>117</ele>
        <time>2012-03-31T12:21:43Z</time>
      </trkpt>
      <trkpt lat="48.44132" lon="2.68244">
        <ele>117</ele>
        <time>2012-03-31T12:21:46Z</time>
      </trkpt>
      <trkpt lat="48.44136" lon="2.68248">
        <ele>117</ele>
        <time>2012-03-31T12:21:53Z</time>
      </trkpt>
      <trkpt lat="48.44136" lon="2.68249">
        <ele>117</ele>
        <time>2012-03-31T12:21:54Z</time>
      </trkpt>
      <trkpt lat="48.44137" lon="2.68253">
        <ele>117</ele>
        <time>2012-03-31T12:21:57Z</time>
      </trkpt>
      <trkpt lat="48.44135" lon="2.6826">
        <ele>117</ele>
        <time>2012-03-31T12:22:00Z</time>
      </trkpt>
      <trkpt lat="48.44135" lon="2.6827">
        <ele>116</ele>
        <time>2012-03-31T12:22:03Z</time>
      </trkpt>
      <trkpt lat="48.44128" lon="2.68282">
        <ele>115</ele>
        <time>2012-03-31T12:22:08Z</time>
      </trkpt>
      <trkpt lat="48.4412" lon="2.68295">
        <ele>115</ele>
        <time>2012-03-31T12:22:12Z</time>
      </trkpt>
      <trkpt lat="48.44117" lon="2.68297">
        <ele>114</ele>
        <time>2012-03-31T12:22:17Z</time>
      </trkpt>
      <trkpt lat="48.44119" lon="2.68296">
        <ele>115</ele>
        <time>2012-03-31T12:22:36Z</time>
      </trkpt>
      <trkpt lat="48.4412" lon="2.68296">
        <ele>115</ele>
        <time>2012-03-31T12:22:48Z</time>
      </trkpt>
      <trkpt lat="48.44119" lon="2.68299">
        <ele>115</ele>
        <time>2012-03-31T12:23:08Z</time>
      </trkpt>
      <trkpt lat="48.44112" lon="2.68311">
        <ele>114</ele>
        <time>2012-03-31T12:23:13Z</time>
      </trkpt>
      <trkpt lat="48.44108" lon="2.68319">
        <ele>114</ele>
        <time>2012-03-31T12:23:16Z</time>
      </trkpt>
      <trkpt lat="48.44113" lon="2.68335">
        <ele>113</ele>
        <time>2012-03-31T12:23:21Z</time>
      </trkpt>
      <trkpt lat="48.44118" lon="2.6835">
        <ele>113</ele>
        <time>2012-03-31T12:23:25Z</time>
      </trkpt>
      <trkpt lat="48.44122" lon="2.68355">
        <ele>114</ele>
        <time>2012-03-31T12:23:29Z</time>
      </trkpt>
      <trkpt lat="48.44134" lon="2.68352">
        <ele>114</ele>
        <time>2012-03-31T12:23:33Z</time>
      </trkpt>
      <trkpt lat="48.44147" lon="2.68342">
        <ele>115</ele>
        <time>2012-03-31T12:23:37Z</time>
      </trkpt>
      <trkpt lat="48.44151" lon="2.68343">
        <ele>115</ele>
        <time>2012-03-31T12:23:38Z</time>
      </trkpt>
      <trkpt lat="48.44181" lon="2.68346">
        <ele>114</ele>
        <time>2012-03-31T12:23:44Z</time>
      </trkpt>
      <trkpt lat="48.44203" lon="2.68347">
        <ele>112</ele>
        <time>2012-03-31T12:23:49Z</time>
      </trkpt>
      <trkpt lat="48.44209" lon="2.68355">
        <ele>112</ele>
        <time>2012-03-31T12:23:51Z</time>
      </trkpt>
      <trkpt lat="48.44215" lon="2.68364">
        <ele>111</ele>
        <time>2012-03-31T12:23:53Z</time>
      </trkpt>
      <trkpt lat="48.44227" lon="2.68391">
        <ele>110</ele>
        <time>2012-03-31T12:23:57Z</time>
      </trkpt>
      <trkpt lat="48.44251" lon="2.6842">
        <ele>106</ele>
        <time>2012-03-31T12:24:03Z</time>
      </trkpt>
      <trkpt lat="48.44258" lon="2.6842">
        <ele>105</ele>
        <time>2012-03-31T12:24:06Z</time>
      </trkpt>
      <trkpt lat="48.44259" lon="2.6841">
        <ele>107</ele>
        <time>2012-03-31T12:24:10Z</time>
      </trkpt>
      <trkpt lat="48.44258" lon="2.68388">
        <ele>108</ele>
        <time>2012-03-31T12:24:19Z</time>
      </trkpt>
      <trkpt lat="48.44259" lon="2.68376">
        <ele>108</ele>
        <time>2012-03-31T12:24:25Z</time>
      </trkpt>
      <trkpt lat="48.44262" lon="2.68357">
        <ele>109</ele>
        <time>2012-03-31T12:24:32Z</time>
      </trkpt>
      <trkpt lat="48.44264" lon="2.68335">
        <ele>110</ele>
        <time>2012-03-31T12:24:40Z</time>
      </trkpt>
      <trkpt lat="48.44266" lon="2.6832">
        <ele>114</ele>
        <time>2012-03-31T12:24:46Z</time>
      </trkpt>
      <trkpt lat="48.4427" lon="2.68294">
        <ele>117</ele>
        <time>2012-03-31T12:24:55Z</time>
      </trkpt>
      <trkpt lat="48.44272" lon="2.68274">
        <ele>119</ele>
        <time>2012-03-31T12:25:03Z</time>
      </trkpt>
      <trkpt lat="48.44275" lon="2.68258">
        <ele>119</ele>
        <time>2012-03-31T12:25:09Z</time>
      </trkpt>
      <trkpt lat="48.44277" lon="2.68241">
        <ele>126</ele>
        <time>2012-03-31T12:25:16Z</time>
      </trkpt>
      <trkpt lat="48.44277" lon="2.68225">
        <ele>128</ele>
        <time>2012-03-31T12:25:23Z</time>
      </trkpt>
      <trkpt lat="48.44278" lon="2.68213">
        <ele>129</ele>
        <time>2012-03-31T12:25:28Z</time>
      </trkpt>
      <trkpt lat="48.44277" lon="2.68196">
        <ele>130</ele>
        <time>2012-03-31T12:25:36Z</time>
      </trkpt>
      <trkpt lat="48.44276" lon="2.6818">
        <ele>131</ele>
        <time>2012-03-31T12:25:44Z</time>
      </trkpt>
      <trkpt lat="48.44276" lon="2.68165">
        <ele>136</ele>
        <time>2012-03-31T12:25:51Z</time>
      </trkpt>
      <trkpt lat="48.44278" lon="2.68151">
        <ele>136</ele>
        <time>2012-03-31T12:25:58Z</time>
      </trkpt>
      <trkpt lat="48.4428" lon="2.68134">
        <ele>137</ele>
        <time>2012-03-31T12:26:06Z</time>
      </trkpt>
      <trkpt lat="48.4428" lon="2.68122">
        <ele>137</ele>
        <time>2012-03-31T12:26:13Z</time>
      </trkpt>
      <trkpt lat="48.44281" lon="2.681">
        <ele>137</ele>
        <time>2012-03-31T12:26:22Z</time>
      </trkpt>
      <trkpt lat="48.44281" lon="2.68084">
        <ele>138</ele>
        <time>2012-03-31T12:26:29Z</time>
      </trkpt>
      <trkpt lat="48.44281" lon="2.68067">
        <ele>139</ele>
        <time>2012-03-31T12:26:37Z</time>
      </trkpt>
      <trkpt lat="48.44282" lon="2.68047">
        <ele>140</ele>
        <time>2012-03-31T12:26:45Z</time>
      </trkpt>
      <trkpt lat="48.44283" lon="2.68031">
        <ele>140</ele>
        <time>2012-03-31T12:26:52Z</time>
      </trkpt>
      <trkpt lat="48.44285" lon="2.68012">
        <ele>140</ele>
        <time>2012-03-31T12:27:00Z</time>
      </trkpt>
      <trkpt lat="48.44286" lon="2.68006">
        <ele>140</ele>
        <time>2012-03-31T12:27:03Z</time>
      </trkpt>
      <trkpt lat="48.44291" lon="2.68005">
        <ele>141</ele>
        <time>2012-03-31T12:27:07Z</time>
      </trkpt>
      <trkpt lat="48.44296" lon="2.68021">
        <ele>141</ele>
        <time>2012-03-31T12:27:14Z</time>
      </trkpt>
      <trkpt lat="48.44298" lon="2.68044">
        <ele>141</ele>
        <time>2012-03-31T12:27:21Z</time>
      </trkpt>
      <trkpt lat="48.44298" lon="2.68067">
        <ele>140</ele>
        <time>2012-03-31T12:27:27Z</time>
      </trkpt>
      <trkpt lat="48.44305" lon="2.68082">
        <ele>141</ele>
        <time>2012-03-31T12:27:31Z</time>
      </trkpt>
      <trkpt lat="48.44308" lon="2.68107">
        <ele>138</ele>
        <time>2012-03-31T12:27:36Z</time>
      </trkpt>
      <trkpt lat="48.44306" lon="2.68127">
        <ele>138</ele>
        <time>2012-03-31T12:27:39Z</time>
      </trkpt>
      <trkpt lat="48.44309" lon="2.68146">
        <ele>137</ele>
        <time>2012-03-31T12:27:42Z</time>
      </trkpt>
      <trkpt lat="48.44313" lon="2.6815">
        <ele>137</ele>
        <time>2012-03-31T12:27:45Z</time>
      </trkpt>
      <trkpt lat="48.44316" lon="2.68158">
        <ele>137</ele>
        <time>2012-03-31T12:27:47Z</time>
      </trkpt>
      <trkpt lat="48.44329" lon="2.68179">
        <ele>134</ele>
        <time>2012-03-31T12:27:51Z</time>
      </trkpt>
      <trkpt lat="48.44341" lon="2.682">
        <ele>133</ele>
        <time>2012-03-31T12:27:56Z</time>
      </trkpt>
      <trkpt lat="48.44348" lon="2.68207">
        <ele>133</ele>
        <time>2012-03-31T12:27:58Z</time>
      </trkpt>
      <trkpt lat="48.44355" lon="2.68232">
        <ele>131</ele>
        <time>2012-03-31T12:28:02Z</time>
      </trkpt>
      <trkpt lat="48.44359" lon="2.68243">
        <ele>130</ele>
        <time>2012-03-31T12:28:04Z</time>
      </trkpt>
      <trkpt lat="48.44369" lon="2.68242">
        <ele>131</ele>
        <time>2012-03-31T12:28:08Z</time>
      </trkpt>
      <trkpt lat="48.44377" lon="2.68239">
        <ele>131</ele>
        <time>2012-03-31T12:28:11Z</time>
      </trkpt>
      <trkpt lat="48.44392" lon="2.68234">
        <ele>132</ele>
        <time>2012-03-31T12:28:16Z</time>
      </trkpt>
      <trkpt lat="48.444" lon="2.68229">
        <ele>132</ele>
        <time>2012-03-31T12:28:18Z</time>
      </trkpt>
      <trkpt lat="48.44416" lon="2.68225">
        <ele>132</ele>
        <time>2012-03-31T12:28:22Z</time>
      </trkpt>
      <trkpt lat="48.44419" lon="2.68218">
        <ele>130</ele>
        <time>2012-03-31T12:28:24Z</time>
      </trkpt>
      <trkpt lat="48.44423" lon="2.68188">
        <ele>132</ele>
        <time>2012-03-31T12:28:31Z</time>
      </trkpt>
      <trkpt lat="48.44426" lon="2.68161">
        <ele>136</ele>
        <time>2012-03-31T12:28:37Z</time>
      </trkpt>
      <trkpt lat="48.44433" lon="2.68131">
        <ele>136</ele>
        <time>2012-03-31T12:28:43Z</time>
      </trkpt>
      <trkpt lat="48.44442" lon="2.68105">
        <ele>137</ele>
        <time>2012-03-31T12:28:47Z</time>
      </trkpt>
      <trkpt lat="48.44458" lon="2.68084">
        <ele>137</ele>
        <time>2012-03-31T12:28:52Z</time>
      </trkpt>
      <trkpt lat="48.44469" lon="2.6806">
        <ele>141</ele>
        <time>2012-03-31T12:28:57Z</time>
      </trkpt>
      <trkpt lat="48.44483" lon="2.68029">
        <ele>142</ele>
        <time>2012-03-31T12:29:03Z</time>
      </trkpt>
      <trkpt lat="48.44503" lon="2.68011">
        <ele>142</ele>
        <time>2012-03-31T12:29:09Z</time>
      </trkpt>
      <trkpt lat="48.44522" lon="2.6801">
        <ele>141</ele>
        <time>2012-03-31T12:29:14Z</time>
      </trkpt>
      <trkpt lat="48.44536" lon="2.68013">
        <ele>140</ele>
        <time>2012-03-31T12:29:18Z</time>
      </trkpt>
      <trkpt lat="48.4455" lon="2.68021">
        <ele>140</ele>
        <time>2012-03-31T12:29:23Z</time>
      </trkpt>
      <trkpt lat="48.44556" lon="2.68023">
        <ele>140</ele>
        <time>2012-03-31T12:29:27Z</time>
      </trkpt>
      <trkpt lat="48.44565" lon="2.68023">
        <ele>140</ele>
        <time>2012-03-31T12:29:31Z</time>
      </trkpt>
      <trkpt lat="48.44573" lon="2.68017">
        <ele>140</ele>
        <time>2012-03-31T12:29:36Z</time>
      </trkpt>
      <trkpt lat="48.4457" lon="2.68008">
        <ele>140</ele>
        <time>2012-03-31T12:29:41Z</time>
      </trkpt>
      <trkpt lat="48.44563" lon="2.67997">
        <ele>142</ele>
        <time>2012-03-31T12:29:45Z</time>
      </trkpt>
      <trkpt lat="48.44555" lon="2.6798">
        <ele>142</ele>
        <time>2012-03-31T12:29:51Z</time>
      </trkpt>
      <trkpt lat="48.44553" lon="2.67981">
        <ele>142</ele>
        <time>2012-03-31T12:29:55Z</time>
      </trkpt>
      <trkpt lat="48.44556" lon="2.67985">
        <ele>142</ele>
        <time>2012-03-31T12:29:57Z</time>
      </trkpt>
      <trkpt lat="48.44568" lon="2.68002">
        <ele>140</ele>
        <time>2012-03-31T12:30:03Z</time>
      </trkpt>
      <trkpt lat="48.44581" lon="2.6801">
        <ele>140</ele>
        <time>2012-03-31T12:30:08Z</time>
      </trkpt>
      <trkpt lat="48.44587" lon="2.68012">
        <ele>139</ele>
        <time>2012-03-31T12:30:11Z</time>
      </trkpt>
      <trkpt lat="48.44593" lon="2.68004">
        <ele>139</ele>
        <time>2012-03-31T12:30:15Z</time>
      </trkpt>
      <trkpt lat="48.44589" lon="2.6799">
        <ele>139</ele>
        <time>2012-03-31T12:30:19Z</time>
      </trkpt>
      <trkpt lat="48.44583" lon="2.67967">
        <ele>141</ele>
        <time>2012-03-31T12:30:24Z</time>
      </trkpt>
      <trkpt lat="48.44583" lon="2.67942">
        <ele>141</ele>
        <time>2012-03-31T12:30:29Z</time>
      </trkpt>
      <trkpt lat="48.44582" lon="2.67927">
        <ele>140</ele>
        <time>2012-03-31T12:30:32Z</time>
      </trkpt>
      <trkpt lat="48.44577" lon="2.67915">
        <ele>140</ele>
        <time>2012-03-31T12:30:35Z</time>
      </trkpt>
      <trkpt lat="48.44576" lon="2.67911">
        <ele>140</ele>
        <time>2012-03-31T12:30:37Z</time>
      </trkpt>
      <trkpt lat="48.44577" lon="2.67895">
        <ele>140</ele>
        <time>2012-03-31T12:30:42Z</time>
      </trkpt>
      <trkpt lat="48.44575" lon="2.67889">
        <ele>140</ele>
        <time>2012-03-31T12:30:43Z</time>
      </trkpt>
      <trkpt lat="48.44564" lon="2.67869">
        <ele>140</ele>
        <time>2012-03-31T12:30:47Z</time>
      </trkpt>
      <trkpt lat="48.44559" lon="2.67838">
        <ele>140</ele>
        <time>2012-03-31T12:30:52Z</time>
      </trkpt>
      <trkpt lat="48.4456" lon="2.67829">
        <ele>139</ele>
        <time>2012-03-31T12:30:53Z</time>
      </trkpt>
      <trkpt lat="48.44563" lon="2.67799">
        <ele>140</ele>
        <time>2012-03-31T12:30:56Z</time>
      </trkpt>
      <trkpt lat="48.4456" lon="2.67775">
        <ele>140</ele>
        <time>2012-03-31T12:31:00Z</time>
      </trkpt>
      <trkpt lat="48.44559" lon="2.6777">
        <ele>140</ele>
        <time>2012-03-31T12:31:01Z</time>
      </trkpt>
      <trkpt lat="48.44553" lon="2.67765">
        <ele>140</ele>
        <time>2012-03-31T12:31:05Z</time>
      </trkpt>
      <trkpt lat="48.44546" lon="2.67768">
        <ele>141</ele>
        <time>2012-03-31T12:31:10Z</time>
      </trkpt>
      <trkpt lat="48.4454" lon="2.67773">
        <ele>141</ele>
        <time>2012-03-31T12:31:14Z</time>
      </trkpt>
      <trkpt lat="48.44525" lon="2.67769">
        <ele>142</ele>
        <time>2012-03-31T12:31:22Z</time>
      </trkpt>
      <trkpt lat="48.44511" lon="2.67765">
        <ele>143</ele>
        <time>2012-03-31T12:31:28Z</time>
      </trkpt>
      <trkpt lat="48.44495" lon="2.67765">
        <ele>146</ele>
        <time>2012-03-31T12:31:33Z</time>
      </trkpt>
      <trkpt lat="48.4449" lon="2.67764">
        <ele>146</ele>
        <time>2012-03-31T12:31:34Z</time>
      </trkpt>
      <trkpt lat="48.44479" lon="2.6776">
        <ele>146</ele>
        <time>2012-03-31T12:31:37Z</time>
      </trkpt>
      <trkpt lat="48.44475" lon="2.67743">
        <ele>147</ele>
        <time>2012-03-31T12:31:41Z</time>
      </trkpt>
      <trkpt lat="48.44478" lon="2.67724">
        <ele>147</ele>
        <time>2012-03-31T12:31:45Z</time>
      </trkpt>
      <trkpt lat="48.44481" lon="2.67713">
        <ele>147</ele>
        <time>2012-03-31T12:31:47Z</time>
      </trkpt>
      <trkpt lat="48.44484" lon="2.67687">
        <ele>146</ele>
        <time>2012-03-31T12:31:52Z</time>
      </trkpt>
      <trkpt lat="48.4448" lon="2.67668">
        <ele>146</ele>
        <time>2012-03-31T12:31:56Z</time>
      </trkpt>
      <trkpt lat="48.4448" lon="2.67651">
        <ele>146</ele>
        <time>2012-03-31T12:32:01Z</time>
      </trkpt>
      <trkpt lat="48.44484" lon="2.67637">
        <ele>146</ele>
        <time>2012-03-31T12:32:05Z</time>
      </trkpt>
      <trkpt lat="48.4449" lon="2.67629">
        <ele>146</ele>
        <time>2012-03-31T12:32:11Z</time>
      </trkpt>
      <trkpt lat="48.44492" lon="2.67627">
        <ele>146</ele>
        <time>2012-03-31T12:32:16Z</time>
      </trkpt>
      <trkpt lat="48.44493" lon="2.67624">
        <ele>146</ele>
        <time>2012-03-31T12:32:23Z</time>
      </trkpt>
      <trkpt lat="48.44493" lon="2.67609">
        <ele>147</ele>
        <time>2012-03-31T12:32:28Z</time>
      </trkpt>
      <trkpt lat="48.44493" lon="2.67592">
        <ele>146</ele>
        <time>2012-03-31T12:32:32Z</time>
      </trkpt>
      <trkpt lat="48.44492" lon="2.67588">
        <ele>146</ele>
        <time>2012-03-31T12:32:33Z</time>
      </trkpt>
      <trkpt lat="48.44495" lon="2.67567">
        <ele>146</ele>
        <time>2012-03-31T12:32:39Z</time>
      </trkpt>
      <trkpt lat="48.44497" lon="2.67561">
        <ele>146</ele>
        <time>2012-03-31T12:32:41Z</time>
      </trkpt>
      <trkpt lat="48.44505" lon="2.67558">
        <ele>144</ele>
        <time>2012-03-31T12:32:47Z</time>
      </trkpt>
      <trkpt lat="48.44516" lon="2.67562">
        <ele>144</ele>
        <time>2012-03-31T12:32:53Z</time>
      </trkpt>
      <trkpt lat="48.44529" lon="2.67567">
        <ele>143</ele>
        <time>2012-03-31T12:32:59Z</time>
      </trkpt>
      <trkpt lat="48.44542" lon="2.67573">
        <ele>143</ele>
        <time>2012-03-31T12:33:05Z</time>
      </trkpt>
      <trkpt lat="48.44549" lon="2.67573">
        <ele>142</ele>
        <time>2012-03-31T12:33:08Z</time>
      </trkpt>
      <trkpt lat="48.4456" lon="2.67563">
        <ele>142</ele>
        <time>2012-03-31T12:33:13Z</time>
      </trkpt>
      <trkpt lat="48.44567" lon="2.67558">
        <ele>142</ele>
        <time>2012-03-31T12:33:15Z</time>
      </trkpt>
      <trkpt lat="48.44582" lon="2.67532">
        <ele>142</ele>
        <time>2012-03-31T12:33:20Z</time>
      </trkpt>
      <trkpt lat="48.44592" lon="2.67527">
        <ele>140</ele>
        <time>2012-03-31T12:33:22Z</time>
      </trkpt>
      <trkpt lat="48.44615" lon="2.67532">
        <ele>139</ele>
        <time>2012-03-31T12:33:26Z</time>
      </trkpt>
      <trkpt lat="48.4462" lon="2.67534">
        <ele>139</ele>
        <time>2012-03-31T12:33:27Z</time>
      </trkpt>
      <trkpt lat="48.44643" lon="2.67545">
        <ele>138</ele>
        <time>2012-03-31T12:33:32Z</time>
      </trkpt>
      <trkpt lat="48.44647" lon="2.6755">
        <ele>138</ele>
        <time>2012-03-31T12:33:35Z</time>
      </trkpt>
      <trkpt lat="48.44647" lon="2.67569">
        <ele>137</ele>
        <time>2012-03-31T12:33:42Z</time>
      </trkpt>
      <trkpt lat="48.44648" lon="2.67577">
        <ele>136</ele>
        <time>2012-03-31T12:33:44Z</time>
      </trkpt>
      <trkpt lat="48.44658" lon="2.6759">
        <ele>134</ele>
        <time>2012-03-31T12:33:49Z</time>
      </trkpt>
      <trkpt lat="48.44661" lon="2.67593">
        <ele>134</ele>
        <time>2012-03-31T12:33:53Z</time>
      </trkpt>
      <trkpt lat="48.44661" lon="2.67595">
        <ele>134</ele>
        <time>2012-03-31T12:34:00Z</time>
      </trkpt>
      <trkpt lat="48.44662" lon="2.676">
        <ele>134</ele>
        <time>2012-03-31T12:34:24Z</time>
      </trkpt>
      <trkpt lat="48.44662" lon="2.67599">
        <ele>134</ele>
        <time>2012-03-31T12:34:36Z</time>
      </trkpt>
      <trkpt lat="48.44661" lon="2.67597">
        <ele>134</ele>
        <time>2012-03-31T12:34:46Z</time>
      </trkpt>
      <trkpt lat="48.44662" lon="2.67596">
        <ele>134</ele>
        <time>2012-03-31T12:35:01Z</time>
      </trkpt>
      <trkpt lat="48.44662" lon="2.67595">
        <ele>134</ele>
        <time>2012-03-31T12:35:06Z</time>
      </trkpt>
      <trkpt lat="48.44669" lon="2.67614">
        <ele>133</ele>
        <time>2012-03-31T12:35:11Z</time>
      </trkpt>
      <trkpt lat="48.4469" lon="2.67638">
        <ele>133</ele>
        <time>2012-03-31T12:35:17Z</time>
      </trkpt>
      <trkpt lat="48.44706" lon="2.67662">
        <ele>133</ele>
        <time>2012-03-31T12:35:22Z</time>
      </trkpt>
      <trkpt lat="48.44721" lon="2.67672">
        <ele>130</ele>
        <time>2012-03-31T12:35:26Z</time>
      </trkpt>
      <trkpt lat="48.44726" lon="2.67666">
        <ele>134</ele>
        <time>2012-03-31T12:35:29Z</time>
      </trkpt>
      <trkpt lat="48.44733" lon="2.67658">
        <ele>134</ele>
        <time>2012-03-31T12:35:32Z</time>
      </trkpt>
      <trkpt lat="48.44742" lon="2.6766">
        <ele>134</ele>
        <time>2012-03-31T12:35:38Z</time>
      </trkpt>
      <trkpt lat="48.44753" lon="2.67667">
        <ele>135</ele>
        <time>2012-03-31T12:35:47Z</time>
      </trkpt>
      <trkpt lat="48.44756" lon="2.67669">
        <ele>134</ele>
        <time>2012-03-31T12:35:50Z</time>
      </trkpt>
      <trkpt lat="48.44765" lon="2.67682">
        <ele>134</ele>
        <time>2012-03-31T12:35:58Z</time>
      </trkpt>
      <trkpt lat="48.44769" lon="2.67685">
        <ele>134</ele>
        <time>2012-03-31T12:36:01Z</time>
      </trkpt>
      <trkpt lat="48.44777" lon="2.67694">
        <ele>134</ele>
        <time>2012-03-31T12:36:09Z</time>
      </trkpt>
      <trkpt lat="48.44784" lon="2.67706">
        <ele>133</ele>
        <time>2012-03-31T12:36:15Z</time>
      </trkpt>
      <trkpt lat="48.44791" lon="2.67716">
        <ele>133</ele>
        <time>2012-03-31T12:36:20Z</time>
      </trkpt>
      <trkpt lat="48.44799" lon="2.67729">
        <ele>133</ele>
        <time>2012-03-31T12:36:25Z</time>
      </trkpt>
      <trkpt lat="48.44808" lon="2.67736">
        <ele>133</ele>
        <time>2012-03-31T12:36:29Z</time>
      </trkpt>
      <trkpt lat="48.44812" lon="2.67737">
        <ele>134</ele>
        <time>2012-03-31T12:36:31Z</time>
      </trkpt>
      <trkpt lat="48.44822" lon="2.67741">
        <ele>134</ele>
        <time>2012-03-31T12:36:37Z</time>
      </trkpt>
      <trkpt lat="48.44832" lon="2.67744">
        <ele>134</ele>
        <time>2012-03-31T12:36:44Z</time>
      </trkpt>
      <trkpt lat="48.44839" lon="2.67735">
        <ele>135</ele>
        <time>2012-03-31T12:36:49Z</time>
      </trkpt>
      <trkpt lat="48.44846" lon="2.67717">
        <ele>136</ele>
        <time>2012-03-31T12:36:54Z</time>
      </trkpt>
      <trkpt lat="48.4485" lon="2.67701">
        <ele>136</ele>
        <time>2012-03-31T12:36:58Z</time>
      </trkpt>
      <trkpt lat="48.44857" lon="2.67675">
        <ele>138</ele>
        <time>2012-03-31T12:37:04Z</time>
      </trkpt>
      <trkpt lat="48.44866" lon="2.67661">
        <ele>141</ele>
        <time>2012-03-31T12:37:08Z</time>
      </trkpt>
      <trkpt lat="48.4488" lon="2.67642">
        <ele>141</ele>
        <time>2012-03-31T12:37:13Z</time>
      </trkpt>
      <trkpt lat="48.44882" lon="2.67638">
        <ele>141</ele>
        <time>2012-03-31T12:37:14Z</time>
      </trkpt>
      <trkpt lat="48.44899" lon="2.67624">
        <ele>141</ele>
        <time>2012-03-31T12:37:19Z</time>
      </trkpt>
      <trkpt lat="48.44913" lon="2.67612">
        <ele>141</ele>
        <time>2012-03-31T12:37:22Z</time>
      </trkpt>
      <trkpt lat="48.44922" lon="2.67607">
        <ele>140</ele>
        <time>2012-03-31T12:37:24Z</time>
      </trkpt>
      <trkpt lat="48.44936" lon="2.67609">
        <ele>139</ele>
        <time>2012-03-31T12:37:28Z</time>
      </trkpt>
      <trkpt lat="48.44956" lon="2.67613">
        <ele>139</ele>
        <time>2012-03-31T12:37:33Z</time>
      </trkpt>
      <trkpt lat="48.44963" lon="2.67612">
        <ele>139</ele>
        <time>2012-03-31T12:37:35Z</time>
      </trkpt>
      <trkpt lat="48.44974" lon="2.67603">
        <ele>139</ele>
        <time>2012-03-31T12:37:39Z</time>
      </trkpt>
      <trkpt lat="48.44985" lon="2.67597">
        <ele>139</ele>
        <time>2012-03-31T12:37:43Z</time>
      </trkpt>
      <trkpt lat="48.44994" lon="2.67607">
        <ele>139</ele>
        <time>2012-03-31T12:37:47Z</time>
      </trkpt>
      <trkpt lat="48.45004" lon="2.67621">
        <ele>137</ele>
        <time>2012-03-31T12:37:51Z</time>
      </trkpt>
      <trkpt lat="48.45018" lon="2.67644">
        <ele>136</ele>
        <time>2012-03-31T12:37:56Z</time>
      </trkpt>
      <trkpt lat="48.45025" lon="2.67655">
        <ele>136</ele>
        <time>2012-03-31T12:37:58Z</time>
      </trkpt>
      <trkpt lat="48.45037" lon="2.67673">
        <ele>133</ele>
        <time>2012-03-31T12:38:02Z</time>
      </trkpt>
      <trkpt lat="48.45043" lon="2.67684">
        <ele>133</ele>
        <time>2012-03-31T12:38:04Z</time>
      </trkpt>
      <trkpt lat="48.45055" lon="2.67695">
        <ele>132</ele>
        <time>2012-03-31T12:38:07Z</time>
      </trkpt>
      <trkpt lat="48.45062" lon="2.67703">
        <ele>132</ele>
        <time>2012-03-31T12:38:09Z</time>
      </trkpt>
      <trkpt lat="48.45077" lon="2.67721">
        <ele>131</ele>
        <time>2012-03-31T12:38:13Z</time>
      </trkpt>
      <trkpt lat="48.45091" lon="2.67724">
        <ele>130</ele>
        <time>2012-03-31T12:38:17Z</time>
      </trkpt>
      <trkpt lat="48.45101" lon="2.67731">
        <ele>129</ele>
        <time>2012-03-31T12:38:21Z</time>
      </trkpt>
      <trkpt lat="48.4511" lon="2.67728">
        <ele>129</ele>
        <time>2012-03-31T12:38:24Z</time>
      </trkpt>
      <trkpt lat="48.45121" lon="2.6772">
        <ele>128</ele>
        <time>2012-03-31T12:38:28Z</time>
      </trkpt>
      <trkpt lat="48.45126" lon="2.67712">
        <ele>128</ele>
        <time>2012-03-31T12:38:30Z</time>
      </trkpt>
      <trkpt lat="48.45132" lon="2.67687">
        <ele>129</ele>
        <time>2012-03-31T12:38:35Z</time>
      </trkpt>
      <trkpt lat="48.45133" lon="2.6768">
        <ele>129</ele>
        <time>2012-03-31T12:38:36Z</time>
      </trkpt>
      <trkpt lat="48.45124" lon="2.67654">
        <ele>132</ele>
        <time>2012-03-31T12:38:41Z</time>
      </trkpt>
      <trkpt lat="48.45119" lon="2.67643">
        <ele>132</ele>
        <time>2012-03-31T12:38:43Z</time>
      </trkpt>
      <trkpt lat="48.45112" lon="2.67609">
        <ele>132</ele>
        <time>2012-03-31T12:38:48Z</time>
      </trkpt>
      <trkpt lat="48.4511" lon="2.67602">
        <ele>133</ele>
        <time>2012-03-31T12:38:49Z</time>
      </trkpt>
      <trkpt lat="48.45113" lon="2.67566">
        <ele>133</ele>
        <time>2012-03-31T12:38:56Z</time>
      </trkpt>
      <trkpt lat="48.45106" lon="2.67548">
        <ele>133</ele>
        <time>2012-03-31T12:39:00Z</time>
      </trkpt>
      <trkpt lat="48.45102" lon="2.67527">
        <ele>133</ele>
        <time>2012-03-31T12:39:04Z</time>
      </trkpt>
      <trkpt lat="48.45101" lon="2.67522">
        <ele>134</ele>
        <time>2012-03-31T12:39:05Z</time>
      </trkpt>
      <trkpt lat="48.45094" lon="2.67506">
        <ele>135</ele>
        <time>2012-03-31T12:39:08Z</time>
      </trkpt>
      <trkpt lat="48.45081" lon="2.67494">
        <ele>138</ele>
        <time>2012-03-31T12:39:12Z</time>
      </trkpt>
      <trkpt lat="48.45078" lon="2.67473">
        <ele>139</ele>
        <time>2012-03-31T12:39:17Z</time>
      </trkpt>
      <trkpt lat="48.45074" lon="2.67446">
        <ele>139</ele>
        <time>2012-03-31T12:39:22Z</time>
      </trkpt>
      <trkpt lat="48.45065" lon="2.67422">
        <ele>139</ele>
        <time>2012-03-31T12:39:27Z</time>
      </trkpt>
      <trkpt lat="48.45067" lon="2.674">
        <ele>140</ele>
        <time>2012-03-31T12:39:31Z</time>
      </trkpt>
      <trkpt lat="48.45076" lon="2.67374">
        <ele>141</ele>
        <time>2012-03-31T12:39:35Z</time>
      </trkpt>
      <trkpt lat="48.45079" lon="2.67365">
        <ele>142</ele>
        <time>2012-03-31T12:39:38Z</time>
      </trkpt>
      <trkpt lat="48.45081" lon="2.67361">
        <ele>142</ele>
        <time>2012-03-31T12:39:39Z</time>
      </trkpt>
      <trkpt lat="48.45093" lon="2.67341">
        <ele>140</ele>
        <time>2012-03-31T12:39:46Z</time>
      </trkpt>
      <trkpt lat="48.45103" lon="2.67324">
        <ele>141</ele>
        <time>2012-03-31T12:39:52Z</time>
      </trkpt>
      <trkpt lat="48.45114" lon="2.67314">
        <ele>140</ele>
        <time>2012-03-31T12:39:57Z</time>
      </trkpt>
      <trkpt lat="48.4513" lon="2.67306">
        <ele>140</ele>
        <time>2012-03-31T12:40:03Z</time>
      </trkpt>
      <trkpt lat="48.45142" lon="2.67283">
        <ele>140</ele>
        <time>2012-03-31T12:40:08Z</time>
      </trkpt>
      <trkpt lat="48.45145" lon="2.67278">
        <ele>140</ele>
        <time>2012-03-31T12:40:09Z</time>
      </trkpt>
      <trkpt lat="48.45161" lon="2.67256">
        <ele>139</ele>
        <time>2012-03-31T12:40:14Z</time>
      </trkpt>
      <trkpt lat="48.45172" lon="2.6725">
        <ele>139</ele>
        <time>2012-03-31T12:40:18Z</time>
      </trkpt>
      <trkpt lat="48.45188" lon="2.67246">
        <ele>139</ele>
        <time>2012-03-31T12:40:24Z</time>
      </trkpt>
      <trkpt lat="48.45201" lon="2.67237">
        <ele>139</ele>
        <time>2012-03-31T12:40:29Z</time>
      </trkpt>
      <trkpt lat="48.45207" lon="2.6723">
        <ele>139</ele>
        <time>2012-03-31T12:40:32Z</time>
      </trkpt>
      <trkpt lat="48.45211" lon="2.67225">
        <ele>139</ele>
        <time>2012-03-31T12:40:34Z</time>
      </trkpt>
      <trkpt lat="48.45221" lon="2.67218">
        <ele>139</ele>
        <time>2012-03-31T12:40:38Z</time>
      </trkpt>
      <trkpt lat="48.45237" lon="2.67204">
        <ele>139</ele>
        <time>2012-03-31T12:40:44Z</time>
      </trkpt>
      <trkpt lat="48.45253" lon="2.67197">
        <ele>138</ele>
        <time>2012-03-31T12:40:49Z</time>
      </trkpt>
      <trkpt lat="48.45259" lon="2.67194">
        <ele>138</ele>
        <time>2012-03-31T12:40:51Z</time>
      </trkpt>
      <trkpt lat="48.45265" lon="2.67179">
        <ele>138</ele>
        <time>2012-03-31T12:40:55Z</time>
      </trkpt>
      <trkpt lat="48.45278" lon="2.67156">
        <ele>137</ele>
        <time>2012-03-31T12:41:02Z</time>
      </trkpt>
      <trkpt lat="48.45287" lon="2.67157">
        <ele>137</ele>
        <time>2012-03-31T12:41:05Z</time>
      </trkpt>
      <trkpt lat="48.45301" lon="2.67161">
        <ele>136</ele>
        <time>2012-03-31T12:41:09Z</time>
      </trkpt>
      <trkpt lat="48.45315" lon="2.67157">
        <ele>136</ele>
        <time>2012-03-31T12:41:13Z</time>
      </trkpt>
      <trkpt lat="48.45319" lon="2.67143">
        <ele>136</ele>
        <time>2012-03-31T12:41:16Z</time>
      </trkpt>
      <trkpt lat="48.4532" lon="2.67129">
        <ele>136</ele>
        <time>2012-03-31T12:41:20Z</time>
      </trkpt>
      <trkpt lat="48.45316" lon="2.67107">
        <ele>135</ele>
        <time>2012-03-31T12:41:25Z</time>
      </trkpt>
      <trkpt lat="48.45315" lon="2.67073">
        <ele>135</ele>
        <time>2012-03-31T12:41:31Z</time>
      </trkpt>
      <trkpt lat="48.45316" lon="2.67054">
        <ele>136</ele>
        <time>2012-03-31T12:41:35Z</time>
      </trkpt>
      <trkpt lat="48.45319" lon="2.67043">
        <ele>136</ele>
        <time>2012-03-31T12:41:38Z</time>
      </trkpt>
      <trkpt lat="48.45332" lon="2.67032">
        <ele>136</ele>
        <time>2012-03-31T12:41:43Z</time>
      </trkpt>
      <trkpt lat="48.45336" lon="2.67024">
        <ele>132</ele>
        <time>2012-03-31T12:41:45Z</time>
      </trkpt>
      <trkpt lat="48.45344" lon="2.67015">
        <ele>132</ele>
        <time>2012-03-31T12:41:47Z</time>
      </trkpt>
      <trkpt lat="48.45354" lon="2.66998">
        <ele>132</ele>
        <time>2012-03-31T12:41:50Z</time>
      </trkpt>
      <trkpt lat="48.45368" lon="2.66968">
        <ele>132</ele>
        <time>2012-03-31T12:41:54Z</time>
      </trkpt>
      <trkpt lat="48.4538" lon="2.66959">
        <ele>131</ele>
        <time>2012-03-31T12:41:56Z</time>
      </trkpt>
      <trkpt lat="48.4541" lon="2.66946">
        <ele>131</ele>
        <time>2012-03-31T12:42:00Z</time>
      </trkpt>
      <trkpt lat="48.45419" lon="2.6695">
        <ele>128</ele>
        <time>2012-03-31T12:42:02Z</time>
      </trkpt>
      <trkpt lat="48.45423" lon="2.66953">
        <ele>128</ele>
        <time>2012-03-31T12:42:03Z</time>
      </trkpt>
      <trkpt lat="48.45438" lon="2.66962">
        <ele>127</ele>
        <time>2012-03-31T12:42:09Z</time>
      </trkpt>
      <trkpt lat="48.4545" lon="2.66965">
        <ele>127</ele>
        <time>2012-03-31T12:42:14Z</time>
      </trkpt>
      <trkpt lat="48.45462" lon="2.66968">
        <ele>127</ele>
        <time>2012-03-31T12:42:18Z</time>
      </trkpt>
      <trkpt lat="48.45483" lon="2.66973">
        <ele>126</ele>
        <time>2012-03-31T12:42:26Z</time>
      </trkpt>
      <trkpt lat="48.45487" lon="2.66974">
        <ele>126</ele>
        <time>2012-03-31T12:42:27Z</time>
      </trkpt>
      <trkpt lat="48.45501" lon="2.66967">
        <ele>122</ele>
        <time>2012-03-31T12:42:31Z</time>
      </trkpt>
      <trkpt lat="48.45505" lon="2.66966">
        <ele>122</ele>
        <time>2012-03-31T12:42:32Z</time>
      </trkpt>
      <trkpt lat="48.45527" lon="2.66957">
        <ele>122</ele>
        <time>2012-03-31T12:42:37Z</time>
      </trkpt>
      <trkpt lat="48.45534" lon="2.66945">
        <ele>122</ele>
        <time>2012-03-31T12:42:39Z</time>
      </trkpt>
      <trkpt lat="48.45544" lon="2.66917">
        <ele>121</ele>
        <time>2012-03-31T12:42:43Z</time>
      </trkpt>
      <trkpt lat="48.45548" lon="2.66874">
        <ele>124</ele>
        <time>2012-03-31T12:42:48Z</time>
      </trkpt>
      <trkpt lat="48.45555" lon="2.66842">
        <ele>123</ele>
        <time>2012-03-31T12:42:52Z</time>
      </trkpt>
      <trkpt lat="48.45569" lon="2.66814">
        <ele>124</ele>
        <time>2012-03-31T12:42:56Z</time>
      </trkpt>
      <trkpt lat="48.45593" lon="2.66803">
        <ele>120</ele>
        <time>2012-03-31T12:42:59Z</time>
      </trkpt>
      <trkpt lat="48.45616" lon="2.66795">
        <ele>120</ele>
        <time>2012-03-31T12:43:02Z</time>
      </trkpt>
      <trkpt lat="48.45623" lon="2.66791">
        <ele>120</ele>
        <time>2012-03-31T12:43:03Z</time>
      </trkpt>
      <trkpt lat="48.45643" lon="2.66782">
        <ele>120</ele>
        <time>2012-03-31T12:43:08Z</time>
      </trkpt>
      <trkpt lat="48.45653" lon="2.66781">
        <ele>120</ele>
        <time>2012-03-31T12:43:14Z</time>
      </trkpt>
      <trkpt lat="48.45662" lon="2.66782">
        <ele>120</ele>
        <time>2012-03-31T12:43:20Z</time>
      </trkpt>
      <trkpt lat="48.4567" lon="2.66784">
        <ele>119</ele>
        <time>2012-03-31T12:43:25Z</time>
      </trkpt>
      <trkpt lat="48.45682" lon="2.66792">
        <ele>119</ele>
        <time>2012-03-31T12:43:32Z</time>
      </trkpt>
      <trkpt lat="48.45691" lon="2.66792">
        <ele>119</ele>
        <time>2012-03-31T12:43:38Z</time>
      </trkpt>
      <trkpt lat="48.45693" lon="2.66791">
        <ele>119</ele>
        <time>2012-03-31T12:43:40Z</time>
      </trkpt>
      <trkpt lat="48.45695" lon="2.66789">
        <ele>119</ele>
        <time>2012-03-31T12:43:42Z</time>
      </trkpt>
      <trkpt lat="48.45705" lon="2.66784">
        <ele>119</ele>
        <time>2012-03-31T12:43:50Z</time>
      </trkpt>
      <trkpt lat="48.45706" lon="2.66783">
        <ele>119</ele>
        <time>2012-03-31T12:43:56Z</time>
      </trkpt>
      <trkpt lat="48.45711" lon="2.66779">
        <ele>119</ele>
        <time>2012-03-31T12:44:41Z</time>
      </trkpt>
      <trkpt lat="48.45716" lon="2.66774">
        <ele>119</ele>
        <time>2012-03-31T12:44:46Z</time>
      </trkpt>
      <trkpt lat="48.45723" lon="2.66762">
        <ele>120</ele>
        <time>2012-03-31T12:44:54Z</time>
      </trkpt>
      <trkpt lat="48.4573" lon="2.66749">
        <ele>123</ele>
        <time>2012-03-31T12:45:01Z</time>
      </trkpt>
      <trkpt lat="48.45738" lon="2.66733">
        <ele>124</ele>
        <time>2012-03-31T12:45:09Z</time>
      </trkpt>
      <trkpt lat="48.45745" lon="2.66715">
        <ele>124</ele>
        <time>2012-03-31T12:45:17Z</time>
      </trkpt>
      <trkpt lat="48.45751" lon="2.66698">
        <ele>120</ele>
        <time>2012-03-31T12:45:23Z</time>
      </trkpt>
      <trkpt lat="48.45753" lon="2.66681">
        <ele>122</ele>
        <time>2012-03-31T12:45:28Z</time>
      </trkpt>
      <trkpt lat="48.45752" lon="2.66667">
        <ele>125</ele>
        <time>2012-03-31T12:45:33Z</time>
      </trkpt>
      <trkpt lat="48.45751" lon="2.66651">
        <ele>123</ele>
        <time>2012-03-31T12:46:16Z</time>
      </trkpt>
      <trkpt lat="48.45753" lon="2.66644">
        <ele>122</ele>
        <time>2012-03-31T12:46:18Z</time>
      </trkpt>
      <trkpt lat="48.45754" lon="2.66614">
        <ele>122</ele>
        <time>2012-03-31T12:46:24Z</time>
      </trkpt>
      <trkpt lat="48.45753" lon="2.66588">
        <ele>125</ele>
        <time>2012-03-31T12:46:29Z</time>
      </trkpt>
      <trkpt lat="48.45746" lon="2.66565">
        <ele>127</ele>
        <time>2012-03-31T12:46:33Z</time>
      </trkpt>
      <trkpt lat="48.45737" lon="2.66551">
        <ele>127</ele>
        <time>2012-03-31T12:46:37Z</time>
      </trkpt>
      <trkpt lat="48.45733" lon="2.6654">
        <ele>127</ele>
        <time>2012-03-31T12:46:39Z</time>
      </trkpt>
      <trkpt lat="48.45721" lon="2.66511">
        <ele>127</ele>
        <time>2012-03-31T12:46:44Z</time>
      </trkpt>
      <trkpt lat="48.45719" lon="2.66491">
        <ele>126</ele>
        <time>2012-03-31T12:46:47Z</time>
      </trkpt>
      <trkpt lat="48.45717" lon="2.66459">
        <ele>126</ele>
        <time>2012-03-31T12:46:52Z</time>
      </trkpt>
      <trkpt lat="48.45714" lon="2.66407">
        <ele>124</ele>
        <time>2012-03-31T12:47:00Z</time>
      </trkpt>
      <trkpt lat="48.45708" lon="2.66379">
        <ele>125</ele>
        <time>2012-03-31T12:47:05Z</time>
      </trkpt>
      <trkpt lat="48.45708" lon="2.66363">
        <ele>125</ele>
        <time>2012-03-31T12:47:09Z</time>
      </trkpt>
      <trkpt lat="48.45705" lon="2.66347">
        <ele>125</ele>
        <time>2012-03-31T12:47:12Z</time>
      </trkpt>
      <trkpt lat="48.45701" lon="2.66316">
        <ele>125</ele>
        <time>2012-03-31T12:47:18Z</time>
      </trkpt>
      <trkpt lat="48.45699" lon="2.66302">
        <ele>124</ele>
        <time>2012-03-31T12:47:20Z</time>
      </trkpt>
      <trkpt lat="48.45694" lon="2.66278">
        <ele>124</ele>
        <time>2012-03-31T12:47:23Z</time>
      </trkpt>
      <trkpt lat="48.45678" lon="2.66233">
        <ele>124</ele>
        <time>2012-03-31T12:47:28Z</time>
      </trkpt>
      <trkpt lat="48.45668" lon="2.66195">
        <ele>123</ele>
        <time>2012-03-31T12:47:33Z</time>
      </trkpt>
      <trkpt lat="48.45662" lon="2.66166">
        <ele>126</ele>
        <time>2012-03-31T12:47:37Z</time>
      </trkpt>
      <trkpt lat="48.4566" lon="2.66153">
        <ele>127</ele>
        <time>2012-03-31T12:47:39Z</time>
      </trkpt>
      <trkpt lat="48.45652" lon="2.66117">
        <ele>129</ele>
        <time>2012-03-31T12:47:45Z</time>
      </trkpt>
      <trkpt lat="48.45648" lon="2.6609">
        <ele>129</ele>
        <time>2012-03-31T12:47:50Z</time>
      </trkpt>
      <trkpt lat="48.45648" lon="2.66079">
        <ele>129</ele>
        <time>2012-03-31T12:47:52Z</time>
      </trkpt>
      <trkpt lat="48.45654" lon="2.66048">
        <ele>130</ele>
        <time>2012-03-31T12:47:57Z</time>
      </trkpt>
      <trkpt lat="48.45669" lon="2.66018">
        <ele>126</ele>
        <time>2012-03-31T12:48:03Z</time>
      </trkpt>
      <trkpt lat="48.45687" lon="2.6599">
        <ele>126</ele>
        <time>2012-03-31T12:48:09Z</time>
      </trkpt>
      <trkpt lat="48.4569" lon="2.65985">
        <ele>126</ele>
        <time>2012-03-31T12:48:10Z</time>
      </trkpt>
      <trkpt lat="48.45699" lon="2.65955">
        <ele>125</ele>
        <time>2012-03-31T12:48:14Z</time>
      </trkpt>
      <trkpt lat="48.45698" lon="2.6594">
        <ele>125</ele>
        <time>2012-03-31T12:48:16Z</time>
      </trkpt>
      <trkpt lat="48.45696" lon="2.65925">
        <ele>126</ele>
        <time>2012-03-31T12:48:18Z</time>
      </trkpt>
      <trkpt lat="48.45692" lon="2.65899">
        <ele>128</ele>
        <time>2012-03-31T12:48:22Z</time>
      </trkpt>
      <trkpt lat="48.45686" lon="2.65879">
        <ele>128</ele>
        <time>2012-03-31T12:48:26Z</time>
      </trkpt>
      <trkpt lat="48.45687" lon="2.65868">
        <ele>128</ele>
        <time>2012-03-31T12:48:28Z</time>
      </trkpt>
      <trkpt lat="48.45696" lon="2.65838">
        <ele>128</ele>
        <time>2012-03-31T12:48:33Z</time>
      </trkpt>
      <trkpt lat="48.45715" lon="2.65817">
        <ele>128</ele>
        <time>2012-03-31T12:48:38Z</time>
      </trkpt>
      <trkpt lat="48.45728" lon="2.65802">
        <ele>128</ele>
        <time>2012-03-31T12:48:42Z</time>
      </trkpt>
      <trkpt lat="48.45742" lon="2.65796">
        <ele>128</ele>
        <time>2012-03-31T12:48:46Z</time>
      </trkpt>
      <trkpt lat="48.45759" lon="2.65792">
        <ele>127</ele>
        <time>2012-03-31T12:48:50Z</time>
      </trkpt>
      <trkpt lat="48.45776" lon="2.65796">
        <ele>127</ele>
        <time>2012-03-31T12:48:54Z</time>
      </trkpt>
      <trkpt lat="48.45793" lon="2.65793">
        <ele>126</ele>
        <time>2012-03-31T12:48:58Z</time>
      </trkpt>
      <trkpt lat="48.45801" lon="2.65786">
        <ele>127</ele>
        <time>2012-03-31T12:49:02Z</time>
      </trkpt>
      <trkpt lat="48.45809" lon="2.65791">
        <ele>126</ele>
        <time>2012-03-31T12:49:05Z</time>
      </trkpt>
      <trkpt lat="48.45816" lon="2.65804">
        <ele>126</ele>
        <time>2012-03-31T12:49:08Z</time>
      </trkpt>
      <trkpt lat="48.45829" lon="2.65816">
        <ele>124</ele>
        <time>2012-03-31T12:49:12Z</time>
      </trkpt>
      <trkpt lat="48.45832" lon="2.65818">
        <ele>124</ele>
        <time>2012-03-31T12:49:13Z</time>
      </trkpt>
      <trkpt lat="48.45843" lon="2.65816">
        <ele>121</ele>
        <time>2012-03-31T12:49:16Z</time>
      </trkpt>
      <trkpt lat="48.45854" lon="2.65798">
        <ele>121</ele>
        <time>2012-03-31T12:49:23Z</time>
      </trkpt>
      <trkpt lat="48.45863" lon="2.65782">
        <ele>121</ele>
        <time>2012-03-31T12:49:29Z</time>
      </trkpt>
      <trkpt lat="48.45867" lon="2.65763">
        <ele>122</ele>
        <time>2012-03-31T12:49:35Z</time>
      </trkpt>
      <trkpt lat="48.45873" lon="2.65745">
        <ele>125</ele>
        <time>2012-03-31T12:49:40Z</time>
      </trkpt>
      <trkpt lat="48.45881" lon="2.65717">
        <ele>126</ele>
        <time>2012-03-31T12:49:46Z</time>
      </trkpt>
      <trkpt lat="48.45882" lon="2.65713">
        <ele>126</ele>
        <time>2012-03-31T12:49:47Z</time>
      </trkpt>
      <trkpt lat="48.45899" lon="2.65687">
        <ele>126</ele>
        <time>2012-03-31T12:49:54Z</time>
      </trkpt>
      <trkpt lat="48.45911" lon="2.65666">
        <ele>127</ele>
        <time>2012-03-31T12:49:58Z</time>
      </trkpt>
      <trkpt lat="48.45916" lon="2.65653">
        <ele>128</ele>
        <time>2012-03-31T12:50:00Z</time>
      </trkpt>
      <trkpt lat="48.45924" lon="2.65634">
        <ele>123</ele>
        <time>2012-03-31T12:50:04Z</time>
      </trkpt>
      <trkpt lat="48.45926" lon="2.65623">
        <ele>123</ele>
        <time>2012-03-31T12:50:08Z</time>
      </trkpt>
      <trkpt lat="48.45928" lon="2.65605">
        <ele>124</ele>
        <time>2012-03-31T12:50:13Z</time>
      </trkpt>
      <trkpt lat="48.45929" lon="2.65602">
        <ele>124</ele>
        <time>2012-03-31T12:50:14Z</time>
      </trkpt>
      <trkpt lat="48.45933" lon="2.65585">
        <ele>125</ele>
        <time>2012-03-31T12:50:19Z</time>
      </trkpt>
      <trkpt lat="48.45937" lon="2.65569">
        <ele>127</ele>
        <time>2012-03-31T12:50:25Z</time>
      </trkpt>
      <trkpt lat="48.45942" lon="2.65552">
        <ele>126</ele>
        <time>2012-03-31T12:50:29Z</time>
      </trkpt>
      <trkpt lat="48.45952" lon="2.65522">
        <ele>126</ele>
        <time>2012-03-31T12:50:35Z</time>
      </trkpt>
      <trkpt lat="48.45958" lon="2.65502">
        <ele>126</ele>
        <time>2012-03-31T12:50:39Z</time>
      </trkpt>
      <trkpt lat="48.45965" lon="2.65475">
        <ele>127</ele>
        <time>2012-03-31T12:50:44Z</time>
      </trkpt>
      <trkpt lat="48.4597" lon="2.65459">
        <ele>127</ele>
        <time>2012-03-31T12:50:47Z</time>
      </trkpt>
      <trkpt lat="48.45973" lon="2.65434">
        <ele>126</ele>
        <time>2012-03-31T12:50:52Z</time>
      </trkpt>
      <trkpt lat="48.45973" lon="2.65415">
        <ele>126</ele>
        <time>2012-03-31T12:50:57Z</time>
      </trkpt>
      <trkpt lat="48.4597" lon="2.65399">
        <ele>126</ele>
        <time>2012-03-31T12:51:02Z</time>
      </trkpt>
      <trkpt lat="48.45978" lon="2.65383">
        <ele>125</ele>
        <time>2012-03-31T12:51:07Z</time>
      </trkpt>
      <trkpt lat="48.4598" lon="2.65352">
        <ele>124</ele>
        <time>2012-03-31T12:51:12Z</time>
      </trkpt>
      <trkpt lat="48.45976" lon="2.65322">
        <ele>120</ele>
        <time>2012-03-31T12:51:16Z</time>
      </trkpt>
      <trkpt lat="48.45978" lon="2.65309">
        <ele>120</ele>
        <time>2012-03-31T12:51:19Z</time>
      </trkpt>
      <trkpt lat="48.45982" lon="2.6531">
        <ele>120</ele>
        <time>2012-03-31T12:51:20Z</time>
      </trkpt>
      <trkpt lat="48.46005" lon="2.65306">
        <ele>114</ele>
        <time>2012-03-31T12:51:25Z</time>
      </trkpt>
      <trkpt lat="48.46009" lon="2.65278">
        <ele>112</ele>
        <time>2012-03-31T12:51:29Z</time>
      </trkpt>
      <trkpt lat="48.46012" lon="2.65267">
        <ele>111</ele>
        <time>2012-03-31T12:51:30Z</time>
      </trkpt>
      <trkpt lat="48.46031" lon="2.65218">
        <ele>108</ele>
        <time>2012-03-31T12:51:35Z</time>
      </trkpt>
      <trkpt lat="48.46044" lon="2.65198">
        <ele>107</ele>
        <time>2012-03-31T12:51:38Z</time>
      </trkpt>
      <trkpt lat="48.46066" lon="2.65182">
        <ele>106</ele>
        <time>2012-03-31T12:51:42Z</time>
      </trkpt>
      <trkpt lat="48.46077" lon="2.65176">
        <ele>106</ele>
        <time>2012-03-31T12:51:44Z</time>
      </trkpt>
      <trkpt lat="48.461" lon="2.65151">
        <ele>105</ele>
        <time>2012-03-31T12:51:49Z</time>
      </trkpt>
      <trkpt lat="48.46113" lon="2.65136">
        <ele>105</ele>
        <time>2012-03-31T12:51:52Z</time>
      </trkpt>
      <trkpt lat="48.46133" lon="2.65112">
        <ele>105</ele>
        <time>2012-03-31T12:51:57Z</time>
      </trkpt>
      <trkpt lat="48.46139" lon="2.65091">
        <ele>105</ele>
        <time>2012-03-31T12:52:00Z</time>
      </trkpt>
      <trkpt lat="48.46146" lon="2.65068">
        <ele>103</ele>
        <time>2012-03-31T12:52:04Z</time>
      </trkpt>
      <trkpt lat="48.46155" lon="2.65068">
        <ele>103</ele>
        <time>2012-03-31T12:52:07Z</time>
      </trkpt>
      <trkpt lat="48.46167" lon="2.65068">
        <ele>103</ele>
        <time>2012-03-31T12:52:14Z</time>
      </trkpt>
      <trkpt lat="48.46177" lon="2.65067">
        <ele>103</ele>
        <time>2012-03-31T12:52:20Z</time>
      </trkpt>
      <trkpt lat="48.46191" lon="2.65069">
        <ele>103</ele>
        <time>2012-03-31T12:52:28Z</time>
      </trkpt>
      <trkpt lat="48.46193" lon="2.65069">
        <ele>103</ele>
        <time>2012-03-31T12:52:29Z</time>
      </trkpt>
      <trkpt lat="48.46202" lon="2.6507">
        <ele>104</ele>
        <time>2012-03-31T12:52:35Z</time>
      </trkpt>
      <trkpt lat="48.46214" lon="2.65072">
        <ele>104</ele>
        <time>2012-03-31T12:52:40Z</time>
      </trkpt>
      <trkpt lat="48.46216" lon="2.65072">
        <ele>104</ele>
        <time>2012-03-31T12:52:41Z</time>
      </trkpt>
      <trkpt lat="48.4623" lon="2.65071">
        <ele>104</ele>
        <time>2012-03-31T12:52:47Z</time>
      </trkpt>
      <trkpt lat="48.46252" lon="2.65069">
        <ele>104</ele>
        <time>2012-03-31T12:52:54Z</time>
      </trkpt>
      <trkpt lat="48.46265" lon="2.65076">
        <ele>104</ele>
        <time>2012-03-31T12:52:58Z</time>
      </trkpt>
      <trkpt lat="48.46274" lon="2.6508">
        <ele>104</ele>
        <time>2012-03-31T12:53:01Z</time>
      </trkpt>
      <trkpt lat="48.46284" lon="2.65084">
        <ele>105</ele>
        <time>2012-03-31T12:53:06Z</time>
      </trkpt>
      <trkpt lat="48.46291" lon="2.65083">
        <ele>103</ele>
        <time>2012-03-31T12:53:10Z</time>
      </trkpt>
      <trkpt lat="48.46291" lon="2.65084">
        <ele>105</ele>
        <time>2012-03-31T12:53:16Z</time>
      </trkpt>
      <trkpt lat="48.46295" lon="2.65085">
        <ele>105</ele>
        <time>2012-03-31T12:53:23Z</time>
      </trkpt>
      <trkpt lat="48.46297" lon="2.65085">
        <ele>105</ele>
        <time>2012-03-31T12:53:33Z</time>
      </trkpt>
      <trkpt lat="48.46302" lon="2.65087">
        <ele>104</ele>
        <time>2012-03-31T12:53:47Z</time>
      </trkpt>
      <trkpt lat="48.46308" lon="2.65091">
        <ele>104</ele>
        <time>2012-03-31T12:53:55Z</time>
      </trkpt>
      <trkpt lat="48.4631" lon="2.65093">
        <ele>104</ele>
        <time>2012-03-31T12:54:01Z</time>
      </trkpt>
      <trkpt lat="48.4631" lon="2.65095">
        <ele>104</ele>
        <time>2012-03-31T12:54:03Z</time>
      </trkpt>
      <trkpt lat="48.46309" lon="2.65115">
        <ele>105</ele>
        <time>2012-03-31T12:54:09Z</time>
      </trkpt>
      <trkpt lat="48.46302" lon="2.65126">
        <ele>105</ele>
        <time>2012-03-31T12:54:13Z</time>
      </trkpt>
      <trkpt lat="48.46297" lon="2.65133">
        <ele>106</ele>
        <time>2012-03-31T12:54:16Z</time>
      </trkpt>
      <trkpt lat="48.46297" lon="2.65139">
        <ele>106</ele>
        <time>2012-03-31T12:54:54Z</time>
      </trkpt>
      <trkpt lat="48.46294" lon="2.65134">
        <ele>106</ele>
        <time>2012-03-31T12:55:13Z</time>
      </trkpt>
      <trkpt lat="48.4629" lon="2.65131">
        <ele>106</ele>
        <time>2012-03-31T12:55:17Z</time>
      </trkpt>
      <trkpt lat="48.46277" lon="2.65119">
        <ele>106</ele>
        <time>2012-03-31T12:55:25Z</time>
      </trkpt>
      <trkpt lat="48.46269" lon="2.65119">
        <ele>107</ele>
        <time>2012-03-31T12:55:29Z</time>
      </trkpt>
      <trkpt lat="48.46258" lon="2.65131">
        <ele>108</ele>
        <time>2012-03-31T12:55:37Z</time>
      </trkpt>
      <trkpt lat="48.46259" lon="2.6514">
        <ele>108</ele>
        <time>2012-03-31T12:55:41Z</time>
      </trkpt>
      <trkpt lat="48.46264" lon="2.65147">
        <ele>109</ele>
        <time>2012-03-31T12:55:46Z</time>
      </trkpt>
      <trkpt lat="48.46272" lon="2.65147">
        <ele>108</ele>
        <time>2012-03-31T12:55:52Z</time>
      </trkpt>
      <trkpt lat="48.4628" lon="2.65155">
        <ele>108</ele>
        <time>2012-03-31T12:55:58Z</time>
      </trkpt>
      <trkpt lat="48.4628" lon="2.65165">
        <ele>108</ele>
        <time>2012-03-31T12:56:02Z</time>
      </trkpt>
      <trkpt lat="48.46278" lon="2.65172">
        <ele>111</ele>
        <time>2012-03-31T12:56:04Z</time>
      </trkpt>
      <trkpt lat="48.4628" lon="2.65185">
        <ele>111</ele>
        <time>2012-03-31T12:56:10Z</time>
      </trkpt>
      <trkpt lat="48.46281" lon="2.65192">
        <ele>110</ele>
        <time>2012-03-31T12:56:13Z</time>
      </trkpt>
      <trkpt lat="48.46278" lon="2.65207">
        <ele>111</ele>
        <time>2012-03-31T12:56:20Z</time>
      </trkpt>
      <trkpt lat="48.46277" lon="2.65208">
        <ele>111</ele>
        <time>2012-03-31T12:56:21Z</time>
      </trkpt>
      <trkpt lat="48.46274" lon="2.65211">
        <ele>111</ele>
        <time>2012-03-31T12:56:24Z</time>
      </trkpt>
      <trkpt lat="48.46268" lon="2.6522">
        <ele>112</ele>
        <time>2012-03-31T12:56:30Z</time>
      </trkpt>
      <trkpt lat="48.46264" lon="2.65228">
        <ele>113</ele>
        <time>2012-03-31T12:56:36Z</time>
      </trkpt>
      <trkpt lat="48.46255" lon="2.65228">
        <ele>114</ele>
        <time>2012-03-31T12:56:44Z</time>
      </trkpt>
      <trkpt lat="48.46253" lon="2.65228">
        <ele>114</ele>
        <time>2012-03-31T12:56:45Z</time>
      </trkpt>
      <trkpt lat="48.46241" lon="2.65234">
        <ele>116</ele>
        <time>2012-03-31T12:56:51Z</time>
      </trkpt>
      <trkpt lat="48.46232" lon="2.65237">
        <ele>116</ele>
        <time>2012-03-31T12:56:55Z</time>
      </trkpt>
      <trkpt lat="48.46224" lon="2.6524">
        <ele>115</ele>
        <time>2012-03-31T12:56:59Z</time>
      </trkpt>
      <trkpt lat="48.46222" lon="2.65242">
        <ele>115</ele>
        <time>2012-03-31T12:57:00Z</time>
      </trkpt>
      <trkpt lat="48.46219" lon="2.65249">
        <ele>115</ele>
        <time>2012-03-31T12:57:04Z</time>
      </trkpt>
      <trkpt lat="48.4621" lon="2.65262">
        <ele>116</ele>
        <time>2012-03-31T12:57:12Z</time>
      </trkpt>
      <trkpt lat="48.46209" lon="2.65263">
        <ele>116</ele>
        <time>2012-03-31T12:57:13Z</time>
      </trkpt>
      <trkpt lat="48.46202" lon="2.65271">
        <ele>116</ele>
        <time>2012-03-31T12:57:18Z</time>
      </trkpt>
      <trkpt lat="48.4619" lon="2.65296">
        <ele>116</ele>
        <time>2012-03-31T12:57:25Z</time>
      </trkpt>
      <trkpt lat="48.46187" lon="2.65301">
        <ele>116</ele>
        <time>2012-03-31T12:57:26Z</time>
      </trkpt>
      <trkpt lat="48.46183" lon="2.65312">
        <ele>116</ele>
        <time>2012-03-31T12:57:28Z</time>
      </trkpt>
      <trkpt lat="48.46182" lon="2.65324">
        <ele>116</ele>
        <time>2012-03-31T12:57:32Z</time>
      </trkpt>
      <trkpt lat="48.46182" lon="2.65326">
        <ele>116</ele>
        <time>2012-03-31T12:57:33Z</time>
      </trkpt>
      <trkpt lat="48.46182" lon="2.65336">
        <ele>116</ele>
        <time>2012-03-31T12:57:38Z</time>
      </trkpt>
      <trkpt lat="48.46181" lon="2.65348">
        <ele>116</ele>
        <time>2012-03-31T12:57:42Z</time>
      </trkpt>
      <trkpt lat="48.46178" lon="2.65356">
        <ele>116</ele>
        <time>2012-03-31T12:57:44Z</time>
      </trkpt>
      <trkpt lat="48.46174" lon="2.65365">
        <ele>116</ele>
        <time>2012-03-31T12:57:47Z</time>
      </trkpt>
      <trkpt lat="48.46172" lon="2.65382">
        <ele>116</ele>
        <time>2012-03-31T12:57:51Z</time>
      </trkpt>
      <trkpt lat="48.46173" lon="2.6542">
        <ele>117</ele>
        <time>2012-03-31T12:57:57Z</time>
      </trkpt>
      <trkpt lat="48.46175" lon="2.65427">
        <ele>116</ele>
        <time>2012-03-31T12:57:58Z</time>
      </trkpt>
      <trkpt lat="48.46192" lon="2.65466">
        <ele>114</ele>
        <time>2012-03-31T12:58:04Z</time>
      </trkpt>
      <trkpt lat="48.46194" lon="2.65474">
        <ele>114</ele>
        <time>2012-03-31T12:58:07Z</time>
      </trkpt>
      <trkpt lat="48.46195" lon="2.65479">
        <ele>114</ele>
        <time>2012-03-31T12:58:09Z</time>
      </trkpt>
      <trkpt lat="48.46194" lon="2.65488">
        <ele>114</ele>
        <time>2012-03-31T12:58:12Z</time>
      </trkpt>
      <trkpt lat="48.46191" lon="2.65495">
        <ele>115</ele>
        <time>2012-03-31T12:58:15Z</time>
      </trkpt>
      <trkpt lat="48.46179" lon="2.65506">
        <ele>115</ele>
        <time>2012-03-31T12:58:21Z</time>
      </trkpt>
      <trkpt lat="48.46172" lon="2.65518">
        <ele>115</ele>
        <time>2012-03-31T12:58:25Z</time>
      </trkpt>
      <trkpt lat="48.46169" lon="2.65522">
        <ele>114</ele>
        <time>2012-03-31T12:58:27Z</time>
      </trkpt>
      <trkpt lat="48.46167" lon="2.65535">
        <ele>114</ele>
        <time>2012-03-31T12:58:31Z</time>
      </trkpt>
      <trkpt lat="48.4617" lon="2.65545">
        <ele>113</ele>
        <time>2012-03-31T12:58:34Z</time>
      </trkpt>
      <trkpt lat="48.46169" lon="2.65564">
        <ele>113</ele>
        <time>2012-03-31T12:58:39Z</time>
      </trkpt>
      <trkpt lat="48.46168" lon="2.65584">
        <ele>115</ele>
        <time>2012-03-31T12:58:43Z</time>
      </trkpt>
      <trkpt lat="48.4617" lon="2.65604">
        <ele>111</ele>
        <time>2012-03-31T12:58:48Z</time>
      </trkpt>
      <trkpt lat="48.46167" lon="2.65615">
        <ele>110</ele>
        <time>2012-03-31T12:58:53Z</time>
      </trkpt>
      <trkpt lat="48.46164" lon="2.65621">
        <ele>112</ele>
        <time>2012-03-31T12:59:00Z</time>
      </trkpt>
      <trkpt lat="48.46162" lon="2.65625">
        <ele>111</ele>
        <time>2012-03-31T12:59:10Z</time>
      </trkpt>
      <trkpt lat="48.46161" lon="2.6563">
        <ele>111</ele>
        <time>2012-03-31T12:59:15Z</time>
      </trkpt>
      <trkpt lat="48.46161" lon="2.65643">
        <ele>110</ele>
        <time>2012-03-31T12:59:20Z</time>
      </trkpt>
      <trkpt lat="48.46162" lon="2.65648">
        <ele>110</ele>
        <time>2012-03-31T12:59:27Z</time>
      </trkpt>
      <trkpt lat="48.46164" lon="2.65645">
        <ele>110</ele>
        <time>2012-03-31T12:59:35Z</time>
      </trkpt>
      <trkpt lat="48.46166" lon="2.65643">
        <ele>110</ele>
        <time>2012-03-31T12:59:38Z</time>
      </trkpt>
      <trkpt lat="48.46168" lon="2.65655">
        <ele>108</ele>
        <time>2012-03-31T12:59:42Z</time>
      </trkpt>
      <trkpt lat="48.46166" lon="2.65663">
        <ele>109</ele>
        <time>2012-03-31T12:59:46Z</time>
      </trkpt>
      <trkpt lat="48.46166" lon="2.65663">
        <ele>108</ele>
        <time>2012-03-31T12:59:52Z</time>
      </trkpt>
      <trkpt lat="48.46158" lon="2.65665">
        <ele>109</ele>
        <time>2012-03-31T12:59:58Z</time>
      </trkpt>
      <trkpt lat="48.46157" lon="2.65665">
        <ele>109</ele>
        <time>2012-03-31T13:00:00Z</time>
      </trkpt>
      <trkpt lat="48.46157" lon="2.65668">
        <ele>108</ele>
        <time>2012-03-31T13:00:06Z</time>
      </trkpt>
      <trkpt lat="48.46157" lon="2.65677">
        <ele>108</ele>
        <time>2012-03-31T13:00:10Z</time>
      </trkpt>
      <trkpt lat="48.46157" lon="2.65692">
        <ele>107</ele>
        <time>2012-03-31T13:00:14Z</time>
      </trkpt>
      <trkpt lat="48.46152" lon="2.65713">
        <ele>107</ele>
        <time>2012-03-31T13:00:19Z</time>
      </trkpt>
      <trkpt lat="48.46148" lon="2.65714">
        <ele>107</ele>
        <time>2012-03-31T13:00:22Z</time>
      </trkpt>
      <trkpt lat="48.46145" lon="2.65713">
        <ele>107</ele>
        <time>2012-03-31T13:00:23Z</time>
      </trkpt>
      <trkpt lat="48.4614" lon="2.65712">
        <ele>107</ele>
        <time>2012-03-31T13:00:25Z</time>
      </trkpt>
      <trkpt lat="48.46137" lon="2.65721">
        <ele>107</ele>
        <time>2012-03-31T13:00:29Z</time>
      </trkpt>
      <trkpt lat="48.46138" lon="2.65724">
        <ele>107</ele>
        <time>2012-03-31T13:00:30Z</time>
      </trkpt>
      <trkpt lat="48.46144" lon="2.6575">
        <ele>104</ele>
        <time>2012-03-31T13:00:36Z</time>
      </trkpt>
      <trkpt lat="48.46145" lon="2.65775">
        <ele>105</ele>
        <time>2012-03-31T13:00:41Z</time>
      </trkpt>
      <trkpt lat="48.46151" lon="2.65799">
        <ele>105</ele>
        <time>2012-03-31T13:00:46Z</time>
      </trkpt>
      <trkpt lat="48.46162" lon="2.6581">
        <ele>104</ele>
        <time>2012-03-31T13:00:50Z</time>
      </trkpt>
      <trkpt lat="48.46176" lon="2.65823">
        <ele>102</ele>
        <time>2012-03-31T13:00:55Z</time>
      </trkpt>
      <trkpt lat="48.46175" lon="2.65826">
        <ele>102</ele>
        <time>2012-03-31T13:01:01Z</time>
      </trkpt>
      <trkpt lat="48.46174" lon="2.65827">
        <ele>102</ele>
        <time>2012-03-31T13:01:07Z</time>
      </trkpt>
      <trkpt lat="48.46174" lon="2.65827">
        <ele>102</ele>
        <time>2012-03-31T13:01:09Z</time>
      </trkpt>
      <trkpt lat="48.46168" lon="2.6584">
        <ele>102</ele>
        <time>2012-03-31T13:01:16Z</time>
      </trkpt>
      <trkpt lat="48.46161" lon="2.65852">
        <ele>104</ele>
        <time>2012-03-31T13:01:22Z</time>
      </trkpt>
      <trkpt lat="48.4616" lon="2.65855">
        <ele>104</ele>
        <time>2012-03-31T13:01:24Z</time>
      </trkpt>
      <trkpt lat="48.46155" lon="2.65861">
        <ele>104</ele>
        <time>2012-03-31T13:01:29Z</time>
      </trkpt>
      <trkpt lat="48.46146" lon="2.65873">
        <ele>104</ele>
        <time>2012-03-31T13:01:35Z</time>
      </trkpt>
      <trkpt lat="48.46142" lon="2.65882">
        <ele>104</ele>
        <time>2012-03-31T13:01:39Z</time>
      </trkpt>
      <trkpt lat="48.46137" lon="2.65891">
        <ele>105</ele>
        <time>2012-03-31T13:01:44Z</time>
      </trkpt>
      <trkpt lat="48.46138" lon="2.65896">
        <ele>104</ele>
        <time>2012-03-31T13:01:48Z</time>
      </trkpt>
      <trkpt lat="48.46138" lon="2.65897">
        <ele>104</ele>
        <time>2012-03-31T13:01:49Z</time>
      </trkpt>
      <trkpt lat="48.46139" lon="2.65908">
        <ele>104</ele>
        <time>2012-03-31T13:01:56Z</time>
      </trkpt>
      <trkpt lat="48.46138" lon="2.6591">
        <ele>104</ele>
        <time>2012-03-31T13:02:00Z</time>
      </trkpt>
      <trkpt lat="48.46137" lon="2.65914">
        <ele>104</ele>
        <time>2012-03-31T13:02:06Z</time>
      </trkpt>
      <trkpt lat="48.46137" lon="2.6592">
        <ele>104</ele>
        <time>2012-03-31T13:02:12Z</time>
      </trkpt>
      <trkpt lat="48.46138" lon="2.65921">
        <ele>104</ele>
        <time>2012-03-31T13:02:16Z</time>
      </trkpt>
      <trkpt lat="48.46142" lon="2.65923">
        <ele>104</ele>
        <time>2012-03-31T13:02:19Z</time>
      </trkpt>
      <trkpt lat="48.46151" lon="2.65929">
        <ele>103</ele>
        <time>2012-03-31T13:02:24Z</time>
      </trkpt>
      <trkpt lat="48.46152" lon="2.6593">
        <ele>103</ele>
        <time>2012-03-31T13:02:29Z</time>
      </trkpt>
      <trkpt lat="48.46154" lon="2.65933">
        <ele>103</ele>
        <time>2012-03-31T13:02:36Z</time>
      </trkpt>
      <trkpt lat="48.46155" lon="2.65936">
        <ele>103</ele>
        <time>2012-03-31T13:02:41Z</time>
      </trkpt>
      <trkpt lat="48.46154" lon="2.65941">
        <ele>104</ele>
        <time>2012-03-31T13:02:48Z</time>
      </trkpt>
      <trkpt lat="48.46154" lon="2.65944">
        <ele>104</ele>
        <time>2012-03-31T13:03:02Z</time>
      </trkpt>
      <trkpt lat="48.46146" lon="2.65956">
        <ele>104</ele>
        <time>2012-03-31T13:03:07Z</time>
      </trkpt>
      <trkpt lat="48.46144" lon="2.65957">
        <ele>104</ele>
        <time>2012-03-31T13:03:11Z</time>
      </trkpt>
      <trkpt lat="48.46145" lon="2.65957">
        <ele>104</ele>
        <time>2012-03-31T13:03:16Z</time>
      </trkpt>
      <trkpt lat="48.46149" lon="2.65953">
        <ele>104</ele>
        <time>2012-03-31T13:03:21Z</time>
      </trkpt>
      <trkpt lat="48.46151" lon="2.65951">
        <ele>104</ele>
        <time>2012-03-31T13:03:28Z</time>
      </trkpt>
      <trkpt lat="48.4615" lon="2.65948">
        <ele>104</ele>
        <time>2012-03-31T13:03:35Z</time>
      </trkpt>
      <trkpt lat="48.46147" lon="2.65945">
        <ele>104</ele>
        <time>2012-03-31T13:03:41Z</time>
      </trkpt>
      <trkpt lat="48.46145" lon="2.65946">
        <ele>104</ele>
        <time>2012-03-31T13:03:47Z</time>
      </trkpt>
      <trkpt lat="48.46145" lon="2.65946">
        <ele>104</ele>
        <time>2012-03-31T13:03:58Z</time>
      </trkpt>
      <trkpt lat="48.46146" lon="2.65947">
        <ele>104</ele>
        <time>2012-03-31T13:04:11Z</time>
      </trkpt>
      <trkpt lat="48.46145" lon="2.65946">
        <ele>104</ele>
        <time>2012-03-31T13:04:37Z</time>
      </trkpt>
      <trkpt lat="48.46146" lon="2.65948">
        <ele>104</ele>
        <time>2012-03-31T13:05:06Z</time>
      </trkpt>
      <trkpt lat="48.4615" lon="2.65954">
        <ele>104</ele>
        <time>2012-03-31T13:05:10Z</time>
      </trkpt>
      <trkpt lat="48.4616" lon="2.65965">
        <ele>103</ele>
        <time>2012-03-31T13:05:15Z</time>
      </trkpt>
      <trkpt lat="48.46169" lon="2.65971">
        <ele>101</ele>
        <time>2012-03-31T13:05:19Z</time>
      </trkpt>
      <trkpt lat="48.46171" lon="2.65991">
        <ele>101</ele>
        <time>2012-03-31T13:05:24Z</time>
      </trkpt>
      <trkpt lat="48.46171" lon="2.65997">
        <ele>101</ele>
        <time>2012-03-31T13:05:25Z</time>
      </trkpt>
      <trkpt lat="48.46171" lon="2.66009">
        <ele>101</ele>
        <time>2012-03-31T13:05:27Z</time>
      </trkpt>
      <trkpt lat="48.46177" lon="2.66022">
        <ele>101</ele>
        <time>2012-03-31T13:05:32Z</time>
      </trkpt>
      <trkpt lat="48.4618" lon="2.6603">
        <ele>101</ele>
        <time>2012-03-31T13:05:34Z</time>
      </trkpt>
      <trkpt lat="48.4619" lon="2.66055">
        <ele>100</ele>
        <time>2012-03-31T13:05:39Z</time>
      </trkpt>
      <trkpt lat="48.46199" lon="2.66075">
        <ele>100</ele>
        <time>2012-03-31T13:05:44Z</time>
      </trkpt>
      <trkpt lat="48.46207" lon="2.66091">
        <ele>100</ele>
        <time>2012-03-31T13:05:48Z</time>
      </trkpt>
      <trkpt lat="48.46221" lon="2.66113">
        <ele>100</ele>
        <time>2012-03-31T13:05:54Z</time>
      </trkpt>
      <trkpt lat="48.46235" lon="2.66123">
        <ele>99</ele>
        <time>2012-03-31T13:05:59Z</time>
      </trkpt>
      <trkpt lat="48.46246" lon="2.6613">
        <ele>99</ele>
        <time>2012-03-31T13:06:04Z</time>
      </trkpt>
      <trkpt lat="48.46247" lon="2.66131">
        <ele>99</ele>
        <time>2012-03-31T13:06:05Z</time>
      </trkpt>
      <trkpt lat="48.46258" lon="2.66125">
        <ele>98</ele>
        <time>2012-03-31T13:06:10Z</time>
      </trkpt>
      <trkpt lat="48.46264" lon="2.66123">
        <ele>99</ele>
        <time>2012-03-31T13:06:13Z</time>
      </trkpt>
      <trkpt lat="48.46272" lon="2.66115">
        <ele>99</ele>
        <time>2012-03-31T13:06:17Z</time>
      </trkpt>
      <trkpt lat="48.46276" lon="2.66105">
        <ele>99</ele>
        <time>2012-03-31T13:06:22Z</time>
      </trkpt>
      <trkpt lat="48.46276" lon="2.66106">
        <ele>99</ele>
        <time>2012-03-31T13:06:23Z</time>
      </trkpt>
      <trkpt lat="48.46283" lon="2.66111">
        <ele>99</ele>
        <time>2012-03-31T13:06:28Z</time>
      </trkpt>
      <trkpt lat="48.46285" lon="2.66111">
        <ele>99</ele>
        <time>2012-03-31T13:06:35Z</time>
      </trkpt>
      <trkpt lat="48.46291" lon="2.66116">
        <ele>99</ele>
        <time>2012-03-31T13:06:41Z</time>
      </trkpt>
      <trkpt lat="48.46291" lon="2.66131">
        <ele>99</ele>
        <time>2012-03-31T13:06:45Z</time>
      </trkpt>
      <trkpt lat="48.46292" lon="2.66141">
        <ele>99</ele>
        <time>2012-03-31T13:06:48Z</time>
      </trkpt>
      <trkpt lat="48.46292" lon="2.66143">
        <ele>98</ele>
        <time>2012-03-31T13:06:49Z</time>
      </trkpt>
      <trkpt lat="48.46294" lon="2.66152">
        <ele>98</ele>
        <time>2012-03-31T13:06:54Z</time>
      </trkpt>
      <trkpt lat="48.46293" lon="2.66156">
        <ele>98</ele>
        <time>2012-03-31T13:07:00Z</time>
      </trkpt>
      <trkpt lat="48.46293" lon="2.66156">
        <ele>98</ele>
        <time>2012-03-31T13:07:01Z</time>
      </trkpt>
      <trkpt lat="48.46286" lon="2.66162">
        <ele>98</ele>
        <time>2012-03-31T13:07:07Z</time>
      </trkpt>
      <trkpt lat="48.46284" lon="2.66162">
        <ele>98</ele>
        <time>2012-03-31T13:07:08Z</time>
      </trkpt>
      <trkpt lat="48.46277" lon="2.66176">
        <ele>97</ele>
        <time>2012-03-31T13:07:13Z</time>
      </trkpt>
      <trkpt lat="48.46276" lon="2.66185">
        <ele>97</ele>
        <time>2012-03-31T13:07:18Z</time>
      </trkpt>
      <trkpt lat="48.46276" lon="2.6619">
        <ele>97</ele>
        <time>2012-03-31T13:07:36Z</time>
      </trkpt>
      <trkpt lat="48.46283" lon="2.66188">
        <ele>97</ele>
        <time>2012-03-31T13:08:15Z</time>
      </trkpt>
      <trkpt lat="48.46282" lon="2.66187">
        <ele>97</ele>
        <time>2012-03-31T13:08:54Z</time>
      </trkpt>
      <trkpt lat="48.46277" lon="2.662">
        <ele>97</ele>
        <time>2012-03-31T13:08:59Z</time>
      </trkpt>
      <trkpt lat="48.46277" lon="2.66207">
        <ele>97</ele>
        <time>2012-03-31T13:09:03Z</time>
      </trkpt>
      <trkpt lat="48.46274" lon="2.66218">
        <ele>97</ele>
        <time>2012-03-31T13:09:09Z</time>
      </trkpt>
      <trkpt lat="48.46269" lon="2.6622">
        <ele>97</ele>
        <time>2012-03-31T13:09:11Z</time>
      </trkpt>
      <trkpt lat="48.46257" lon="2.66228">
        <ele>97</ele>
        <time>2012-03-31T13:09:18Z</time>
      </trkpt>
      <trkpt lat="48.46255" lon="2.66229">
        <ele>97</ele>
        <time>2012-03-31T13:09:27Z</time>
      </trkpt>
      <trkpt lat="48.46254" lon="2.66231">
        <ele>97</ele>
        <time>2012-03-31T13:09:37Z</time>
      </trkpt>
      <trkpt lat="48.46253" lon="2.66228">
        <ele>97</ele>
        <time>2012-03-31T13:09:47Z</time>
      </trkpt>
      <trkpt lat="48.46263" lon="2.6622">
        <ele>97</ele>
        <time>2012-03-31T13:09:52Z</time>
      </trkpt>
      <trkpt lat="48.46265" lon="2.66221">
        <ele>97</ele>
        <time>2012-03-31T13:09:55Z</time>
      </trkpt>
      <trkpt lat="48.46265" lon="2.66221">
        <ele>97</ele>
        <time>2012-03-31T13:09:56Z</time>
      </trkpt>
      <trkpt lat="48.46272" lon="2.66212">
        <ele>97</ele>
        <time>2012-03-31T13:10:02Z</time>
      </trkpt>
      <trkpt lat="48.46275" lon="2.66207">
        <ele>97</ele>
        <time>2012-03-31T13:10:04Z</time>
      </trkpt>
      <trkpt lat="48.4628" lon="2.66205">
        <ele>97</ele>
        <time>2012-03-31T13:10:10Z</time>
      </trkpt>
      <trkpt lat="48.4628" lon="2.66204">
        <ele>97</ele>
        <time>2012-03-31T13:10:11Z</time>
      </trkpt>
      <trkpt lat="48.46285" lon="2.66205">
        <ele>97</ele>
        <time>2012-03-31T13:10:16Z</time>
      </trkpt>
      <trkpt lat="48.46286" lon="2.66215">
        <ele>97</ele>
        <time>2012-03-31T13:10:20Z</time>
      </trkpt>
      <trkpt lat="48.46289" lon="2.66227">
        <ele>97</ele>
        <time>2012-03-31T13:10:24Z</time>
      </trkpt>
      <trkpt lat="48.46285" lon="2.66237">
        <ele>97</ele>
        <time>2012-03-31T13:10:28Z</time>
      </trkpt>
      <trkpt lat="48.46286" lon="2.66242">
        <ele>97</ele>
        <time>2012-03-31T13:10:30Z</time>
      </trkpt>
      <trkpt lat="48.46288" lon="2.66251">
        <ele>97</ele>
        <time>2012-03-31T13:10:33Z</time>
      </trkpt>
      <trkpt lat="48.46293" lon="2.66252">
        <ele>97</ele>
        <time>2012-03-31T13:10:37Z</time>
      </trkpt>
      <trkpt lat="48.46298" lon="2.66249">
        <ele>97</ele>
        <time>2012-03-31T13:10:42Z</time>
      </trkpt>
      <trkpt lat="48.46299" lon="2.6625">
        <ele>97</ele>
        <time>2012-03-31T13:10:44Z</time>
      </trkpt>
      <trkpt lat="48.46305" lon="2.66254">
        <ele>97</ele>
        <time>2012-03-31T13:10:49Z</time>
      </trkpt>
      <trkpt lat="48.4631" lon="2.66246">
        <ele>96</ele>
        <time>2012-03-31T13:10:53Z</time>
      </trkpt>
      <trkpt lat="48.46312" lon="2.66243">
        <ele>96</ele>
        <time>2012-03-31T13:10:59Z</time>
      </trkpt>
      <trkpt lat="48.46319" lon="2.66235">
        <ele>96</ele>
        <time>2012-03-31T13:11:02Z</time>
      </trkpt>
      <trkpt lat="48.46321" lon="2.66234">
        <ele>96</ele>
        <time>2012-03-31T13:11:08Z</time>
      </trkpt>
      <trkpt lat="48.46322" lon="2.66233">
        <ele>96</ele>
        <time>2012-03-31T13:11:11Z</time>
      </trkpt>
      <trkpt lat="48.46327" lon="2.6622">
        <ele>97</ele>
        <time>2012-03-31T13:11:18Z</time>
      </trkpt>
      <trkpt lat="48.46333" lon="2.66219">
        <ele>97</ele>
        <time>2012-03-31T13:11:21Z</time>
      </trkpt>
      <trkpt lat="48.4634" lon="2.66234">
        <ele>97</ele>
        <time>2012-03-31T13:11:25Z</time>
      </trkpt>
      <trkpt lat="48.46344" lon="2.66243">
        <ele>96</ele>
        <time>2012-03-31T13:11:28Z</time>
      </trkpt>
      <trkpt lat="48.46351" lon="2.66251">
        <ele>97</ele>
        <time>2012-03-31T13:11:32Z</time>
      </trkpt>
      <trkpt lat="48.46353" lon="2.66253">
        <ele>97</ele>
        <time>2012-03-31T13:11:33Z</time>
      </trkpt>
      <trkpt lat="48.46363" lon="2.66266">
        <ele>97</ele>
        <time>2012-03-31T13:11:37Z</time>
      </trkpt>
      <trkpt lat="48.46368" lon="2.66281">
        <ele>98</ele>
        <time>2012-03-31T13:11:41Z</time>
      </trkpt>
      <trkpt lat="48.46369" lon="2.66294">
        <ele>98</ele>
        <time>2012-03-31T13:11:44Z</time>
      </trkpt>
      <trkpt lat="48.46364" lon="2.66312">
        <ele>98</ele>
        <time>2012-03-31T13:11:49Z</time>
      </trkpt>
      <trkpt lat="48.46362" lon="2.66319">
        <ele>98</ele>
        <time>2012-03-31T13:11:51Z</time>
      </trkpt>
      <trkpt lat="48.46353" lon="2.66357">
        <ele>99</ele>
        <time>2012-03-31T13:11:58Z</time>
      </trkpt>
      <trkpt lat="48.46348" lon="2.66375">
        <ele>99</ele>
        <time>2012-03-31T13:12:02Z</time>
      </trkpt>
      <trkpt lat="48.46338" lon="2.66388">
        <ele>99</ele>
        <time>2012-03-31T13:12:07Z</time>
      </trkpt>
      <trkpt lat="48.46332" lon="2.66398">
        <ele>100</ele>
        <time>2012-03-31T13:12:10Z</time>
      </trkpt>
      <trkpt lat="48.46322" lon="2.66424">
        <ele>99</ele>
        <time>2012-03-31T13:12:17Z</time>
      </trkpt>
      <trkpt lat="48.46314" lon="2.6644">
        <ele>99</ele>
        <time>2012-03-31T13:12:22Z</time>
      </trkpt>
      <trkpt lat="48.46309" lon="2.66458">
        <ele>98</ele>
        <time>2012-03-31T13:12:27Z</time>
      </trkpt>
      <trkpt lat="48.46307" lon="2.66477">
        <ele>98</ele>
        <time>2012-03-31T13:12:31Z</time>
      </trkpt>
      <trkpt lat="48.46303" lon="2.66489">
        <ele>98</ele>
        <time>2012-03-31T13:12:34Z</time>
      </trkpt>
      <trkpt lat="48.46297" lon="2.66494">
        <ele>98</ele>
        <time>2012-03-31T13:12:39Z</time>
      </trkpt>
      <trkpt lat="48.46293" lon="2.66501">
        <ele>95</ele>
        <time>2012-03-31T13:12:42Z</time>
      </trkpt>
      <trkpt lat="48.46286" lon="2.66514">
        <ele>95</ele>
        <time>2012-03-31T13:12:47Z</time>
      </trkpt>
      <trkpt lat="48.46285" lon="2.66531">
        <ele>94</ele>
        <time>2012-03-31T13:12:52Z</time>
      </trkpt>
      <trkpt lat="48.46276" lon="2.66536">
        <ele>94</ele>
        <time>2012-03-31T13:12:56Z</time>
      </trkpt>
      <trkpt lat="48.46271" lon="2.66532">
        <ele>94</ele>
        <time>2012-03-31T13:12:59Z</time>
      </trkpt>
      <trkpt lat="48.46254" lon="2.66518">
        <ele>95</ele>
        <time>2012-03-31T13:13:07Z</time>
      </trkpt>
      <trkpt lat="48.46239" lon="2.66511">
        <ele>96</ele>
        <time>2012-03-31T13:13:13Z</time>
      </trkpt>
      <trkpt lat="48.46232" lon="2.66498">
        <ele>97</ele>
        <time>2012-03-31T13:13:18Z</time>
      </trkpt>
      <trkpt lat="48.46232" lon="2.66491">
        <ele>98</ele>
        <time>2012-03-31T13:13:21Z</time>
      </trkpt>
      <trkpt lat="48.4623" lon="2.66483">
        <ele>98</ele>
        <time>2012-03-31T13:13:26Z</time>
      </trkpt>
      <trkpt lat="48.46228" lon="2.66481">
        <ele>98</ele>
        <time>2012-03-31T13:13:29Z</time>
      </trkpt>
      <trkpt lat="48.46222" lon="2.66474">
        <ele>98</ele>
        <time>2012-03-31T13:13:35Z</time>
      </trkpt>
      <trkpt lat="48.46214" lon="2.66465">
        <ele>98</ele>
        <time>2012-03-31T13:13:42Z</time>
      </trkpt>
      <trkpt lat="48.46213" lon="2.66465">
        <ele>98</ele>
        <time>2012-03-31T13:13:43Z</time>
      </trkpt>
      <trkpt lat="48.46203" lon="2.66471">
        <ele>98</ele>
        <time>2012-03-31T13:13:49Z</time>
      </trkpt>
      <trkpt lat="48.46202" lon="2.66473">
        <ele>98</ele>
        <time>2012-03-31T13:13:52Z</time>
      </trkpt>
      <trkpt lat="48.46202" lon="2.66469">
        <ele>98</ele>
        <time>2012-03-31T13:13:59Z</time>
      </trkpt>
      <trkpt lat="48.462" lon="2.66465">
        <ele>98</ele>
        <time>2012-03-31T13:14:04Z</time>
      </trkpt>
      <trkpt lat="48.46197" lon="2.66465">
        <ele>98</ele>
        <time>2012-03-31T13:14:09Z</time>
      </trkpt>
      <trkpt lat="48.46191" lon="2.6646">
        <ele>98</ele>
        <time>2012-03-31T13:14:14Z</time>
      </trkpt>
      <trkpt lat="48.46182" lon="2.66452">
        <ele>98</ele>
        <time>2012-03-31T13:14:20Z</time>
      </trkpt>
      <trkpt lat="48.46172" lon="2.66451">
        <ele>98</ele>
        <time>2012-03-31T13:14:25Z</time>
      </trkpt>
      <trkpt lat="48.4617" lon="2.66449">
        <ele>98</ele>
        <time>2012-03-31T13:14:26Z</time>
      </trkpt>
      <trkpt lat="48.46161" lon="2.66441">
        <ele>98</ele>
        <time>2012-03-31T13:14:31Z</time>
      </trkpt>
      <trkpt lat="48.46158" lon="2.66437">
        <ele>98</ele>
        <time>2012-03-31T13:14:33Z</time>
      </trkpt>
      <trkpt lat="48.46153" lon="2.6643">
        <ele>98</ele>
        <time>2012-03-31T13:14:38Z</time>
      </trkpt>
      <trkpt lat="48.4615" lon="2.66422">
        <ele>98</ele>
        <time>2012-03-31T13:14:44Z</time>
      </trkpt>
      <trkpt lat="48.46147" lon="2.6642">
        <ele>98</ele>
        <time>2012-03-31T13:14:54Z</time>
      </trkpt>
      <trkpt lat="48.46143" lon="2.66433">
        <ele>98</ele>
        <time>2012-03-31T13:15:01Z</time>
      </trkpt>
      <trkpt lat="48.46143" lon="2.66438">
        <ele>98</ele>
        <time>2012-03-31T13:15:03Z</time>
      </trkpt>
      <trkpt lat="48.46145" lon="2.66455">
        <ele>98</ele>
        <time>2012-03-31T13:15:10Z</time>
      </trkpt>
      <trkpt lat="48.46144" lon="2.66457">
        <ele>98</ele>
        <time>2012-03-31T13:15:11Z</time>
      </trkpt>
      <trkpt lat="48.46146" lon="2.66461">
        <ele>98</ele>
        <time>2012-03-31T13:15:16Z</time>
      </trkpt>
      <trkpt lat="48.46144" lon="2.66464">
        <ele>98</ele>
        <time>2012-03-31T13:15:19Z</time>
      </trkpt>
      <trkpt lat="48.46141" lon="2.66468">
        <ele>98</ele>
        <time>2012-03-31T13:15:24Z</time>
      </trkpt>
      <trkpt lat="48.46139" lon="2.6647">
        <ele>98</ele>
        <time>2012-03-31T13:15:37Z</time>
      </trkpt>
      <trkpt lat="48.4613" lon="2.66483">
        <ele>98</ele>
        <time>2012-03-31T13:15:43Z</time>
      </trkpt>
      <trkpt lat="48.46119" lon="2.66499">
        <ele>98</ele>
        <time>2012-03-31T13:15:49Z</time>
      </trkpt>
      <trkpt lat="48.46114" lon="2.66505">
        <ele>96</ele>
        <time>2012-03-31T13:15:51Z</time>
      </trkpt>
      <trkpt lat="48.46098" lon="2.66513">
        <ele>96</ele>
        <time>2012-03-31T13:15:56Z</time>
      </trkpt>
      <trkpt lat="48.46088" lon="2.66511">
        <ele>97</ele>
        <time>2012-03-31T13:15:59Z</time>
      </trkpt>
      <trkpt lat="48.46076" lon="2.66501">
        <ele>98</ele>
        <time>2012-03-31T13:16:03Z</time>
      </trkpt>
      <trkpt lat="48.46074" lon="2.66498">
        <ele>98</ele>
        <time>2012-03-31T13:16:04Z</time>
      </trkpt>
      <trkpt lat="48.46062" lon="2.66486">
        <ele>99</ele>
        <time>2012-03-31T13:16:09Z</time>
      </trkpt>
      <trkpt lat="48.46055" lon="2.66476">
        <ele>99</ele>
        <time>2012-03-31T13:16:13Z</time>
      </trkpt>
      <trkpt lat="48.46047" lon="2.66464">
        <ele>100</ele>
        <time>2012-03-31T13:16:17Z</time>
      </trkpt>
      <trkpt lat="48.46042" lon="2.66457">
        <ele>100</ele>
        <time>2012-03-31T13:16:19Z</time>
      </trkpt>
      <trkpt lat="48.46031" lon="2.66455">
        <ele>100</ele>
        <time>2012-03-31T13:16:23Z</time>
      </trkpt>
      <trkpt lat="48.46028" lon="2.66454">
        <ele>100</ele>
        <time>2012-03-31T13:16:24Z</time>
      </trkpt>
      <trkpt lat="48.46015" lon="2.66448">
        <ele>100</ele>
        <time>2012-03-31T13:16:29Z</time>
      </trkpt>
      <trkpt lat="48.46002" lon="2.66442">
        <ele>100</ele>
        <time>2012-03-31T13:16:35Z</time>
      </trkpt>
      <trkpt lat="48.45991" lon="2.66441">
        <ele>102</ele>
        <time>2012-03-31T13:16:40Z</time>
      </trkpt>
      <trkpt lat="48.45976" lon="2.66448">
        <ele>102</ele>
        <time>2012-03-31T13:16:46Z</time>
      </trkpt>
      <trkpt lat="48.45967" lon="2.66457">
        <ele>102</ele>
        <time>2012-03-31T13:16:50Z</time>
      </trkpt>
      <trkpt lat="48.45955" lon="2.66468">
        <ele>102</ele>
        <time>2012-03-31T13:16:56Z</time>
      </trkpt>
      <trkpt lat="48.45951" lon="2.66476">
        <ele>102</ele>
        <time>2012-03-31T13:16:59Z</time>
      </trkpt>
      <trkpt lat="48.45942" lon="2.66495">
        <ele>103</ele>
        <time>2012-03-31T13:17:05Z</time>
      </trkpt>
      <trkpt lat="48.4594" lon="2.66498">
        <ele>103</ele>
        <time>2012-03-31T13:17:06Z</time>
      </trkpt>
      <trkpt lat="48.45942" lon="2.6652">
        <ele>103</ele>
        <time>2012-03-31T13:17:11Z</time>
      </trkpt>
      <trkpt lat="48.45938" lon="2.66532">
        <ele>103</ele>
        <time>2012-03-31T13:17:14Z</time>
      </trkpt>
      <trkpt lat="48.45936" lon="2.6654">
        <ele>103</ele>
        <time>2012-03-31T13:17:16Z</time>
      </trkpt>
      <trkpt lat="48.45933" lon="2.66554">
        <ele>104</ele>
        <time>2012-03-31T13:17:20Z</time>
      </trkpt>
      <trkpt lat="48.45934" lon="2.66575">
        <ele>104</ele>
        <time>2012-03-31T13:17:26Z</time>
      </trkpt>
      <trkpt lat="48.45938" lon="2.66594">
        <ele>104</ele>
        <time>2012-03-31T13:17:31Z</time>
      </trkpt>
      <trkpt lat="48.45938" lon="2.66602">
        <ele>104</ele>
        <time>2012-03-31T13:17:33Z</time>
      </trkpt>
      <trkpt lat="48.45935" lon="2.66617">
        <ele>104</ele>
        <time>2012-03-31T13:17:37Z</time>
      </trkpt>
      <trkpt lat="48.45932" lon="2.66624">
        <ele>104</ele>
        <time>2012-03-31T13:17:40Z</time>
      </trkpt>
      <trkpt lat="48.45929" lon="2.66646">
        <ele>105</ele>
        <time>2012-03-31T13:17:46Z</time>
      </trkpt>
      <trkpt lat="48.45928" lon="2.66661">
        <ele>106</ele>
        <time>2012-03-31T13:17:50Z</time>
      </trkpt>
      <trkpt lat="48.45929" lon="2.66662">
        <ele>106</ele>
        <time>2012-03-31T13:17:51Z</time>
      </trkpt>
      <trkpt lat="48.45931" lon="2.66677">
        <ele>105</ele>
        <time>2012-03-31T13:17:56Z</time>
      </trkpt>
      <trkpt lat="48.45926" lon="2.66694">
        <ele>105</ele>
        <time>2012-03-31T13:18:00Z</time>
      </trkpt>
      <trkpt lat="48.45923" lon="2.66716">
        <ele>105</ele>
        <time>2012-03-31T13:18:04Z</time>
      </trkpt>
      <trkpt lat="48.45924" lon="2.66725">
        <ele>105</ele>
        <time>2012-03-31T13:18:06Z</time>
      </trkpt>
      <trkpt lat="48.45922" lon="2.66761">
        <ele>105</ele>
        <time>2012-03-31T13:18:13Z</time>
      </trkpt>
      <trkpt lat="48.45922" lon="2.66766">
        <ele>105</ele>
        <time>2012-03-31T13:18:14Z</time>
      </trkpt>
      <trkpt lat="48.45916" lon="2.66781">
        <ele>107</ele>
        <time>2012-03-31T13:18:20Z</time>
      </trkpt>
      <trkpt lat="48.45909" lon="2.66789">
        <ele>107</ele>
        <time>2012-03-31T13:18:24Z</time>
      </trkpt>
      <trkpt lat="48.45905" lon="2.668">
        <ele>107</ele>
        <time>2012-03-31T13:18:27Z</time>
      </trkpt>
      <trkpt lat="48.45899" lon="2.66805">
        <ele>107</ele>
        <time>2012-03-31T13:18:30Z</time>
      </trkpt>
      <trkpt lat="48.45891" lon="2.6682">
        <ele>107</ele>
        <time>2012-03-31T13:18:35Z</time>
      </trkpt>
      <trkpt lat="48.45889" lon="2.66832">
        <ele>107</ele>
        <time>2012-03-31T13:18:38Z</time>
      </trkpt>
      <trkpt lat="48.4589" lon="2.66856">
        <ele>106</ele>
        <time>2012-03-31T13:18:43Z</time>
      </trkpt>
      <trkpt lat="48.45886" lon="2.66868">
        <ele>107</ele>
        <time>2012-03-31T13:18:45Z</time>
      </trkpt>
      <trkpt lat="48.45881" lon="2.66891">
        <ele>107</ele>
        <time>2012-03-31T13:18:48Z</time>
      </trkpt>
      <trkpt lat="48.45874" lon="2.66906">
        <ele>107</ele>
        <time>2012-03-31T13:18:52Z</time>
      </trkpt>
      <trkpt lat="48.45873" lon="2.66906">
        <ele>107</ele>
        <time>2012-03-31T13:18:53Z</time>
      </trkpt>
      <trkpt lat="48.45869" lon="2.66909">
        <ele>107</ele>
        <time>2012-03-31T13:18:55Z</time>
      </trkpt>
      <trkpt lat="48.45863" lon="2.66916">
        <ele>107</ele>
        <time>2012-03-31T13:19:00Z</time>
      </trkpt>
      <trkpt lat="48.45863" lon="2.6692">
        <ele>107</ele>
        <time>2012-03-31T13:19:01Z</time>
      </trkpt>
      <trkpt lat="48.45862" lon="2.66926">
        <ele>107</ele>
        <time>2012-03-31T13:19:03Z</time>
      </trkpt>
      <trkpt lat="48.45861" lon="2.66929">
        <ele>107</ele>
        <time>2012-03-31T13:19:08Z</time>
      </trkpt>
      <trkpt lat="48.45861" lon="2.66931">
        <ele>107</ele>
        <time>2012-03-31T13:19:13Z</time>
      </trkpt>
      <trkpt lat="48.4587" lon="2.66934">
        <ele>107</ele>
        <time>2012-03-31T13:19:19Z</time>
      </trkpt>
      <trkpt lat="48.45875" lon="2.6695">
        <ele>107</ele>
        <time>2012-03-31T13:19:24Z</time>
      </trkpt>
      <trkpt lat="48.45877" lon="2.66959">
        <ele>107</ele>
        <time>2012-03-31T13:19:26Z</time>
      </trkpt>
      <trkpt lat="48.45878" lon="2.66986">
        <ele>107</ele>
        <time>2012-03-31T13:19:32Z</time>
      </trkpt>
      <trkpt lat="48.45882" lon="2.67012">
        <ele>106</ele>
        <time>2012-03-31T13:19:38Z</time>
      </trkpt>
      <trkpt lat="48.45887" lon="2.67034">
        <ele>106</ele>
        <time>2012-03-31T13:19:43Z</time>
      </trkpt>
      <trkpt lat="48.45897" lon="2.67052">
        <ele>106</ele>
        <time>2012-03-31T13:19:48Z</time>
      </trkpt>
      <trkpt lat="48.45907" lon="2.67066">
        <ele>106</ele>
        <time>2012-03-31T13:19:53Z</time>
      </trkpt>
      <trkpt lat="48.4591" lon="2.67072">
        <ele>106</ele>
        <time>2012-03-31T13:19:56Z</time>
      </trkpt>
      <trkpt lat="48.45916" lon="2.67075">
        <ele>105</ele>
        <time>2012-03-31T13:19:59Z</time>
      </trkpt>
      <trkpt lat="48.45921" lon="2.67074">
        <ele>105</ele>
        <time>2012-03-31T13:20:02Z</time>
      </trkpt>
      <trkpt lat="48.4593" lon="2.6708">
        <ele>105</ele>
        <time>2012-03-31T13:20:07Z</time>
      </trkpt>
      <trkpt lat="48.45942" lon="2.6709">
        <ele>104</ele>
        <time>2012-03-31T13:20:12Z</time>
      </trkpt>
      <trkpt lat="48.4595" lon="2.67093">
        <ele>104</ele>
        <time>2012-03-31T13:20:16Z</time>
      </trkpt>
      <trkpt lat="48.45954" lon="2.67097">
        <ele>104</ele>
        <time>2012-03-31T13:20:21Z</time>
      </trkpt>
      <trkpt lat="48.45964" lon="2.67097">
        <ele>104</ele>
        <time>2012-03-31T13:20:26Z</time>
      </trkpt>
      <trkpt lat="48.45966" lon="2.67112">
        <ele>104</ele>
        <time>2012-03-31T13:20:31Z</time>
      </trkpt>
      <trkpt lat="48.45968" lon="2.67115">
        <ele>104</ele>
        <time>2012-03-31T13:20:32Z</time>
      </trkpt>
      <trkpt lat="48.45973" lon="2.67128">
        <ele>104</ele>
        <time>2012-03-31T13:20:36Z</time>
      </trkpt>
      <trkpt lat="48.45971" lon="2.67157">
        <ele>103</ele>
        <time>2012-03-31T13:20:42Z</time>
      </trkpt>
      <trkpt lat="48.45973" lon="2.67176">
        <ele>103</ele>
        <time>2012-03-31T13:20:47Z</time>
      </trkpt>
      <trkpt lat="48.45973" lon="2.6718">
        <ele>103</ele>
        <time>2012-03-31T13:20:48Z</time>
      </trkpt>
      <trkpt lat="48.45969" lon="2.67201">
        <ele>103</ele>
        <time>2012-03-31T13:20:54Z</time>
      </trkpt>
      <trkpt lat="48.45965" lon="2.67207">
        <ele>103</ele>
        <time>2012-03-31T13:20:57Z</time>
      </trkpt>
      <trkpt lat="48.45964" lon="2.67217">
        <ele>103</ele>
        <time>2012-03-31T13:21:03Z</time>
      </trkpt>
      <trkpt lat="48.45958" lon="2.67223">
        <ele>103</ele>
        <time>2012-03-31T13:21:08Z</time>
      </trkpt>
      <trkpt lat="48.45955" lon="2.67224">
        <ele>103</ele>
        <time>2012-03-31T13:21:09Z</time>
      </trkpt>
      <trkpt lat="48.45948" lon="2.67229">
        <ele>103</ele>
        <time>2012-03-31T13:21:12Z</time>
      </trkpt>
      <trkpt lat="48.45946" lon="2.67236">
        <ele>103</ele>
        <time>2012-03-31T13:21:17Z</time>
      </trkpt>
      <trkpt lat="48.45945" lon="2.67239">
        <ele>103</ele>
        <time>2012-03-31T13:21:25Z</time>
      </trkpt>
      <trkpt lat="48.45946" lon="2.67232">
        <ele>103</ele>
        <time>2012-03-31T13:21:42Z</time>
      </trkpt>
      <trkpt lat="48.45949" lon="2.67227">
        <ele>103</ele>
        <time>2012-03-31T13:21:48Z</time>
      </trkpt>
      <trkpt lat="48.45958" lon="2.67224">
        <ele>103</ele>
        <time>2012-03-31T13:21:53Z</time>
      </trkpt>
      <trkpt lat="48.45967" lon="2.6722">
        <ele>103</ele>
        <time>2012-03-31T13:22:00Z</time>
      </trkpt>
      <trkpt lat="48.45972" lon="2.67227">
        <ele>103</ele>
        <time>2012-03-31T13:22:04Z</time>
      </trkpt>
      <trkpt lat="48.4598" lon="2.67237">
        <ele>103</ele>
        <time>2012-03-31T13:22:09Z</time>
      </trkpt>
      <trkpt lat="48.45983" lon="2.67242">
        <ele>103</ele>
        <time>2012-03-31T13:22:11Z</time>
      </trkpt>
      <trkpt lat="48.45989" lon="2.67247">
        <ele>103</ele>
        <time>2012-03-31T13:22:16Z</time>
      </trkpt>
      <trkpt lat="48.45994" lon="2.67252">
        <ele>103</ele>
        <time>2012-03-31T13:22:20Z</time>
      </trkpt>
      <trkpt lat="48.46001" lon="2.67256">
        <ele>103</ele>
        <time>2012-03-31T13:22:24Z</time>
      </trkpt>
      <trkpt lat="48.46005" lon="2.6726">
        <ele>103</ele>
        <time>2012-03-31T13:22:30Z</time>
      </trkpt>
      <trkpt lat="48.46009" lon="2.67263">
        <ele>103</ele>
        <time>2012-03-31T13:22:32Z</time>
      </trkpt>
      <trkpt lat="48.46017" lon="2.6726">
        <ele>103</ele>
        <time>2012-03-31T13:22:36Z</time>
      </trkpt>
      <trkpt lat="48.46028" lon="2.67264">
        <ele>103</ele>
        <time>2012-03-31T13:22:42Z</time>
      </trkpt>
      <trkpt lat="48.46035" lon="2.67255">
        <ele>103</ele>
        <time>2012-03-31T13:22:46Z</time>
      </trkpt>
      <trkpt lat="48.46037" lon="2.67254">
        <ele>103</ele>
        <time>2012-03-31T13:22:47Z</time>
      </trkpt>
      <trkpt lat="48.46045" lon="2.67265">
        <ele>103</ele>
        <time>2012-03-31T13:22:52Z</time>
      </trkpt>
      <trkpt lat="48.46047" lon="2.6727">
        <ele>103</ele>
        <time>2012-03-31T13:22:54Z</time>
      </trkpt>
      <trkpt lat="48.46059" lon="2.67285">
        <ele>104</ele>
        <time>2012-03-31T13:23:00Z</time>
      </trkpt>
      <trkpt lat="48.46064" lon="2.67287">
        <ele>104</ele>
        <time>2012-03-31T13:23:06Z</time>
      </trkpt>
      <trkpt lat="48.46065" lon="2.6729">
        <ele>104</ele>
        <time>2012-03-31T13:23:09Z</time>
      </trkpt>
      <trkpt lat="48.46069" lon="2.67308">
        <ele>104</ele>
        <time>2012-03-31T13:23:13Z</time>
      </trkpt>
      <trkpt lat="48.46069" lon="2.67335">
        <ele>104</ele>
        <time>2012-03-31T13:23:17Z</time>
      </trkpt>
      <trkpt lat="48.46072" lon="2.67341">
        <ele>104</ele>
        <time>2012-03-31T13:23:19Z</time>
      </trkpt>
      <trkpt lat="48.46072" lon="2.67347">
        <ele>104</ele>
        <time>2012-03-31T13:23:24Z</time>
      </trkpt>
      <trkpt lat="48.4607" lon="2.67346">
        <ele>104</ele>
        <time>2012-03-31T13:23:55Z</time>
      </trkpt>
      <trkpt lat="48.4607" lon="2.67362">
        <ele>103</ele>
        <time>2012-03-31T13:24:01Z</time>
      </trkpt>
      <trkpt lat="48.46065" lon="2.67367">
        <ele>103</ele>
        <time>2012-03-31T13:24:04Z</time>
      </trkpt>
      <trkpt lat="48.46058" lon="2.67367">
        <ele>103</ele>
        <time>2012-03-31T13:24:08Z</time>
      </trkpt>
      <trkpt lat="48.46046" lon="2.67364">
        <ele>103</ele>
        <time>2012-03-31T13:24:14Z</time>
      </trkpt>
      <trkpt lat="48.46035" lon="2.67357">
        <ele>103</ele>
        <time>2012-03-31T13:24:19Z</time>
      </trkpt>
      <trkpt lat="48.46032" lon="2.67356">
        <ele>103</ele>
        <time>2012-03-31T13:24:21Z</time>
      </trkpt>
      <trkpt lat="48.46027" lon="2.67346">
        <ele>103</ele>
        <time>2012-03-31T13:24:25Z</time>
      </trkpt>
      <trkpt lat="48.46018" lon="2.67331">
        <ele>103</ele>
        <time>2012-03-31T13:24:30Z</time>
      </trkpt>
      <trkpt lat="48.4601" lon="2.67324">
        <ele>103</ele>
        <time>2012-03-31T13:24:35Z</time>
      </trkpt>
      <trkpt lat="48.46001" lon="2.67325">
        <ele>103</ele>
        <time>2012-03-31T13:24:40Z</time>
      </trkpt>
      <trkpt lat="48.45998" lon="2.67323">
        <ele>103</ele>
        <time>2012-03-31T13:24:42Z</time>
      </trkpt>
      <trkpt lat="48.45997" lon="2.67313">
        <ele>103</ele>
        <time>2012-03-31T13:24:47Z</time>
      </trkpt>
      <trkpt lat="48.45993" lon="2.67303">
        <ele>103</ele>
        <time>2012-03-31T13:24:52Z</time>
      </trkpt>
      <trkpt lat="48.45987" lon="2.673">
        <ele>103</ele>
        <time>2012-03-31T13:24:56Z</time>
      </trkpt>
      <trkpt lat="48.45984" lon="2.67298">
        <ele>103</ele>
        <time>2012-03-31T13:25:00Z</time>
      </trkpt>
      <trkpt lat="48.45978" lon="2.67311">
        <ele>103</ele>
        <time>2012-03-31T13:25:06Z</time>
      </trkpt>
      <trkpt lat="48.45977" lon="2.67334">
        <ele>102</ele>
        <time>2012-03-31T13:25:11Z</time>
      </trkpt>
      <trkpt lat="48.45977" lon="2.67357">
        <ele>101</ele>
        <time>2012-03-31T13:25:15Z</time>
      </trkpt>
      <trkpt lat="48.45972" lon="2.67371">
        <ele>101</ele>
        <time>2012-03-31T13:25:18Z</time>
      </trkpt>
      <trkpt lat="48.45961" lon="2.67386">
        <ele>101</ele>
        <time>2012-03-31T13:25:23Z</time>
      </trkpt>
      <trkpt lat="48.45952" lon="2.67414">
        <ele>101</ele>
        <time>2012-03-31T13:25:29Z</time>
      </trkpt>
      <trkpt lat="48.4594" lon="2.67427">
        <ele>100</ele>
        <time>2012-03-31T13:25:33Z</time>
      </trkpt>
      <trkpt lat="48.45926" lon="2.67444">
        <ele>100</ele>
        <time>2012-03-31T13:25:38Z</time>
      </trkpt>
      <trkpt lat="48.45912" lon="2.67469">
        <ele>101</ele>
        <time>2012-03-31T13:25:44Z</time>
      </trkpt>
      <trkpt lat="48.459" lon="2.67481">
        <ele>101</ele>
        <time>2012-03-31T13:25:48Z</time>
      </trkpt>
      <trkpt lat="48.45894" lon="2.67495">
        <ele>101</ele>
        <time>2012-03-31T13:25:53Z</time>
      </trkpt>
      <trkpt lat="48.45884" lon="2.67517">
        <ele>102</ele>
        <time>2012-03-31T13:25:58Z</time>
      </trkpt>
      <trkpt lat="48.45874" lon="2.67553">
        <ele>102</ele>
        <time>2012-03-31T13:26:04Z</time>
      </trkpt>
      <trkpt lat="48.45871" lon="2.67565">
        <ele>102</ele>
        <time>2012-03-31T13:26:06Z</time>
      </trkpt>
      <trkpt lat="48.45868" lon="2.67576">
        <ele>102</ele>
        <time>2012-03-31T13:26:08Z</time>
      </trkpt>
      <trkpt lat="48.45863" lon="2.67611">
        <ele>103</ele>
        <time>2012-03-31T13:26:14Z</time>
      </trkpt>
      <trkpt lat="48.45857" lon="2.67632">
        <ele>103</ele>
        <time>2012-03-31T13:26:19Z</time>
      </trkpt>
      <trkpt lat="48.45858" lon="2.6765">
        <ele>103</ele>
        <time>2012-03-31T13:26:24Z</time>
      </trkpt>
      <trkpt lat="48.45862" lon="2.67667">
        <ele>103</ele>
        <time>2012-03-31T13:26:29Z</time>
      </trkpt>
      <trkpt lat="48.45864" lon="2.67678">
        <ele>103</ele>
        <time>2012-03-31T13:26:32Z</time>
      </trkpt>
      <trkpt lat="48.45873" lon="2.67687">
        <ele>103</ele>
        <time>2012-03-31T13:26:36Z</time>
      </trkpt>
      <trkpt lat="48.45881" lon="2.67694">
        <ele>103</ele>
        <time>2012-03-31T13:26:38Z</time>
      </trkpt>
      <trkpt lat="48.45882" lon="2.67706">
        <ele>102</ele>
        <time>2012-03-31T13:26:41Z</time>
      </trkpt>
      <trkpt lat="48.45875" lon="2.67718">
        <ele>102</ele>
        <time>2012-03-31T13:26:44Z</time>
      </trkpt>
      <trkpt lat="48.4587" lon="2.67726">
        <ele>102</ele>
        <time>2012-03-31T13:26:46Z</time>
      </trkpt>
      <trkpt lat="48.45858" lon="2.67733">
        <ele>103</ele>
        <time>2012-03-31T13:26:50Z</time>
      </trkpt>
      <trkpt lat="48.45856" lon="2.67748">
        <ele>103</ele>
        <time>2012-03-31T13:26:54Z</time>
      </trkpt>
      <trkpt lat="48.45866" lon="2.67769">
        <ele>100</ele>
        <time>2012-03-31T13:26:59Z</time>
      </trkpt>
      <trkpt lat="48.45872" lon="2.67778">
        <ele>100</ele>
        <time>2012-03-31T13:27:01Z</time>
      </trkpt>
      <trkpt lat="48.45878" lon="2.67822">
        <ele>99</ele>
        <time>2012-03-31T13:27:05Z</time>
      </trkpt>
      <trkpt lat="48.45891" lon="2.67864">
        <ele>97</ele>
        <time>2012-03-31T13:27:11Z</time>
      </trkpt>
      <trkpt lat="48.459" lon="2.6789">
        <ele>98</ele>
        <time>2012-03-31T13:27:17Z</time>
      </trkpt>
      <trkpt lat="48.45905" lon="2.67919">
        <ele>99</ele>
        <time>2012-03-31T13:27:24Z</time>
      </trkpt>
      <trkpt lat="48.45912" lon="2.67942">
        <ele>99</ele>
        <time>2012-03-31T13:27:31Z</time>
      </trkpt>
      <trkpt lat="48.45917" lon="2.67951">
        <ele>100</ele>
        <time>2012-03-31T13:27:37Z</time>
      </trkpt>
      <trkpt lat="48.45918" lon="2.67952">
        <ele>100</ele>
        <time>2012-03-31T13:27:38Z</time>
      </trkpt>
      <trkpt lat="48.45926" lon="2.67961">
        <ele>100</ele>
        <time>2012-03-31T13:27:43Z</time>
      </trkpt>
      <trkpt lat="48.45931" lon="2.67976">
        <ele>101</ele>
        <time>2012-03-31T13:27:48Z</time>
      </trkpt>
      <trkpt lat="48.4593" lon="2.67987">
        <ele>101</ele>
        <time>2012-03-31T13:27:52Z</time>
      </trkpt>
      <trkpt lat="48.45932" lon="2.68">
        <ele>103</ele>
        <time>2012-03-31T13:27:57Z</time>
      </trkpt>
      <trkpt lat="48.45932" lon="2.68015">
        <ele>103</ele>
        <time>2012-03-31T13:28:01Z</time>
      </trkpt>
      <trkpt lat="48.45933" lon="2.68021">
        <ele>103</ele>
        <time>2012-03-31T13:28:03Z</time>
      </trkpt>
      <trkpt lat="48.4593" lon="2.68033">
        <ele>103</ele>
        <time>2012-03-31T13:28:08Z</time>
      </trkpt>
      <trkpt lat="48.4593" lon="2.68038">
        <ele>103</ele>
        <time>2012-03-31T13:28:09Z</time>
      </trkpt>
      <trkpt lat="48.45925" lon="2.68063">
        <ele>104</ele>
        <time>2012-03-31T13:28:14Z</time>
      </trkpt>
      <trkpt lat="48.45923" lon="2.6809">
        <ele>105</ele>
        <time>2012-03-31T13:28:19Z</time>
      </trkpt>
      <trkpt lat="48.45926" lon="2.68101">
        <ele>105</ele>
        <time>2012-03-31T13:28:21Z</time>
      </trkpt>
      <trkpt lat="48.45931" lon="2.68127">
        <ele>104</ele>
        <time>2012-03-31T13:28:25Z</time>
      </trkpt>
      <trkpt lat="48.45933" lon="2.68151">
        <ele>105</ele>
        <time>2012-03-31T13:28:30Z</time>
      </trkpt>
      <trkpt lat="48.45937" lon="2.68167">
        <ele>104</ele>
        <time>2012-03-31T13:28:34Z</time>
      </trkpt>
      <trkpt lat="48.45943" lon="2.68181">
        <ele>103</ele>
        <time>2012-03-31T13:28:39Z</time>
      </trkpt>
      <trkpt lat="48.45949" lon="2.68188">
        <ele>103</ele>
        <time>2012-03-31T13:28:41Z</time>
      </trkpt>
      <trkpt lat="48.45964" lon="2.68194">
        <ele>102</ele>
        <time>2012-03-31T13:28:44Z</time>
      </trkpt>
      <trkpt lat="48.45986" lon="2.68211">
        <ele>101</ele>
        <time>2012-03-31T13:28:48Z</time>
      </trkpt>
      <trkpt lat="48.45999" lon="2.68225">
        <ele>100</ele>
        <time>2012-03-31T13:28:51Z</time>
      </trkpt>
      <trkpt lat="48.46022" lon="2.68246">
        <ele>95</ele>
        <time>2012-03-31T13:28:56Z</time>
      </trkpt>
      <trkpt lat="48.46037" lon="2.68261">
        <ele>93</ele>
        <time>2012-03-31T13:29:01Z</time>
      </trkpt>
      <trkpt lat="48.46045" lon="2.68268">
        <ele>92</ele>
        <time>2012-03-31T13:29:05Z</time>
      </trkpt>
      <trkpt lat="48.46056" lon="2.68291">
        <ele>92</ele>
        <time>2012-03-31T13:29:12Z</time>
      </trkpt>
      <trkpt lat="48.46064" lon="2.68301">
        <ele>92</ele>
        <time>2012-03-31T13:29:15Z</time>
      </trkpt>
      <trkpt lat="48.46067" lon="2.68316">
        <ele>92</ele>
        <time>2012-03-31T13:29:19Z</time>
      </trkpt>
      <trkpt lat="48.46065" lon="2.68332">
        <ele>92</ele>
        <time>2012-03-31T13:29:23Z</time>
      </trkpt>
      <trkpt lat="48.46062" lon="2.68347">
        <ele>91</ele>
        <time>2012-03-31T13:29:27Z</time>
      </trkpt>
      <trkpt lat="48.46056" lon="2.68384">
        <ele>91</ele>
        <time>2012-03-31T13:29:34Z</time>
      </trkpt>
      <trkpt lat="48.46051" lon="2.68425">
        <ele>91</ele>
        <time>2012-03-31T13:29:41Z</time>
      </trkpt>
      <trkpt lat="48.46047" lon="2.68455">
        <ele>91</ele>
        <time>2012-03-31T13:29:46Z</time>
      </trkpt>
      <trkpt lat="48.46045" lon="2.68479">
        <ele>91</ele>
        <time>2012-03-31T13:29:50Z</time>
      </trkpt>
      <trkpt lat="48.46039" lon="2.68522">
        <ele>90</ele>
        <time>2012-03-31T13:29:57Z</time>
      </trkpt>
      <trkpt lat="48.46029" lon="2.68572">
        <ele>90</ele>
        <time>2012-03-31T13:30:05Z</time>
      </trkpt>
      <trkpt lat="48.46024" lon="2.68608">
        <ele>91</ele>
        <time>2012-03-31T13:30:11Z</time>
      </trkpt>
      <trkpt lat="48.46017" lon="2.68646">
        <ele>91</ele>
        <time>2012-03-31T13:30:17Z</time>
      </trkpt>
      <trkpt lat="48.46011" lon="2.68684">
        <ele>92</ele>
        <time>2012-03-31T13:30:23Z</time>
      </trkpt>
      <trkpt lat="48.46005" lon="2.68729">
        <ele>93</ele>
        <time>2012-03-31T13:30:30Z</time>
      </trkpt>
      <trkpt lat="48.46004" lon="2.68735">
        <ele>93</ele>
        <time>2012-03-31T13:30:31Z</time>
      </trkpt>
      <trkpt lat="48.46" lon="2.68761">
        <ele>93</ele>
        <time>2012-03-31T13:30:35Z</time>
      </trkpt>
      <trkpt lat="48.45997" lon="2.68787">
        <ele>93</ele>
        <time>2012-03-31T13:30:39Z</time>
      </trkpt>
      <trkpt lat="48.45995" lon="2.68805">
        <ele>93</ele>
        <time>2012-03-31T13:30:42Z</time>
      </trkpt>
      <trkpt lat="48.4599" lon="2.68852">
        <ele>93</ele>
        <time>2012-03-31T13:30:50Z</time>
      </trkpt>
      <trkpt lat="48.45985" lon="2.68881">
        <ele>92</ele>
        <time>2012-03-31T13:30:55Z</time>
      </trkpt>
      <trkpt lat="48.45979" lon="2.68914">
        <ele>92</ele>
        <time>2012-03-31T13:31:01Z</time>
      </trkpt>
      <trkpt lat="48.45968" lon="2.68919">
        <ele>92</ele>
        <time>2012-03-31T13:31:06Z</time>
      </trkpt>
      <trkpt lat="48.45964" lon="2.68919">
        <ele>91</ele>
        <time>2012-03-31T13:31:11Z</time>
      </trkpt>
      <trkpt lat="48.45946" lon="2.68917">
        <ele>91</ele>
        <time>2012-03-31T13:31:17Z</time>
      </trkpt>
      <trkpt lat="48.45934" lon="2.68918">
        <ele>91</ele>
        <time>2012-03-31T13:31:20Z</time>
      </trkpt>
      <trkpt lat="48.45901" lon="2.68917">
        <ele>92</ele>
        <time>2012-03-31T13:31:28Z</time>
      </trkpt>
      <trkpt lat="48.45887" lon="2.68917">
        <ele>93</ele>
        <time>2012-03-31T13:31:32Z</time>
      </trkpt>
      <trkpt lat="48.45867" lon="2.68919">
        <ele>94</ele>
        <time>2012-03-31T13:31:39Z</time>
      </trkpt>
      <trkpt lat="48.45853" lon="2.68917">
        <ele>95</ele>
        <time>2012-03-31T13:31:46Z</time>
      </trkpt>
      <trkpt lat="48.45846" lon="2.6892">
        <ele>95</ele>
        <time>2012-03-31T13:31:51Z</time>
      </trkpt>
      <trkpt lat="48.45842" lon="2.68922">
        <ele>96</ele>
        <time>2012-03-31T13:31:57Z</time>
      </trkpt>
      <trkpt lat="48.45838" lon="2.68921">
        <ele>96</ele>
        <time>2012-03-31T13:32:03Z</time>
      </trkpt>
      <trkpt lat="48.45834" lon="2.68923">
        <ele>96</ele>
        <time>2012-03-31T13:32:10Z</time>
      </trkpt>
      <trkpt lat="48.45835" lon="2.68925">
        <ele>96</ele>
        <time>2012-03-31T13:32:18Z</time>
      </trkpt>
      <trkpt lat="48.45833" lon="2.68929">
        <ele>97</ele>
        <time>2012-03-31T13:32:23Z</time>
      </trkpt>
      <trkpt lat="48.4583" lon="2.68935">
        <ele>97</ele>
        <time>2012-03-31T13:32:28Z</time>
      </trkpt>
      <trkpt lat="48.45828" lon="2.68935">
        <ele>97</ele>
        <time>2012-03-31T13:32:30Z</time>
      </trkpt>
      <trkpt lat="48.45827" lon="2.68937">
        <ele>97</ele>
        <time>2012-03-31T13:32:32Z</time>
      </trkpt>
      <trkpt lat="48.45818" lon="2.68932">
        <ele>97</ele>
        <time>2012-03-31T13:32:38Z</time>
      </trkpt>
      <trkpt lat="48.45814" lon="2.68932">
        <ele>97</ele>
        <time>2012-03-31T13:32:40Z</time>
      </trkpt>
      <trkpt lat="48.45809" lon="2.6893">
        <ele>97</ele>
        <time>2012-03-31T13:32:43Z</time>
      </trkpt>
      <trkpt lat="48.45802" lon="2.68935">
        <ele>97</ele>
        <time>2012-03-31T13:32:48Z</time>
      </trkpt>
      <trkpt lat="48.45801" lon="2.68941">
        <ele>97</ele>
        <time>2012-03-31T13:32:53Z</time>
      </trkpt>
      <trkpt lat="48.45798" lon="2.68945">
        <ele>97</ele>
        <time>2012-03-31T13:33:00Z</time>
      </trkpt>
      <trkpt lat="48.45798" lon="2.68946">
        <ele>97</ele>
        <time>2012-03-31T13:33:06Z</time>
      </trkpt>
      <trkpt lat="48.45791" lon="2.68955">
        <ele>97</ele>
        <time>2012-03-31T13:33:10Z</time>
      </trkpt>
      <trkpt lat="48.45777" lon="2.68971">
        <ele>97</ele>
        <time>2012-03-31T13:33:14Z</time>
      </trkpt>
      <trkpt lat="48.45759" lon="2.68992">
        <ele>97</ele>
        <time>2012-03-31T13:33:19Z</time>
      </trkpt>
      <trkpt lat="48.45754" lon="2.68995">
        <ele>98</ele>
        <time>2012-03-31T13:33:20Z</time>
      </trkpt>
      <trkpt lat="48.45731" lon="2.68992">
        <ele>98</ele>
        <time>2012-03-31T13:33:25Z</time>
      </trkpt>
      <trkpt lat="48.45726" lon="2.68988">
        <ele>98</ele>
        <time>2012-03-31T13:33:26Z</time>
      </trkpt>
      <trkpt lat="48.45686" lon="2.68967">
        <ele>98</ele>
        <time>2012-03-31T13:33:33Z</time>
      </trkpt>
      <trkpt lat="48.45676" lon="2.68966">
        <ele>99</ele>
        <time>2012-03-31T13:33:36Z</time>
      </trkpt>
      <trkpt lat="48.45667" lon="2.68975">
        <ele>99</ele>
        <time>2012-03-31T13:33:40Z</time>
      </trkpt>
      <trkpt lat="48.45653" lon="2.68978">
        <ele>99</ele>
        <time>2012-03-31T13:33:44Z</time>
      </trkpt>
      <trkpt lat="48.45639" lon="2.68993">
        <ele>99</ele>
        <time>2012-03-31T13:33:49Z</time>
      </trkpt>
      <trkpt lat="48.45624" lon="2.69003">
        <ele>99</ele>
        <time>2012-03-31T13:33:53Z</time>
      </trkpt>
      <trkpt lat="48.45601" lon="2.69019">
        <ele>99</ele>
        <time>2012-03-31T13:33:59Z</time>
      </trkpt>
      <trkpt lat="48.4559" lon="2.69033">
        <ele>99</ele>
        <time>2012-03-31T13:34:03Z</time>
      </trkpt>
      <trkpt lat="48.45584" lon="2.69053">
        <ele>99</ele>
        <time>2012-03-31T13:34:07Z</time>
      </trkpt>
      <trkpt lat="48.45578" lon="2.69069">
        <ele>99</ele>
        <time>2012-03-31T13:34:10Z</time>
      </trkpt>
      <trkpt lat="48.45564" lon="2.69109">
        <ele>98</ele>
        <time>2012-03-31T13:34:17Z</time>
      </trkpt>
      <trkpt lat="48.45548" lon="2.69116">
        <ele>99</ele>
        <time>2012-03-31T13:34:22Z</time>
      </trkpt>
      <trkpt lat="48.45539" lon="2.69117">
        <ele>99</ele>
        <time>2012-03-31T13:34:25Z</time>
      </trkpt>
      <trkpt lat="48.45536" lon="2.69116">
        <ele>99</ele>
        <time>2012-03-31T13:34:26Z</time>
      </trkpt>
      <trkpt lat="48.45521" lon="2.6911">
        <ele>99</ele>
        <time>2012-03-31T13:34:31Z</time>
      </trkpt>
      <trkpt lat="48.45517" lon="2.69109">
        <ele>99</ele>
        <time>2012-03-31T13:34:32Z</time>
      </trkpt>
      <trkpt lat="48.45498" lon="2.69098">
        <ele>101</ele>
        <time>2012-03-31T13:34:36Z</time>
      </trkpt>
      <trkpt lat="48.45484" lon="2.69094">
        <ele>101</ele>
        <time>2012-03-31T13:34:39Z</time>
      </trkpt>
      <trkpt lat="48.45459" lon="2.69079">
        <ele>102</ele>
        <time>2012-03-31T13:34:45Z</time>
      </trkpt>
      <trkpt lat="48.45445" lon="2.69076">
        <ele>102</ele>
        <time>2012-03-31T13:34:48Z</time>
      </trkpt>
      <trkpt lat="48.45424" lon="2.69066">
        <ele>102</ele>
        <time>2012-03-31T13:34:54Z</time>
      </trkpt>
      <trkpt lat="48.45415" lon="2.69058">
        <ele>102</ele>
        <time>2012-03-31T13:34:59Z</time>
      </trkpt>
      <trkpt lat="48.45406" lon="2.69055">
        <ele>102</ele>
        <time>2012-03-31T13:35:04Z</time>
      </trkpt>
      <trkpt lat="48.45405" lon="2.69055">
        <ele>102</ele>
        <time>2012-03-31T13:35:05Z</time>
      </trkpt>
      <trkpt lat="48.45396" lon="2.69049">
        <ele>102</ele>
        <time>2012-03-31T13:35:11Z</time>
      </trkpt>
      <trkpt lat="48.45387" lon="2.69042">
        <ele>101</ele>
        <time>2012-03-31T13:35:15Z</time>
      </trkpt>
      <trkpt lat="48.45386" lon="2.69042">
        <ele>101</ele>
        <time>2012-03-31T13:35:16Z</time>
      </trkpt>
      <trkpt lat="48.45384" lon="2.69041">
        <ele>101</ele>
        <time>2012-03-31T13:35:18Z</time>
      </trkpt>
      <trkpt lat="48.45375" lon="2.69034">
        <ele>101</ele>
        <time>2012-03-31T13:35:22Z</time>
      </trkpt>
      <trkpt lat="48.45342" lon="2.69014">
        <ele>101</ele>
        <time>2012-03-31T13:35:28Z</time>
      </trkpt>
      <trkpt lat="48.45316" lon="2.69005">
        <ele>101</ele>
        <time>2012-03-31T13:35:32Z</time>
      </trkpt>
      <trkpt lat="48.4531" lon="2.69001">
        <ele>101</ele>
        <time>2012-03-31T13:35:35Z</time>
      </trkpt>
      <trkpt lat="48.45306" lon="2.68995">
        <ele>102</ele>
        <time>2012-03-31T13:35:39Z</time>
      </trkpt>
      <trkpt lat="48.45302" lon="2.68987">
        <ele>102</ele>
        <time>2012-03-31T13:35:46Z</time>
      </trkpt>
      <trkpt lat="48.45299" lon="2.68983">
        <ele>102</ele>
        <time>2012-03-31T13:35:52Z</time>
      </trkpt>
      <trkpt lat="48.45294" lon="2.68975">
        <ele>103</ele>
        <time>2012-03-31T13:35:58Z</time>
      </trkpt>
      <trkpt lat="48.45285" lon="2.68962">
        <ele>103</ele>
        <time>2012-03-31T13:36:02Z</time>
      </trkpt>
      <trkpt lat="48.45265" lon="2.68941">
        <ele>105</ele>
        <time>2012-03-31T13:36:07Z</time>
      </trkpt>
      <trkpt lat="48.45256" lon="2.68934">
        <ele>105</ele>
        <time>2012-03-31T13:36:11Z</time>
      </trkpt>
      <trkpt lat="48.45243" lon="2.68922">
        <ele>107</ele>
        <time>2012-03-31T13:36:17Z</time>
      </trkpt>
      <trkpt lat="48.45236" lon="2.68918">
        <ele>107</ele>
        <time>2012-03-31T13:36:23Z</time>
      </trkpt>
      <trkpt lat="48.45229" lon="2.68916">
        <ele>109</ele>
        <time>2012-03-31T13:36:29Z</time>
      </trkpt>
      <trkpt lat="48.45221" lon="2.68915">
        <ele>109</ele>
        <time>2012-03-31T13:36:36Z</time>
      </trkpt>
      <trkpt lat="48.45215" lon="2.68914">
        <ele>110</ele>
        <time>2012-03-31T13:36:41Z</time>
      </trkpt>
      <trkpt lat="48.45211" lon="2.68914">
        <ele>110</ele>
        <time>2012-03-31T13:36:45Z</time>
      </trkpt>
      <trkpt lat="48.45201" lon="2.68928">
        <ele>107</ele>
        <time>2012-03-31T13:36:51Z</time>
      </trkpt>
      <trkpt lat="48.45196" lon="2.6894">
        <ele>107</ele>
        <time>2012-03-31T13:36:53Z</time>
      </trkpt>
      <trkpt lat="48.45189" lon="2.68959">
        <ele>106</ele>
        <time>2012-03-31T13:36:56Z</time>
      </trkpt>
      <trkpt lat="48.45176" lon="2.6898">
        <ele>105</ele>
        <time>2012-03-31T13:36:59Z</time>
      </trkpt>
      <trkpt lat="48.45161" lon="2.68996">
        <ele>103</ele>
        <time>2012-03-31T13:37:01Z</time>
      </trkpt>
      <trkpt lat="48.45132" lon="2.69044">
        <ele>102</ele>
        <time>2012-03-31T13:37:06Z</time>
      </trkpt>
      <trkpt lat="48.45119" lon="2.69056">
        <ele>101</ele>
        <time>2012-03-31T13:37:08Z</time>
      </trkpt>
      <trkpt lat="48.45108" lon="2.69072">
        <ele>101</ele>
        <time>2012-03-31T13:37:10Z</time>
      </trkpt>
      <trkpt lat="48.451" lon="2.69109">
        <ele>101</ele>
        <time>2012-03-31T13:37:14Z</time>
      </trkpt>
      <trkpt lat="48.45104" lon="2.69141">
        <ele>100</ele>
        <time>2012-03-31T13:37:19Z</time>
      </trkpt>
      <trkpt lat="48.45103" lon="2.69146">
        <ele>100</ele>
        <time>2012-03-31T13:37:20Z</time>
      </trkpt>
      <trkpt lat="48.45087" lon="2.69162">
        <ele>100</ele>
        <time>2012-03-31T13:37:25Z</time>
      </trkpt>
      <trkpt lat="48.45084" lon="2.69162">
        <ele>100</ele>
        <time>2012-03-31T13:37:26Z</time>
      </trkpt>
      <trkpt lat="48.45067" lon="2.69172">
        <ele>99</ele>
        <time>2012-03-31T13:37:31Z</time>
      </trkpt>
      <trkpt lat="48.4506" lon="2.69174">
        <ele>98</ele>
        <time>2012-03-31T13:37:33Z</time>
      </trkpt>
      <trkpt lat="48.45035" lon="2.69184">
        <ele>97</ele>
        <time>2012-03-31T13:37:38Z</time>
      </trkpt>
      <trkpt lat="48.45015" lon="2.692">
        <ele>97</ele>
        <time>2012-03-31T13:37:43Z</time>
      </trkpt>
      <trkpt lat="48.45002" lon="2.69205">
        <ele>97</ele>
        <time>2012-03-31T13:37:46Z</time>
      </trkpt>
      <trkpt lat="48.44992" lon="2.69212">
        <ele>93</ele>
        <time>2012-03-31T13:37:48Z</time>
      </trkpt>
      <trkpt lat="48.44978" lon="2.69233">
        <ele>93</ele>
        <time>2012-03-31T13:37:52Z</time>
      </trkpt>
      <trkpt lat="48.4497" lon="2.69251">
        <ele>90</ele>
        <time>2012-03-31T13:37:55Z</time>
      </trkpt>
      <trkpt lat="48.44959" lon="2.69274">
        <ele>89</ele>
        <time>2012-03-31T13:37:59Z</time>
      </trkpt>
      <trkpt lat="48.4495" lon="2.69284">
        <ele>88</ele>
        <time>2012-03-31T13:38:02Z</time>
      </trkpt>
      <trkpt lat="48.44948" lon="2.69285">
        <ele>88</ele>
        <time>2012-03-31T13:38:05Z</time>
      </trkpt>
      <trkpt lat="48.44948" lon="2.69284">
        <ele>88</ele>
        <time>2012-03-31T13:38:59Z</time>
      </trkpt>
      <trkpt lat="48.44945" lon="2.6929">
        <ele>88</ele>
        <time>2012-03-31T13:39:14Z</time>
      </trkpt>
      <trkpt lat="48.44936" lon="2.69307">
        <ele>87</ele>
        <time>2012-03-31T13:39:19Z</time>
      </trkpt>
      <trkpt lat="48.44926" lon="2.6932">
        <ele>86</ele>
        <time>2012-03-31T13:39:23Z</time>
      </trkpt>
      <trkpt lat="48.44906" lon="2.69339">
        <ele>86</ele>
        <time>2012-03-31T13:39:28Z</time>
      </trkpt>
      <trkpt lat="48.44883" lon="2.69351">
        <ele>87</ele>
        <time>2012-03-31T13:39:33Z</time>
      </trkpt>
      <trkpt lat="48.4485" lon="2.69357">
        <ele>87</ele>
        <time>2012-03-31T13:39:40Z</time>
      </trkpt>
      <trkpt lat="48.44832" lon="2.69365">
        <ele>90</ele>
        <time>2012-03-31T13:39:44Z</time>
      </trkpt>
      <trkpt lat="48.44827" lon="2.69366">
        <ele>90</ele>
        <time>2012-03-31T13:39:45Z</time>
      </trkpt>
      <trkpt lat="48.44817" lon="2.69371">
        <ele>91</ele>
        <time>2012-03-31T13:39:47Z</time>
      </trkpt>
      <trkpt lat="48.44792" lon="2.69376">
        <ele>91</ele>
        <time>2012-03-31T13:39:52Z</time>
      </trkpt>
      <trkpt lat="48.44779" lon="2.69374">
        <ele>92</ele>
        <time>2012-03-31T13:39:55Z</time>
      </trkpt>
      <trkpt lat="48.44767" lon="2.69364">
        <ele>92</ele>
        <time>2012-03-31T13:39:58Z</time>
      </trkpt>
      <trkpt lat="48.44751" lon="2.69364">
        <ele>93</ele>
        <time>2012-03-31T13:40:02Z</time>
      </trkpt>
      <trkpt lat="48.44744" lon="2.6937">
        <ele>96</ele>
        <time>2012-03-31T13:40:04Z</time>
      </trkpt>
      <trkpt lat="48.44734" lon="2.69374">
        <ele>96</ele>
        <time>2012-03-31T13:40:06Z</time>
      </trkpt>
      <trkpt lat="48.44718" lon="2.6939">
        <ele>96</ele>
        <time>2012-03-31T13:40:11Z</time>
      </trkpt>
      <trkpt lat="48.44702" lon="2.69394">
        <ele>96</ele>
        <time>2012-03-31T13:40:16Z</time>
      </trkpt>
      <trkpt lat="48.44683" lon="2.69384">
        <ele>97</ele>
        <time>2012-03-31T13:40:21Z</time>
      </trkpt>
      <trkpt lat="48.44665" lon="2.69373">
        <ele>97</ele>
        <time>2012-03-31T13:40:26Z</time>
      </trkpt>
      <trkpt lat="48.44651" lon="2.69356">
        <ele>97</ele>
        <time>2012-03-31T13:40:30Z</time>
      </trkpt>
      <trkpt lat="48.44635" lon="2.69338">
        <ele>97</ele>
        <time>2012-03-31T13:40:34Z</time>
      </trkpt>
      <trkpt lat="48.44618" lon="2.69323">
        <ele>97</ele>
        <time>2012-03-31T13:40:38Z</time>
      </trkpt>
      <trkpt lat="48.446" lon="2.6932">
        <ele>97</ele>
        <time>2012-03-31T13:40:42Z</time>
      </trkpt>
      <trkpt lat="48.44596" lon="2.69324">
        <ele>97</ele>
        <time>2012-03-31T13:40:43Z</time>
      </trkpt>
      <trkpt lat="48.44576" lon="2.69338">
        <ele>96</ele>
        <time>2012-03-31T13:40:48Z</time>
      </trkpt>
      <trkpt lat="48.44562" lon="2.69353">
        <ele>97</ele>
        <time>2012-03-31T13:40:53Z</time>
      </trkpt>
      <trkpt lat="48.44557" lon="2.69366">
        <ele>97</ele>
        <time>2012-03-31T13:40:56Z</time>
      </trkpt>
      <trkpt lat="48.44551" lon="2.69384">
        <ele>97</ele>
        <time>2012-03-31T13:41:00Z</time>
      </trkpt>
      <trkpt lat="48.44544" lon="2.69398">
        <ele>97</ele>
        <time>2012-03-31T13:41:03Z</time>
      </trkpt>
      <trkpt lat="48.44524" lon="2.69417">
        <ele>98</ele>
        <time>2012-03-31T13:41:08Z</time>
      </trkpt>
      <trkpt lat="48.44506" lon="2.69447">
        <ele>98</ele>
        <time>2012-03-31T13:41:14Z</time>
      </trkpt>
      <trkpt lat="48.44491" lon="2.69467">
        <ele>99</ele>
        <time>2012-03-31T13:41:18Z</time>
      </trkpt>
      <trkpt lat="48.44483" lon="2.69474">
        <ele>99</ele>
        <time>2012-03-31T13:41:20Z</time>
      </trkpt>
      <trkpt lat="48.44471" lon="2.69478">
        <ele>99</ele>
        <time>2012-03-31T13:41:23Z</time>
      </trkpt>
      <trkpt lat="48.4445" lon="2.69478">
        <ele>98</ele>
        <time>2012-03-31T13:41:28Z</time>
      </trkpt>
      <trkpt lat="48.44427" lon="2.69466">
        <ele>98</ele>
        <time>2012-03-31T13:41:34Z</time>
      </trkpt>
      <trkpt lat="48.44404" lon="2.69448">
        <ele>97</ele>
        <time>2012-03-31T13:41:39Z</time>
      </trkpt>
      <trkpt lat="48.44395" lon="2.69438">
        <ele>97</ele>
        <time>2012-03-31T13:41:41Z</time>
      </trkpt>
      <trkpt lat="48.44375" lon="2.69434">
        <ele>97</ele>
        <time>2012-03-31T13:41:45Z</time>
      </trkpt>
      <trkpt lat="48.44364" lon="2.6943">
        <ele>96</ele>
        <time>2012-03-31T13:41:48Z</time>
      </trkpt>
      <trkpt lat="48.4436" lon="2.6942">
        <ele>96</ele>
        <time>2012-03-31T13:41:50Z</time>
      </trkpt>
      <trkpt lat="48.44349" lon="2.69381">
        <ele>96</ele>
        <time>2012-03-31T13:41:58Z</time>
      </trkpt>
      <trkpt lat="48.44344" lon="2.69373">
        <ele>96</ele>
        <time>2012-03-31T13:42:01Z</time>
      </trkpt>
      <trkpt lat="48.44331" lon="2.69373">
        <ele>93</ele>
        <time>2012-03-31T13:42:08Z</time>
      </trkpt>
      <trkpt lat="48.44313" lon="2.6938">
        <ele>93</ele>
        <time>2012-03-31T13:42:16Z</time>
      </trkpt>
      <trkpt lat="48.4429" lon="2.69388">
        <ele>93</ele>
        <time>2012-03-31T13:42:23Z</time>
      </trkpt>
      <trkpt lat="48.44257" lon="2.69399">
        <ele>93</ele>
        <time>2012-03-31T13:42:32Z</time>
      </trkpt>
      <trkpt lat="48.44222" lon="2.69411">
        <ele>91</ele>
        <time>2012-03-31T13:42:41Z</time>
      </trkpt>
      <trkpt lat="48.44188" lon="2.69422">
        <ele>93</ele>
        <time>2012-03-31T13:42:50Z</time>
      </trkpt>
      <trkpt lat="48.44157" lon="2.69433">
        <ele>92</ele>
        <time>2012-03-31T13:42:58Z</time>
      </trkpt>
      <trkpt lat="48.4412" lon="2.69445">
        <ele>92</ele>
        <time>2012-03-31T13:43:08Z</time>
      </trkpt>
      <trkpt lat="48.44099" lon="2.69453">
        <ele>92</ele>
        <time>2012-03-31T13:43:15Z</time>
      </trkpt>
      <trkpt lat="48.44089" lon="2.6946">
        <ele>92</ele>
        <time>2012-03-31T13:43:19Z</time>
      </trkpt>
      <trkpt lat="48.44086" lon="2.69487">
        <ele>91</ele>
        <time>2012-03-31T13:43:25Z</time>
      </trkpt>
      <trkpt lat="48.44084" lon="2.69513">
        <ele>91</ele>
        <time>2012-03-31T13:43:30Z</time>
      </trkpt>
      <trkpt lat="48.44079" lon="2.69547">
        <ele>90</ele>
        <time>2012-03-31T13:43:36Z</time>
      </trkpt>
      <trkpt lat="48.44078" lon="2.69567">
        <ele>89</ele>
        <time>2012-03-31T13:43:40Z</time>
      </trkpt>
      <trkpt lat="48.44074" lon="2.69594">
        <ele>89</ele>
        <time>2012-03-31T13:43:45Z</time>
      </trkpt>
      <trkpt lat="48.4407" lon="2.69626">
        <ele>90</ele>
        <time>2012-03-31T13:43:51Z</time>
      </trkpt>
      <trkpt lat="48.44068" lon="2.69653">
        <ele>90</ele>
        <time>2012-03-31T13:43:56Z</time>
      </trkpt>
      <trkpt lat="48.44063" lon="2.69697">
        <ele>91</ele>
        <time>2012-03-31T13:44:04Z</time>
      </trkpt>
      <trkpt lat="48.44059" lon="2.69735">
        <ele>91</ele>
        <time>2012-03-31T13:44:11Z</time>
      </trkpt>
      <trkpt lat="48.44052" lon="2.69776">
        <ele>95</ele>
        <time>2012-03-31T13:44:19Z</time>
      </trkpt>
      <trkpt lat="48.44044" lon="2.69786">
        <ele>96</ele>
        <time>2012-03-31T13:44:23Z</time>
      </trkpt>
      <trkpt lat="48.44041" lon="2.69786">
        <ele>96</ele>
        <time>2012-03-31T13:44:24Z</time>
      </trkpt>
      <trkpt lat="48.44016" lon="2.6978">
        <ele>96</ele>
        <time>2012-03-31T13:44:31Z</time>
      </trkpt>
      <trkpt lat="48.43991" lon="2.69775">
        <ele>100</ele>
        <time>2012-03-31T13:44:38Z</time>
      </trkpt>
      <trkpt lat="48.43974" lon="2.69772">
        <ele>101</ele>
        <time>2012-03-31T13:44:44Z</time>
      </trkpt>
      <trkpt lat="48.4396" lon="2.69771">
        <ele>102</ele>
        <time>2012-03-31T13:44:52Z</time>
      </trkpt>
      <trkpt lat="48.43956" lon="2.6977">
        <ele>102</ele>
        <time>2012-03-31T13:44:55Z</time>
      </trkpt>
      <trkpt lat="48.43948" lon="2.69769">
        <ele>103</ele>
        <time>2012-03-31T13:45:01Z</time>
      </trkpt>
      <trkpt lat="48.43934" lon="2.69769">
        <ele>104</ele>
        <time>2012-03-31T13:45:10Z</time>
      </trkpt>
      <trkpt lat="48.43924" lon="2.69768">
        <ele>104</ele>
        <time>2012-03-31T13:45:17Z</time>
      </trkpt>
      <trkpt lat="48.43915" lon="2.69766">
        <ele>109</ele>
        <time>2012-03-31T13:45:24Z</time>
      </trkpt>
      <trkpt lat="48.43903" lon="2.69764">
        <ele>109</ele>
        <time>2012-03-31T13:45:33Z</time>
      </trkpt>
      <trkpt lat="48.43895" lon="2.69763">
        <ele>110</ele>
        <time>2012-03-31T13:45:40Z</time>
      </trkpt>
      <trkpt lat="48.43888" lon="2.69762">
        <ele>111</ele>
        <time>2012-03-31T13:45:46Z</time>
      </trkpt>
      <trkpt lat="48.43879" lon="2.69765">
        <ele>112</ele>
        <time>2012-03-31T13:45:54Z</time>
      </trkpt>
      <trkpt lat="48.43872" lon="2.6977">
        <ele>112</ele>
        <time>2012-03-31T13:46:00Z</time>
      </trkpt>
      <trkpt lat="48.43862" lon="2.69777">
        <ele>113</ele>
        <time>2012-03-31T13:46:08Z</time>
      </trkpt>
      <trkpt lat="48.43854" lon="2.69785">
        <ele>114</ele>
        <time>2012-03-31T13:46:17Z</time>
      </trkpt>
      <trkpt lat="48.43848" lon="2.6979">
        <ele>114</ele>
        <time>2012-03-31T13:46:23Z</time>
      </trkpt>
      <trkpt lat="48.43843" lon="2.69797">
        <ele>115</ele>
        <time>2012-03-31T13:46:30Z</time>
      </trkpt>
      <trkpt lat="48.4384" lon="2.69803">
        <ele>115</ele>
        <time>2012-03-31T13:46:37Z</time>
      </trkpt>
      <trkpt lat="48.43839" lon="2.69808">
        <ele>116</ele>
        <time>2012-03-31T13:47:25Z</time>
      </trkpt>
      <trkpt lat="48.43837" lon="2.69806">
        <ele>115</ele>
        <time>2012-03-31T13:48:32Z</time>
      </trkpt>
      <trkpt lat="48.43836" lon="2.69808">
        <ele>116</ele>
        <time>2012-03-31T13:52:41Z</time>
      </trkpt>
      <trkpt lat="48.43831" lon="2.69802">
        <ele>117</ele>
        <time>2012-03-31T13:53:41Z</time>
      </trkpt>
      <trkpt lat="48.43831" lon="2.69803">
        <ele>117</ele>
        <time>2012-03-31T13:53:56Z</time>
      </trkpt>
      <trkpt lat="48.43835" lon="2.69812">
        <ele>116</ele>
        <time>2012-03-31T13:54:02Z</time>
      </trkpt>
      <trkpt lat="48.43838" lon="2.69825">
        <ele>118</ele>
        <time>2012-03-31T13:54:08Z</time>
      </trkpt>
      <trkpt lat="48.43846" lon="2.69838">
        <ele>119</ele>
        <time>2012-03-31T13:54:16Z</time>
      </trkpt>
      <trkpt lat="48.43849" lon="2.69842">
        <ele>118</ele>
        <time>2012-03-31T13:54:18Z</time>
      </trkpt>
      <trkpt lat="48.43852" lon="2.69844">
        <ele>118</ele>
        <time>2012-03-31T13:54:20Z</time>
      </trkpt>
      <trkpt lat="48.4386" lon="2.69864">
        <ele>118</ele>
        <time>2012-03-31T13:54:25Z</time>
      </trkpt>
      <trkpt lat="48.43859" lon="2.69871">
        <ele>118</ele>
        <time>2012-03-31T13:54:27Z</time>
      </trkpt>
      <trkpt lat="48.43859" lon="2.69879">
        <ele>118</ele>
        <time>2012-03-31T13:54:31Z</time>
      </trkpt>
      <trkpt lat="48.4386" lon="2.69884">
        <ele>118</ele>
        <time>2012-03-31T13:54:37Z</time>
      </trkpt>
      <trkpt lat="48.43862" lon="2.69892">
        <ele>118</ele>
        <time>2012-03-31T13:54:45Z</time>
      </trkpt>
      <trkpt lat="48.43863" lon="2.69898">
        <ele>118</ele>
        <time>2012-03-31T13:54:52Z</time>
      </trkpt>
      <trkpt lat="48.43863" lon="2.69901">
        <ele>119</ele>
        <time>2012-03-31T13:54:58Z</time>
      </trkpt>
      <trkpt lat="48.43861" lon="2.69903">
        <ele>119</ele>
        <time>2012-03-31T13:55:05Z</time>
      </trkpt>
      <trkpt lat="48.43849" lon="2.69909">
        <ele>121</ele>
        <time>2012-03-31T13:55:11Z</time>
      </trkpt>
      <trkpt lat="48.43848" lon="2.69911">
        <ele>121</ele>
        <time>2012-03-31T13:55:12Z</time>
      </trkpt>
      <trkpt lat="48.43846" lon="2.69915">
        <ele>122</ele>
        <time>2012-03-31T13:55:14Z</time>
      </trkpt>
      <trkpt lat="48.43838" lon="2.69919">
        <ele>124</ele>
        <time>2012-03-31T13:55:19Z</time>
      </trkpt>
      <trkpt lat="48.43832" lon="2.69924">
        <ele>125</ele>
        <time>2012-03-31T13:55:22Z</time>
      </trkpt>
      <trkpt lat="48.43829" lon="2.69931">
        <ele>125</ele>
        <time>2012-03-31T13:55:28Z</time>
      </trkpt>
      <trkpt lat="48.43829" lon="2.69934">
        <ele>125</ele>
        <time>2012-03-31T13:55:30Z</time>
      </trkpt>
      <trkpt lat="48.43827" lon="2.69939">
        <ele>126</ele>
        <time>2012-03-31T13:55:35Z</time>
      </trkpt>
      <trkpt lat="48.43824" lon="2.69942">
        <ele>126</ele>
        <time>2012-03-31T13:55:41Z</time>
      </trkpt>
      <trkpt lat="48.43823" lon="2.69943">
        <ele>126</ele>
        <time>2012-03-31T13:55:43Z</time>
      </trkpt>
      <trkpt lat="48.43818" lon="2.69949">
        <ele>126</ele>
        <time>2012-03-31T13:55:49Z</time>
      </trkpt>
      <trkpt lat="48.43817" lon="2.69952">
        <ele>126</ele>
        <time>2012-03-31T13:55:54Z</time>
      </trkpt>
      <trkpt lat="48.43818" lon="2.69961">
        <ele>126</ele>
        <time>2012-03-31T13:56:01Z</time>
      </trkpt>
      <trkpt lat="48.43817" lon="2.69969">
        <ele>126</ele>
        <time>2012-03-31T13:56:07Z</time>
      </trkpt>
      <trkpt lat="48.43814" lon="2.6997">
        <ele>126</ele>
        <time>2012-03-31T13:56:13Z</time>
      </trkpt>
      <trkpt lat="48.43813" lon="2.69971">
        <ele>126</ele>
        <time>2012-03-31T13:56:17Z</time>
      </trkpt>
      <trkpt lat="48.43808" lon="2.69979">
        <ele>126</ele>
        <time>2012-03-31T13:56:24Z</time>
      </trkpt>
      <trkpt lat="48.43803" lon="2.69985">
        <ele>126</ele>
        <time>2012-03-31T13:56:29Z</time>
      </trkpt>
      <trkpt lat="48.43803" lon="2.69989">
        <ele>126</ele>
        <time>2012-03-31T13:56:34Z</time>
      </trkpt>
      <trkpt lat="48.43803" lon="2.69991">
        <ele>126</ele>
        <time>2012-03-31T13:56:35Z</time>
      </trkpt>
      <trkpt lat="48.43799" lon="2.69999">
        <ele>127</ele>
        <time>2012-03-31T13:56:42Z</time>
      </trkpt>
      <trkpt lat="48.43794" lon="2.70002">
        <ele>129</ele>
        <time>2012-03-31T13:56:50Z</time>
      </trkpt>
      <trkpt lat="48.43791" lon="2.70007">
        <ele>129</ele>
        <time>2012-03-31T13:56:59Z</time>
      </trkpt>
      <trkpt lat="48.43791" lon="2.70013">
        <ele>129</ele>
        <time>2012-03-31T13:57:06Z</time>
      </trkpt>
      <trkpt lat="48.43788" lon="2.70023">
        <ele>129</ele>
        <time>2012-03-31T13:57:14Z</time>
      </trkpt>
      <trkpt lat="48.43785" lon="2.70022">
        <ele>129</ele>
        <time>2012-03-31T13:57:20Z</time>
      </trkpt>
      <trkpt lat="48.43784" lon="2.7002">
        <ele>129</ele>
        <time>2012-03-31T13:57:28Z</time>
      </trkpt>
      <trkpt lat="48.43783" lon="2.70017">
        <ele>129</ele>
        <time>2012-03-31T13:57:35Z</time>
      </trkpt>
      <trkpt lat="48.43781" lon="2.70013">
        <ele>129</ele>
        <time>2012-03-31T13:57:41Z</time>
      </trkpt>
      <trkpt lat="48.43781" lon="2.7001">
        <ele>129</ele>
        <time>2012-03-31T13:57:54Z</time>
      </trkpt>
      <trkpt lat="48.43782" lon="2.70015">
        <ele>129</ele>
        <time>2012-03-31T13:58:06Z</time>
      </trkpt>
      <trkpt lat="48.43782" lon="2.70018">
        <ele>129</ele>
        <time>2012-03-31T13:58:12Z</time>
      </trkpt>
      <trkpt lat="48.4378" lon="2.70021">
        <ele>129</ele>
        <time>2012-03-31T13:58:17Z</time>
      </trkpt>
      <trkpt lat="48.43779" lon="2.70027">
        <ele>129</ele>
        <time>2012-03-31T13:58:24Z</time>
      </trkpt>
      <trkpt lat="48.43778" lon="2.70031">
        <ele>129</ele>
        <time>2012-03-31T13:58:28Z</time>
      </trkpt>
      <trkpt lat="48.43774" lon="2.70046">
        <ele>130</ele>
        <time>2012-03-31T13:58:34Z</time>
      </trkpt>
      <trkpt lat="48.43773" lon="2.70055">
        <ele>130</ele>
        <time>2012-03-31T13:58:36Z</time>
      </trkpt>
      <trkpt lat="48.43769" lon="2.70073">
        <ele>131</ele>
        <time>2012-03-31T13:58:40Z</time>
      </trkpt>
      <trkpt lat="48.43766" lon="2.70084">
        <ele>133</ele>
        <time>2012-03-31T13:58:44Z</time>
      </trkpt>
      <trkpt lat="48.43766" lon="2.70094">
        <ele>133</ele>
        <time>2012-03-31T13:58:46Z</time>
      </trkpt>
      <trkpt lat="48.43761" lon="2.70112">
        <ele>134</ele>
        <time>2012-03-31T13:58:51Z</time>
      </trkpt>
      <trkpt lat="48.43757" lon="2.70133">
        <ele>134</ele>
        <time>2012-03-31T13:58:57Z</time>
      </trkpt>
      <trkpt lat="48.43755" lon="2.70147">
        <ele>135</ele>
        <time>2012-03-31T13:59:00Z</time>
      </trkpt>
      <trkpt lat="48.43749" lon="2.70155">
        <ele>134</ele>
        <time>2012-03-31T13:59:06Z</time>
      </trkpt>
      <trkpt lat="48.43745" lon="2.70157">
        <ele>134</ele>
        <time>2012-03-31T13:59:10Z</time>
      </trkpt>
      <trkpt lat="48.4374" lon="2.70169">
        <ele>136</ele>
        <time>2012-03-31T13:59:15Z</time>
      </trkpt>
      <trkpt lat="48.43741" lon="2.70178">
        <ele>136</ele>
        <time>2012-03-31T13:59:18Z</time>
      </trkpt>
      <trkpt lat="48.43743" lon="2.70184">
        <ele>136</ele>
        <time>2012-03-31T13:59:24Z</time>
      </trkpt>
      <trkpt lat="48.43742" lon="2.70185">
        <ele>136</ele>
        <time>2012-03-31T13:59:35Z</time>
      </trkpt>
      <trkpt lat="48.43743" lon="2.70188">
        <ele>136</ele>
        <time>2012-03-31T13:59:39Z</time>
      </trkpt>
      <trkpt lat="48.43745" lon="2.70191">
        <ele>136</ele>
        <time>2012-03-31T13:59:42Z</time>
      </trkpt>
      <trkpt lat="48.4375" lon="2.70192">
        <ele>138</ele>
        <time>2012-03-31T13:59:48Z</time>
      </trkpt>
      <trkpt lat="48.43753" lon="2.70195">
        <ele>138</ele>
        <time>2012-03-31T13:59:51Z</time>
      </trkpt>
      <trkpt lat="48.43761" lon="2.70203">
        <ele>138</ele>
        <time>2012-03-31T13:59:56Z</time>
      </trkpt>
      <trkpt lat="48.43774" lon="2.70207">
        <ele>138</ele>
        <time>2012-03-31T14:00:01Z</time>
      </trkpt>
      <trkpt lat="48.43777" lon="2.70207">
        <ele>138</ele>
        <time>2012-03-31T14:00:02Z</time>
      </trkpt>
      <trkpt lat="48.43782" lon="2.70205">
        <ele>138</ele>
        <time>2012-03-31T14:00:04Z</time>
      </trkpt>
      <trkpt lat="48.43785" lon="2.70204">
        <ele>138</ele>
        <time>2012-03-31T14:00:09Z</time>
      </trkpt>
      <trkpt lat="48.43794" lon="2.70193">
        <ele>138</ele>
        <time>2012-03-31T14:00:13Z</time>
      </trkpt>
      <trkpt lat="48.43807" lon="2.70196">
        <ele>138</ele>
        <time>2012-03-31T14:00:17Z</time>
      </trkpt>
      <trkpt lat="48.43812" lon="2.70206">
        <ele>138</ele>
        <time>2012-03-31T14:00:21Z</time>
      </trkpt>
      <trkpt lat="48.43818" lon="2.70222">
        <ele>138</ele>
        <time>2012-03-31T14:00:26Z</time>
      </trkpt>
      <trkpt lat="48.43824" lon="2.70229">
        <ele>138</ele>
        <time>2012-03-31T14:00:31Z</time>
      </trkpt>
      <trkpt lat="48.43828" lon="2.70231">
        <ele>138</ele>
        <time>2012-03-31T14:00:38Z</time>
      </trkpt>
      <trkpt lat="48.43829" lon="2.70237">
        <ele>138</ele>
        <time>2012-03-31T14:00:44Z</time>
      </trkpt>
      <trkpt lat="48.43829" lon="2.70239">
        <ele>138</ele>
        <time>2012-03-31T14:01:18Z</time>
      </trkpt>
      <trkpt lat="48.43828" lon="2.70247">
        <ele>138</ele>
        <time>2012-03-31T14:01:24Z</time>
      </trkpt>
      <trkpt lat="48.43827" lon="2.70249">
        <ele>138</ele>
        <time>2012-03-31T14:01:25Z</time>
      </trkpt>
      <trkpt lat="48.43828" lon="2.70259">
        <ele>137</ele>
        <time>2012-03-31T14:01:32Z</time>
      </trkpt>
      <trkpt lat="48.43826" lon="2.70257">
        <ele>137</ele>
        <time>2012-03-31T14:01:41Z</time>
      </trkpt>
      <trkpt lat="48.43827" lon="2.7026">
        <ele>137</ele>
        <time>2012-03-31T14:01:43Z</time>
      </trkpt>
      <trkpt lat="48.43823" lon="2.70267">
        <ele>136</ele>
        <time>2012-03-31T14:01:47Z</time>
      </trkpt>
      <trkpt lat="48.4381" lon="2.70267">
        <ele>136</ele>
        <time>2012-03-31T14:01:52Z</time>
      </trkpt>
      <trkpt lat="48.43801" lon="2.70272">
        <ele>136</ele>
        <time>2012-03-31T14:01:55Z</time>
      </trkpt>
      <trkpt lat="48.43797" lon="2.70288">
        <ele>136</ele>
        <time>2012-03-31T14:02:00Z</time>
      </trkpt>
      <trkpt lat="48.43793" lon="2.70303">
        <ele>135</ele>
        <time>2012-03-31T14:02:04Z</time>
      </trkpt>
      <trkpt lat="48.43782" lon="2.70318">
        <ele>135</ele>
        <time>2012-03-31T14:02:09Z</time>
      </trkpt>
      <trkpt lat="48.43776" lon="2.70328">
        <ele>136</ele>
        <time>2012-03-31T14:02:13Z</time>
      </trkpt>
      <trkpt lat="48.43772" lon="2.70332">
        <ele>136</ele>
        <time>2012-03-31T14:02:16Z</time>
      </trkpt>
      <trkpt lat="48.43762" lon="2.70336">
        <ele>135</ele>
        <time>2012-03-31T14:02:22Z</time>
      </trkpt>
      <trkpt lat="48.43748" lon="2.70343">
        <ele>138</ele>
        <time>2012-03-31T14:02:26Z</time>
      </trkpt>
      <trkpt lat="48.43738" lon="2.70353">
        <ele>138</ele>
        <time>2012-03-31T14:02:30Z</time>
      </trkpt>
      <trkpt lat="48.43737" lon="2.70358">
        <ele>138</ele>
        <time>2012-03-31T14:02:33Z</time>
      </trkpt>
      <trkpt lat="48.4374" lon="2.70375">
        <ele>137</ele>
        <time>2012-03-31T14:02:38Z</time>
      </trkpt>
      <trkpt lat="48.43742" lon="2.70386">
        <ele>137</ele>
        <time>2012-03-31T14:02:41Z</time>
      </trkpt>
      <trkpt lat="48.43751" lon="2.70412">
        <ele>133</ele>
        <time>2012-03-31T14:02:46Z</time>
      </trkpt>
      <trkpt lat="48.43754" lon="2.70416">
        <ele>133</ele>
        <time>2012-03-31T14:02:47Z</time>
      </trkpt>
      <trkpt lat="48.4376" lon="2.70419">
        <ele>132</ele>
        <time>2012-03-31T14:02:52Z</time>
      </trkpt>
      <trkpt lat="48.4376" lon="2.70419">
        <ele>132</ele>
        <time>2012-03-31T14:02:53Z</time>
      </trkpt>
      <trkpt lat="48.43766" lon="2.70423">
        <ele>131</ele>
        <time>2012-03-31T14:02:57Z</time>
      </trkpt>
      <trkpt lat="48.4377" lon="2.70428">
        <ele>131</ele>
        <time>2012-03-31T14:03:00Z</time>
      </trkpt>
      <trkpt lat="48.43774" lon="2.70441">
        <ele>130</ele>
        <time>2012-03-31T14:03:04Z</time>
      </trkpt>
      <trkpt lat="48.43784" lon="2.7046">
        <ele>129</ele>
        <time>2012-03-31T14:03:10Z</time>
      </trkpt>
      <trkpt lat="48.43792" lon="2.70469">
        <ele>129</ele>
        <time>2012-03-31T14:03:14Z</time>
      </trkpt>
      <trkpt lat="48.43793" lon="2.70469">
        <ele>129</ele>
        <time>2012-03-31T14:03:15Z</time>
      </trkpt>
      <trkpt lat="48.43796" lon="2.70476">
        <ele>129</ele>
        <time>2012-03-31T14:03:21Z</time>
      </trkpt>
      <trkpt lat="48.43798" lon="2.70481">
        <ele>129</ele>
        <time>2012-03-31T14:03:28Z</time>
      </trkpt>
      <trkpt lat="48.43801" lon="2.70487">
        <ele>128</ele>
        <time>2012-03-31T14:03:36Z</time>
      </trkpt>
      <trkpt lat="48.43803" lon="2.70489">
        <ele>128</ele>
        <time>2012-03-31T14:03:44Z</time>
      </trkpt>
      <trkpt lat="48.43807" lon="2.70494">
        <ele>128</ele>
        <time>2012-03-31T14:04:09Z</time>
      </trkpt>
      <trkpt lat="48.4381" lon="2.705">
        <ele>127</ele>
        <time>2012-03-31T14:04:16Z</time>
      </trkpt>
      <trkpt lat="48.43811" lon="2.70505">
        <ele>129</ele>
        <time>2012-03-31T14:04:22Z</time>
      </trkpt>
      <trkpt lat="48.4381" lon="2.70512">
        <ele>129</ele>
        <time>2012-03-31T14:04:30Z</time>
      </trkpt>
      <trkpt lat="48.43809" lon="2.70514">
        <ele>129</ele>
        <time>2012-03-31T14:04:36Z</time>
      </trkpt>
      <trkpt lat="48.43808" lon="2.70523">
        <ele>130</ele>
        <time>2012-03-31T14:04:44Z</time>
      </trkpt>
      <trkpt lat="48.43807" lon="2.70529">
        <ele>130</ele>
        <time>2012-03-31T14:04:51Z</time>
      </trkpt>
      <trkpt lat="48.43807" lon="2.70534">
        <ele>130</ele>
        <time>2012-03-31T14:05:01Z</time>
      </trkpt>
      <trkpt lat="48.43805" lon="2.70541">
        <ele>130</ele>
        <time>2012-03-31T14:05:09Z</time>
      </trkpt>
      <trkpt lat="48.43801" lon="2.70547">
        <ele>130</ele>
        <time>2012-03-31T14:05:23Z</time>
      </trkpt>
      <trkpt lat="48.43797" lon="2.70555">
        <ele>131</ele>
        <time>2012-03-31T14:05:27Z</time>
      </trkpt>
      <trkpt lat="48.4379" lon="2.70561">
        <ele>131</ele>
        <time>2012-03-31T14:05:35Z</time>
      </trkpt>
      <trkpt lat="48.43785" lon="2.70572">
        <ele>132</ele>
        <time>2012-03-31T14:05:41Z</time>
      </trkpt>
      <trkpt lat="48.43783" lon="2.70573">
        <ele>132</ele>
        <time>2012-03-31T14:05:42Z</time>
      </trkpt>
      <trkpt lat="48.43776" lon="2.70586">
        <ele>133</ele>
        <time>2012-03-31T14:05:50Z</time>
      </trkpt>
      <trkpt lat="48.43773" lon="2.70591">
        <ele>133</ele>
        <time>2012-03-31T14:05:57Z</time>
      </trkpt>
      <trkpt lat="48.43773" lon="2.70595">
        <ele>133</ele>
        <time>2012-03-31T14:06:06Z</time>
      </trkpt>
      <trkpt lat="48.43776" lon="2.70598">
        <ele>132</ele>
        <time>2012-03-31T14:06:13Z</time>
      </trkpt>
      <trkpt lat="48.43776" lon="2.70597">
        <ele>132</ele>
        <time>2012-03-31T14:06:36Z</time>
      </trkpt>
      <trkpt lat="48.43776" lon="2.70598">
        <ele>132</ele>
        <time>2012-03-31T14:08:34Z</time>
      </trkpt>
      <trkpt lat="48.43776" lon="2.70597">
        <ele>132</ele>
        <time>2012-03-31T14:08:50Z</time>
      </trkpt>
      <trkpt lat="48.43774" lon="2.706">
        <ele>133</ele>
        <time>2012-03-31T14:09:11Z</time>
      </trkpt>
      <trkpt lat="48.43774" lon="2.70601">
        <ele>133</ele>
        <time>2012-03-31T14:09:32Z</time>
      </trkpt>
      <trkpt lat="48.43775" lon="2.70601">
        <ele>132</ele>
        <time>2012-03-31T14:10:09Z</time>
      </trkpt>
      <trkpt lat="48.43774" lon="2.706">
        <ele>133</ele>
        <time>2012-03-31T14:10:26Z</time>
      </trkpt>
      <trkpt lat="48.43775" lon="2.70597">
        <ele>133</ele>
        <time>2012-03-31T14:10:33Z</time>
      </trkpt>
      <trkpt lat="48.43772" lon="2.70588">
        <ele>134</ele>
        <time>2012-03-31T14:10:39Z</time>
      </trkpt>
      <trkpt lat="48.43763" lon="2.70576">
        <ele>135</ele>
        <time>2012-03-31T14:10:45Z</time>
      </trkpt>
      <trkpt lat="48.43755" lon="2.70574">
        <ele>136</ele>
        <time>2012-03-31T14:10:51Z</time>
      </trkpt>
      <trkpt lat="48.43753" lon="2.70575">
        <ele>137</ele>
        <time>2012-03-31T14:10:52Z</time>
      </trkpt>
      <trkpt lat="48.43742" lon="2.70572">
        <ele>140</ele>
        <time>2012-03-31T14:10:57Z</time>
      </trkpt>
      <trkpt lat="48.43727" lon="2.70576">
        <ele>140</ele>
        <time>2012-03-31T14:11:02Z</time>
      </trkpt>
      <trkpt lat="48.43718" lon="2.70568">
        <ele>141</ele>
        <time>2012-03-31T14:11:05Z</time>
      </trkpt>
      <trkpt lat="48.43711" lon="2.70557">
        <ele>141</ele>
        <time>2012-03-31T14:11:09Z</time>
      </trkpt>
      <trkpt lat="48.43709" lon="2.70548">
        <ele>141</ele>
        <time>2012-03-31T14:11:12Z</time>
      </trkpt>
      <trkpt lat="48.43703" lon="2.70534">
        <ele>141</ele>
        <time>2012-03-31T14:11:18Z</time>
      </trkpt>
      <trkpt lat="48.43699" lon="2.70521">
        <ele>141</ele>
        <time>2012-03-31T14:11:22Z</time>
      </trkpt>
      <trkpt lat="48.43699" lon="2.70521">
        <ele>141</ele>
        <time>2012-03-31T14:11:28Z</time>
      </trkpt>
      <trkpt lat="48.43699" lon="2.70522">
        <ele>141</ele>
        <time>2012-03-31T14:11:34Z</time>
      </trkpt>
      <trkpt lat="48.437" lon="2.70534">
        <ele>141</ele>
        <time>2012-03-31T14:11:41Z</time>
      </trkpt>
      <trkpt lat="48.43698" lon="2.70537">
        <ele>141</ele>
        <time>2012-03-31T14:11:46Z</time>
      </trkpt>
      <trkpt lat="48.43698" lon="2.70537">
        <ele>141</ele>
        <time>2012-03-31T14:11:49Z</time>
      </trkpt>
      <trkpt lat="48.43688" lon="2.70538">
        <ele>142</ele>
        <time>2012-03-31T14:11:54Z</time>
      </trkpt>
      <trkpt lat="48.43678" lon="2.70543">
        <ele>142</ele>
        <time>2012-03-31T14:11:59Z</time>
      </trkpt>
      <trkpt lat="48.43676" lon="2.70544">
        <ele>142</ele>
        <time>2012-03-31T14:12:00Z</time>
      </trkpt>
      <trkpt lat="48.43667" lon="2.7056">
        <ele>142</ele>
        <time>2012-03-31T14:12:06Z</time>
      </trkpt>
      <trkpt lat="48.43664" lon="2.70561">
        <ele>142</ele>
        <time>2012-03-31T14:12:07Z</time>
      </trkpt>
      <trkpt lat="48.4365" lon="2.70569">
        <ele>142</ele>
        <time>2012-03-31T14:12:13Z</time>
      </trkpt>
      <trkpt lat="48.43648" lon="2.70571">
        <ele>142</ele>
        <time>2012-03-31T14:12:14Z</time>
      </trkpt>
      <trkpt lat="48.43645" lon="2.70582">
        <ele>142</ele>
        <time>2012-03-31T14:12:19Z</time>
      </trkpt>
      <trkpt lat="48.43644" lon="2.70587">
        <ele>142</ele>
        <time>2012-03-31T14:12:24Z</time>
      </trkpt>
      <trkpt lat="48.43642" lon="2.70594">
        <ele>142</ele>
        <time>2012-03-31T14:12:27Z</time>
      </trkpt>
      <trkpt lat="48.43636" lon="2.70606">
        <ele>142</ele>
        <time>2012-03-31T14:12:32Z</time>
      </trkpt>
      <trkpt lat="48.43636" lon="2.70617">
        <ele>142</ele>
        <time>2012-03-31T14:12:36Z</time>
      </trkpt>
      <trkpt lat="48.43638" lon="2.70624">
        <ele>142</ele>
        <time>2012-03-31T14:12:40Z</time>
      </trkpt>
      <trkpt lat="48.4363" lon="2.70628">
        <ele>141</ele>
        <time>2012-03-31T14:12:44Z</time>
      </trkpt>
      <trkpt lat="48.4362" lon="2.7064">
        <ele>141</ele>
        <time>2012-03-31T14:12:49Z</time>
      </trkpt>
      <trkpt lat="48.43616" lon="2.70657">
        <ele>141</ele>
        <time>2012-03-31T14:12:54Z</time>
      </trkpt>
      <trkpt lat="48.43615" lon="2.70664">
        <ele>141</ele>
        <time>2012-03-31T14:12:56Z</time>
      </trkpt>
      <trkpt lat="48.43615" lon="2.70677">
        <ele>141</ele>
        <time>2012-03-31T14:13:01Z</time>
      </trkpt>
      <trkpt lat="48.43624" lon="2.7068">
        <ele>141</ele>
        <time>2012-03-31T14:13:06Z</time>
      </trkpt>
      <trkpt lat="48.43628" lon="2.70684">
        <ele>141</ele>
        <time>2012-03-31T14:13:08Z</time>
      </trkpt>
      <trkpt lat="48.43633" lon="2.70702">
        <ele>141</ele>
        <time>2012-03-31T14:13:13Z</time>
      </trkpt>
      <trkpt lat="48.43637" lon="2.70709">
        <ele>141</ele>
        <time>2012-03-31T14:13:15Z</time>
      </trkpt>
      <trkpt lat="48.43648" lon="2.70721">
        <ele>141</ele>
        <time>2012-03-31T14:13:20Z</time>
      </trkpt>
      <trkpt lat="48.43653" lon="2.7073">
        <ele>141</ele>
        <time>2012-03-31T14:13:24Z</time>
      </trkpt>
      <trkpt lat="48.43646" lon="2.70735">
        <ele>141</ele>
        <time>2012-03-31T14:13:27Z</time>
      </trkpt>
      <trkpt lat="48.4364" lon="2.70739">
        <ele>141</ele>
        <time>2012-03-31T14:13:29Z</time>
      </trkpt>
      <trkpt lat="48.43625" lon="2.70758">
        <ele>141</ele>
        <time>2012-03-31T14:13:36Z</time>
      </trkpt>
      <trkpt lat="48.43619" lon="2.70767">
        <ele>140</ele>
        <time>2012-03-31T14:13:39Z</time>
      </trkpt>
      <trkpt lat="48.43613" lon="2.7077">
        <ele>140</ele>
        <time>2012-03-31T14:13:41Z</time>
      </trkpt>
      <trkpt lat="48.43604" lon="2.7079">
        <ele>140</ele>
        <time>2012-03-31T14:13:46Z</time>
      </trkpt>
      <trkpt lat="48.43605" lon="2.70807">
        <ele>140</ele>
        <time>2012-03-31T14:13:51Z</time>
      </trkpt>
      <trkpt lat="48.43607" lon="2.70812">
        <ele>139</ele>
        <time>2012-03-31T14:13:55Z</time>
      </trkpt>
      <trkpt lat="48.43606" lon="2.70827">
        <ele>139</ele>
        <time>2012-03-31T14:13:59Z</time>
      </trkpt>
      <trkpt lat="48.43604" lon="2.70846">
        <ele>138</ele>
        <time>2012-03-31T14:14:04Z</time>
      </trkpt>
      <trkpt lat="48.43601" lon="2.70863">
        <ele>137</ele>
        <time>2012-03-31T14:14:10Z</time>
      </trkpt>
      <trkpt lat="48.43599" lon="2.70866">
        <ele>137</ele>
        <time>2012-03-31T14:14:11Z</time>
      </trkpt>
      <trkpt lat="48.43593" lon="2.70881">
        <ele>137</ele>
        <time>2012-03-31T14:14:16Z</time>
      </trkpt>
      <trkpt lat="48.43585" lon="2.70888">
        <ele>137</ele>
        <time>2012-03-31T14:14:20Z</time>
      </trkpt>
      <trkpt lat="48.43584" lon="2.70895">
        <ele>137</ele>
        <time>2012-03-31T14:14:22Z</time>
      </trkpt>
      <trkpt lat="48.43586" lon="2.70902">
        <ele>137</ele>
        <time>2012-03-31T14:14:25Z</time>
      </trkpt>
      <trkpt lat="48.43586" lon="2.70919">
        <ele>135</ele>
        <time>2012-03-31T14:14:31Z</time>
      </trkpt>
      <trkpt lat="48.43581" lon="2.7094">
        <ele>132</ele>
        <time>2012-03-31T14:14:37Z</time>
      </trkpt>
      <trkpt lat="48.43579" lon="2.70955">
        <ele>131</ele>
        <time>2012-03-31T14:14:41Z</time>
      </trkpt>
      <trkpt lat="48.4358" lon="2.70967">
        <ele>131</ele>
        <time>2012-03-31T14:14:45Z</time>
      </trkpt>
      <trkpt lat="48.4358" lon="2.70969">
        <ele>130</ele>
        <time>2012-03-31T14:14:46Z</time>
      </trkpt>
      <trkpt lat="48.43583" lon="2.70978">
        <ele>130</ele>
        <time>2012-03-31T14:14:50Z</time>
      </trkpt>
      <trkpt lat="48.43583" lon="2.70983">
        <ele>130</ele>
        <time>2012-03-31T14:14:56Z</time>
      </trkpt>
      <trkpt lat="48.43582" lon="2.70991">
        <ele>131</ele>
        <time>2012-03-31T14:15:10Z</time>
      </trkpt>
      <trkpt lat="48.43582" lon="2.70995">
        <ele>131</ele>
        <time>2012-03-31T14:15:15Z</time>
      </trkpt>
      <trkpt lat="48.43582" lon="2.70995">
        <ele>131</ele>
        <time>2012-03-31T14:15:24Z</time>
      </trkpt>
      <trkpt lat="48.43584" lon="2.70992">
        <ele>131</ele>
        <time>2012-03-31T14:15:30Z</time>
      </trkpt>
      <trkpt lat="48.43583" lon="2.71">
        <ele>131</ele>
        <time>2012-03-31T14:15:35Z</time>
      </trkpt>
      <trkpt lat="48.43581" lon="2.71007">
        <ele>129</ele>
        <time>2012-03-31T14:15:38Z</time>
      </trkpt>
      <trkpt lat="48.43575" lon="2.7102">
        <ele>127</ele>
        <time>2012-03-31T14:15:43Z</time>
      </trkpt>
      <trkpt lat="48.43568" lon="2.71019">
        <ele>127</ele>
        <time>2012-03-31T14:15:46Z</time>
      </trkpt>
      <trkpt lat="48.43566" lon="2.71018">
        <ele>127</ele>
        <time>2012-03-31T14:15:48Z</time>
      </trkpt>
      <trkpt lat="48.43559" lon="2.71019">
        <ele>126</ele>
        <time>2012-03-31T14:15:53Z</time>
      </trkpt>
      <trkpt lat="48.4355" lon="2.71021">
        <ele>126</ele>
        <time>2012-03-31T14:15:57Z</time>
      </trkpt>
      <trkpt lat="48.43541" lon="2.71011">
        <ele>126</ele>
        <time>2012-03-31T14:16:01Z</time>
      </trkpt>
      <trkpt lat="48.43531" lon="2.71003">
        <ele>125</ele>
        <time>2012-03-31T14:16:04Z</time>
      </trkpt>
      <trkpt lat="48.43521" lon="2.71014">
        <ele>125</ele>
        <time>2012-03-31T14:16:07Z</time>
      </trkpt>
      <trkpt lat="48.43506" lon="2.71029">
        <ele>124</ele>
        <time>2012-03-31T14:16:10Z</time>
      </trkpt>
      <trkpt lat="48.435" lon="2.71032">
        <ele>124</ele>
        <time>2012-03-31T14:16:11Z</time>
      </trkpt>
      <trkpt lat="48.43485" lon="2.7104">
        <ele>124</ele>
        <time>2012-03-31T14:16:14Z</time>
      </trkpt>
      <trkpt lat="48.43479" lon="2.71032">
        <ele>124</ele>
        <time>2012-03-31T14:16:18Z</time>
      </trkpt>
      <trkpt lat="48.43479" lon="2.71027">
        <ele>124</ele>
        <time>2012-03-31T14:16:23Z</time>
      </trkpt>
      <trkpt lat="48.43481" lon="2.71024">
        <ele>124</ele>
        <time>2012-03-31T14:17:04Z</time>
      </trkpt>
      <trkpt lat="48.43479" lon="2.71019">
        <ele>124</ele>
        <time>2012-03-31T14:18:41Z</time>
      </trkpt>
      <trkpt lat="48.43478" lon="2.71026">
        <ele>124</ele>
        <time>2012-03-31T14:19:49Z</time>
      </trkpt>
      <trkpt lat="48.43478" lon="2.71031">
        <ele>124</ele>
        <time>2012-03-31T14:21:15Z</time>
      </trkpt>
      <trkpt lat="48.43477" lon="2.7104">
        <ele>124</ele>
        <time>2012-03-31T14:21:21Z</time>
      </trkpt>
      <trkpt lat="48.43475" lon="2.71052">
        <ele>124</ele>
        <time>2012-03-31T14:21:26Z</time>
      </trkpt>
      <trkpt lat="48.43468" lon="2.71084">
        <ele>123</ele>
        <time>2012-03-31T14:21:35Z</time>
      </trkpt>
      <trkpt lat="48.43463" lon="2.71113">
        <ele>124</ele>
        <time>2012-03-31T14:21:41Z</time>
      </trkpt>
      <trkpt lat="48.43457" lon="2.71149">
        <ele>124</ele>
        <time>2012-03-31T14:21:48Z</time>
      </trkpt>
      <trkpt lat="48.43451" lon="2.71178">
        <ele>124</ele>
        <time>2012-03-31T14:21:54Z</time>
      </trkpt>
      <trkpt lat="48.43447" lon="2.71202">
        <ele>124</ele>
        <time>2012-03-31T14:21:59Z</time>
      </trkpt>
      <trkpt lat="48.43442" lon="2.7123">
        <ele>124</ele>
        <time>2012-03-31T14:22:05Z</time>
      </trkpt>
      <trkpt lat="48.43437" lon="2.71256">
        <ele>123</ele>
        <time>2012-03-31T14:22:11Z</time>
      </trkpt>
      <trkpt lat="48.43433" lon="2.71278">
        <ele>122</ele>
        <time>2012-03-31T14:22:16Z</time>
      </trkpt>
      <trkpt lat="48.43428" lon="2.71306">
        <ele>121</ele>
        <time>2012-03-31T14:22:22Z</time>
      </trkpt>
      <trkpt lat="48.43423" lon="2.71333">
        <ele>121</ele>
        <time>2012-03-31T14:22:27Z</time>
      </trkpt>
      <trkpt lat="48.43422" lon="2.71347">
        <ele>120</ele>
        <time>2012-03-31T14:22:31Z</time>
      </trkpt>
      <trkpt lat="48.43423" lon="2.71351">
        <ele>119</ele>
        <time>2012-03-31T14:22:34Z</time>
      </trkpt>
      <trkpt lat="48.43421" lon="2.71376">
        <ele>119</ele>
        <time>2012-03-31T14:22:41Z</time>
      </trkpt>
      <trkpt lat="48.43416" lon="2.714">
        <ele>121</ele>
        <time>2012-03-31T14:22:47Z</time>
      </trkpt>
      <trkpt lat="48.4341" lon="2.71436">
        <ele>120</ele>
        <time>2012-03-31T14:22:53Z</time>
      </trkpt>
      <trkpt lat="48.43408" lon="2.7145">
        <ele>120</ele>
        <time>2012-03-31T14:22:55Z</time>
      </trkpt>
      <trkpt lat="48.43406" lon="2.71478">
        <ele>119</ele>
        <time>2012-03-31T14:22:59Z</time>
      </trkpt>
      <trkpt lat="48.43399" lon="2.71527">
        <ele>117</ele>
        <time>2012-03-31T14:23:06Z</time>
      </trkpt>
      <trkpt lat="48.43393" lon="2.71573">
        <ele>117</ele>
        <time>2012-03-31T14:23:12Z</time>
      </trkpt>
      <trkpt lat="48.43388" lon="2.71612">
        <ele>116</ele>
        <time>2012-03-31T14:23:17Z</time>
      </trkpt>
      <trkpt lat="48.43383" lon="2.71647">
        <ele>116</ele>
        <time>2012-03-31T14:23:22Z</time>
      </trkpt>
      <trkpt lat="48.43378" lon="2.71685">
        <ele>115</ele>
        <time>2012-03-31T14:23:27Z</time>
      </trkpt>
      <trkpt lat="48.43371" lon="2.71735">
        <ele>115</ele>
        <time>2012-03-31T14:23:34Z</time>
      </trkpt>
      <trkpt lat="48.43365" lon="2.71777">
        <ele>115</ele>
        <time>2012-03-31T14:23:40Z</time>
      </trkpt>
      <trkpt lat="48.43359" lon="2.71821">
        <ele>115</ele>
        <time>2012-03-31T14:23:46Z</time>
      </trkpt>
      <trkpt lat="48.43353" lon="2.71861">
        <ele>115</ele>
        <time>2012-03-31T14:23:52Z</time>
      </trkpt>
      <trkpt lat="48.43348" lon="2.71899">
        <ele>116</ele>
        <time>2012-03-31T14:23:58Z</time>
      </trkpt>
      <trkpt lat="48.43342" lon="2.71945">
        <ele>117</ele>
        <time>2012-03-31T14:24:05Z</time>
      </trkpt>
      <trkpt lat="48.43335" lon="2.71989">
        <ele>120</ele>
        <time>2012-03-31T14:24:12Z</time>
      </trkpt>
      <trkpt lat="48.43332" lon="2.72008">
        <ele>122</ele>
        <time>2012-03-31T14:24:16Z</time>
      </trkpt>
      <trkpt lat="48.43328" lon="2.72033">
        <ele>122</ele>
        <time>2012-03-31T14:24:22Z</time>
      </trkpt>
      <trkpt lat="48.43324" lon="2.72067">
        <ele>122</ele>
        <time>2012-03-31T14:24:29Z</time>
      </trkpt>
      <trkpt lat="48.43319" lon="2.72099">
        <ele>122</ele>
        <time>2012-03-31T14:24:35Z</time>
      </trkpt>
      <trkpt lat="48.43314" lon="2.72124">
        <ele>122</ele>
        <time>2012-03-31T14:24:40Z</time>
      </trkpt>
      <trkpt lat="48.43303" lon="2.72156">
        <ele>122</ele>
        <time>2012-03-31T14:24:46Z</time>
      </trkpt>
      <trkpt lat="48.43293" lon="2.72188">
        <ele>124</ele>
        <time>2012-03-31T14:24:52Z</time>
      </trkpt>
      <trkpt lat="48.43279" lon="2.72231">
        <ele>125</ele>
        <time>2012-03-31T14:25:00Z</time>
      </trkpt>
      <trkpt lat="48.43269" lon="2.72266">
        <ele>126</ele>
        <time>2012-03-31T14:25:06Z</time>
      </trkpt>
      <trkpt lat="48.4326" lon="2.72295">
        <ele>126</ele>
        <time>2012-03-31T14:25:11Z</time>
      </trkpt>
      <trkpt lat="48.43245" lon="2.72346">
        <ele>126</ele>
        <time>2012-03-31T14:25:19Z</time>
      </trkpt>
      <trkpt lat="48.43243" lon="2.72352">
        <ele>126</ele>
        <time>2012-03-31T14:25:20Z</time>
      </trkpt>
      <trkpt lat="48.43229" lon="2.72396">
        <ele>125</ele>
        <time>2012-03-31T14:25:27Z</time>
      </trkpt>
      <trkpt lat="48.43218" lon="2.72431">
        <ele>123</ele>
        <time>2012-03-31T14:25:33Z</time>
      </trkpt>
      <trkpt lat="48.43217" lon="2.72436">
        <ele>123</ele>
        <time>2012-03-31T14:25:34Z</time>
      </trkpt>
      <trkpt lat="48.43202" lon="2.72482">
        <ele>122</ele>
        <time>2012-03-31T14:25:41Z</time>
      </trkpt>
      <trkpt lat="48.43187" lon="2.72531">
        <ele>119</ele>
        <time>2012-03-31T14:25:48Z</time>
      </trkpt>
      <trkpt lat="48.43183" lon="2.72556">
        <ele>119</ele>
        <time>2012-03-31T14:25:52Z</time>
      </trkpt>
      <trkpt lat="48.43183" lon="2.7256">
        <ele>118</ele>
        <time>2012-03-31T14:25:53Z</time>
      </trkpt>
      <trkpt lat="48.43188" lon="2.72559">
        <ele>118</ele>
        <time>2012-03-31T14:25:57Z</time>
      </trkpt>
      <trkpt lat="48.43193" lon="2.72552">
        <ele>119</ele>
        <time>2012-03-31T14:26:00Z</time>
      </trkpt>
      <trkpt lat="48.43204" lon="2.72536">
        <ele>119</ele>
        <time>2012-03-31T14:26:06Z</time>
      </trkpt>
      <trkpt lat="48.43217" lon="2.72518">
        <ele>119</ele>
        <time>2012-03-31T14:26:12Z</time>
      </trkpt>
      <trkpt lat="48.43227" lon="2.72501">
        <ele>119</ele>
        <time>2012-03-31T14:26:17Z</time>
      </trkpt>
      <trkpt lat="48.4324" lon="2.7248">
        <ele>121</ele>
        <time>2012-03-31T14:26:23Z</time>
      </trkpt>
      <trkpt lat="48.43262" lon="2.72453">
        <ele>122</ele>
        <time>2012-03-31T14:26:31Z</time>
      </trkpt>
      <trkpt lat="48.43284" lon="2.7244">
        <ele>123</ele>
        <time>2012-03-31T14:26:38Z</time>
      </trkpt>
      <trkpt lat="48.43301" lon="2.72442">
        <ele>123</ele>
        <time>2012-03-31T14:26:44Z</time>
      </trkpt>
      <trkpt lat="48.43316" lon="2.7245">
        <ele>123</ele>
        <time>2012-03-31T14:26:51Z</time>
      </trkpt>
      <trkpt lat="48.43327" lon="2.72468">
        <ele>123</ele>
        <time>2012-03-31T14:26:58Z</time>
      </trkpt>
      <trkpt lat="48.43337" lon="2.72488">
        <ele>125</ele>
        <time>2012-03-31T14:27:04Z</time>
      </trkpt>
      <trkpt lat="48.43344" lon="2.72512">
        <ele>125</ele>
        <time>2012-03-31T14:27:11Z</time>
      </trkpt>
      <trkpt lat="48.43348" lon="2.72538">
        <ele>125</ele>
        <time>2012-03-31T14:27:19Z</time>
      </trkpt>
      <trkpt lat="48.43351" lon="2.72565">
        <ele>125</ele>
        <time>2012-03-31T14:27:26Z</time>
      </trkpt>
      <trkpt lat="48.43352" lon="2.72584">
        <ele>123</ele>
        <time>2012-03-31T14:27:31Z</time>
      </trkpt>
      <trkpt lat="48.43354" lon="2.72606">
        <ele>123</ele>
        <time>2012-03-31T14:27:37Z</time>
      </trkpt>
      <trkpt lat="48.43358" lon="2.72638">
        <ele>123</ele>
        <time>2012-03-31T14:27:45Z</time>
      </trkpt>
      <trkpt lat="48.43367" lon="2.72656">
        <ele>123</ele>
        <time>2012-03-31T14:27:51Z</time>
      </trkpt>
      <trkpt lat="48.43379" lon="2.72659">
        <ele>124</ele>
        <time>2012-03-31T14:27:56Z</time>
      </trkpt>
      <trkpt lat="48.43394" lon="2.72645">
        <ele>125</ele>
        <time>2012-03-31T14:28:03Z</time>
      </trkpt>
      <trkpt lat="48.43402" lon="2.72619">
        <ele>125</ele>
        <time>2012-03-31T14:28:11Z</time>
      </trkpt>
      <trkpt lat="48.43401" lon="2.72608">
        <ele>125</ele>
        <time>2012-03-31T14:28:15Z</time>
      </trkpt>
      <trkpt lat="48.43402" lon="2.726">
        <ele>126</ele>
        <time>2012-03-31T14:28:22Z</time>
      </trkpt>
      <trkpt lat="48.434" lon="2.72601">
        <ele>126</ele>
        <time>2012-03-31T14:28:43Z</time>
      </trkpt>
      <trkpt lat="48.434" lon="2.72599">
        <ele>126</ele>
        <time>2012-03-31T14:28:49Z</time>
      </trkpt>
      <trkpt lat="48.43397" lon="2.72592">
        <ele>126</ele>
        <time>2012-03-31T14:28:53Z</time>
      </trkpt>
      <trkpt lat="48.43394" lon="2.72595">
        <ele>125</ele>
        <time>2012-03-31T14:28:57Z</time>
      </trkpt>
      <trkpt lat="48.43396" lon="2.72596">
        <ele>125</ele>
        <time>2012-03-31T14:28:58Z</time>
      </trkpt>
      <trkpt lat="48.43407" lon="2.72597">
        <ele>126</ele>
        <time>2012-03-31T14:29:04Z</time>
      </trkpt>
      <trkpt lat="48.43408" lon="2.72596">
        <ele>126</ele>
        <time>2012-03-31T14:29:05Z</time>
      </trkpt>
      <trkpt lat="48.43415" lon="2.72606">
        <ele>126</ele>
        <time>2012-03-31T14:29:10Z</time>
      </trkpt>
      <trkpt lat="48.43415" lon="2.72608">
        <ele>126</ele>
        <time>2012-03-31T14:29:11Z</time>
      </trkpt>
      <trkpt lat="48.43421" lon="2.72603">
        <ele>125</ele>
        <time>2012-03-31T14:29:15Z</time>
      </trkpt>
      <trkpt lat="48.4343" lon="2.72606">
        <ele>125</ele>
        <time>2012-03-31T14:29:18Z</time>
      </trkpt>
      <trkpt lat="48.43444" lon="2.72606">
        <ele>124</ele>
        <time>2012-03-31T14:29:21Z</time>
      </trkpt>
      <trkpt lat="48.43457" lon="2.72617">
        <ele>123</ele>
        <time>2012-03-31T14:29:24Z</time>
      </trkpt>
      <trkpt lat="48.43469" lon="2.72631">
        <ele>122</ele>
        <time>2012-03-31T14:29:27Z</time>
      </trkpt>
      <trkpt lat="48.43477" lon="2.72649">
        <ele>121</ele>
        <time>2012-03-31T14:29:30Z</time>
      </trkpt>
      <trkpt lat="48.43489" lon="2.72655">
        <ele>120</ele>
        <time>2012-03-31T14:29:33Z</time>
      </trkpt>
      <trkpt lat="48.43501" lon="2.72662">
        <ele>116</ele>
        <time>2012-03-31T14:29:36Z</time>
      </trkpt>
      <trkpt lat="48.43511" lon="2.72671">
        <ele>115</ele>
        <time>2012-03-31T14:29:39Z</time>
      </trkpt>
      <trkpt lat="48.43529" lon="2.72692">
        <ele>114</ele>
        <time>2012-03-31T14:29:44Z</time>
      </trkpt>
      <trkpt lat="48.43537" lon="2.72706">
        <ele>113</ele>
        <time>2012-03-31T14:29:48Z</time>
      </trkpt>
      <trkpt lat="48.43538" lon="2.72709">
        <ele>113</ele>
        <time>2012-03-31T14:29:49Z</time>
      </trkpt>
      <trkpt lat="48.43547" lon="2.72714">
        <ele>112</ele>
        <time>2012-03-31T14:29:54Z</time>
      </trkpt>
      <trkpt lat="48.43553" lon="2.72728">
        <ele>112</ele>
        <time>2012-03-31T14:29:58Z</time>
      </trkpt>
      <trkpt lat="48.43565" lon="2.72744">
        <ele>111</ele>
        <time>2012-03-31T14:30:04Z</time>
      </trkpt>
      <trkpt lat="48.43568" lon="2.72745">
        <ele>110</ele>
        <time>2012-03-31T14:30:05Z</time>
      </trkpt>
      <trkpt lat="48.4358" lon="2.72754">
        <ele>108</ele>
        <time>2012-03-31T14:30:08Z</time>
      </trkpt>
      <trkpt lat="48.43595" lon="2.72759">
        <ele>107</ele>
        <time>2012-03-31T14:30:12Z</time>
      </trkpt>
      <trkpt lat="48.43595" lon="2.72759">
        <ele>107</ele>
        <time>2012-03-31T14:30:18Z</time>
      </trkpt>
      <trkpt lat="48.43594" lon="2.72759">
        <ele>107</ele>
        <time>2012-03-31T14:30:43Z</time>
      </trkpt>
      <trkpt lat="48.43595" lon="2.72755">
        <ele>107</ele>
        <time>2012-03-31T14:31:26Z</time>
      </trkpt>
      <trkpt lat="48.43599" lon="2.72754">
        <ele>107</ele>
        <time>2012-03-31T14:31:31Z</time>
      </trkpt>
      <trkpt lat="48.43607" lon="2.72754">
        <ele>107</ele>
        <time>2012-03-31T14:31:39Z</time>
      </trkpt>
      <trkpt lat="48.4362" lon="2.72759">
        <ele>107</ele>
        <time>2012-03-31T14:31:44Z</time>
      </trkpt>
      <trkpt lat="48.43637" lon="2.72768">
        <ele>107</ele>
        <time>2012-03-31T14:31:49Z</time>
      </trkpt>
      <trkpt lat="48.43654" lon="2.72776">
        <ele>108</ele>
        <time>2012-03-31T14:31:55Z</time>
      </trkpt>
      <trkpt lat="48.43668" lon="2.72785">
        <ele>105</ele>
        <time>2012-03-31T14:32:02Z</time>
      </trkpt>
      <trkpt lat="48.43682" lon="2.72789">
        <ele>104</ele>
        <time>2012-03-31T14:32:09Z</time>
      </trkpt>
      <trkpt lat="48.43688" lon="2.72788">
        <ele>104</ele>
        <time>2012-03-31T14:32:12Z</time>
      </trkpt>
      <trkpt lat="48.43695" lon="2.72773">
        <ele>104</ele>
        <time>2012-03-31T14:32:18Z</time>
      </trkpt>
      <trkpt lat="48.43699" lon="2.72763">
        <ele>104</ele>
        <time>2012-03-31T14:32:23Z</time>
      </trkpt>
      <trkpt lat="48.43702" lon="2.72755">
        <ele>104</ele>
        <time>2012-03-31T14:32:27Z</time>
      </trkpt>
      <trkpt lat="48.43702" lon="2.72753">
        <ele>104</ele>
        <time>2012-03-31T14:32:28Z</time>
      </trkpt>
      <trkpt lat="48.43702" lon="2.72748">
        <ele>106</ele>
        <time>2012-03-31T14:32:31Z</time>
      </trkpt>
      <trkpt lat="48.43699" lon="2.72737">
        <ele>106</ele>
        <time>2012-03-31T14:32:36Z</time>
      </trkpt>
      <trkpt lat="48.437" lon="2.72727">
        <ele>106</ele>
        <time>2012-03-31T14:32:40Z</time>
      </trkpt>
      <trkpt lat="48.43702" lon="2.72724">
        <ele>106</ele>
        <time>2012-03-31T14:32:44Z</time>
      </trkpt>
      <trkpt lat="48.43703" lon="2.72716">
        <ele>106</ele>
        <time>2012-03-31T14:32:49Z</time>
      </trkpt>
      <trkpt lat="48.43706" lon="2.72713">
        <ele>106</ele>
        <time>2012-03-31T14:32:57Z</time>
      </trkpt>
      <trkpt lat="48.43708" lon="2.72707">
        <ele>106</ele>
        <time>2012-03-31T14:33:04Z</time>
      </trkpt>
      <trkpt lat="48.4371" lon="2.72704">
        <ele>106</ele>
        <time>2012-03-31T14:33:07Z</time>
      </trkpt>
      <trkpt lat="48.43711" lon="2.727">
        <ele>106</ele>
        <time>2012-03-31T14:33:09Z</time>
      </trkpt>
      <trkpt lat="48.43716" lon="2.72683">
        <ele>106</ele>
        <time>2012-03-31T14:33:13Z</time>
      </trkpt>
      <trkpt lat="48.43718" lon="2.72672">
        <ele>106</ele>
        <time>2012-03-31T14:33:17Z</time>
      </trkpt>
      <trkpt lat="48.43714" lon="2.72666">
        <ele>108</ele>
        <time>2012-03-31T14:33:21Z</time>
      </trkpt>
      <trkpt lat="48.43712" lon="2.7266">
        <ele>108</ele>
        <time>2012-03-31T14:33:23Z</time>
      </trkpt>
      <trkpt lat="48.43709" lon="2.72642">
        <ele>108</ele>
        <time>2012-03-31T14:33:28Z</time>
      </trkpt>
      <trkpt lat="48.43711" lon="2.72625">
        <ele>108</ele>
        <time>2012-03-31T14:33:33Z</time>
      </trkpt>
      <trkpt lat="48.43715" lon="2.72607">
        <ele>108</ele>
        <time>2012-03-31T14:33:39Z</time>
      </trkpt>
      <trkpt lat="48.4372" lon="2.72596">
        <ele>108</ele>
        <time>2012-03-31T14:33:45Z</time>
      </trkpt>
      <trkpt lat="48.4372" lon="2.72592">
        <ele>108</ele>
        <time>2012-03-31T14:33:52Z</time>
      </trkpt>
      <trkpt lat="48.43719" lon="2.7259">
        <ele>108</ele>
        <time>2012-03-31T14:34:04Z</time>
      </trkpt>
      <trkpt lat="48.43716" lon="2.72586">
        <ele>108</ele>
        <time>2012-03-31T14:34:07Z</time>
      </trkpt>
      <trkpt lat="48.43719" lon="2.72573">
        <ele>108</ele>
        <time>2012-03-31T14:34:13Z</time>
      </trkpt>
      <trkpt lat="48.4372" lon="2.72569">
        <ele>108</ele>
        <time>2012-03-31T14:34:16Z</time>
      </trkpt>
      <trkpt lat="48.43726" lon="2.72558">
        <ele>108</ele>
        <time>2012-03-31T14:34:21Z</time>
      </trkpt>
      <trkpt lat="48.43732" lon="2.72552">
        <ele>108</ele>
        <time>2012-03-31T14:34:24Z</time>
      </trkpt>
      <trkpt lat="48.43744" lon="2.72546">
        <ele>108</ele>
        <time>2012-03-31T14:34:28Z</time>
      </trkpt>
      <trkpt lat="48.43754" lon="2.72541">
        <ele>105</ele>
        <time>2012-03-31T14:34:32Z</time>
      </trkpt>
      <trkpt lat="48.43759" lon="2.72534">
        <ele>105</ele>
        <time>2012-03-31T14:34:35Z</time>
      </trkpt>
      <trkpt lat="48.43761" lon="2.72522">
        <ele>105</ele>
        <time>2012-03-31T14:34:39Z</time>
      </trkpt>
      <trkpt lat="48.43766" lon="2.72498">
        <ele>107</ele>
        <time>2012-03-31T14:34:45Z</time>
      </trkpt>
      <trkpt lat="48.43767" lon="2.72492">
        <ele>107</ele>
        <time>2012-03-31T14:34:46Z</time>
      </trkpt>
      <trkpt lat="48.43777" lon="2.72484">
        <ele>106</ele>
        <time>2012-03-31T14:34:50Z</time>
      </trkpt>
      <trkpt lat="48.4378" lon="2.72474">
        <ele>106</ele>
        <time>2012-03-31T14:34:54Z</time>
      </trkpt>
      <trkpt lat="48.43778" lon="2.72465">
        <ele>106</ele>
        <time>2012-03-31T14:34:58Z</time>
      </trkpt>
      <trkpt lat="48.43773" lon="2.7244">
        <ele>106</ele>
        <time>2012-03-31T14:35:04Z</time>
      </trkpt>
      <trkpt lat="48.43772" lon="2.72418">
        <ele>106</ele>
        <time>2012-03-31T14:35:09Z</time>
      </trkpt>
      <trkpt lat="48.4377" lon="2.72398">
        <ele>107</ele>
        <time>2012-03-31T14:35:13Z</time>
      </trkpt>
      <trkpt lat="48.4377" lon="2.72383">
        <ele>107</ele>
        <time>2012-03-31T14:35:16Z</time>
      </trkpt>
      <trkpt lat="48.4376" lon="2.72374">
        <ele>107</ele>
        <time>2012-03-31T14:35:21Z</time>
      </trkpt>
      <trkpt lat="48.43758" lon="2.72372">
        <ele>107</ele>
        <time>2012-03-31T14:35:22Z</time>
      </trkpt>
      <trkpt lat="48.43757" lon="2.72344">
        <ele>107</ele>
        <time>2012-03-31T14:35:28Z</time>
      </trkpt>
      <trkpt lat="48.43767" lon="2.72328">
        <ele>107</ele>
        <time>2012-03-31T14:35:31Z</time>
      </trkpt>
      <trkpt lat="48.43787" lon="2.72327">
        <ele>106</ele>
        <time>2012-03-31T14:35:37Z</time>
      </trkpt>
      <trkpt lat="48.43807" lon="2.72341">
        <ele>105</ele>
        <time>2012-03-31T14:35:42Z</time>
      </trkpt>
      <trkpt lat="48.43822" lon="2.72346">
        <ele>105</ele>
        <time>2012-03-31T14:35:45Z</time>
      </trkpt>
      <trkpt lat="48.4383" lon="2.7235">
        <ele>105</ele>
        <time>2012-03-31T14:35:47Z</time>
      </trkpt>
      <trkpt lat="48.43851" lon="2.72361">
        <ele>101</ele>
        <time>2012-03-31T14:35:52Z</time>
      </trkpt>
      <trkpt lat="48.43867" lon="2.72361">
        <ele>100</ele>
        <time>2012-03-31T14:35:56Z</time>
      </trkpt>
      <trkpt lat="48.43884" lon="2.7236">
        <ele>99</ele>
        <time>2012-03-31T14:36:00Z</time>
      </trkpt>
      <trkpt lat="48.43888" lon="2.72358">
        <ele>99</ele>
        <time>2012-03-31T14:36:01Z</time>
      </trkpt>
      <trkpt lat="48.43902" lon="2.72354">
        <ele>98</ele>
        <time>2012-03-31T14:36:05Z</time>
      </trkpt>
      <trkpt lat="48.43918" lon="2.72375">
        <ele>93</ele>
        <time>2012-03-31T14:36:10Z</time>
      </trkpt>
      <trkpt lat="48.43934" lon="2.72402">
        <ele>93</ele>
        <time>2012-03-31T14:36:15Z</time>
      </trkpt>
      <trkpt lat="48.43942" lon="2.72424">
        <ele>92</ele>
        <time>2012-03-31T14:36:19Z</time>
      </trkpt>
      <trkpt lat="48.43945" lon="2.72436">
        <ele>92</ele>
        <time>2012-03-31T14:36:21Z</time>
      </trkpt>
      <trkpt lat="48.43954" lon="2.72457">
        <ele>91</ele>
        <time>2012-03-31T14:36:24Z</time>
      </trkpt>
      <trkpt lat="48.43968" lon="2.72483">
        <ele>91</ele>
        <time>2012-03-31T14:36:29Z</time>
      </trkpt>
      <trkpt lat="48.43977" lon="2.72505">
        <ele>91</ele>
        <time>2012-03-31T14:36:33Z</time>
      </trkpt>
      <trkpt lat="48.43982" lon="2.72516">
        <ele>91</ele>
        <time>2012-03-31T14:36:35Z</time>
      </trkpt>
      <trkpt lat="48.43992" lon="2.72547">
        <ele>91</ele>
        <time>2012-03-31T14:36:40Z</time>
      </trkpt>
      <trkpt lat="48.43996" lon="2.72574">
        <ele>91</ele>
        <time>2012-03-31T14:36:45Z</time>
      </trkpt>
      <trkpt lat="48.43996" lon="2.72586">
        <ele>91</ele>
        <time>2012-03-31T14:36:47Z</time>
      </trkpt>
      <trkpt lat="48.44" lon="2.72604">
        <ele>93</ele>
        <time>2012-03-31T14:36:50Z</time>
      </trkpt>
      <trkpt lat="48.43997" lon="2.72629">
        <ele>93</ele>
        <time>2012-03-31T14:36:55Z</time>
      </trkpt>
      <trkpt lat="48.44001" lon="2.72643">
        <ele>93</ele>
        <time>2012-03-31T14:37:00Z</time>
      </trkpt>
      <trkpt lat="48.44009" lon="2.72642">
        <ele>93</ele>
        <time>2012-03-31T14:37:03Z</time>
      </trkpt>
      <trkpt lat="48.44012" lon="2.72639">
        <ele>94</ele>
        <time>2012-03-31T14:37:04Z</time>
      </trkpt>
      <trkpt lat="48.44037" lon="2.72594">
        <ele>94</ele>
        <time>2012-03-31T14:37:13Z</time>
      </trkpt>
      <trkpt lat="48.44067" lon="2.72534">
        <ele>92</ele>
        <time>2012-03-31T14:37:24Z</time>
      </trkpt>
      <trkpt lat="48.44093" lon="2.72479">
        <ele>90</ele>
        <time>2012-03-31T14:37:34Z</time>
      </trkpt>
      <trkpt lat="48.44122" lon="2.72417">
        <ele>90</ele>
        <time>2012-03-31T14:37:45Z</time>
      </trkpt>
      <trkpt lat="48.44151" lon="2.72358">
        <ele>90</ele>
        <time>2012-03-31T14:37:55Z</time>
      </trkpt>
      <trkpt lat="48.44193" lon="2.7227">
        <ele>90</ele>
        <time>2012-03-31T14:38:09Z</time>
      </trkpt>
      <trkpt lat="48.44238" lon="2.72176">
        <ele>88</ele>
        <time>2012-03-31T14:38:24Z</time>
      </trkpt>
      <trkpt lat="48.4427" lon="2.72108">
        <ele>88</ele>
        <time>2012-03-31T14:38:35Z</time>
      </trkpt>
      <trkpt lat="48.44302" lon="2.72041">
        <ele>90</ele>
        <time>2012-03-31T14:38:45Z</time>
      </trkpt>
      <trkpt lat="48.4433" lon="2.71982">
        <ele>92</ele>
        <time>2012-03-31T14:38:54Z</time>
      </trkpt>
      <trkpt lat="48.44363" lon="2.71911">
        <ele>93</ele>
        <time>2012-03-31T14:39:06Z</time>
      </trkpt>
      <trkpt lat="48.44364" lon="2.71878">
        <ele>93</ele>
        <time>2012-03-31T14:39:11Z</time>
      </trkpt>
      <trkpt lat="48.44359" lon="2.71851">
        <ele>93</ele>
        <time>2012-03-31T14:39:15Z</time>
      </trkpt>
      <trkpt lat="48.44358" lon="2.71821">
        <ele>92</ele>
        <time>2012-03-31T14:39:21Z</time>
      </trkpt>
      <trkpt lat="48.44358" lon="2.71811">
        <ele>92</ele>
        <time>2012-03-31T14:39:25Z</time>
      </trkpt>
      <trkpt lat="48.44355" lon="2.71801">
        <ele>92</ele>
        <time>2012-03-31T14:39:29Z</time>
      </trkpt>
      <trkpt lat="48.44354" lon="2.71801">
        <ele>92</ele>
        <time>2012-03-31T14:39:32Z</time>
      </trkpt>
    </trkseg>
  </trk>
</gpx>